<?xml version="1.0" encoding="UTF-8" standalone="no" ?>
<gpx xmlns="http://www.topografix.com/GPX/1/1" xmlns:xsi="http://www.w3.org/2001/XMLSchema-instance" xsi:schemaLocation="http://www.topografix.com/GPX/1/1 http://www.topografix.com/GPX/1/1/gpx.xsd" version="1.1" creator="VisuGPX - https://www.visugpx.com">
  <metadata>
    <name>MB. Sortie du 02/06/2019</name>
    <desc><![CDATA[Sortie VTT du dimanche 02 juin 2019]]></desc>
  </metadata>
  <trk>
    <name><![CDATA[Pornichet Cyclisme]]></name>
    <trkseg>
      <trkpt lat="47.2642" lon="-2.31555">
        <ele>10.3</ele>
        <time>2019-06-02T06:54:23.000Z</time>
      </trkpt>
      <trkpt lat="47.26419" lon="-2.31554">
        <ele>10.2</ele>
        <time>2019-06-02T06:54:26.000Z</time>
      </trkpt>
      <trkpt lat="47.26417" lon="-2.31555">
        <ele>-0.40000000596046</ele>
        <time>2019-06-02T06:54:34.000Z</time>
      </trkpt>
      <trkpt lat="47.26411" lon="-2.3156">
        <ele>-0.40000000596046</ele>
        <time>2019-06-02T06:54:36.000Z</time>
      </trkpt>
      <trkpt lat="47.26409" lon="-2.31564">
        <ele>-0.40000000596046</ele>
        <time>2019-06-02T06:54:37.000Z</time>
      </trkpt>
      <trkpt lat="47.26408" lon="-2.31591">
        <ele>-0.40000000596046</ele>
        <time>2019-06-02T06:54:42.000Z</time>
      </trkpt>
      <trkpt lat="47.26409" lon="-2.31624">
        <ele>-0.40000000596046</ele>
        <time>2019-06-02T06:54:47.000Z</time>
      </trkpt>
      <trkpt lat="47.26409" lon="-2.31631">
        <ele>-0.40000000596046</ele>
        <time>2019-06-02T06:54:48.000Z</time>
      </trkpt>
      <trkpt lat="47.26409" lon="-2.31638">
        <ele>-0.40000000596046</ele>
        <time>2019-06-02T06:54:49.000Z</time>
      </trkpt>
      <trkpt lat="47.26407" lon="-2.31661">
        <ele>-0.40000000596046</ele>
        <time>2019-06-02T06:54:53.000Z</time>
      </trkpt>
      <trkpt lat="47.26394" lon="-2.31672">
        <ele>-0.40000000596046</ele>
        <time>2019-06-02T06:54:57.000Z</time>
      </trkpt>
      <trkpt lat="47.2638" lon="-2.31678">
        <ele>-0.40000000596046</ele>
        <time>2019-06-02T06:55:00.000Z</time>
      </trkpt>
      <trkpt lat="47.26376" lon="-2.31681">
        <ele>-0.80000001192093</ele>
        <time>2019-06-02T06:55:01.000Z</time>
      </trkpt>
      <trkpt lat="47.26372" lon="-2.31684">
        <ele>-1.2000000476837</ele>
        <time>2019-06-02T06:55:02.000Z</time>
      </trkpt>
      <trkpt lat="47.26368" lon="-2.31687">
        <ele>-1.6000000238419</ele>
        <time>2019-06-02T06:55:03.000Z</time>
      </trkpt>
      <trkpt lat="47.26364" lon="-2.3169">
        <ele>-2</ele>
        <time>2019-06-02T06:55:04.000Z</time>
      </trkpt>
      <trkpt lat="47.26359" lon="-2.31693">
        <ele>-2.4000000953674</ele>
        <time>2019-06-02T06:55:05.000Z</time>
      </trkpt>
      <trkpt lat="47.26339" lon="-2.31704">
        <ele>-2.4000000953674</ele>
        <time>2019-06-02T06:55:09.000Z</time>
      </trkpt>
      <trkpt lat="47.26323" lon="-2.3171">
        <ele>-2.4000000953674</ele>
        <time>2019-06-02T06:55:12.000Z</time>
      </trkpt>
      <trkpt lat="47.26318" lon="-2.31712">
        <ele>-2.7999999523163</ele>
        <time>2019-06-02T06:55:13.000Z</time>
      </trkpt>
      <trkpt lat="47.26313" lon="-2.31715">
        <ele>-3.2000000476837</ele>
        <time>2019-06-02T06:55:14.000Z</time>
      </trkpt>
      <trkpt lat="47.26308" lon="-2.31717">
        <ele>-3.7999999523163</ele>
        <time>2019-06-02T06:55:15.000Z</time>
      </trkpt>
      <trkpt lat="47.26304" lon="-2.3172">
        <ele>-4.1999998092651</ele>
        <time>2019-06-02T06:55:16.000Z</time>
      </trkpt>
      <trkpt lat="47.26302" lon="-2.31723">
        <ele>-4.5999999046326</ele>
        <time>2019-06-02T06:55:17.000Z</time>
      </trkpt>
      <trkpt lat="47.26302" lon="-2.31726">
        <ele>-4.5999999046326</ele>
        <time>2019-06-02T06:55:18.000Z</time>
      </trkpt>
      <trkpt lat="47.26302" lon="-2.31749">
        <ele>-4.5999999046326</ele>
        <time>2019-06-02T06:55:23.000Z</time>
      </trkpt>
      <trkpt lat="47.26304" lon="-2.31788">
        <ele>-4.5999999046326</ele>
        <time>2019-06-02T06:55:29.000Z</time>
      </trkpt>
      <trkpt lat="47.263" lon="-2.31832">
        <ele>-4.5999999046326</ele>
        <time>2019-06-02T06:55:35.000Z</time>
      </trkpt>
      <trkpt lat="47.26297" lon="-2.31866">
        <ele>-4.5999999046326</ele>
        <time>2019-06-02T06:55:40.000Z</time>
      </trkpt>
      <trkpt lat="47.26295" lon="-2.31871">
        <ele>-4.5999999046326</ele>
        <time>2019-06-02T06:55:41.000Z</time>
      </trkpt>
      <trkpt lat="47.26282" lon="-2.31884">
        <ele>-4.5999999046326</ele>
        <time>2019-06-02T06:55:45.000Z</time>
      </trkpt>
      <trkpt lat="47.26279" lon="-2.31888">
        <ele>-4.5999999046326</ele>
        <time>2019-06-02T06:55:46.000Z</time>
      </trkpt>
      <trkpt lat="47.26273" lon="-2.319">
        <ele>-4.5999999046326</ele>
        <time>2019-06-02T06:55:48.000Z</time>
      </trkpt>
      <trkpt lat="47.26265" lon="-2.31919">
        <ele>-4.5999999046326</ele>
        <time>2019-06-02T06:55:51.000Z</time>
      </trkpt>
      <trkpt lat="47.26259" lon="-2.31935">
        <ele>-5</ele>
        <time>2019-06-02T06:55:54.000Z</time>
      </trkpt>
      <trkpt lat="47.26256" lon="-2.3194">
        <ele>-5.4000000953674</ele>
        <time>2019-06-02T06:55:55.000Z</time>
      </trkpt>
      <trkpt lat="47.26253" lon="-2.31946">
        <ele>-5.8000001907349</ele>
        <time>2019-06-02T06:55:56.000Z</time>
      </trkpt>
      <trkpt lat="47.26251" lon="-2.31952">
        <ele>-6.1999998092651</ele>
        <time>2019-06-02T06:55:57.000Z</time>
      </trkpt>
      <trkpt lat="47.26249" lon="-2.31957">
        <ele>-6.5999999046326</ele>
        <time>2019-06-02T06:55:58.000Z</time>
      </trkpt>
      <trkpt lat="47.26242" lon="-2.31965">
        <ele>-6.5999999046326</ele>
        <time>2019-06-02T06:56:00.000Z</time>
      </trkpt>
      <trkpt lat="47.26237" lon="-2.31969">
        <ele>-6.5999999046326</ele>
        <time>2019-06-02T06:56:02.000Z</time>
      </trkpt>
      <trkpt lat="47.26231" lon="-2.31977">
        <ele>-6.5999999046326</ele>
        <time>2019-06-02T06:56:04.000Z</time>
      </trkpt>
      <trkpt lat="47.26217" lon="-2.31998">
        <ele>-6.5999999046326</ele>
        <time>2019-06-02T06:56:10.000Z</time>
      </trkpt>
      <trkpt lat="47.26206" lon="-2.3201">
        <ele>-6.5999999046326</ele>
        <time>2019-06-02T06:56:14.000Z</time>
      </trkpt>
      <trkpt lat="47.26199" lon="-2.32019">
        <ele>-6.5999999046326</ele>
        <time>2019-06-02T06:56:18.000Z</time>
      </trkpt>
      <trkpt lat="47.26192" lon="-2.32019">
        <ele>-6.5999999046326</ele>
        <time>2019-06-02T06:56:21.000Z</time>
      </trkpt>
      <trkpt lat="47.26186" lon="-2.3202">
        <ele>-6.5999999046326</ele>
        <time>2019-06-02T06:56:23.000Z</time>
      </trkpt>
      <trkpt lat="47.26165" lon="-2.32033">
        <ele>-6.5999999046326</ele>
        <time>2019-06-02T06:56:29.000Z</time>
      </trkpt>
      <trkpt lat="47.26162" lon="-2.32038">
        <ele>-6.5999999046326</ele>
        <time>2019-06-02T06:56:30.000Z</time>
      </trkpt>
      <trkpt lat="47.26155" lon="-2.32055">
        <ele>-6.5999999046326</ele>
        <time>2019-06-02T06:56:33.000Z</time>
      </trkpt>
      <trkpt lat="47.26141" lon="-2.32098">
        <ele>-6.5999999046326</ele>
        <time>2019-06-02T06:56:40.000Z</time>
      </trkpt>
      <trkpt lat="47.26135" lon="-2.32115">
        <ele>-6.5999999046326</ele>
        <time>2019-06-02T06:56:43.000Z</time>
      </trkpt>
      <trkpt lat="47.26129" lon="-2.32133">
        <ele>-6.5999999046326</ele>
        <time>2019-06-02T06:56:46.000Z</time>
      </trkpt>
      <trkpt lat="47.26116" lon="-2.32167">
        <ele>-6.5999999046326</ele>
        <time>2019-06-02T06:56:52.000Z</time>
      </trkpt>
      <trkpt lat="47.26109" lon="-2.32183">
        <ele>-6.5999999046326</ele>
        <time>2019-06-02T06:56:55.000Z</time>
      </trkpt>
      <trkpt lat="47.261" lon="-2.32198">
        <ele>-6.5999999046326</ele>
        <time>2019-06-02T06:56:58.000Z</time>
      </trkpt>
      <trkpt lat="47.26079" lon="-2.32234">
        <ele>-6.5999999046326</ele>
        <time>2019-06-02T06:57:05.000Z</time>
      </trkpt>
      <trkpt lat="47.26065" lon="-2.32251">
        <ele>-6.5999999046326</ele>
        <time>2019-06-02T06:57:09.000Z</time>
      </trkpt>
      <trkpt lat="47.26058" lon="-2.32259">
        <ele>-6.5999999046326</ele>
        <time>2019-06-02T06:57:11.000Z</time>
      </trkpt>
      <trkpt lat="47.26037" lon="-2.32284">
        <ele>-6.5999999046326</ele>
        <time>2019-06-02T06:57:17.000Z</time>
      </trkpt>
      <trkpt lat="47.2603" lon="-2.32293">
        <ele>-6.5999999046326</ele>
        <time>2019-06-02T06:57:19.000Z</time>
      </trkpt>
      <trkpt lat="47.26016" lon="-2.32309">
        <ele>-6.5999999046326</ele>
        <time>2019-06-02T06:57:23.000Z</time>
      </trkpt>
      <trkpt lat="47.25992" lon="-2.32341">
        <ele>-6.5999999046326</ele>
        <time>2019-06-02T06:57:30.000Z</time>
      </trkpt>
      <trkpt lat="47.25964" lon="-2.32375">
        <ele>-6.5999999046326</ele>
        <time>2019-06-02T06:57:38.000Z</time>
      </trkpt>
      <trkpt lat="47.25938" lon="-2.32411">
        <ele>-6.5999999046326</ele>
        <time>2019-06-02T06:57:46.000Z</time>
      </trkpt>
      <trkpt lat="47.25919" lon="-2.32437">
        <ele>-6.5999999046326</ele>
        <time>2019-06-02T06:57:52.000Z</time>
      </trkpt>
      <trkpt lat="47.25913" lon="-2.32445">
        <ele>-6.5999999046326</ele>
        <time>2019-06-02T06:57:54.000Z</time>
      </trkpt>
      <trkpt lat="47.25894" lon="-2.32468">
        <ele>-6.5999999046326</ele>
        <time>2019-06-02T06:58:00.000Z</time>
      </trkpt>
      <trkpt lat="47.25887" lon="-2.32473">
        <ele>-6.5999999046326</ele>
        <time>2019-06-02T06:58:02.000Z</time>
      </trkpt>
      <trkpt lat="47.25869" lon="-2.32477">
        <ele>-6.5999999046326</ele>
        <time>2019-06-02T06:58:06.000Z</time>
      </trkpt>
      <trkpt lat="47.25864" lon="-2.32477">
        <ele>-5.8000001907349</ele>
        <time>2019-06-02T06:58:07.000Z</time>
      </trkpt>
      <trkpt lat="47.2586" lon="-2.32478">
        <ele>-5.4000000953674</ele>
        <time>2019-06-02T06:58:08.000Z</time>
      </trkpt>
      <trkpt lat="47.25855" lon="-2.32478">
        <ele>-5</ele>
        <time>2019-06-02T06:58:09.000Z</time>
      </trkpt>
      <trkpt lat="47.25851" lon="-2.32477">
        <ele>-4.5999999046326</ele>
        <time>2019-06-02T06:58:10.000Z</time>
      </trkpt>
      <trkpt lat="47.25842" lon="-2.32476">
        <ele>-4.5999999046326</ele>
        <time>2019-06-02T06:58:12.000Z</time>
      </trkpt>
      <trkpt lat="47.25838" lon="-2.32474">
        <ele>-4.5999999046326</ele>
        <time>2019-06-02T06:58:13.000Z</time>
      </trkpt>
      <trkpt lat="47.25804" lon="-2.3246">
        <ele>-4.5999999046326</ele>
        <time>2019-06-02T06:58:21.000Z</time>
      </trkpt>
      <trkpt lat="47.25789" lon="-2.32463">
        <ele>-4.5999999046326</ele>
        <time>2019-06-02T06:58:25.000Z</time>
      </trkpt>
      <trkpt lat="47.25778" lon="-2.32454">
        <ele>-4.5999999046326</ele>
        <time>2019-06-02T06:58:28.000Z</time>
      </trkpt>
      <trkpt lat="47.2577" lon="-2.32438">
        <ele>-4.5999999046326</ele>
        <time>2019-06-02T06:58:31.000Z</time>
      </trkpt>
      <trkpt lat="47.25767" lon="-2.32433">
        <ele>-4.5999999046326</ele>
        <time>2019-06-02T06:58:32.000Z</time>
      </trkpt>
      <trkpt lat="47.25763" lon="-2.3243">
        <ele>-4.5999999046326</ele>
        <time>2019-06-02T06:58:33.000Z</time>
      </trkpt>
      <trkpt lat="47.2575" lon="-2.32428">
        <ele>-4.5999999046326</ele>
        <time>2019-06-02T06:58:36.000Z</time>
      </trkpt>
      <trkpt lat="47.25745" lon="-2.32428">
        <ele>-4.5999999046326</ele>
        <time>2019-06-02T06:58:37.000Z</time>
      </trkpt>
      <trkpt lat="47.2574" lon="-2.32427">
        <ele>-4.5999999046326</ele>
        <time>2019-06-02T06:58:38.000Z</time>
      </trkpt>
      <trkpt lat="47.25716" lon="-2.32424">
        <ele>-4.5999999046326</ele>
        <time>2019-06-02T06:58:43.000Z</time>
      </trkpt>
      <trkpt lat="47.25676" lon="-2.3242">
        <ele>-4.5999999046326</ele>
        <time>2019-06-02T06:58:52.000Z</time>
      </trkpt>
      <trkpt lat="47.25662" lon="-2.32423">
        <ele>-4.5999999046326</ele>
        <time>2019-06-02T06:58:56.000Z</time>
      </trkpt>
      <trkpt lat="47.25659" lon="-2.32437">
        <ele>-4.5999999046326</ele>
        <time>2019-06-02T06:58:59.000Z</time>
      </trkpt>
      <trkpt lat="47.25665" lon="-2.3246">
        <ele>-4.5999999046326</ele>
        <time>2019-06-02T06:59:03.000Z</time>
      </trkpt>
      <trkpt lat="47.25667" lon="-2.32466">
        <ele>-4.5999999046326</ele>
        <time>2019-06-02T06:59:04.000Z</time>
      </trkpt>
      <trkpt lat="47.25678" lon="-2.32501">
        <ele>-4.1999998092651</ele>
        <time>2019-06-02T06:59:10.000Z</time>
      </trkpt>
      <trkpt lat="47.2568" lon="-2.32506">
        <ele>-3.7999999523163</ele>
        <time>2019-06-02T06:59:11.000Z</time>
      </trkpt>
      <trkpt lat="47.25682" lon="-2.32511">
        <ele>-3.4000000953674</ele>
        <time>2019-06-02T06:59:12.000Z</time>
      </trkpt>
      <trkpt lat="47.25683" lon="-2.32517">
        <ele>-3</ele>
        <time>2019-06-02T06:59:13.000Z</time>
      </trkpt>
      <trkpt lat="47.25685" lon="-2.32523">
        <ele>-2.5999999046326</ele>
        <time>2019-06-02T06:59:14.000Z</time>
      </trkpt>
      <trkpt lat="47.25689" lon="-2.32534">
        <ele>-2.5999999046326</ele>
        <time>2019-06-02T06:59:16.000Z</time>
      </trkpt>
      <trkpt lat="47.25698" lon="-2.32563">
        <ele>-2.5999999046326</ele>
        <time>2019-06-02T06:59:22.000Z</time>
      </trkpt>
      <trkpt lat="47.25702" lon="-2.32573">
        <ele>-2.2000000476837</ele>
        <time>2019-06-02T06:59:24.000Z</time>
      </trkpt>
      <trkpt lat="47.25703" lon="-2.32578">
        <ele>-1.7999999523163</ele>
        <time>2019-06-02T06:59:25.000Z</time>
      </trkpt>
      <trkpt lat="47.25705" lon="-2.32584">
        <ele>-1.2000000476837</ele>
        <time>2019-06-02T06:59:26.000Z</time>
      </trkpt>
      <trkpt lat="47.25706" lon="-2.32589">
        <ele>-0.80000001192093</ele>
        <time>2019-06-02T06:59:27.000Z</time>
      </trkpt>
      <trkpt lat="47.25707" lon="-2.32595">
        <ele>-0.40000000596046</ele>
        <time>2019-06-02T06:59:28.000Z</time>
      </trkpt>
      <trkpt lat="47.2571" lon="-2.32607">
        <ele>-0.40000000596046</ele>
        <time>2019-06-02T06:59:30.000Z</time>
      </trkpt>
      <trkpt lat="47.25708" lon="-2.32618">
        <ele>-0.40000000596046</ele>
        <time>2019-06-02T06:59:32.000Z</time>
      </trkpt>
      <trkpt lat="47.25705" lon="-2.32623">
        <ele>-0.40000000596046</ele>
        <time>2019-06-02T06:59:33.000Z</time>
      </trkpt>
      <trkpt lat="47.2569" lon="-2.32631">
        <ele>10.2</ele>
        <time>2019-06-02T06:59:37.000Z</time>
      </trkpt>
      <trkpt lat="47.25686" lon="-2.32633">
        <ele>0.40000000596046</ele>
        <time>2019-06-02T06:59:38.000Z</time>
      </trkpt>
      <trkpt lat="47.25682" lon="-2.32634">
        <ele>0.80000001192093</ele>
        <time>2019-06-02T06:59:39.000Z</time>
      </trkpt>
      <trkpt lat="47.25679" lon="-2.32637">
        <ele>1.2000000476837</ele>
        <time>2019-06-02T06:59:40.000Z</time>
      </trkpt>
      <trkpt lat="47.25675" lon="-2.32639">
        <ele>1.6000000238419</ele>
        <time>2019-06-02T06:59:41.000Z</time>
      </trkpt>
      <trkpt lat="47.25664" lon="-2.32644">
        <ele>1.6000000238419</ele>
        <time>2019-06-02T06:59:44.000Z</time>
      </trkpt>
      <trkpt lat="47.25637" lon="-2.32655">
        <ele>2</ele>
        <time>2019-06-02T06:59:51.000Z</time>
      </trkpt>
      <trkpt lat="47.25633" lon="-2.32657">
        <ele>2.4000000953674</ele>
        <time>2019-06-02T06:59:52.000Z</time>
      </trkpt>
      <trkpt lat="47.25629" lon="-2.32659">
        <ele>2.7999999523163</ele>
        <time>2019-06-02T06:59:53.000Z</time>
      </trkpt>
      <trkpt lat="47.25625" lon="-2.3266">
        <ele>3.2000000476837</ele>
        <time>2019-06-02T06:59:54.000Z</time>
      </trkpt>
      <trkpt lat="47.25621" lon="-2.32662">
        <ele>3.5999999046326</ele>
        <time>2019-06-02T06:59:55.000Z</time>
      </trkpt>
      <trkpt lat="47.25602" lon="-2.32669">
        <ele>3.5999999046326</ele>
        <time>2019-06-02T07:00:00.000Z</time>
      </trkpt>
      <trkpt lat="47.25573" lon="-2.3268">
        <ele>3.5999999046326</ele>
        <time>2019-06-02T07:00:07.000Z</time>
      </trkpt>
      <trkpt lat="47.25532" lon="-2.32698">
        <ele>3.5999999046326</ele>
        <time>2019-06-02T07:00:17.000Z</time>
      </trkpt>
      <trkpt lat="47.25518" lon="-2.32702">
        <ele>3.5999999046326</ele>
        <time>2019-06-02T07:00:20.000Z</time>
      </trkpt>
      <trkpt lat="47.25501" lon="-2.32703">
        <ele>3.5999999046326</ele>
        <time>2019-06-02T07:00:24.000Z</time>
      </trkpt>
      <trkpt lat="47.25483" lon="-2.32707">
        <ele>3.5999999046326</ele>
        <time>2019-06-02T07:00:28.000Z</time>
      </trkpt>
      <trkpt lat="47.25476" lon="-2.32714">
        <ele>3.5999999046326</ele>
        <time>2019-06-02T07:00:30.000Z</time>
      </trkpt>
      <trkpt lat="47.25453" lon="-2.32746">
        <ele>3.5999999046326</ele>
        <time>2019-06-02T07:00:37.000Z</time>
      </trkpt>
      <trkpt lat="47.25437" lon="-2.3277">
        <ele>3.5999999046326</ele>
        <time>2019-06-02T07:00:42.000Z</time>
      </trkpt>
      <trkpt lat="47.25434" lon="-2.32781">
        <ele>3.5999999046326</ele>
        <time>2019-06-02T07:00:44.000Z</time>
      </trkpt>
      <trkpt lat="47.2542" lon="-2.32801">
        <ele>3.5999999046326</ele>
        <time>2019-06-02T07:00:48.000Z</time>
      </trkpt>
      <trkpt lat="47.25416" lon="-2.32807">
        <ele>3.5999999046326</ele>
        <time>2019-06-02T07:00:49.000Z</time>
      </trkpt>
      <trkpt lat="47.25394" lon="-2.32838">
        <ele>3.5999999046326</ele>
        <time>2019-06-02T07:00:55.000Z</time>
      </trkpt>
      <trkpt lat="47.25367" lon="-2.32868">
        <ele>3.5999999046326</ele>
        <time>2019-06-02T07:01:02.000Z</time>
      </trkpt>
      <trkpt lat="47.25335" lon="-2.32898">
        <ele>3.5999999046326</ele>
        <time>2019-06-02T07:01:10.000Z</time>
      </trkpt>
      <trkpt lat="47.25327" lon="-2.32906">
        <ele>3.5999999046326</ele>
        <time>2019-06-02T07:01:12.000Z</time>
      </trkpt>
      <trkpt lat="47.25319" lon="-2.32914">
        <ele>3.5999999046326</ele>
        <time>2019-06-02T07:01:14.000Z</time>
      </trkpt>
      <trkpt lat="47.25312" lon="-2.32923">
        <ele>3.5999999046326</ele>
        <time>2019-06-02T07:01:16.000Z</time>
      </trkpt>
      <trkpt lat="47.25309" lon="-2.32942">
        <ele>3.5999999046326</ele>
        <time>2019-06-02T07:01:19.000Z</time>
      </trkpt>
      <trkpt lat="47.25314" lon="-2.32961">
        <ele>3.2000000476837</ele>
        <time>2019-06-02T07:01:22.000Z</time>
      </trkpt>
      <trkpt lat="47.25317" lon="-2.32967">
        <ele>2.7999999523163</ele>
        <time>2019-06-02T07:01:23.000Z</time>
      </trkpt>
      <trkpt lat="47.25319" lon="-2.32974">
        <ele>2.4000000953674</ele>
        <time>2019-06-02T07:01:24.000Z</time>
      </trkpt>
      <trkpt lat="47.25321" lon="-2.3298">
        <ele>1.6000000238419</ele>
        <time>2019-06-02T07:01:25.000Z</time>
      </trkpt>
      <trkpt lat="47.25324" lon="-2.32987">
        <ele>1.6000000238419</ele>
        <time>2019-06-02T07:01:26.000Z</time>
      </trkpt>
      <trkpt lat="47.25329" lon="-2.32999">
        <ele>1.6000000238419</ele>
        <time>2019-06-02T07:01:28.000Z</time>
      </trkpt>
      <trkpt lat="47.25348" lon="-2.33043">
        <ele>1.6000000238419</ele>
        <time>2019-06-02T07:01:35.000Z</time>
      </trkpt>
      <trkpt lat="47.25359" lon="-2.33072">
        <ele>1.6000000238419</ele>
        <time>2019-06-02T07:01:40.000Z</time>
      </trkpt>
      <trkpt lat="47.25373" lon="-2.33113">
        <ele>1.6000000238419</ele>
        <time>2019-06-02T07:01:48.000Z</time>
      </trkpt>
      <trkpt lat="47.25377" lon="-2.33129">
        <ele>1.6000000238419</ele>
        <time>2019-06-02T07:01:53.000Z</time>
      </trkpt>
      <trkpt lat="47.25377" lon="-2.33129">
        <ele>1.6000000238419</ele>
        <time>2019-06-02T07:01:54.000Z</time>
      </trkpt>
      <trkpt lat="47.25377" lon="-2.33126">
        <ele>1.6000000238419</ele>
        <time>2019-06-02T07:05:17.000Z</time>
      </trkpt>
      <trkpt lat="47.25377" lon="-2.33128">
        <ele>1.6000000238419</ele>
        <time>2019-06-02T07:05:18.000Z</time>
      </trkpt>
      <trkpt lat="47.25377" lon="-2.33128">
        <ele>1.6000000238419</ele>
        <time>2019-06-02T07:05:21.000Z</time>
      </trkpt>
      <trkpt lat="47.25378" lon="-2.3313">
        <ele>1.6000000238419</ele>
        <time>2019-06-02T07:05:32.000Z</time>
      </trkpt>
      <trkpt lat="47.25385" lon="-2.33137">
        <ele>1.6000000238419</ele>
        <time>2019-06-02T07:05:37.000Z</time>
      </trkpt>
      <trkpt lat="47.25391" lon="-2.33149">
        <ele>1.6000000238419</ele>
        <time>2019-06-02T07:05:41.000Z</time>
      </trkpt>
      <trkpt lat="47.25393" lon="-2.33152">
        <ele>1.6000000238419</ele>
        <time>2019-06-02T07:05:42.000Z</time>
      </trkpt>
      <trkpt lat="47.25406" lon="-2.3318">
        <ele>1.6000000238419</ele>
        <time>2019-06-02T07:05:48.000Z</time>
      </trkpt>
      <trkpt lat="47.25417" lon="-2.33213">
        <ele>1.6000000238419</ele>
        <time>2019-06-02T07:05:55.000Z</time>
      </trkpt>
      <trkpt lat="47.25429" lon="-2.33238">
        <ele>1.6000000238419</ele>
        <time>2019-06-02T07:06:01.000Z</time>
      </trkpt>
      <trkpt lat="47.25441" lon="-2.33269">
        <ele>1.6000000238419</ele>
        <time>2019-06-02T07:06:07.000Z</time>
      </trkpt>
      <trkpt lat="47.25449" lon="-2.33299">
        <ele>1.6000000238419</ele>
        <time>2019-06-02T07:06:13.000Z</time>
      </trkpt>
      <trkpt lat="47.25445" lon="-2.33315">
        <ele>1.6000000238419</ele>
        <time>2019-06-02T07:06:16.000Z</time>
      </trkpt>
      <trkpt lat="47.2544" lon="-2.33326">
        <ele>1.6000000238419</ele>
        <time>2019-06-02T07:06:18.000Z</time>
      </trkpt>
      <trkpt lat="47.25433" lon="-2.33342">
        <ele>1.6000000238419</ele>
        <time>2019-06-02T07:06:21.000Z</time>
      </trkpt>
      <trkpt lat="47.2543" lon="-2.33355">
        <ele>1.6000000238419</ele>
        <time>2019-06-02T07:06:23.000Z</time>
      </trkpt>
      <trkpt lat="47.2543" lon="-2.33361">
        <ele>1.6000000238419</ele>
        <time>2019-06-02T07:06:24.000Z</time>
      </trkpt>
      <trkpt lat="47.2543" lon="-2.33403">
        <ele>1.6000000238419</ele>
        <time>2019-06-02T07:06:31.000Z</time>
      </trkpt>
      <trkpt lat="47.25431" lon="-2.33448">
        <ele>1.6000000238419</ele>
        <time>2019-06-02T07:06:38.000Z</time>
      </trkpt>
      <trkpt lat="47.25433" lon="-2.33464">
        <ele>1.6000000238419</ele>
        <time>2019-06-02T07:06:42.000Z</time>
      </trkpt>
      <trkpt lat="47.25436" lon="-2.33481">
        <ele>1.6000000238419</ele>
        <time>2019-06-02T07:06:46.000Z</time>
      </trkpt>
      <trkpt lat="47.25443" lon="-2.33507">
        <ele>1.6000000238419</ele>
        <time>2019-06-02T07:06:51.000Z</time>
      </trkpt>
      <trkpt lat="47.2545" lon="-2.3354">
        <ele>1.6000000238419</ele>
        <time>2019-06-02T07:06:57.000Z</time>
      </trkpt>
      <trkpt lat="47.25454" lon="-2.33558">
        <ele>1.6000000238419</ele>
        <time>2019-06-02T07:07:02.000Z</time>
      </trkpt>
      <trkpt lat="47.25456" lon="-2.33572">
        <ele>1.6000000238419</ele>
        <time>2019-06-02T07:07:07.000Z</time>
      </trkpt>
      <trkpt lat="47.25449" lon="-2.3358">
        <ele>1.6000000238419</ele>
        <time>2019-06-02T07:07:11.000Z</time>
      </trkpt>
      <trkpt lat="47.25441" lon="-2.33592">
        <ele>1.6000000238419</ele>
        <time>2019-06-02T07:07:15.000Z</time>
      </trkpt>
      <trkpt lat="47.25442" lon="-2.336">
        <ele>1.6000000238419</ele>
        <time>2019-06-02T07:07:17.000Z</time>
      </trkpt>
      <trkpt lat="47.25443" lon="-2.33622">
        <ele>1.6000000238419</ele>
        <time>2019-06-02T07:07:21.000Z</time>
      </trkpt>
      <trkpt lat="47.25447" lon="-2.33659">
        <ele>1.6000000238419</ele>
        <time>2019-06-02T07:07:27.000Z</time>
      </trkpt>
      <trkpt lat="47.25451" lon="-2.33698">
        <ele>1.6000000238419</ele>
        <time>2019-06-02T07:07:33.000Z</time>
      </trkpt>
      <trkpt lat="47.25458" lon="-2.3374">
        <ele>1.6000000238419</ele>
        <time>2019-06-02T07:07:40.000Z</time>
      </trkpt>
      <trkpt lat="47.25464" lon="-2.3375">
        <ele>1.6000000238419</ele>
        <time>2019-06-02T07:07:43.000Z</time>
      </trkpt>
      <trkpt lat="47.25478" lon="-2.33757">
        <ele>1.6000000238419</ele>
        <time>2019-06-02T07:07:47.000Z</time>
      </trkpt>
      <trkpt lat="47.25505" lon="-2.33756">
        <ele>1.6000000238419</ele>
        <time>2019-06-02T07:07:53.000Z</time>
      </trkpt>
      <trkpt lat="47.25542" lon="-2.33752">
        <ele>1.6000000238419</ele>
        <time>2019-06-02T07:08:02.000Z</time>
      </trkpt>
      <trkpt lat="47.25546" lon="-2.33751">
        <ele>1.6000000238419</ele>
        <time>2019-06-02T07:08:03.000Z</time>
      </trkpt>
      <trkpt lat="47.25559" lon="-2.33749">
        <ele>2</ele>
        <time>2019-06-02T07:08:06.000Z</time>
      </trkpt>
      <trkpt lat="47.25564" lon="-2.33748">
        <ele>2.5999999046326</ele>
        <time>2019-06-02T07:08:07.000Z</time>
      </trkpt>
      <trkpt lat="47.25569" lon="-2.33748">
        <ele>3</ele>
        <time>2019-06-02T07:08:08.000Z</time>
      </trkpt>
      <trkpt lat="47.25574" lon="-2.33747">
        <ele>3.4000000953674</ele>
        <time>2019-06-02T07:08:09.000Z</time>
      </trkpt>
      <trkpt lat="47.25578" lon="-2.33747">
        <ele>3.7999999523163</ele>
        <time>2019-06-02T07:08:10.000Z</time>
      </trkpt>
      <trkpt lat="47.25595" lon="-2.33748">
        <ele>3.7999999523163</ele>
        <time>2019-06-02T07:08:14.000Z</time>
      </trkpt>
      <trkpt lat="47.25616" lon="-2.33754">
        <ele>3.7999999523163</ele>
        <time>2019-06-02T07:08:20.000Z</time>
      </trkpt>
      <trkpt lat="47.25628" lon="-2.33767">
        <ele>3.7999999523163</ele>
        <time>2019-06-02T07:08:24.000Z</time>
      </trkpt>
      <trkpt lat="47.25629" lon="-2.33773">
        <ele>3.7999999523163</ele>
        <time>2019-06-02T07:08:25.000Z</time>
      </trkpt>
      <trkpt lat="47.25634" lon="-2.33802">
        <ele>3.7999999523163</ele>
        <time>2019-06-02T07:08:29.000Z</time>
      </trkpt>
      <trkpt lat="47.25643" lon="-2.33856">
        <ele>3.7999999523163</ele>
        <time>2019-06-02T07:08:36.000Z</time>
      </trkpt>
      <trkpt lat="47.25651" lon="-2.33898">
        <ele>3.7999999523163</ele>
        <time>2019-06-02T07:08:42.000Z</time>
      </trkpt>
      <trkpt lat="47.25662" lon="-2.33965">
        <ele>3.7999999523163</ele>
        <time>2019-06-02T07:08:52.000Z</time>
      </trkpt>
      <trkpt lat="47.25658" lon="-2.33998">
        <ele>3.7999999523163</ele>
        <time>2019-06-02T07:08:57.000Z</time>
      </trkpt>
      <trkpt lat="47.25652" lon="-2.34034">
        <ele>3.7999999523163</ele>
        <time>2019-06-02T07:09:04.000Z</time>
      </trkpt>
      <trkpt lat="47.25645" lon="-2.34093">
        <ele>3.7999999523163</ele>
        <time>2019-06-02T07:09:12.000Z</time>
      </trkpt>
      <trkpt lat="47.25648" lon="-2.3413">
        <ele>3.7999999523163</ele>
        <time>2019-06-02T07:09:17.000Z</time>
      </trkpt>
      <trkpt lat="47.25649" lon="-2.34136">
        <ele>3.7999999523163</ele>
        <time>2019-06-02T07:09:18.000Z</time>
      </trkpt>
      <trkpt lat="47.25664" lon="-2.3417">
        <ele>3.7999999523163</ele>
        <time>2019-06-02T07:09:24.000Z</time>
      </trkpt>
      <trkpt lat="47.25676" lon="-2.3419">
        <ele>3.7999999523163</ele>
        <time>2019-06-02T07:09:28.000Z</time>
      </trkpt>
      <trkpt lat="47.2568" lon="-2.34192">
        <ele>3.7999999523163</ele>
        <time>2019-06-02T07:09:29.000Z</time>
      </trkpt>
      <trkpt lat="47.25697" lon="-2.34191">
        <ele>3.7999999523163</ele>
        <time>2019-06-02T07:09:32.000Z</time>
      </trkpt>
      <trkpt lat="47.25732" lon="-2.34186">
        <ele>3.7999999523163</ele>
        <time>2019-06-02T07:09:38.000Z</time>
      </trkpt>
      <trkpt lat="47.25738" lon="-2.34185">
        <ele>3</ele>
        <time>2019-06-02T07:09:39.000Z</time>
      </trkpt>
      <trkpt lat="47.25743" lon="-2.34183">
        <ele>2.5999999046326</ele>
        <time>2019-06-02T07:09:40.000Z</time>
      </trkpt>
      <trkpt lat="47.25749" lon="-2.34182">
        <ele>2.2000000476837</ele>
        <time>2019-06-02T07:09:41.000Z</time>
      </trkpt>
      <trkpt lat="47.25754" lon="-2.34181">
        <ele>1.7999999523163</ele>
        <time>2019-06-02T07:09:42.000Z</time>
      </trkpt>
      <trkpt lat="47.25764" lon="-2.34178">
        <ele>1.7999999523163</ele>
        <time>2019-06-02T07:09:44.000Z</time>
      </trkpt>
      <trkpt lat="47.25798" lon="-2.34175">
        <ele>1.7999999523163</ele>
        <time>2019-06-02T07:09:51.000Z</time>
      </trkpt>
      <trkpt lat="47.25817" lon="-2.34177">
        <ele>1.7999999523163</ele>
        <time>2019-06-02T07:09:55.000Z</time>
      </trkpt>
      <trkpt lat="47.25826" lon="-2.34179">
        <ele>1.7999999523163</ele>
        <time>2019-06-02T07:09:57.000Z</time>
      </trkpt>
      <trkpt lat="47.25834" lon="-2.34172">
        <ele>1.7999999523163</ele>
        <time>2019-06-02T07:10:00.000Z</time>
      </trkpt>
      <trkpt lat="47.25836" lon="-2.3416">
        <ele>1.7999999523163</ele>
        <time>2019-06-02T07:10:03.000Z</time>
      </trkpt>
      <trkpt lat="47.25839" lon="-2.34156">
        <ele>1.7999999523163</ele>
        <time>2019-06-02T07:10:05.000Z</time>
      </trkpt>
      <trkpt lat="47.25845" lon="-2.34157">
        <ele>1.7999999523163</ele>
        <time>2019-06-02T07:10:07.000Z</time>
      </trkpt>
      <trkpt lat="47.25855" lon="-2.3416">
        <ele>1.7999999523163</ele>
        <time>2019-06-02T07:10:10.000Z</time>
      </trkpt>
      <trkpt lat="47.25858" lon="-2.34162">
        <ele>1.7999999523163</ele>
        <time>2019-06-02T07:10:11.000Z</time>
      </trkpt>
      <trkpt lat="47.25865" lon="-2.34165">
        <ele>1.7999999523163</ele>
        <time>2019-06-02T07:10:16.000Z</time>
      </trkpt>
      <trkpt lat="47.25867" lon="-2.3417">
        <ele>1.7999999523163</ele>
        <time>2019-06-02T07:10:18.000Z</time>
      </trkpt>
      <trkpt lat="47.25868" lon="-2.34177">
        <ele>1.7999999523163</ele>
        <time>2019-06-02T07:10:20.000Z</time>
      </trkpt>
      <trkpt lat="47.25865" lon="-2.342">
        <ele>1.7999999523163</ele>
        <time>2019-06-02T07:10:24.000Z</time>
      </trkpt>
      <trkpt lat="47.2586" lon="-2.34217">
        <ele>1.7999999523163</ele>
        <time>2019-06-02T07:10:27.000Z</time>
      </trkpt>
      <trkpt lat="47.25853" lon="-2.34242">
        <ele>1.7999999523163</ele>
        <time>2019-06-02T07:10:31.000Z</time>
      </trkpt>
      <trkpt lat="47.2585" lon="-2.34255">
        <ele>1.7999999523163</ele>
        <time>2019-06-02T07:10:33.000Z</time>
      </trkpt>
      <trkpt lat="47.2585" lon="-2.34274">
        <ele>1.7999999523163</ele>
        <time>2019-06-02T07:10:36.000Z</time>
      </trkpt>
      <trkpt lat="47.25851" lon="-2.34286">
        <ele>1.7999999523163</ele>
        <time>2019-06-02T07:10:38.000Z</time>
      </trkpt>
      <trkpt lat="47.25853" lon="-2.34298">
        <ele>1.7999999523163</ele>
        <time>2019-06-02T07:10:40.000Z</time>
      </trkpt>
      <trkpt lat="47.25855" lon="-2.34316">
        <ele>1.7999999523163</ele>
        <time>2019-06-02T07:10:43.000Z</time>
      </trkpt>
      <trkpt lat="47.25862" lon="-2.34373">
        <ele>1.7999999523163</ele>
        <time>2019-06-02T07:10:52.000Z</time>
      </trkpt>
      <trkpt lat="47.25868" lon="-2.34429">
        <ele>1.7999999523163</ele>
        <time>2019-06-02T07:11:00.000Z</time>
      </trkpt>
      <trkpt lat="47.25876" lon="-2.34494">
        <ele>1.7999999523163</ele>
        <time>2019-06-02T07:11:09.000Z</time>
      </trkpt>
      <trkpt lat="47.25884" lon="-2.34545">
        <ele>1.7999999523163</ele>
        <time>2019-06-02T07:11:17.000Z</time>
      </trkpt>
      <trkpt lat="47.25886" lon="-2.3455">
        <ele>1.7999999523163</ele>
        <time>2019-06-02T07:11:18.000Z</time>
      </trkpt>
      <trkpt lat="47.25894" lon="-2.34584">
        <ele>1.7999999523163</ele>
        <time>2019-06-02T07:11:24.000Z</time>
      </trkpt>
      <trkpt lat="47.25897" lon="-2.34596">
        <ele>1.7999999523163</ele>
        <time>2019-06-02T07:11:26.000Z</time>
      </trkpt>
      <trkpt lat="47.25905" lon="-2.34622">
        <ele>1.7999999523163</ele>
        <time>2019-06-02T07:11:30.000Z</time>
      </trkpt>
      <trkpt lat="47.25919" lon="-2.34682">
        <ele>1.7999999523163</ele>
        <time>2019-06-02T07:11:39.000Z</time>
      </trkpt>
      <trkpt lat="47.25929" lon="-2.34724">
        <ele>1.7999999523163</ele>
        <time>2019-06-02T07:11:46.000Z</time>
      </trkpt>
      <trkpt lat="47.25932" lon="-2.34733">
        <ele>1.7999999523163</ele>
        <time>2019-06-02T07:11:48.000Z</time>
      </trkpt>
      <trkpt lat="47.25934" lon="-2.34739">
        <ele>1.7999999523163</ele>
        <time>2019-06-02T07:11:50.000Z</time>
      </trkpt>
      <trkpt lat="47.25939" lon="-2.34763">
        <ele>1.7999999523163</ele>
        <time>2019-06-02T07:11:56.000Z</time>
      </trkpt>
      <trkpt lat="47.25945" lon="-2.34793">
        <ele>1.7999999523163</ele>
        <time>2019-06-02T07:12:03.000Z</time>
      </trkpt>
      <trkpt lat="47.25946" lon="-2.34827">
        <ele>1.7999999523163</ele>
        <time>2019-06-02T07:12:10.000Z</time>
      </trkpt>
      <trkpt lat="47.25944" lon="-2.34836">
        <ele>1.7999999523163</ele>
        <time>2019-06-02T07:12:14.000Z</time>
      </trkpt>
      <trkpt lat="47.25944" lon="-2.34842">
        <ele>1.7999999523163</ele>
        <time>2019-06-02T07:12:18.000Z</time>
      </trkpt>
      <trkpt lat="47.25945" lon="-2.34854">
        <ele>1.7999999523163</ele>
        <time>2019-06-02T07:12:22.000Z</time>
      </trkpt>
      <trkpt lat="47.25943" lon="-2.34876">
        <ele>1.7999999523163</ele>
        <time>2019-06-02T07:12:28.000Z</time>
      </trkpt>
      <trkpt lat="47.25935" lon="-2.34905">
        <ele>1.7999999523163</ele>
        <time>2019-06-02T07:12:34.000Z</time>
      </trkpt>
      <trkpt lat="47.25923" lon="-2.34935">
        <ele>1.7999999523163</ele>
        <time>2019-06-02T07:12:40.000Z</time>
      </trkpt>
      <trkpt lat="47.25905" lon="-2.34974">
        <ele>1.7999999523163</ele>
        <time>2019-06-02T07:12:48.000Z</time>
      </trkpt>
      <trkpt lat="47.25887" lon="-2.35005">
        <ele>1.7999999523163</ele>
        <time>2019-06-02T07:12:55.000Z</time>
      </trkpt>
      <trkpt lat="47.25866" lon="-2.35047">
        <ele>1.7999999523163</ele>
        <time>2019-06-02T07:13:04.000Z</time>
      </trkpt>
      <trkpt lat="47.25853" lon="-2.35074">
        <ele>1.7999999523163</ele>
        <time>2019-06-02T07:13:10.000Z</time>
      </trkpt>
      <trkpt lat="47.25842" lon="-2.35097">
        <ele>1.7999999523163</ele>
        <time>2019-06-02T07:13:16.000Z</time>
      </trkpt>
      <trkpt lat="47.25834" lon="-2.3511">
        <ele>1.7999999523163</ele>
        <time>2019-06-02T07:13:22.000Z</time>
      </trkpt>
      <trkpt lat="47.25833" lon="-2.3511">
        <ele>1.7999999523163</ele>
        <time>2019-06-02T07:13:23.000Z</time>
      </trkpt>
      <trkpt lat="47.25832" lon="-2.35105">
        <ele>1.7999999523163</ele>
        <time>2019-06-02T07:13:27.000Z</time>
      </trkpt>
      <trkpt lat="47.25835" lon="-2.35103">
        <ele>1.7999999523163</ele>
        <time>2019-06-02T07:13:30.000Z</time>
      </trkpt>
      <trkpt lat="47.25836" lon="-2.35102">
        <ele>1.7999999523163</ele>
        <time>2019-06-02T07:13:32.000Z</time>
      </trkpt>
      <trkpt lat="47.2584" lon="-2.35099">
        <ele>1.7999999523163</ele>
        <time>2019-06-02T07:13:36.000Z</time>
      </trkpt>
      <trkpt lat="47.2584" lon="-2.35099">
        <ele>1.7999999523163</ele>
        <time>2019-06-02T07:13:38.000Z</time>
      </trkpt>
      <trkpt lat="47.25842" lon="-2.35096">
        <ele>1.7999999523163</ele>
        <time>2019-06-02T07:14:29.000Z</time>
      </trkpt>
      <trkpt lat="47.25846" lon="-2.35092">
        <ele>1.7999999523163</ele>
        <time>2019-06-02T07:14:32.000Z</time>
      </trkpt>
      <trkpt lat="47.25852" lon="-2.3508">
        <ele>1.7999999523163</ele>
        <time>2019-06-02T07:14:36.000Z</time>
      </trkpt>
      <trkpt lat="47.2586" lon="-2.35055">
        <ele>1.7999999523163</ele>
        <time>2019-06-02T07:14:41.000Z</time>
      </trkpt>
      <trkpt lat="47.25873" lon="-2.35032">
        <ele>1.7999999523163</ele>
        <time>2019-06-02T07:14:47.000Z</time>
      </trkpt>
      <trkpt lat="47.25882" lon="-2.35012">
        <ele>1.7999999523163</ele>
        <time>2019-06-02T07:14:52.000Z</time>
      </trkpt>
      <trkpt lat="47.25901" lon="-2.34976">
        <ele>1.7999999523163</ele>
        <time>2019-06-02T07:15:00.000Z</time>
      </trkpt>
      <trkpt lat="47.25909" lon="-2.34963">
        <ele>1.7999999523163</ele>
        <time>2019-06-02T07:15:03.000Z</time>
      </trkpt>
      <trkpt lat="47.25918" lon="-2.34943">
        <ele>1.7999999523163</ele>
        <time>2019-06-02T07:15:07.000Z</time>
      </trkpt>
      <trkpt lat="47.25935" lon="-2.34901">
        <ele>1.7999999523163</ele>
        <time>2019-06-02T07:15:15.000Z</time>
      </trkpt>
      <trkpt lat="47.25943" lon="-2.34868">
        <ele>1.7999999523163</ele>
        <time>2019-06-02T07:15:22.000Z</time>
      </trkpt>
      <trkpt lat="47.25948" lon="-2.34851">
        <ele>1.7999999523163</ele>
        <time>2019-06-02T07:15:27.000Z</time>
      </trkpt>
      <trkpt lat="47.25948" lon="-2.34846">
        <ele>2.2000000476837</ele>
        <time>2019-06-02T07:15:28.000Z</time>
      </trkpt>
      <trkpt lat="47.25946" lon="-2.34842">
        <ele>2.5999999046326</ele>
        <time>2019-06-02T07:15:29.000Z</time>
      </trkpt>
      <trkpt lat="47.25945" lon="-2.34837">
        <ele>3</ele>
        <time>2019-06-02T07:15:30.000Z</time>
      </trkpt>
      <trkpt lat="47.25945" lon="-2.34831">
        <ele>3.4000000953674</ele>
        <time>2019-06-02T07:15:31.000Z</time>
      </trkpt>
      <trkpt lat="47.25945" lon="-2.34825">
        <ele>3.7999999523163</ele>
        <time>2019-06-02T07:15:32.000Z</time>
      </trkpt>
      <trkpt lat="47.25945" lon="-2.34794">
        <ele>3.7999999523163</ele>
        <time>2019-06-02T07:15:37.000Z</time>
      </trkpt>
      <trkpt lat="47.25943" lon="-2.34772">
        <ele>3.7999999523163</ele>
        <time>2019-06-02T07:15:42.000Z</time>
      </trkpt>
      <trkpt lat="47.25937" lon="-2.34756">
        <ele>3.7999999523163</ele>
        <time>2019-06-02T07:15:47.000Z</time>
      </trkpt>
      <trkpt lat="47.2593" lon="-2.3473">
        <ele>3.7999999523163</ele>
        <time>2019-06-02T07:15:52.000Z</time>
      </trkpt>
      <trkpt lat="47.25919" lon="-2.34682">
        <ele>3.7999999523163</ele>
        <time>2019-06-02T07:16:00.000Z</time>
      </trkpt>
      <trkpt lat="47.25907" lon="-2.34648">
        <ele>3.7999999523163</ele>
        <time>2019-06-02T07:16:06.000Z</time>
      </trkpt>
      <trkpt lat="47.25903" lon="-2.34643">
        <ele>3.7999999523163</ele>
        <time>2019-06-02T07:16:07.000Z</time>
      </trkpt>
      <trkpt lat="47.2589" lon="-2.34626">
        <ele>3.7999999523163</ele>
        <time>2019-06-02T07:16:11.000Z</time>
      </trkpt>
      <trkpt lat="47.25886" lon="-2.34614">
        <ele>3.7999999523163</ele>
        <time>2019-06-02T07:16:13.000Z</time>
      </trkpt>
      <trkpt lat="47.25888" lon="-2.34593">
        <ele>3.7999999523163</ele>
        <time>2019-06-02T07:16:16.000Z</time>
      </trkpt>
      <trkpt lat="47.25888" lon="-2.34586">
        <ele>3.7999999523163</ele>
        <time>2019-06-02T07:16:17.000Z</time>
      </trkpt>
      <trkpt lat="47.25884" lon="-2.34566">
        <ele>3.7999999523163</ele>
        <time>2019-06-02T07:16:20.000Z</time>
      </trkpt>
      <trkpt lat="47.25877" lon="-2.34526">
        <ele>3.7999999523163</ele>
        <time>2019-06-02T07:16:26.000Z</time>
      </trkpt>
      <trkpt lat="47.25872" lon="-2.34475">
        <ele>3.7999999523163</ele>
        <time>2019-06-02T07:16:33.000Z</time>
      </trkpt>
      <trkpt lat="47.25864" lon="-2.34419">
        <ele>3.7999999523163</ele>
        <time>2019-06-02T07:16:41.000Z</time>
      </trkpt>
      <trkpt lat="47.25857" lon="-2.34356">
        <ele>3.7999999523163</ele>
        <time>2019-06-02T07:16:50.000Z</time>
      </trkpt>
      <trkpt lat="47.25849" lon="-2.34296">
        <ele>3.7999999523163</ele>
        <time>2019-06-02T07:16:58.000Z</time>
      </trkpt>
      <trkpt lat="47.25848" lon="-2.34242">
        <ele>3.7999999523163</ele>
        <time>2019-06-02T07:17:05.000Z</time>
      </trkpt>
      <trkpt lat="47.25853" lon="-2.34227">
        <ele>3.7999999523163</ele>
        <time>2019-06-02T07:17:07.000Z</time>
      </trkpt>
      <trkpt lat="47.2586" lon="-2.34205">
        <ele>3.7999999523163</ele>
        <time>2019-06-02T07:17:10.000Z</time>
      </trkpt>
      <trkpt lat="47.25877" lon="-2.34147">
        <ele>3.7999999523163</ele>
        <time>2019-06-02T07:17:18.000Z</time>
      </trkpt>
      <trkpt lat="47.25889" lon="-2.34098">
        <ele>3.7999999523163</ele>
        <time>2019-06-02T07:17:25.000Z</time>
      </trkpt>
      <trkpt lat="47.25898" lon="-2.34046">
        <ele>3.7999999523163</ele>
        <time>2019-06-02T07:17:32.000Z</time>
      </trkpt>
      <trkpt lat="47.25899" lon="-2.34039">
        <ele>3.7999999523163</ele>
        <time>2019-06-02T07:17:33.000Z</time>
      </trkpt>
      <trkpt lat="47.25909" lon="-2.34022">
        <ele>3.7999999523163</ele>
        <time>2019-06-02T07:17:36.000Z</time>
      </trkpt>
      <trkpt lat="47.25923" lon="-2.34027">
        <ele>3.7999999523163</ele>
        <time>2019-06-02T07:17:39.000Z</time>
      </trkpt>
      <trkpt lat="47.25937" lon="-2.34047">
        <ele>3.7999999523163</ele>
        <time>2019-06-02T07:17:42.000Z</time>
      </trkpt>
      <trkpt lat="47.25947" lon="-2.34059">
        <ele>3.7999999523163</ele>
        <time>2019-06-02T07:17:44.000Z</time>
      </trkpt>
      <trkpt lat="47.25957" lon="-2.34064">
        <ele>3.7999999523163</ele>
        <time>2019-06-02T07:17:46.000Z</time>
      </trkpt>
      <trkpt lat="47.2599" lon="-2.34079">
        <ele>3.7999999523163</ele>
        <time>2019-06-02T07:17:52.000Z</time>
      </trkpt>
      <trkpt lat="47.26033" lon="-2.34101">
        <ele>3.7999999523163</ele>
        <time>2019-06-02T07:18:00.000Z</time>
      </trkpt>
      <trkpt lat="47.26082" lon="-2.34125">
        <ele>3.7999999523163</ele>
        <time>2019-06-02T07:18:09.000Z</time>
      </trkpt>
      <trkpt lat="47.26135" lon="-2.3415">
        <ele>3.7999999523163</ele>
        <time>2019-06-02T07:18:19.000Z</time>
      </trkpt>
      <trkpt lat="47.26147" lon="-2.3414">
        <ele>3.7999999523163</ele>
        <time>2019-06-02T07:18:22.000Z</time>
      </trkpt>
      <trkpt lat="47.26155" lon="-2.34137">
        <ele>3.7999999523163</ele>
        <time>2019-06-02T07:18:25.000Z</time>
      </trkpt>
      <trkpt lat="47.26167" lon="-2.34147">
        <ele>3.7999999523163</ele>
        <time>2019-06-02T07:18:28.000Z</time>
      </trkpt>
      <trkpt lat="47.26171" lon="-2.34151">
        <ele>3.7999999523163</ele>
        <time>2019-06-02T07:18:29.000Z</time>
      </trkpt>
      <trkpt lat="47.26193" lon="-2.34171">
        <ele>4.1999998092651</ele>
        <time>2019-06-02T07:18:34.000Z</time>
      </trkpt>
      <trkpt lat="47.26199" lon="-2.34175">
        <ele>4.5999999046326</ele>
        <time>2019-06-02T07:18:35.000Z</time>
      </trkpt>
      <trkpt lat="47.26203" lon="-2.34178">
        <ele>5</ele>
        <time>2019-06-02T07:18:36.000Z</time>
      </trkpt>
      <trkpt lat="47.26208" lon="-2.34182">
        <ele>5.5999999046326</ele>
        <time>2019-06-02T07:18:37.000Z</time>
      </trkpt>
      <trkpt lat="47.26213" lon="-2.34186">
        <ele>6</ele>
        <time>2019-06-02T07:18:38.000Z</time>
      </trkpt>
      <trkpt lat="47.26223" lon="-2.34195">
        <ele>6</ele>
        <time>2019-06-02T07:18:40.000Z</time>
      </trkpt>
      <trkpt lat="47.26243" lon="-2.34211">
        <ele>6</ele>
        <time>2019-06-02T07:18:44.000Z</time>
      </trkpt>
      <trkpt lat="47.26253" lon="-2.34218">
        <ele>6.4000000953674</ele>
        <time>2019-06-02T07:18:46.000Z</time>
      </trkpt>
      <trkpt lat="47.26258" lon="-2.34221">
        <ele>6.8000001907349</ele>
        <time>2019-06-02T07:18:47.000Z</time>
      </trkpt>
      <trkpt lat="47.26263" lon="-2.34225">
        <ele>7.1999998092651</ele>
        <time>2019-06-02T07:18:48.000Z</time>
      </trkpt>
      <trkpt lat="47.26268" lon="-2.34228">
        <ele>7.5999999046326</ele>
        <time>2019-06-02T07:18:49.000Z</time>
      </trkpt>
      <trkpt lat="47.26273" lon="-2.34232">
        <ele>8</ele>
        <time>2019-06-02T07:18:50.000Z</time>
      </trkpt>
      <trkpt lat="47.26284" lon="-2.3424">
        <ele>8</ele>
        <time>2019-06-02T07:18:52.000Z</time>
      </trkpt>
      <trkpt lat="47.26317" lon="-2.34262">
        <ele>8</ele>
        <time>2019-06-02T07:18:58.000Z</time>
      </trkpt>
      <trkpt lat="47.26323" lon="-2.34263">
        <ele>8</ele>
        <time>2019-06-02T07:18:59.000Z</time>
      </trkpt>
      <trkpt lat="47.26344" lon="-2.34272">
        <ele>8</ele>
        <time>2019-06-02T07:19:02.000Z</time>
      </trkpt>
      <trkpt lat="47.26395" lon="-2.34289">
        <ele>8</ele>
        <time>2019-06-02T07:19:09.000Z</time>
      </trkpt>
      <trkpt lat="47.26436" lon="-2.34306">
        <ele>8</ele>
        <time>2019-06-02T07:19:15.000Z</time>
      </trkpt>
      <trkpt lat="47.26482" lon="-2.3432">
        <ele>8</ele>
        <time>2019-06-02T07:19:22.000Z</time>
      </trkpt>
      <trkpt lat="47.26489" lon="-2.34322">
        <ele>7.5999999046326</ele>
        <time>2019-06-02T07:19:23.000Z</time>
      </trkpt>
      <trkpt lat="47.26496" lon="-2.34323">
        <ele>7.1999998092651</ele>
        <time>2019-06-02T07:19:24.000Z</time>
      </trkpt>
      <trkpt lat="47.26502" lon="-2.34324">
        <ele>6.8000001907349</ele>
        <time>2019-06-02T07:19:25.000Z</time>
      </trkpt>
      <trkpt lat="47.26509" lon="-2.34325">
        <ele>6.4000000953674</ele>
        <time>2019-06-02T07:19:26.000Z</time>
      </trkpt>
      <trkpt lat="47.26516" lon="-2.34326">
        <ele>6</ele>
        <time>2019-06-02T07:19:27.000Z</time>
      </trkpt>
      <trkpt lat="47.26523" lon="-2.34326">
        <ele>6</ele>
        <time>2019-06-02T07:19:28.000Z</time>
      </trkpt>
      <trkpt lat="47.2655" lon="-2.34316">
        <ele>6</ele>
        <time>2019-06-02T07:19:32.000Z</time>
      </trkpt>
      <trkpt lat="47.26555" lon="-2.34311">
        <ele>6</ele>
        <time>2019-06-02T07:19:33.000Z</time>
      </trkpt>
      <trkpt lat="47.2657" lon="-2.34291">
        <ele>6</ele>
        <time>2019-06-02T07:19:36.000Z</time>
      </trkpt>
      <trkpt lat="47.26579" lon="-2.34277">
        <ele>6</ele>
        <time>2019-06-02T07:19:38.000Z</time>
      </trkpt>
      <trkpt lat="47.26593" lon="-2.3426">
        <ele>6</ele>
        <time>2019-06-02T07:19:41.000Z</time>
      </trkpt>
      <trkpt lat="47.26617" lon="-2.34233">
        <ele>6.4000000953674</ele>
        <time>2019-06-02T07:19:46.000Z</time>
      </trkpt>
      <trkpt lat="47.26622" lon="-2.34228">
        <ele>7</ele>
        <time>2019-06-02T07:19:47.000Z</time>
      </trkpt>
      <trkpt lat="47.26626" lon="-2.34223">
        <ele>7.4000000953674</ele>
        <time>2019-06-02T07:19:48.000Z</time>
      </trkpt>
      <trkpt lat="47.26631" lon="-2.34217">
        <ele>8</ele>
        <time>2019-06-02T07:19:49.000Z</time>
      </trkpt>
      <trkpt lat="47.26636" lon="-2.34213">
        <ele>8.3999996185303</ele>
        <time>2019-06-02T07:19:50.000Z</time>
      </trkpt>
      <trkpt lat="47.26649" lon="-2.34199">
        <ele>8.3999996185303</ele>
        <time>2019-06-02T07:19:53.000Z</time>
      </trkpt>
      <trkpt lat="47.26657" lon="-2.34189">
        <ele>8.3999996185303</ele>
        <time>2019-06-02T07:19:55.000Z</time>
      </trkpt>
      <trkpt lat="47.26662" lon="-2.34185">
        <ele>8.3999996185303</ele>
        <time>2019-06-02T07:19:56.000Z</time>
      </trkpt>
      <trkpt lat="47.26689" lon="-2.34165">
        <ele>8.3999996185303</ele>
        <time>2019-06-02T07:20:02.000Z</time>
      </trkpt>
      <trkpt lat="47.26711" lon="-2.34149">
        <ele>8.3999996185303</ele>
        <time>2019-06-02T07:20:08.000Z</time>
      </trkpt>
      <trkpt lat="47.26714" lon="-2.34152">
        <ele>8.3999996185303</ele>
        <time>2019-06-02T07:20:09.000Z</time>
      </trkpt>
      <trkpt lat="47.26723" lon="-2.34157">
        <ele>8.3999996185303</ele>
        <time>2019-06-02T07:20:11.000Z</time>
      </trkpt>
      <trkpt lat="47.26738" lon="-2.34165">
        <ele>8.3999996185303</ele>
        <time>2019-06-02T07:20:14.000Z</time>
      </trkpt>
      <trkpt lat="47.26747" lon="-2.34172">
        <ele>8.3999996185303</ele>
        <time>2019-06-02T07:20:16.000Z</time>
      </trkpt>
      <trkpt lat="47.26778" lon="-2.34193">
        <ele>8.3999996185303</ele>
        <time>2019-06-02T07:20:22.000Z</time>
      </trkpt>
      <trkpt lat="47.26807" lon="-2.34215">
        <ele>8.3999996185303</ele>
        <time>2019-06-02T07:20:27.000Z</time>
      </trkpt>
      <trkpt lat="47.26842" lon="-2.34239">
        <ele>8.3999996185303</ele>
        <time>2019-06-02T07:20:34.000Z</time>
      </trkpt>
      <trkpt lat="47.26859" lon="-2.34251">
        <ele>8.3999996185303</ele>
        <time>2019-06-02T07:20:37.000Z</time>
      </trkpt>
      <trkpt lat="47.2687" lon="-2.34258">
        <ele>8.3999996185303</ele>
        <time>2019-06-02T07:20:39.000Z</time>
      </trkpt>
      <trkpt lat="47.26908" lon="-2.34288">
        <ele>8.3999996185303</ele>
        <time>2019-06-02T07:20:46.000Z</time>
      </trkpt>
      <trkpt lat="47.26918" lon="-2.34305">
        <ele>8.3999996185303</ele>
        <time>2019-06-02T07:20:49.000Z</time>
      </trkpt>
      <trkpt lat="47.26923" lon="-2.34308">
        <ele>8.3999996185303</ele>
        <time>2019-06-02T07:20:50.000Z</time>
      </trkpt>
      <trkpt lat="47.26939" lon="-2.34308">
        <ele>8.3999996185303</ele>
        <time>2019-06-02T07:20:53.000Z</time>
      </trkpt>
      <trkpt lat="47.26965" lon="-2.34312">
        <ele>8.3999996185303</ele>
        <time>2019-06-02T07:20:58.000Z</time>
      </trkpt>
      <trkpt lat="47.27005" lon="-2.3432">
        <ele>8.3999996185303</ele>
        <time>2019-06-02T07:21:05.000Z</time>
      </trkpt>
      <trkpt lat="47.27037" lon="-2.3432">
        <ele>8.3999996185303</ele>
        <time>2019-06-02T07:21:11.000Z</time>
      </trkpt>
      <trkpt lat="47.27064" lon="-2.34318">
        <ele>8.8000001907349</ele>
        <time>2019-06-02T07:21:16.000Z</time>
      </trkpt>
      <trkpt lat="47.27068" lon="-2.34318">
        <ele>9.1999998092651</ele>
        <time>2019-06-02T07:21:17.000Z</time>
      </trkpt>
      <trkpt lat="47.27073" lon="-2.34318">
        <ele>9.6000003814697</ele>
        <time>2019-06-02T07:21:18.000Z</time>
      </trkpt>
      <trkpt lat="47.27076" lon="-2.34318">
        <ele>10</ele>
        <time>2019-06-02T07:21:19.000Z</time>
      </trkpt>
      <trkpt lat="47.2708" lon="-2.34319">
        <ele>10.39999961853</ele>
        <time>2019-06-02T07:21:20.000Z</time>
      </trkpt>
      <trkpt lat="47.27091" lon="-2.34319">
        <ele>10.39999961853</ele>
        <time>2019-06-02T07:21:24.000Z</time>
      </trkpt>
      <trkpt lat="47.271" lon="-2.34319">
        <ele>10.39999961853</ele>
        <time>2019-06-02T07:21:30.000Z</time>
      </trkpt>
      <trkpt lat="47.27103" lon="-2.34318">
        <ele>10.39999961853</ele>
        <time>2019-06-02T07:21:35.000Z</time>
      </trkpt>
      <trkpt lat="47.27105" lon="-2.34317">
        <ele>10.39999961853</ele>
        <time>2019-06-02T07:21:47.000Z</time>
      </trkpt>
      <trkpt lat="47.27119" lon="-2.34319">
        <ele>10.39999961853</ele>
        <time>2019-06-02T07:21:53.000Z</time>
      </trkpt>
      <trkpt lat="47.27121" lon="-2.34323">
        <ele>10.39999961853</ele>
        <time>2019-06-02T07:21:54.000Z</time>
      </trkpt>
      <trkpt lat="47.2713" lon="-2.34333">
        <ele>10.39999961853</ele>
        <time>2019-06-02T07:21:57.000Z</time>
      </trkpt>
      <trkpt lat="47.27136" lon="-2.34337">
        <ele>10.800000190735</ele>
        <time>2019-06-02T07:21:59.000Z</time>
      </trkpt>
      <trkpt lat="47.27139" lon="-2.3434">
        <ele>11.199999809265</ele>
        <time>2019-06-02T07:22:00.000Z</time>
      </trkpt>
      <trkpt lat="47.27141" lon="-2.34343">
        <ele>11.60000038147</ele>
        <time>2019-06-02T07:22:01.000Z</time>
      </trkpt>
      <trkpt lat="47.27143" lon="-2.34347">
        <ele>12</ele>
        <time>2019-06-02T07:22:02.000Z</time>
      </trkpt>
      <trkpt lat="47.27145" lon="-2.34351">
        <ele>12.39999961853</ele>
        <time>2019-06-02T07:22:03.000Z</time>
      </trkpt>
      <trkpt lat="47.27152" lon="-2.34367">
        <ele>12.39999961853</ele>
        <time>2019-06-02T07:22:06.000Z</time>
      </trkpt>
      <trkpt lat="47.27164" lon="-2.34403">
        <ele>12.39999961853</ele>
        <time>2019-06-02T07:22:12.000Z</time>
      </trkpt>
      <trkpt lat="47.2717" lon="-2.34428">
        <ele>12.39999961853</ele>
        <time>2019-06-02T07:22:16.000Z</time>
      </trkpt>
      <trkpt lat="47.27171" lon="-2.34441">
        <ele>12.39999961853</ele>
        <time>2019-06-02T07:22:18.000Z</time>
      </trkpt>
      <trkpt lat="47.27171" lon="-2.34447">
        <ele>12.39999961853</ele>
        <time>2019-06-02T07:22:19.000Z</time>
      </trkpt>
      <trkpt lat="47.27173" lon="-2.34458">
        <ele>12.39999961853</ele>
        <time>2019-06-02T07:22:21.000Z</time>
      </trkpt>
      <trkpt lat="47.27176" lon="-2.34461">
        <ele>12.39999961853</ele>
        <time>2019-06-02T07:22:22.000Z</time>
      </trkpt>
      <trkpt lat="47.27188" lon="-2.34461">
        <ele>12.39999961853</ele>
        <time>2019-06-02T07:22:25.000Z</time>
      </trkpt>
      <trkpt lat="47.27192" lon="-2.34459">
        <ele>12.39999961853</ele>
        <time>2019-06-02T07:22:26.000Z</time>
      </trkpt>
      <trkpt lat="47.27195" lon="-2.34458">
        <ele>13</ele>
        <time>2019-06-02T07:22:27.000Z</time>
      </trkpt>
      <trkpt lat="47.27199" lon="-2.34457">
        <ele>13.39999961853</ele>
        <time>2019-06-02T07:22:28.000Z</time>
      </trkpt>
      <trkpt lat="47.27202" lon="-2.34456">
        <ele>13.800000190735</ele>
        <time>2019-06-02T07:22:29.000Z</time>
      </trkpt>
      <trkpt lat="47.27206" lon="-2.34457">
        <ele>14.199999809265</ele>
        <time>2019-06-02T07:22:30.000Z</time>
      </trkpt>
      <trkpt lat="47.27209" lon="-2.34457">
        <ele>14.800000190735</ele>
        <time>2019-06-02T07:22:31.000Z</time>
      </trkpt>
      <trkpt lat="47.27213" lon="-2.34457">
        <ele>14.800000190735</ele>
        <time>2019-06-02T07:22:32.000Z</time>
      </trkpt>
      <trkpt lat="47.27221" lon="-2.34457">
        <ele>15.199999809265</ele>
        <time>2019-06-02T07:22:34.000Z</time>
      </trkpt>
      <trkpt lat="47.27224" lon="-2.34456">
        <ele>15.60000038147</ele>
        <time>2019-06-02T07:22:35.000Z</time>
      </trkpt>
      <trkpt lat="47.27229" lon="-2.34456">
        <ele>16</ele>
        <time>2019-06-02T07:22:36.000Z</time>
      </trkpt>
      <trkpt lat="47.27233" lon="-2.34455">
        <ele>16.39999961853</ele>
        <time>2019-06-02T07:22:37.000Z</time>
      </trkpt>
      <trkpt lat="47.27237" lon="-2.34455">
        <ele>16.799999237061</ele>
        <time>2019-06-02T07:22:38.000Z</time>
      </trkpt>
      <trkpt lat="47.27252" lon="-2.34455">
        <ele>17.200000762939</ele>
        <time>2019-06-02T07:22:42.000Z</time>
      </trkpt>
      <trkpt lat="47.27256" lon="-2.34455">
        <ele>17.60000038147</ele>
        <time>2019-06-02T07:22:43.000Z</time>
      </trkpt>
      <trkpt lat="47.2726" lon="-2.34455">
        <ele>18</ele>
        <time>2019-06-02T07:22:44.000Z</time>
      </trkpt>
      <trkpt lat="47.27264" lon="-2.34455">
        <ele>18.39999961853</ele>
        <time>2019-06-02T07:22:45.000Z</time>
      </trkpt>
      <trkpt lat="47.27268" lon="-2.34456">
        <ele>18.799999237061</ele>
        <time>2019-06-02T07:22:46.000Z</time>
      </trkpt>
      <trkpt lat="47.27277" lon="-2.34456">
        <ele>19.200000762939</ele>
        <time>2019-06-02T07:22:48.000Z</time>
      </trkpt>
      <trkpt lat="47.27281" lon="-2.34456">
        <ele>19.60000038147</ele>
        <time>2019-06-02T07:22:49.000Z</time>
      </trkpt>
      <trkpt lat="47.27286" lon="-2.34456">
        <ele>20</ele>
        <time>2019-06-02T07:22:50.000Z</time>
      </trkpt>
      <trkpt lat="47.2729" lon="-2.34456">
        <ele>20.39999961853</ele>
        <time>2019-06-02T07:22:51.000Z</time>
      </trkpt>
      <trkpt lat="47.27294" lon="-2.34456">
        <ele>21</ele>
        <time>2019-06-02T07:22:52.000Z</time>
      </trkpt>
      <trkpt lat="47.27316" lon="-2.34455">
        <ele>21</ele>
        <time>2019-06-02T07:22:57.000Z</time>
      </trkpt>
      <trkpt lat="47.27335" lon="-2.34454">
        <ele>21.39999961853</ele>
        <time>2019-06-02T07:23:01.000Z</time>
      </trkpt>
      <trkpt lat="47.2734" lon="-2.34455">
        <ele>21.799999237061</ele>
        <time>2019-06-02T07:23:02.000Z</time>
      </trkpt>
      <trkpt lat="47.27344" lon="-2.34457">
        <ele>22.200000762939</ele>
        <time>2019-06-02T07:23:03.000Z</time>
      </trkpt>
      <trkpt lat="47.27348" lon="-2.34458">
        <ele>22.60000038147</ele>
        <time>2019-06-02T07:23:04.000Z</time>
      </trkpt>
      <trkpt lat="47.27352" lon="-2.34462">
        <ele>23.200000762939</ele>
        <time>2019-06-02T07:23:05.000Z</time>
      </trkpt>
      <trkpt lat="47.27357" lon="-2.34473">
        <ele>23.200000762939</ele>
        <time>2019-06-02T07:23:07.000Z</time>
      </trkpt>
      <trkpt lat="47.27361" lon="-2.34494">
        <ele>23.200000762939</ele>
        <time>2019-06-02T07:23:10.000Z</time>
      </trkpt>
      <trkpt lat="47.27362" lon="-2.34501">
        <ele>23.200000762939</ele>
        <time>2019-06-02T07:23:11.000Z</time>
      </trkpt>
      <trkpt lat="47.2737" lon="-2.34542">
        <ele>23.200000762939</ele>
        <time>2019-06-02T07:23:17.000Z</time>
      </trkpt>
      <trkpt lat="47.27379" lon="-2.3459">
        <ele>23.200000762939</ele>
        <time>2019-06-02T07:23:24.000Z</time>
      </trkpt>
      <trkpt lat="47.27387" lon="-2.34636">
        <ele>23.200000762939</ele>
        <time>2019-06-02T07:23:31.000Z</time>
      </trkpt>
      <trkpt lat="47.2739" lon="-2.34644">
        <ele>23.200000762939</ele>
        <time>2019-06-02T07:23:34.000Z</time>
      </trkpt>
      <trkpt lat="47.27393" lon="-2.34643">
        <ele>23.200000762939</ele>
        <time>2019-06-02T07:23:35.000Z</time>
      </trkpt>
      <trkpt lat="47.27397" lon="-2.34641">
        <ele>23.60000038147</ele>
        <time>2019-06-02T07:23:36.000Z</time>
      </trkpt>
      <trkpt lat="47.27401" lon="-2.34639">
        <ele>24.39999961853</ele>
        <time>2019-06-02T07:23:37.000Z</time>
      </trkpt>
      <trkpt lat="47.27406" lon="-2.34638">
        <ele>24.799999237061</ele>
        <time>2019-06-02T07:23:38.000Z</time>
      </trkpt>
      <trkpt lat="47.27411" lon="-2.34637">
        <ele>25.200000762939</ele>
        <time>2019-06-02T07:23:39.000Z</time>
      </trkpt>
      <trkpt lat="47.27445" lon="-2.34632">
        <ele>25.200000762939</ele>
        <time>2019-06-02T07:23:47.000Z</time>
      </trkpt>
      <trkpt lat="47.2745" lon="-2.34629">
        <ele>25.200000762939</ele>
        <time>2019-06-02T07:23:50.000Z</time>
      </trkpt>
      <trkpt lat="47.27453" lon="-2.34632">
        <ele>25.200000762939</ele>
        <time>2019-06-02T07:23:52.000Z</time>
      </trkpt>
      <trkpt lat="47.27453" lon="-2.3464">
        <ele>25.200000762939</ele>
        <time>2019-06-02T07:23:54.000Z</time>
      </trkpt>
      <trkpt lat="47.27456" lon="-2.34649">
        <ele>25.200000762939</ele>
        <time>2019-06-02T07:23:57.000Z</time>
      </trkpt>
      <trkpt lat="47.27457" lon="-2.34652">
        <ele>25.200000762939</ele>
        <time>2019-06-02T07:23:58.000Z</time>
      </trkpt>
      <trkpt lat="47.27458" lon="-2.34681">
        <ele>25.200000762939</ele>
        <time>2019-06-02T07:24:04.000Z</time>
      </trkpt>
      <trkpt lat="47.27458" lon="-2.34711">
        <ele>25.200000762939</ele>
        <time>2019-06-02T07:24:10.000Z</time>
      </trkpt>
      <trkpt lat="47.27456" lon="-2.34738">
        <ele>25.200000762939</ele>
        <time>2019-06-02T07:24:14.000Z</time>
      </trkpt>
      <trkpt lat="47.27456" lon="-2.34745">
        <ele>25.200000762939</ele>
        <time>2019-06-02T07:24:15.000Z</time>
      </trkpt>
      <trkpt lat="47.27456" lon="-2.34761">
        <ele>25.200000762939</ele>
        <time>2019-06-02T07:24:17.000Z</time>
      </trkpt>
      <trkpt lat="47.27458" lon="-2.34793">
        <ele>24.799999237061</ele>
        <time>2019-06-02T07:24:21.000Z</time>
      </trkpt>
      <trkpt lat="47.27458" lon="-2.34801">
        <ele>24.39999961853</ele>
        <time>2019-06-02T07:24:22.000Z</time>
      </trkpt>
      <trkpt lat="47.27459" lon="-2.3481">
        <ele>24</ele>
        <time>2019-06-02T07:24:23.000Z</time>
      </trkpt>
      <trkpt lat="47.27459" lon="-2.34821">
        <ele>23.60000038147</ele>
        <time>2019-06-02T07:24:24.000Z</time>
      </trkpt>
      <trkpt lat="47.2746" lon="-2.34831">
        <ele>23.200000762939</ele>
        <time>2019-06-02T07:24:25.000Z</time>
      </trkpt>
      <trkpt lat="47.2746" lon="-2.34858">
        <ele>23.200000762939</ele>
        <time>2019-06-02T07:24:28.000Z</time>
      </trkpt>
      <trkpt lat="47.27459" lon="-2.34902">
        <ele>22.799999237061</ele>
        <time>2019-06-02T07:24:33.000Z</time>
      </trkpt>
      <trkpt lat="47.27462" lon="-2.34908">
        <ele>22.200000762939</ele>
        <time>2019-06-02T07:24:34.000Z</time>
      </trkpt>
      <trkpt lat="47.27466" lon="-2.3491">
        <ele>21.799999237061</ele>
        <time>2019-06-02T07:24:35.000Z</time>
      </trkpt>
      <trkpt lat="47.27471" lon="-2.34911">
        <ele>21.39999961853</ele>
        <time>2019-06-02T07:24:36.000Z</time>
      </trkpt>
      <trkpt lat="47.27476" lon="-2.34912">
        <ele>21</ele>
        <time>2019-06-02T07:24:37.000Z</time>
      </trkpt>
      <trkpt lat="47.27499" lon="-2.34909">
        <ele>21</ele>
        <time>2019-06-02T07:24:41.000Z</time>
      </trkpt>
      <trkpt lat="47.27503" lon="-2.34907">
        <ele>21</ele>
        <time>2019-06-02T07:24:42.000Z</time>
      </trkpt>
      <trkpt lat="47.27508" lon="-2.34904">
        <ele>21</ele>
        <time>2019-06-02T07:24:43.000Z</time>
      </trkpt>
      <trkpt lat="47.27525" lon="-2.34898">
        <ele>21.39999961853</ele>
        <time>2019-06-02T07:24:46.000Z</time>
      </trkpt>
      <trkpt lat="47.2753" lon="-2.34897">
        <ele>21.799999237061</ele>
        <time>2019-06-02T07:24:47.000Z</time>
      </trkpt>
      <trkpt lat="47.27536" lon="-2.34897">
        <ele>22.200000762939</ele>
        <time>2019-06-02T07:24:48.000Z</time>
      </trkpt>
      <trkpt lat="47.27543" lon="-2.34897">
        <ele>23</ele>
        <time>2019-06-02T07:24:49.000Z</time>
      </trkpt>
      <trkpt lat="47.27548" lon="-2.34897">
        <ele>23</ele>
        <time>2019-06-02T07:24:50.000Z</time>
      </trkpt>
      <trkpt lat="47.27567" lon="-2.34901">
        <ele>23</ele>
        <time>2019-06-02T07:24:53.000Z</time>
      </trkpt>
      <trkpt lat="47.27611" lon="-2.34907">
        <ele>23</ele>
        <time>2019-06-02T07:25:00.000Z</time>
      </trkpt>
      <trkpt lat="47.27634" lon="-2.34912">
        <ele>23</ele>
        <time>2019-06-02T07:25:04.000Z</time>
      </trkpt>
      <trkpt lat="47.27646" lon="-2.3491">
        <ele>23</ele>
        <time>2019-06-02T07:25:06.000Z</time>
      </trkpt>
      <trkpt lat="47.27667" lon="-2.34908">
        <ele>23</ele>
        <time>2019-06-02T07:25:10.000Z</time>
      </trkpt>
      <trkpt lat="47.27672" lon="-2.3491">
        <ele>23</ele>
        <time>2019-06-02T07:25:11.000Z</time>
      </trkpt>
      <trkpt lat="47.27683" lon="-2.34926">
        <ele>23</ele>
        <time>2019-06-02T07:25:14.000Z</time>
      </trkpt>
      <trkpt lat="47.27686" lon="-2.34938">
        <ele>23</ele>
        <time>2019-06-02T07:25:16.000Z</time>
      </trkpt>
      <trkpt lat="47.27685" lon="-2.34959">
        <ele>23</ele>
        <time>2019-06-02T07:25:18.000Z</time>
      </trkpt>
      <trkpt lat="47.27684" lon="-2.34988">
        <ele>23</ele>
        <time>2019-06-02T07:25:21.000Z</time>
      </trkpt>
      <trkpt lat="47.27688" lon="-2.35023">
        <ele>23</ele>
        <time>2019-06-02T07:25:25.000Z</time>
      </trkpt>
      <trkpt lat="47.27697" lon="-2.35032">
        <ele>23</ele>
        <time>2019-06-02T07:25:27.000Z</time>
      </trkpt>
      <trkpt lat="47.27702" lon="-2.35033">
        <ele>22.60000038147</ele>
        <time>2019-06-02T07:25:28.000Z</time>
      </trkpt>
      <trkpt lat="47.27708" lon="-2.35032">
        <ele>22.200000762939</ele>
        <time>2019-06-02T07:25:29.000Z</time>
      </trkpt>
      <trkpt lat="47.27714" lon="-2.3503">
        <ele>21.799999237061</ele>
        <time>2019-06-02T07:25:30.000Z</time>
      </trkpt>
      <trkpt lat="47.2772" lon="-2.35029">
        <ele>21.39999961853</ele>
        <time>2019-06-02T07:25:31.000Z</time>
      </trkpt>
      <trkpt lat="47.27727" lon="-2.35027">
        <ele>20.799999237061</ele>
        <time>2019-06-02T07:25:32.000Z</time>
      </trkpt>
      <trkpt lat="47.27747" lon="-2.35024">
        <ele>20.799999237061</ele>
        <time>2019-06-02T07:25:35.000Z</time>
      </trkpt>
      <trkpt lat="47.27764" lon="-2.35022">
        <ele>20.39999961853</ele>
        <time>2019-06-02T07:25:39.000Z</time>
      </trkpt>
      <trkpt lat="47.27765" lon="-2.35029">
        <ele>20</ele>
        <time>2019-06-02T07:25:40.000Z</time>
      </trkpt>
      <trkpt lat="47.27766" lon="-2.35037">
        <ele>19</ele>
        <time>2019-06-02T07:25:41.000Z</time>
      </trkpt>
      <trkpt lat="47.27765" lon="-2.35042">
        <ele>18.60000038147</ele>
        <time>2019-06-02T07:25:42.000Z</time>
      </trkpt>
      <trkpt lat="47.27766" lon="-2.35048">
        <ele>18.60000038147</ele>
        <time>2019-06-02T07:25:43.000Z</time>
      </trkpt>
      <trkpt lat="47.27769" lon="-2.35053">
        <ele>18.60000038147</ele>
        <time>2019-06-02T07:25:44.000Z</time>
      </trkpt>
      <trkpt lat="47.27779" lon="-2.35055">
        <ele>18.60000038147</ele>
        <time>2019-06-02T07:25:47.000Z</time>
      </trkpt>
      <trkpt lat="47.27784" lon="-2.35054">
        <ele>18.60000038147</ele>
        <time>2019-06-02T07:25:48.000Z</time>
      </trkpt>
      <trkpt lat="47.27804" lon="-2.35048">
        <ele>18.60000038147</ele>
        <time>2019-06-02T07:25:53.000Z</time>
      </trkpt>
      <trkpt lat="47.27813" lon="-2.35045">
        <ele>18.60000038147</ele>
        <time>2019-06-02T07:25:55.000Z</time>
      </trkpt>
      <trkpt lat="47.27828" lon="-2.35036">
        <ele>18.60000038147</ele>
        <time>2019-06-02T07:25:59.000Z</time>
      </trkpt>
      <trkpt lat="47.27837" lon="-2.35032">
        <ele>18.60000038147</ele>
        <time>2019-06-02T07:26:03.000Z</time>
      </trkpt>
      <trkpt lat="47.2784" lon="-2.35029">
        <ele>18.60000038147</ele>
        <time>2019-06-02T07:26:06.000Z</time>
      </trkpt>
      <trkpt lat="47.27845" lon="-2.35029">
        <ele>18.60000038147</ele>
        <time>2019-06-02T07:26:08.000Z</time>
      </trkpt>
      <trkpt lat="47.27851" lon="-2.35032">
        <ele>18.60000038147</ele>
        <time>2019-06-02T07:26:11.000Z</time>
      </trkpt>
      <trkpt lat="47.27852" lon="-2.35034">
        <ele>18.60000038147</ele>
        <time>2019-06-02T07:26:12.000Z</time>
      </trkpt>
      <trkpt lat="47.27854" lon="-2.35038">
        <ele>19</ele>
        <time>2019-06-02T07:26:13.000Z</time>
      </trkpt>
      <trkpt lat="47.27856" lon="-2.35042">
        <ele>19.39999961853</ele>
        <time>2019-06-02T07:26:14.000Z</time>
      </trkpt>
      <trkpt lat="47.27857" lon="-2.35047">
        <ele>19.799999237061</ele>
        <time>2019-06-02T07:26:15.000Z</time>
      </trkpt>
      <trkpt lat="47.27859" lon="-2.35051">
        <ele>20.200000762939</ele>
        <time>2019-06-02T07:26:16.000Z</time>
      </trkpt>
      <trkpt lat="47.2786" lon="-2.35055">
        <ele>20.60000038147</ele>
        <time>2019-06-02T07:26:17.000Z</time>
      </trkpt>
      <trkpt lat="47.27861" lon="-2.35059">
        <ele>20.60000038147</ele>
        <time>2019-06-02T07:26:18.000Z</time>
      </trkpt>
      <trkpt lat="47.27864" lon="-2.35064">
        <ele>20.60000038147</ele>
        <time>2019-06-02T07:26:20.000Z</time>
      </trkpt>
      <trkpt lat="47.27872" lon="-2.35062">
        <ele>20.60000038147</ele>
        <time>2019-06-02T07:26:22.000Z</time>
      </trkpt>
      <trkpt lat="47.27877" lon="-2.3506">
        <ele>20.60000038147</ele>
        <time>2019-06-02T07:26:23.000Z</time>
      </trkpt>
      <trkpt lat="47.27881" lon="-2.35057">
        <ele>20.60000038147</ele>
        <time>2019-06-02T07:26:24.000Z</time>
      </trkpt>
      <trkpt lat="47.27897" lon="-2.35045">
        <ele>20.60000038147</ele>
        <time>2019-06-02T07:26:28.000Z</time>
      </trkpt>
      <trkpt lat="47.27903" lon="-2.35036">
        <ele>20.60000038147</ele>
        <time>2019-06-02T07:26:30.000Z</time>
      </trkpt>
      <trkpt lat="47.27913" lon="-2.35029">
        <ele>20.60000038147</ele>
        <time>2019-06-02T07:26:33.000Z</time>
      </trkpt>
      <trkpt lat="47.27936" lon="-2.35033">
        <ele>20.60000038147</ele>
        <time>2019-06-02T07:26:39.000Z</time>
      </trkpt>
      <trkpt lat="47.27952" lon="-2.35054">
        <ele>20.60000038147</ele>
        <time>2019-06-02T07:26:43.000Z</time>
      </trkpt>
      <trkpt lat="47.27956" lon="-2.35062">
        <ele>20.60000038147</ele>
        <time>2019-06-02T07:26:44.000Z</time>
      </trkpt>
      <trkpt lat="47.27966" lon="-2.35087">
        <ele>20.60000038147</ele>
        <time>2019-06-02T07:26:47.000Z</time>
      </trkpt>
      <trkpt lat="47.27967" lon="-2.35094">
        <ele>20.60000038147</ele>
        <time>2019-06-02T07:26:48.000Z</time>
      </trkpt>
      <trkpt lat="47.27963" lon="-2.35113">
        <ele>20.60000038147</ele>
        <time>2019-06-02T07:26:51.000Z</time>
      </trkpt>
      <trkpt lat="47.27949" lon="-2.3515">
        <ele>20.60000038147</ele>
        <time>2019-06-02T07:26:56.000Z</time>
      </trkpt>
      <trkpt lat="47.27932" lon="-2.35183">
        <ele>20.60000038147</ele>
        <time>2019-06-02T07:27:01.000Z</time>
      </trkpt>
      <trkpt lat="47.27928" lon="-2.35189">
        <ele>20.60000038147</ele>
        <time>2019-06-02T07:27:02.000Z</time>
      </trkpt>
      <trkpt lat="47.27915" lon="-2.35208">
        <ele>20.200000762939</ele>
        <time>2019-06-02T07:27:05.000Z</time>
      </trkpt>
      <trkpt lat="47.27913" lon="-2.35214">
        <ele>19.799999237061</ele>
        <time>2019-06-02T07:27:06.000Z</time>
      </trkpt>
      <trkpt lat="47.27913" lon="-2.35221">
        <ele>19.200000762939</ele>
        <time>2019-06-02T07:27:07.000Z</time>
      </trkpt>
      <trkpt lat="47.27913" lon="-2.35228">
        <ele>18.799999237061</ele>
        <time>2019-06-02T07:27:08.000Z</time>
      </trkpt>
      <trkpt lat="47.27916" lon="-2.35238">
        <ele>18.200000762939</ele>
        <time>2019-06-02T07:27:09.000Z</time>
      </trkpt>
      <trkpt lat="47.27918" lon="-2.35247">
        <ele>18.200000762939</ele>
        <time>2019-06-02T07:27:10.000Z</time>
      </trkpt>
      <trkpt lat="47.27927" lon="-2.35291">
        <ele>18.200000762939</ele>
        <time>2019-06-02T07:27:15.000Z</time>
      </trkpt>
      <trkpt lat="47.27941" lon="-2.35302">
        <ele>18.200000762939</ele>
        <time>2019-06-02T07:27:18.000Z</time>
      </trkpt>
      <trkpt lat="47.27951" lon="-2.35294">
        <ele>18.200000762939</ele>
        <time>2019-06-02T07:27:20.000Z</time>
      </trkpt>
      <trkpt lat="47.27962" lon="-2.35285">
        <ele>18.200000762939</ele>
        <time>2019-06-02T07:27:22.000Z</time>
      </trkpt>
      <trkpt lat="47.27972" lon="-2.35276">
        <ele>18.60000038147</ele>
        <time>2019-06-02T07:27:24.000Z</time>
      </trkpt>
      <trkpt lat="47.27977" lon="-2.35271">
        <ele>19</ele>
        <time>2019-06-02T07:27:25.000Z</time>
      </trkpt>
      <trkpt lat="47.27982" lon="-2.35266">
        <ele>19.60000038147</ele>
        <time>2019-06-02T07:27:26.000Z</time>
      </trkpt>
      <trkpt lat="47.27987" lon="-2.35262">
        <ele>20</ele>
        <time>2019-06-02T07:27:27.000Z</time>
      </trkpt>
      <trkpt lat="47.27992" lon="-2.35258">
        <ele>20.39999961853</ele>
        <time>2019-06-02T07:27:28.000Z</time>
      </trkpt>
      <trkpt lat="47.27997" lon="-2.35254">
        <ele>20.39999961853</ele>
        <time>2019-06-02T07:27:29.000Z</time>
      </trkpt>
      <trkpt lat="47.28027" lon="-2.35232">
        <ele>20.39999961853</ele>
        <time>2019-06-02T07:27:35.000Z</time>
      </trkpt>
      <trkpt lat="47.2803" lon="-2.35228">
        <ele>20.799999237061</ele>
        <time>2019-06-02T07:27:36.000Z</time>
      </trkpt>
      <trkpt lat="47.28034" lon="-2.35225">
        <ele>21.200000762939</ele>
        <time>2019-06-02T07:27:37.000Z</time>
      </trkpt>
      <trkpt lat="47.28037" lon="-2.35223">
        <ele>21.60000038147</ele>
        <time>2019-06-02T07:27:38.000Z</time>
      </trkpt>
      <trkpt lat="47.28039" lon="-2.35221">
        <ele>22</ele>
        <time>2019-06-02T07:27:39.000Z</time>
      </trkpt>
      <trkpt lat="47.28041" lon="-2.3522">
        <ele>22.39999961853</ele>
        <time>2019-06-02T07:27:40.000Z</time>
      </trkpt>
      <trkpt lat="47.28047" lon="-2.35216">
        <ele>22.39999961853</ele>
        <time>2019-06-02T07:27:45.000Z</time>
      </trkpt>
      <trkpt lat="47.28048" lon="-2.35216">
        <ele>22.39999961853</ele>
        <time>2019-06-02T07:27:47.000Z</time>
      </trkpt>
      <trkpt lat="47.28051" lon="-2.35211">
        <ele>22.39999961853</ele>
        <time>2019-06-02T07:27:59.000Z</time>
      </trkpt>
      <trkpt lat="47.28052" lon="-2.35209">
        <ele>22.39999961853</ele>
        <time>2019-06-02T07:28:00.000Z</time>
      </trkpt>
      <trkpt lat="47.2806" lon="-2.35202">
        <ele>22.39999961853</ele>
        <time>2019-06-02T07:28:04.000Z</time>
      </trkpt>
      <trkpt lat="47.28078" lon="-2.35185">
        <ele>22.39999961853</ele>
        <time>2019-06-02T07:28:09.000Z</time>
      </trkpt>
      <trkpt lat="47.28092" lon="-2.35174">
        <ele>23</ele>
        <time>2019-06-02T07:28:12.000Z</time>
      </trkpt>
      <trkpt lat="47.28097" lon="-2.3517">
        <ele>23.39999961853</ele>
        <time>2019-06-02T07:28:13.000Z</time>
      </trkpt>
      <trkpt lat="47.28101" lon="-2.35166">
        <ele>23.799999237061</ele>
        <time>2019-06-02T07:28:14.000Z</time>
      </trkpt>
      <trkpt lat="47.28106" lon="-2.35162">
        <ele>24.200000762939</ele>
        <time>2019-06-02T07:28:15.000Z</time>
      </trkpt>
      <trkpt lat="47.28111" lon="-2.35158">
        <ele>24.60000038147</ele>
        <time>2019-06-02T07:28:16.000Z</time>
      </trkpt>
      <trkpt lat="47.28135" lon="-2.35137">
        <ele>24.60000038147</ele>
        <time>2019-06-02T07:28:21.000Z</time>
      </trkpt>
      <trkpt lat="47.28158" lon="-2.35121">
        <ele>24.60000038147</ele>
        <time>2019-06-02T07:28:26.000Z</time>
      </trkpt>
      <trkpt lat="47.28162" lon="-2.35122">
        <ele>24.60000038147</ele>
        <time>2019-06-02T07:28:27.000Z</time>
      </trkpt>
      <trkpt lat="47.28168" lon="-2.3513">
        <ele>24.60000038147</ele>
        <time>2019-06-02T07:28:29.000Z</time>
      </trkpt>
      <trkpt lat="47.28186" lon="-2.3516">
        <ele>24.60000038147</ele>
        <time>2019-06-02T07:28:34.000Z</time>
      </trkpt>
      <trkpt lat="47.28219" lon="-2.35222">
        <ele>24.60000038147</ele>
        <time>2019-06-02T07:28:43.000Z</time>
      </trkpt>
      <trkpt lat="47.28234" lon="-2.35246">
        <ele>24.60000038147</ele>
        <time>2019-06-02T07:28:47.000Z</time>
      </trkpt>
      <trkpt lat="47.2824" lon="-2.35246">
        <ele>24.60000038147</ele>
        <time>2019-06-02T07:28:48.000Z</time>
      </trkpt>
      <trkpt lat="47.28256" lon="-2.35236">
        <ele>25</ele>
        <time>2019-06-02T07:28:51.000Z</time>
      </trkpt>
      <trkpt lat="47.28261" lon="-2.35233">
        <ele>25.39999961853</ele>
        <time>2019-06-02T07:28:52.000Z</time>
      </trkpt>
      <trkpt lat="47.28267" lon="-2.35229">
        <ele>26</ele>
        <time>2019-06-02T07:28:53.000Z</time>
      </trkpt>
      <trkpt lat="47.28272" lon="-2.35227">
        <ele>26.39999961853</ele>
        <time>2019-06-02T07:28:54.000Z</time>
      </trkpt>
      <trkpt lat="47.28277" lon="-2.35228">
        <ele>26.799999237061</ele>
        <time>2019-06-02T07:28:55.000Z</time>
      </trkpt>
      <trkpt lat="47.28282" lon="-2.35233">
        <ele>26.799999237061</ele>
        <time>2019-06-02T07:28:56.000Z</time>
      </trkpt>
      <trkpt lat="47.2829" lon="-2.35255">
        <ele>26.799999237061</ele>
        <time>2019-06-02T07:28:59.000Z</time>
      </trkpt>
      <trkpt lat="47.28304" lon="-2.35303">
        <ele>26.799999237061</ele>
        <time>2019-06-02T07:29:05.000Z</time>
      </trkpt>
      <trkpt lat="47.28309" lon="-2.35308">
        <ele>26.799999237061</ele>
        <time>2019-06-02T07:29:06.000Z</time>
      </trkpt>
      <trkpt lat="47.28327" lon="-2.35307">
        <ele>26.799999237061</ele>
        <time>2019-06-02T07:29:09.000Z</time>
      </trkpt>
      <trkpt lat="47.28338" lon="-2.35302">
        <ele>26.799999237061</ele>
        <time>2019-06-02T07:29:11.000Z</time>
      </trkpt>
      <trkpt lat="47.28342" lon="-2.35301">
        <ele>26.799999237061</ele>
        <time>2019-06-02T07:29:12.000Z</time>
      </trkpt>
      <trkpt lat="47.28345" lon="-2.35304">
        <ele>26.799999237061</ele>
        <time>2019-06-02T07:29:13.000Z</time>
      </trkpt>
      <trkpt lat="47.28351" lon="-2.35323">
        <ele>26.799999237061</ele>
        <time>2019-06-02T07:29:16.000Z</time>
      </trkpt>
      <trkpt lat="47.28353" lon="-2.3533">
        <ele>26.799999237061</ele>
        <time>2019-06-02T07:29:17.000Z</time>
      </trkpt>
      <trkpt lat="47.28361" lon="-2.35352">
        <ele>26.799999237061</ele>
        <time>2019-06-02T07:29:20.000Z</time>
      </trkpt>
      <trkpt lat="47.28363" lon="-2.35358">
        <ele>26.799999237061</ele>
        <time>2019-06-02T07:29:21.000Z</time>
      </trkpt>
      <trkpt lat="47.28373" lon="-2.35382">
        <ele>26.799999237061</ele>
        <time>2019-06-02T07:29:26.000Z</time>
      </trkpt>
      <trkpt lat="47.28376" lon="-2.35389">
        <ele>27.200000762939</ele>
        <time>2019-06-02T07:29:28.000Z</time>
      </trkpt>
      <trkpt lat="47.28377" lon="-2.35392">
        <ele>27.60000038147</ele>
        <time>2019-06-02T07:29:29.000Z</time>
      </trkpt>
      <trkpt lat="47.28378" lon="-2.35395">
        <ele>28.200000762939</ele>
        <time>2019-06-02T07:29:30.000Z</time>
      </trkpt>
      <trkpt lat="47.28379" lon="-2.35397">
        <ele>28.60000038147</ele>
        <time>2019-06-02T07:29:31.000Z</time>
      </trkpt>
      <trkpt lat="47.2838" lon="-2.35399">
        <ele>29</ele>
        <time>2019-06-02T07:29:32.000Z</time>
      </trkpt>
      <trkpt lat="47.28381" lon="-2.35402">
        <ele>29.60000038147</ele>
        <time>2019-06-02T07:29:33.000Z</time>
      </trkpt>
      <trkpt lat="47.28382" lon="-2.35404">
        <ele>30.200000762939</ele>
        <time>2019-06-02T07:29:34.000Z</time>
      </trkpt>
      <trkpt lat="47.28383" lon="-2.35405">
        <ele>30.60000038147</ele>
        <time>2019-06-02T07:29:35.000Z</time>
      </trkpt>
      <trkpt lat="47.28384" lon="-2.35406">
        <ele>31.200000762939</ele>
        <time>2019-06-02T07:29:36.000Z</time>
      </trkpt>
      <trkpt lat="47.28385" lon="-2.35408">
        <ele>31.60000038147</ele>
        <time>2019-06-02T07:29:37.000Z</time>
      </trkpt>
      <trkpt lat="47.28385" lon="-2.3541">
        <ele>32</ele>
        <time>2019-06-02T07:29:38.000Z</time>
      </trkpt>
      <trkpt lat="47.28386" lon="-2.35412">
        <ele>32.400001525879</ele>
        <time>2019-06-02T07:29:39.000Z</time>
      </trkpt>
      <trkpt lat="47.28387" lon="-2.35414">
        <ele>32.799999237061</ele>
        <time>2019-06-02T07:29:40.000Z</time>
      </trkpt>
      <trkpt lat="47.28388" lon="-2.35416">
        <ele>33.400001525879</ele>
        <time>2019-06-02T07:29:41.000Z</time>
      </trkpt>
      <trkpt lat="47.28392" lon="-2.35421">
        <ele>33.400001525879</ele>
        <time>2019-06-02T07:29:43.000Z</time>
      </trkpt>
      <trkpt lat="47.28395" lon="-2.35423">
        <ele>33.400001525879</ele>
        <time>2019-06-02T07:29:44.000Z</time>
      </trkpt>
      <trkpt lat="47.28402" lon="-2.35423">
        <ele>33.400001525879</ele>
        <time>2019-06-02T07:29:46.000Z</time>
      </trkpt>
      <trkpt lat="47.28407" lon="-2.35418">
        <ele>33.400001525879</ele>
        <time>2019-06-02T07:29:48.000Z</time>
      </trkpt>
      <trkpt lat="47.28413" lon="-2.35409">
        <ele>33.400001525879</ele>
        <time>2019-06-02T07:29:51.000Z</time>
      </trkpt>
      <trkpt lat="47.28418" lon="-2.35404">
        <ele>33.799999237061</ele>
        <time>2019-06-02T07:29:54.000Z</time>
      </trkpt>
      <trkpt lat="47.2842" lon="-2.35403">
        <ele>34.200000762939</ele>
        <time>2019-06-02T07:29:55.000Z</time>
      </trkpt>
      <trkpt lat="47.28422" lon="-2.35402">
        <ele>34.599998474121</ele>
        <time>2019-06-02T07:29:56.000Z</time>
      </trkpt>
      <trkpt lat="47.28423" lon="-2.35401">
        <ele>35</ele>
        <time>2019-06-02T07:29:57.000Z</time>
      </trkpt>
      <trkpt lat="47.28425" lon="-2.35401">
        <ele>35.400001525879</ele>
        <time>2019-06-02T07:29:58.000Z</time>
      </trkpt>
      <trkpt lat="47.28435" lon="-2.35397">
        <ele>35</ele>
        <time>2019-06-02T07:30:04.000Z</time>
      </trkpt>
      <trkpt lat="47.28436" lon="-2.35396">
        <ele>34.599998474121</ele>
        <time>2019-06-02T07:30:05.000Z</time>
      </trkpt>
      <trkpt lat="47.28438" lon="-2.35392">
        <ele>34.200000762939</ele>
        <time>2019-06-02T07:30:06.000Z</time>
      </trkpt>
      <trkpt lat="47.28439" lon="-2.35388">
        <ele>33.799999237061</ele>
        <time>2019-06-02T07:30:07.000Z</time>
      </trkpt>
      <trkpt lat="47.28441" lon="-2.35384">
        <ele>33.400001525879</ele>
        <time>2019-06-02T07:30:08.000Z</time>
      </trkpt>
      <trkpt lat="47.28443" lon="-2.3538">
        <ele>32.799999237061</ele>
        <time>2019-06-02T07:30:09.000Z</time>
      </trkpt>
      <trkpt lat="47.28444" lon="-2.35377">
        <ele>32.400001525879</ele>
        <time>2019-06-02T07:30:10.000Z</time>
      </trkpt>
      <trkpt lat="47.28445" lon="-2.35373">
        <ele>31.799999237061</ele>
        <time>2019-06-02T07:30:11.000Z</time>
      </trkpt>
      <trkpt lat="47.28446" lon="-2.3537">
        <ele>31.200000762939</ele>
        <time>2019-06-02T07:30:12.000Z</time>
      </trkpt>
      <trkpt lat="47.28447" lon="-2.35367">
        <ele>30</ele>
        <time>2019-06-02T07:30:13.000Z</time>
      </trkpt>
      <trkpt lat="47.28448" lon="-2.35364">
        <ele>29.39999961853</ele>
        <time>2019-06-02T07:30:14.000Z</time>
      </trkpt>
      <trkpt lat="47.2845" lon="-2.35362">
        <ele>29</ele>
        <time>2019-06-02T07:30:15.000Z</time>
      </trkpt>
      <trkpt lat="47.28452" lon="-2.35361">
        <ele>28.39999961853</ele>
        <time>2019-06-02T07:30:16.000Z</time>
      </trkpt>
      <trkpt lat="47.28453" lon="-2.3536">
        <ele>27.799999237061</ele>
        <time>2019-06-02T07:30:17.000Z</time>
      </trkpt>
      <trkpt lat="47.28456" lon="-2.35362">
        <ele>27.200000762939</ele>
        <time>2019-06-02T07:30:18.000Z</time>
      </trkpt>
      <trkpt lat="47.28458" lon="-2.35364">
        <ele>26.799999237061</ele>
        <time>2019-06-02T07:30:19.000Z</time>
      </trkpt>
      <trkpt lat="47.28462" lon="-2.3537">
        <ele>26.799999237061</ele>
        <time>2019-06-02T07:30:21.000Z</time>
      </trkpt>
      <trkpt lat="47.28467" lon="-2.35378">
        <ele>26.799999237061</ele>
        <time>2019-06-02T07:30:22.000Z</time>
      </trkpt>
      <trkpt lat="47.28472" lon="-2.35387">
        <ele>26.799999237061</ele>
        <time>2019-06-02T07:30:23.000Z</time>
      </trkpt>
      <trkpt lat="47.28478" lon="-2.35402">
        <ele>26.799999237061</ele>
        <time>2019-06-02T07:30:25.000Z</time>
      </trkpt>
      <trkpt lat="47.28488" lon="-2.35426">
        <ele>26.799999237061</ele>
        <time>2019-06-02T07:30:30.000Z</time>
      </trkpt>
      <trkpt lat="47.28492" lon="-2.35437">
        <ele>27.200000762939</ele>
        <time>2019-06-02T07:30:33.000Z</time>
      </trkpt>
      <trkpt lat="47.28494" lon="-2.3544">
        <ele>27.60000038147</ele>
        <time>2019-06-02T07:30:34.000Z</time>
      </trkpt>
      <trkpt lat="47.28495" lon="-2.35444">
        <ele>28</ele>
        <time>2019-06-02T07:30:35.000Z</time>
      </trkpt>
      <trkpt lat="47.28497" lon="-2.35447">
        <ele>28.39999961853</ele>
        <time>2019-06-02T07:30:36.000Z</time>
      </trkpt>
      <trkpt lat="47.28499" lon="-2.3545">
        <ele>28.799999237061</ele>
        <time>2019-06-02T07:30:37.000Z</time>
      </trkpt>
      <trkpt lat="47.285" lon="-2.35452">
        <ele>28.799999237061</ele>
        <time>2019-06-02T07:30:38.000Z</time>
      </trkpt>
      <trkpt lat="47.28509" lon="-2.35468">
        <ele>28.799999237061</ele>
        <time>2019-06-02T07:30:45.000Z</time>
      </trkpt>
      <trkpt lat="47.28512" lon="-2.35472">
        <ele>28.799999237061</ele>
        <time>2019-06-02T07:30:47.000Z</time>
      </trkpt>
      <trkpt lat="47.28515" lon="-2.35481">
        <ele>28.799999237061</ele>
        <time>2019-06-02T07:30:59.000Z</time>
      </trkpt>
      <trkpt lat="47.28517" lon="-2.35482">
        <ele>28.799999237061</ele>
        <time>2019-06-02T07:31:00.000Z</time>
      </trkpt>
      <trkpt lat="47.28531" lon="-2.35485">
        <ele>28.799999237061</ele>
        <time>2019-06-02T07:31:06.000Z</time>
      </trkpt>
      <trkpt lat="47.28533" lon="-2.35484">
        <ele>28.799999237061</ele>
        <time>2019-06-02T07:31:07.000Z</time>
      </trkpt>
      <trkpt lat="47.28556" lon="-2.35493">
        <ele>28.799999237061</ele>
        <time>2019-06-02T07:31:13.000Z</time>
      </trkpt>
      <trkpt lat="47.28559" lon="-2.35509">
        <ele>28.799999237061</ele>
        <time>2019-06-02T07:31:17.000Z</time>
      </trkpt>
      <trkpt lat="47.28563" lon="-2.35533">
        <ele>28.799999237061</ele>
        <time>2019-06-02T07:31:22.000Z</time>
      </trkpt>
      <trkpt lat="47.28568" lon="-2.35558">
        <ele>29.200000762939</ele>
        <time>2019-06-02T07:31:27.000Z</time>
      </trkpt>
      <trkpt lat="47.28568" lon="-2.35563">
        <ele>29.60000038147</ele>
        <time>2019-06-02T07:31:28.000Z</time>
      </trkpt>
      <trkpt lat="47.28569" lon="-2.35568">
        <ele>30</ele>
        <time>2019-06-02T07:31:29.000Z</time>
      </trkpt>
      <trkpt lat="47.28569" lon="-2.35573">
        <ele>30.39999961853</ele>
        <time>2019-06-02T07:31:30.000Z</time>
      </trkpt>
      <trkpt lat="47.2857" lon="-2.35577">
        <ele>30.799999237061</ele>
        <time>2019-06-02T07:31:31.000Z</time>
      </trkpt>
      <trkpt lat="47.28572" lon="-2.35583">
        <ele>30.799999237061</ele>
        <time>2019-06-02T07:31:32.000Z</time>
      </trkpt>
      <trkpt lat="47.28579" lon="-2.35617">
        <ele>30.799999237061</ele>
        <time>2019-06-02T07:31:37.000Z</time>
      </trkpt>
      <trkpt lat="47.2858" lon="-2.35639">
        <ele>31.200000762939</ele>
        <time>2019-06-02T07:31:41.000Z</time>
      </trkpt>
      <trkpt lat="47.2858" lon="-2.35644">
        <ele>31.60000038147</ele>
        <time>2019-06-02T07:31:42.000Z</time>
      </trkpt>
      <trkpt lat="47.28581" lon="-2.35649">
        <ele>32</ele>
        <time>2019-06-02T07:31:43.000Z</time>
      </trkpt>
      <trkpt lat="47.28582" lon="-2.35653">
        <ele>32.400001525879</ele>
        <time>2019-06-02T07:31:44.000Z</time>
      </trkpt>
      <trkpt lat="47.28582" lon="-2.35658">
        <ele>33</ele>
        <time>2019-06-02T07:31:45.000Z</time>
      </trkpt>
      <trkpt lat="47.28586" lon="-2.3568">
        <ele>33</ele>
        <time>2019-06-02T07:31:49.000Z</time>
      </trkpt>
      <trkpt lat="47.28587" lon="-2.35707">
        <ele>33</ele>
        <time>2019-06-02T07:31:54.000Z</time>
      </trkpt>
      <trkpt lat="47.28582" lon="-2.35735">
        <ele>33</ele>
        <time>2019-06-02T07:31:59.000Z</time>
      </trkpt>
      <trkpt lat="47.28573" lon="-2.35757">
        <ele>33</ele>
        <time>2019-06-02T07:32:04.000Z</time>
      </trkpt>
      <trkpt lat="47.28555" lon="-2.35772">
        <ele>33</ele>
        <time>2019-06-02T07:32:08.000Z</time>
      </trkpt>
      <trkpt lat="47.2855" lon="-2.35774">
        <ele>33</ele>
        <time>2019-06-02T07:32:09.000Z</time>
      </trkpt>
      <trkpt lat="47.28534" lon="-2.35779">
        <ele>33</ele>
        <time>2019-06-02T07:32:12.000Z</time>
      </trkpt>
      <trkpt lat="47.28524" lon="-2.35784">
        <ele>33</ele>
        <time>2019-06-02T07:32:14.000Z</time>
      </trkpt>
      <trkpt lat="47.28503" lon="-2.35794">
        <ele>33</ele>
        <time>2019-06-02T07:32:19.000Z</time>
      </trkpt>
      <trkpt lat="47.28487" lon="-2.35803">
        <ele>33</ele>
        <time>2019-06-02T07:32:24.000Z</time>
      </trkpt>
      <trkpt lat="47.28476" lon="-2.35817">
        <ele>33</ele>
        <time>2019-06-02T07:32:29.000Z</time>
      </trkpt>
      <trkpt lat="47.28468" lon="-2.35822">
        <ele>33</ele>
        <time>2019-06-02T07:32:35.000Z</time>
      </trkpt>
      <trkpt lat="47.28465" lon="-2.35823">
        <ele>33</ele>
        <time>2019-06-02T07:32:38.000Z</time>
      </trkpt>
      <trkpt lat="47.28463" lon="-2.35826">
        <ele>33</ele>
        <time>2019-06-02T07:32:41.000Z</time>
      </trkpt>
      <trkpt lat="47.2846" lon="-2.35829">
        <ele>33</ele>
        <time>2019-06-02T07:32:43.000Z</time>
      </trkpt>
      <trkpt lat="47.28451" lon="-2.35833">
        <ele>32.599998474121</ele>
        <time>2019-06-02T07:32:47.000Z</time>
      </trkpt>
      <trkpt lat="47.2845" lon="-2.35834">
        <ele>32.200000762939</ele>
        <time>2019-06-02T07:32:48.000Z</time>
      </trkpt>
      <trkpt lat="47.28448" lon="-2.35835">
        <ele>31.799999237061</ele>
        <time>2019-06-02T07:32:49.000Z</time>
      </trkpt>
      <trkpt lat="47.28447" lon="-2.35835">
        <ele>31.39999961853</ele>
        <time>2019-06-02T07:32:50.000Z</time>
      </trkpt>
      <trkpt lat="47.28446" lon="-2.35837">
        <ele>31</ele>
        <time>2019-06-02T07:32:51.000Z</time>
      </trkpt>
      <trkpt lat="47.28437" lon="-2.35842">
        <ele>31</ele>
        <time>2019-06-02T07:32:54.000Z</time>
      </trkpt>
      <trkpt lat="47.28429" lon="-2.35841">
        <ele>31</ele>
        <time>2019-06-02T07:32:57.000Z</time>
      </trkpt>
      <trkpt lat="47.28426" lon="-2.35841">
        <ele>31</ele>
        <time>2019-06-02T07:32:58.000Z</time>
      </trkpt>
      <trkpt lat="47.28417" lon="-2.35852">
        <ele>31</ele>
        <time>2019-06-02T07:33:02.000Z</time>
      </trkpt>
      <trkpt lat="47.28414" lon="-2.35853">
        <ele>31</ele>
        <time>2019-06-02T07:33:03.000Z</time>
      </trkpt>
      <trkpt lat="47.28402" lon="-2.35859">
        <ele>31</ele>
        <time>2019-06-02T07:33:07.000Z</time>
      </trkpt>
      <trkpt lat="47.28399" lon="-2.35859">
        <ele>31</ele>
        <time>2019-06-02T07:33:08.000Z</time>
      </trkpt>
      <trkpt lat="47.28389" lon="-2.3586">
        <ele>31</ele>
        <time>2019-06-02T07:33:11.000Z</time>
      </trkpt>
      <trkpt lat="47.2838" lon="-2.3586">
        <ele>31</ele>
        <time>2019-06-02T07:33:13.000Z</time>
      </trkpt>
      <trkpt lat="47.2837" lon="-2.35856">
        <ele>31</ele>
        <time>2019-06-02T07:33:16.000Z</time>
      </trkpt>
      <trkpt lat="47.28354" lon="-2.35846">
        <ele>31</ele>
        <time>2019-06-02T07:33:21.000Z</time>
      </trkpt>
      <trkpt lat="47.28347" lon="-2.35846">
        <ele>31</ele>
        <time>2019-06-02T07:33:22.000Z</time>
      </trkpt>
      <trkpt lat="47.28337" lon="-2.35847">
        <ele>31</ele>
        <time>2019-06-02T07:33:24.000Z</time>
      </trkpt>
      <trkpt lat="47.28322" lon="-2.35869">
        <ele>31</ele>
        <time>2019-06-02T07:33:29.000Z</time>
      </trkpt>
      <trkpt lat="47.28311" lon="-2.35888">
        <ele>31</ele>
        <time>2019-06-02T07:33:32.000Z</time>
      </trkpt>
      <trkpt lat="47.28306" lon="-2.35893">
        <ele>30.60000038147</ele>
        <time>2019-06-02T07:33:33.000Z</time>
      </trkpt>
      <trkpt lat="47.28299" lon="-2.35897">
        <ele>30</ele>
        <time>2019-06-02T07:33:34.000Z</time>
      </trkpt>
      <trkpt lat="47.28293" lon="-2.35902">
        <ele>29.60000038147</ele>
        <time>2019-06-02T07:33:35.000Z</time>
      </trkpt>
      <trkpt lat="47.28287" lon="-2.35906">
        <ele>29.200000762939</ele>
        <time>2019-06-02T07:33:36.000Z</time>
      </trkpt>
      <trkpt lat="47.28283" lon="-2.3591">
        <ele>28.799999237061</ele>
        <time>2019-06-02T07:33:37.000Z</time>
      </trkpt>
      <trkpt lat="47.28278" lon="-2.35914">
        <ele>28.799999237061</ele>
        <time>2019-06-02T07:33:38.000Z</time>
      </trkpt>
      <trkpt lat="47.28271" lon="-2.35919">
        <ele>28.799999237061</ele>
        <time>2019-06-02T07:33:40.000Z</time>
      </trkpt>
      <trkpt lat="47.28266" lon="-2.35923">
        <ele>28.799999237061</ele>
        <time>2019-06-02T07:33:42.000Z</time>
      </trkpt>
      <trkpt lat="47.28263" lon="-2.35929">
        <ele>28.799999237061</ele>
        <time>2019-06-02T07:33:44.000Z</time>
      </trkpt>
      <trkpt lat="47.28271" lon="-2.35952">
        <ele>28.799999237061</ele>
        <time>2019-06-02T07:33:48.000Z</time>
      </trkpt>
      <trkpt lat="47.28278" lon="-2.35967">
        <ele>28.39999961853</ele>
        <time>2019-06-02T07:33:50.000Z</time>
      </trkpt>
      <trkpt lat="47.28278" lon="-2.35975">
        <ele>28</ele>
        <time>2019-06-02T07:33:51.000Z</time>
      </trkpt>
      <trkpt lat="47.28277" lon="-2.35983">
        <ele>27.60000038147</ele>
        <time>2019-06-02T07:33:52.000Z</time>
      </trkpt>
      <trkpt lat="47.28275" lon="-2.3599">
        <ele>27</ele>
        <time>2019-06-02T07:33:53.000Z</time>
      </trkpt>
      <trkpt lat="47.28274" lon="-2.35997">
        <ele>26.60000038147</ele>
        <time>2019-06-02T07:33:54.000Z</time>
      </trkpt>
      <trkpt lat="47.28275" lon="-2.36008">
        <ele>26.60000038147</ele>
        <time>2019-06-02T07:33:56.000Z</time>
      </trkpt>
      <trkpt lat="47.2828" lon="-2.36023">
        <ele>27</ele>
        <time>2019-06-02T07:34:00.000Z</time>
      </trkpt>
      <trkpt lat="47.2828" lon="-2.36025">
        <ele>27.60000038147</ele>
        <time>2019-06-02T07:34:01.000Z</time>
      </trkpt>
      <trkpt lat="47.28281" lon="-2.36027">
        <ele>28</ele>
        <time>2019-06-02T07:34:02.000Z</time>
      </trkpt>
      <trkpt lat="47.28283" lon="-2.36029">
        <ele>28.60000038147</ele>
        <time>2019-06-02T07:34:03.000Z</time>
      </trkpt>
      <trkpt lat="47.28284" lon="-2.3603">
        <ele>29</ele>
        <time>2019-06-02T07:34:04.000Z</time>
      </trkpt>
      <trkpt lat="47.28286" lon="-2.36033">
        <ele>29.39999961853</ele>
        <time>2019-06-02T07:34:06.000Z</time>
      </trkpt>
      <trkpt lat="47.28288" lon="-2.36034">
        <ele>30</ele>
        <time>2019-06-02T07:34:07.000Z</time>
      </trkpt>
      <trkpt lat="47.28289" lon="-2.36035">
        <ele>30.39999961853</ele>
        <time>2019-06-02T07:34:08.000Z</time>
      </trkpt>
      <trkpt lat="47.28292" lon="-2.36037">
        <ele>30.799999237061</ele>
        <time>2019-06-02T07:34:09.000Z</time>
      </trkpt>
      <trkpt lat="47.28294" lon="-2.36039">
        <ele>31.39999961853</ele>
        <time>2019-06-02T07:34:10.000Z</time>
      </trkpt>
      <trkpt lat="47.28301" lon="-2.36043">
        <ele>31.39999961853</ele>
        <time>2019-06-02T07:34:13.000Z</time>
      </trkpt>
      <trkpt lat="47.28305" lon="-2.36045">
        <ele>31.799999237061</ele>
        <time>2019-06-02T07:34:15.000Z</time>
      </trkpt>
      <trkpt lat="47.28307" lon="-2.36046">
        <ele>32.200000762939</ele>
        <time>2019-06-02T07:34:16.000Z</time>
      </trkpt>
      <trkpt lat="47.28309" lon="-2.36047">
        <ele>32.599998474121</ele>
        <time>2019-06-02T07:34:17.000Z</time>
      </trkpt>
      <trkpt lat="47.28311" lon="-2.36047">
        <ele>33</ele>
        <time>2019-06-02T07:34:18.000Z</time>
      </trkpt>
      <trkpt lat="47.28312" lon="-2.36048">
        <ele>33.400001525879</ele>
        <time>2019-06-02T07:34:19.000Z</time>
      </trkpt>
      <trkpt lat="47.28322" lon="-2.36043">
        <ele>33.400001525879</ele>
        <time>2019-06-02T07:34:23.000Z</time>
      </trkpt>
      <trkpt lat="47.2834" lon="-2.36025">
        <ele>33.400001525879</ele>
        <time>2019-06-02T07:34:30.000Z</time>
      </trkpt>
      <trkpt lat="47.28354" lon="-2.3602">
        <ele>34</ele>
        <time>2019-06-02T07:34:35.000Z</time>
      </trkpt>
      <trkpt lat="47.28356" lon="-2.3602">
        <ele>34.400001525879</ele>
        <time>2019-06-02T07:34:36.000Z</time>
      </trkpt>
      <trkpt lat="47.28358" lon="-2.3602">
        <ele>34.799999237061</ele>
        <time>2019-06-02T07:34:37.000Z</time>
      </trkpt>
      <trkpt lat="47.28359" lon="-2.36019">
        <ele>35.400001525879</ele>
        <time>2019-06-02T07:34:38.000Z</time>
      </trkpt>
      <trkpt lat="47.28362" lon="-2.36019">
        <ele>35.799999237061</ele>
        <time>2019-06-02T07:34:39.000Z</time>
      </trkpt>
      <trkpt lat="47.28365" lon="-2.3602">
        <ele>35.799999237061</ele>
        <time>2019-06-02T07:34:40.000Z</time>
      </trkpt>
      <trkpt lat="47.28366" lon="-2.3602">
        <ele>35.799999237061</ele>
        <time>2019-06-02T07:34:41.000Z</time>
      </trkpt>
      <trkpt lat="47.28368" lon="-2.36016">
        <ele>37.799999237061</ele>
        <time>2019-06-02T07:35:02.000Z</time>
      </trkpt>
      <trkpt lat="47.28364" lon="-2.36012">
        <ele>37.799999237061</ele>
        <time>2019-06-02T07:35:04.000Z</time>
      </trkpt>
      <trkpt lat="47.28365" lon="-2.36005">
        <ele>37.799999237061</ele>
        <time>2019-06-02T07:35:07.000Z</time>
      </trkpt>
      <trkpt lat="47.28366" lon="-2.36002">
        <ele>37.400001525879</ele>
        <time>2019-06-02T07:35:08.000Z</time>
      </trkpt>
      <trkpt lat="47.28368" lon="-2.35997">
        <ele>37</ele>
        <time>2019-06-02T07:35:09.000Z</time>
      </trkpt>
      <trkpt lat="47.28369" lon="-2.35991">
        <ele>36</ele>
        <time>2019-06-02T07:35:10.000Z</time>
      </trkpt>
      <trkpt lat="47.2837" lon="-2.35984">
        <ele>35.400001525879</ele>
        <time>2019-06-02T07:35:11.000Z</time>
      </trkpt>
      <trkpt lat="47.28372" lon="-2.35977">
        <ele>34.799999237061</ele>
        <time>2019-06-02T07:35:12.000Z</time>
      </trkpt>
      <trkpt lat="47.28373" lon="-2.3597">
        <ele>34.200000762939</ele>
        <time>2019-06-02T07:35:13.000Z</time>
      </trkpt>
      <trkpt lat="47.28374" lon="-2.35965">
        <ele>33.599998474121</ele>
        <time>2019-06-02T07:35:14.000Z</time>
      </trkpt>
      <trkpt lat="47.28374" lon="-2.3596">
        <ele>32.799999237061</ele>
        <time>2019-06-02T07:35:15.000Z</time>
      </trkpt>
      <trkpt lat="47.28373" lon="-2.35954">
        <ele>32.200000762939</ele>
        <time>2019-06-02T07:35:16.000Z</time>
      </trkpt>
      <trkpt lat="47.28372" lon="-2.3595">
        <ele>31.60000038147</ele>
        <time>2019-06-02T07:35:17.000Z</time>
      </trkpt>
      <trkpt lat="47.28366" lon="-2.35927">
        <ele>31.60000038147</ele>
        <time>2019-06-02T07:35:21.000Z</time>
      </trkpt>
      <trkpt lat="47.28364" lon="-2.35891">
        <ele>31.60000038147</ele>
        <time>2019-06-02T07:35:26.000Z</time>
      </trkpt>
      <trkpt lat="47.28366" lon="-2.35886">
        <ele>31.60000038147</ele>
        <time>2019-06-02T07:35:27.000Z</time>
      </trkpt>
      <trkpt lat="47.2837" lon="-2.35883">
        <ele>31.60000038147</ele>
        <time>2019-06-02T07:35:29.000Z</time>
      </trkpt>
      <trkpt lat="47.28393" lon="-2.35867">
        <ele>31.60000038147</ele>
        <time>2019-06-02T07:35:34.000Z</time>
      </trkpt>
      <trkpt lat="47.28402" lon="-2.35863">
        <ele>31.60000038147</ele>
        <time>2019-06-02T07:35:36.000Z</time>
      </trkpt>
      <trkpt lat="47.28408" lon="-2.35862">
        <ele>31.60000038147</ele>
        <time>2019-06-02T07:35:38.000Z</time>
      </trkpt>
      <trkpt lat="47.28413" lon="-2.35865">
        <ele>31.60000038147</ele>
        <time>2019-06-02T07:35:40.000Z</time>
      </trkpt>
      <trkpt lat="47.28422" lon="-2.35875">
        <ele>31.60000038147</ele>
        <time>2019-06-02T07:35:44.000Z</time>
      </trkpt>
      <trkpt lat="47.28435" lon="-2.35882">
        <ele>31.60000038147</ele>
        <time>2019-06-02T07:35:49.000Z</time>
      </trkpt>
      <trkpt lat="47.28444" lon="-2.35901">
        <ele>31.60000038147</ele>
        <time>2019-06-02T07:35:54.000Z</time>
      </trkpt>
      <trkpt lat="47.28445" lon="-2.35911">
        <ele>31.60000038147</ele>
        <time>2019-06-02T07:35:57.000Z</time>
      </trkpt>
      <trkpt lat="47.28446" lon="-2.35914">
        <ele>31.60000038147</ele>
        <time>2019-06-02T07:35:58.000Z</time>
      </trkpt>
      <trkpt lat="47.28447" lon="-2.35916">
        <ele>32</ele>
        <time>2019-06-02T07:35:59.000Z</time>
      </trkpt>
      <trkpt lat="47.28448" lon="-2.35919">
        <ele>32.599998474121</ele>
        <time>2019-06-02T07:36:00.000Z</time>
      </trkpt>
      <trkpt lat="47.28449" lon="-2.35921">
        <ele>33</ele>
        <time>2019-06-02T07:36:01.000Z</time>
      </trkpt>
      <trkpt lat="47.2845" lon="-2.35922">
        <ele>33.400001525879</ele>
        <time>2019-06-02T07:36:02.000Z</time>
      </trkpt>
      <trkpt lat="47.2845" lon="-2.35923">
        <ele>33.799999237061</ele>
        <time>2019-06-02T07:36:03.000Z</time>
      </trkpt>
      <trkpt lat="47.28451" lon="-2.35924">
        <ele>34.400001525879</ele>
        <time>2019-06-02T07:36:04.000Z</time>
      </trkpt>
      <trkpt lat="47.28451" lon="-2.35926">
        <ele>34.799999237061</ele>
        <time>2019-06-02T07:36:05.000Z</time>
      </trkpt>
      <trkpt lat="47.28452" lon="-2.35928">
        <ele>35.200000762939</ele>
        <time>2019-06-02T07:36:06.000Z</time>
      </trkpt>
      <trkpt lat="47.28452" lon="-2.3593">
        <ele>35.599998474121</ele>
        <time>2019-06-02T07:36:07.000Z</time>
      </trkpt>
      <trkpt lat="47.28452" lon="-2.35932">
        <ele>36</ele>
        <time>2019-06-02T07:36:08.000Z</time>
      </trkpt>
      <trkpt lat="47.28451" lon="-2.3594">
        <ele>36.400001525879</ele>
        <time>2019-06-02T07:36:11.000Z</time>
      </trkpt>
      <trkpt lat="47.28451" lon="-2.35943">
        <ele>36.799999237061</ele>
        <time>2019-06-02T07:36:12.000Z</time>
      </trkpt>
      <trkpt lat="47.28451" lon="-2.35947">
        <ele>37.400001525879</ele>
        <time>2019-06-02T07:36:13.000Z</time>
      </trkpt>
      <trkpt lat="47.28451" lon="-2.35951">
        <ele>37.799999237061</ele>
        <time>2019-06-02T07:36:14.000Z</time>
      </trkpt>
      <trkpt lat="47.2845" lon="-2.35954">
        <ele>38.200000762939</ele>
        <time>2019-06-02T07:36:15.000Z</time>
      </trkpt>
      <trkpt lat="47.28451" lon="-2.35959">
        <ele>38.599998474121</ele>
        <time>2019-06-02T07:36:17.000Z</time>
      </trkpt>
      <trkpt lat="47.28459" lon="-2.35977">
        <ele>42.200000762939</ele>
        <time>2019-06-02T07:36:47.000Z</time>
      </trkpt>
      <trkpt lat="47.28464" lon="-2.35973">
        <ele>42.200000762939</ele>
        <time>2019-06-02T07:36:49.000Z</time>
      </trkpt>
      <trkpt lat="47.28474" lon="-2.35962">
        <ele>42.200000762939</ele>
        <time>2019-06-02T07:36:52.000Z</time>
      </trkpt>
      <trkpt lat="47.2848" lon="-2.35954">
        <ele>42.200000762939</ele>
        <time>2019-06-02T07:36:54.000Z</time>
      </trkpt>
      <trkpt lat="47.28487" lon="-2.35945">
        <ele>42.200000762939</ele>
        <time>2019-06-02T07:36:56.000Z</time>
      </trkpt>
      <trkpt lat="47.28498" lon="-2.35941">
        <ele>42.200000762939</ele>
        <time>2019-06-02T07:36:59.000Z</time>
      </trkpt>
      <trkpt lat="47.28525" lon="-2.35937">
        <ele>42.200000762939</ele>
        <time>2019-06-02T07:37:06.000Z</time>
      </trkpt>
      <trkpt lat="47.28536" lon="-2.35936">
        <ele>42.200000762939</ele>
        <time>2019-06-02T07:37:09.000Z</time>
      </trkpt>
      <trkpt lat="47.28539" lon="-2.35933">
        <ele>42.200000762939</ele>
        <time>2019-06-02T07:37:10.000Z</time>
      </trkpt>
      <trkpt lat="47.28546" lon="-2.35917">
        <ele>42.200000762939</ele>
        <time>2019-06-02T07:37:14.000Z</time>
      </trkpt>
      <trkpt lat="47.28552" lon="-2.35915">
        <ele>41.799999237061</ele>
        <time>2019-06-02T07:37:16.000Z</time>
      </trkpt>
      <trkpt lat="47.28556" lon="-2.35916">
        <ele>41.400001525879</ele>
        <time>2019-06-02T07:37:17.000Z</time>
      </trkpt>
      <trkpt lat="47.28559" lon="-2.35916">
        <ele>41</ele>
        <time>2019-06-02T07:37:18.000Z</time>
      </trkpt>
      <trkpt lat="47.28561" lon="-2.35917">
        <ele>40.400001525879</ele>
        <time>2019-06-02T07:37:19.000Z</time>
      </trkpt>
      <trkpt lat="47.28562" lon="-2.35919">
        <ele>40</ele>
        <time>2019-06-02T07:37:20.000Z</time>
      </trkpt>
      <trkpt lat="47.28566" lon="-2.35922">
        <ele>39.599998474121</ele>
        <time>2019-06-02T07:37:22.000Z</time>
      </trkpt>
      <trkpt lat="47.28569" lon="-2.35923">
        <ele>39</ele>
        <time>2019-06-02T07:37:23.000Z</time>
      </trkpt>
      <trkpt lat="47.28574" lon="-2.35925">
        <ele>38.599998474121</ele>
        <time>2019-06-02T07:37:24.000Z</time>
      </trkpt>
      <trkpt lat="47.28577" lon="-2.35928">
        <ele>38.200000762939</ele>
        <time>2019-06-02T07:37:25.000Z</time>
      </trkpt>
      <trkpt lat="47.28581" lon="-2.35931">
        <ele>37.599998474121</ele>
        <time>2019-06-02T07:37:26.000Z</time>
      </trkpt>
      <trkpt lat="47.28583" lon="-2.35934">
        <ele>37.599998474121</ele>
        <time>2019-06-02T07:37:27.000Z</time>
      </trkpt>
      <trkpt lat="47.28585" lon="-2.35944">
        <ele>37.599998474121</ele>
        <time>2019-06-02T07:37:29.000Z</time>
      </trkpt>
      <trkpt lat="47.28584" lon="-2.35962">
        <ele>37.599998474121</ele>
        <time>2019-06-02T07:37:33.000Z</time>
      </trkpt>
      <trkpt lat="47.2859" lon="-2.35984">
        <ele>37.599998474121</ele>
        <time>2019-06-02T07:37:37.000Z</time>
      </trkpt>
      <trkpt lat="47.28595" lon="-2.36">
        <ele>37.599998474121</ele>
        <time>2019-06-02T07:37:40.000Z</time>
      </trkpt>
      <trkpt lat="47.28598" lon="-2.36006">
        <ele>37.599998474121</ele>
        <time>2019-06-02T07:37:41.000Z</time>
      </trkpt>
      <trkpt lat="47.28603" lon="-2.36017">
        <ele>37.599998474121</ele>
        <time>2019-06-02T07:37:43.000Z</time>
      </trkpt>
      <trkpt lat="47.28615" lon="-2.36038">
        <ele>37.599998474121</ele>
        <time>2019-06-02T07:37:47.000Z</time>
      </trkpt>
      <trkpt lat="47.28619" lon="-2.36043">
        <ele>37.599998474121</ele>
        <time>2019-06-02T07:37:48.000Z</time>
      </trkpt>
      <trkpt lat="47.28633" lon="-2.36059">
        <ele>37.599998474121</ele>
        <time>2019-06-02T07:37:52.000Z</time>
      </trkpt>
      <trkpt lat="47.28643" lon="-2.36078">
        <ele>37.599998474121</ele>
        <time>2019-06-02T07:37:56.000Z</time>
      </trkpt>
      <trkpt lat="47.28645" lon="-2.36091">
        <ele>37.599998474121</ele>
        <time>2019-06-02T07:38:00.000Z</time>
      </trkpt>
      <trkpt lat="47.28645" lon="-2.36093">
        <ele>38</ele>
        <time>2019-06-02T07:38:01.000Z</time>
      </trkpt>
      <trkpt lat="47.28645" lon="-2.36095">
        <ele>38.400001525879</ele>
        <time>2019-06-02T07:38:02.000Z</time>
      </trkpt>
      <trkpt lat="47.28645" lon="-2.36096">
        <ele>39.200000762939</ele>
        <time>2019-06-02T07:38:03.000Z</time>
      </trkpt>
      <trkpt lat="47.28645" lon="-2.36097">
        <ele>39.799999237061</ele>
        <time>2019-06-02T07:38:04.000Z</time>
      </trkpt>
      <trkpt lat="47.28645" lon="-2.36098">
        <ele>40.200000762939</ele>
        <time>2019-06-02T07:38:05.000Z</time>
      </trkpt>
      <trkpt lat="47.28645" lon="-2.361">
        <ele>40.799999237061</ele>
        <time>2019-06-02T07:38:06.000Z</time>
      </trkpt>
      <trkpt lat="47.28644" lon="-2.36101">
        <ele>41.200000762939</ele>
        <time>2019-06-02T07:38:07.000Z</time>
      </trkpt>
      <trkpt lat="47.28644" lon="-2.36103">
        <ele>41.799999237061</ele>
        <time>2019-06-02T07:38:08.000Z</time>
      </trkpt>
      <trkpt lat="47.28643" lon="-2.36105">
        <ele>42.200000762939</ele>
        <time>2019-06-02T07:38:09.000Z</time>
      </trkpt>
      <trkpt lat="47.28643" lon="-2.36105">
        <ele>42.599998474121</ele>
        <time>2019-06-02T07:38:10.000Z</time>
      </trkpt>
      <trkpt lat="47.28642" lon="-2.36107">
        <ele>43</ele>
        <time>2019-06-02T07:38:11.000Z</time>
      </trkpt>
      <trkpt lat="47.28642" lon="-2.36109">
        <ele>43.400001525879</ele>
        <time>2019-06-02T07:38:12.000Z</time>
      </trkpt>
      <trkpt lat="47.28641" lon="-2.3611">
        <ele>43.799999237061</ele>
        <time>2019-06-02T07:38:13.000Z</time>
      </trkpt>
      <trkpt lat="47.28638" lon="-2.36117">
        <ele>44.200000762939</ele>
        <time>2019-06-02T07:38:18.000Z</time>
      </trkpt>
      <trkpt lat="47.28637" lon="-2.36118">
        <ele>44.599998474121</ele>
        <time>2019-06-02T07:38:19.000Z</time>
      </trkpt>
      <trkpt lat="47.2863" lon="-2.36129">
        <ele>45.799999237061</ele>
        <time>2019-06-02T07:38:27.000Z</time>
      </trkpt>
      <trkpt lat="47.28628" lon="-2.36133">
        <ele>45.799999237061</ele>
        <time>2019-06-02T07:38:29.000Z</time>
      </trkpt>
      <trkpt lat="47.28626" lon="-2.36135">
        <ele>45.799999237061</ele>
        <time>2019-06-02T07:38:31.000Z</time>
      </trkpt>
      <trkpt lat="47.28621" lon="-2.3614">
        <ele>45.799999237061</ele>
        <time>2019-06-02T07:38:34.000Z</time>
      </trkpt>
      <trkpt lat="47.28615" lon="-2.36149">
        <ele>45.799999237061</ele>
        <time>2019-06-02T07:38:40.000Z</time>
      </trkpt>
      <trkpt lat="47.28607" lon="-2.3615">
        <ele>45.799999237061</ele>
        <time>2019-06-02T07:38:45.000Z</time>
      </trkpt>
      <trkpt lat="47.28605" lon="-2.36166">
        <ele>45.799999237061</ele>
        <time>2019-06-02T07:38:59.000Z</time>
      </trkpt>
      <trkpt lat="47.28605" lon="-2.36171">
        <ele>45.799999237061</ele>
        <time>2019-06-02T07:39:01.000Z</time>
      </trkpt>
      <trkpt lat="47.28602" lon="-2.36185">
        <ele>45.799999237061</ele>
        <time>2019-06-02T07:39:05.000Z</time>
      </trkpt>
      <trkpt lat="47.28598" lon="-2.36206">
        <ele>45.799999237061</ele>
        <time>2019-06-02T07:39:11.000Z</time>
      </trkpt>
      <trkpt lat="47.28591" lon="-2.36226">
        <ele>45.799999237061</ele>
        <time>2019-06-02T07:39:17.000Z</time>
      </trkpt>
      <trkpt lat="47.28586" lon="-2.36239">
        <ele>46.200000762939</ele>
        <time>2019-06-02T07:39:22.000Z</time>
      </trkpt>
      <trkpt lat="47.28584" lon="-2.36241">
        <ele>48</ele>
        <time>2019-06-02T07:39:34.000Z</time>
      </trkpt>
      <trkpt lat="47.28579" lon="-2.3625">
        <ele>48</ele>
        <time>2019-06-02T07:39:37.000Z</time>
      </trkpt>
      <trkpt lat="47.28578" lon="-2.36253">
        <ele>48</ele>
        <time>2019-06-02T07:39:38.000Z</time>
      </trkpt>
      <trkpt lat="47.28574" lon="-2.36265">
        <ele>48</ele>
        <time>2019-06-02T07:39:41.000Z</time>
      </trkpt>
      <trkpt lat="47.28573" lon="-2.36269">
        <ele>48</ele>
        <time>2019-06-02T07:39:42.000Z</time>
      </trkpt>
      <trkpt lat="47.28569" lon="-2.36287">
        <ele>48</ele>
        <time>2019-06-02T07:39:46.000Z</time>
      </trkpt>
      <trkpt lat="47.28566" lon="-2.36299">
        <ele>48</ele>
        <time>2019-06-02T07:39:50.000Z</time>
      </trkpt>
      <trkpt lat="47.28565" lon="-2.36302">
        <ele>48</ele>
        <time>2019-06-02T07:39:51.000Z</time>
      </trkpt>
      <trkpt lat="47.2856" lon="-2.36314">
        <ele>48</ele>
        <time>2019-06-02T07:39:55.000Z</time>
      </trkpt>
      <trkpt lat="47.28559" lon="-2.3632">
        <ele>48</ele>
        <time>2019-06-02T07:39:56.000Z</time>
      </trkpt>
      <trkpt lat="47.28554" lon="-2.36339">
        <ele>48</ele>
        <time>2019-06-02T07:40:01.000Z</time>
      </trkpt>
      <trkpt lat="47.28553" lon="-2.36342">
        <ele>47.400001525879</ele>
        <time>2019-06-02T07:40:02.000Z</time>
      </trkpt>
      <trkpt lat="47.2855" lon="-2.36344">
        <ele>47</ele>
        <time>2019-06-02T07:40:03.000Z</time>
      </trkpt>
      <trkpt lat="47.28548" lon="-2.36345">
        <ele>46.599998474121</ele>
        <time>2019-06-02T07:40:04.000Z</time>
      </trkpt>
      <trkpt lat="47.28546" lon="-2.36347">
        <ele>46</ele>
        <time>2019-06-02T07:40:05.000Z</time>
      </trkpt>
      <trkpt lat="47.28544" lon="-2.36346">
        <ele>45.599998474121</ele>
        <time>2019-06-02T07:40:06.000Z</time>
      </trkpt>
      <trkpt lat="47.2854" lon="-2.3634">
        <ele>45.200000762939</ele>
        <time>2019-06-02T07:40:08.000Z</time>
      </trkpt>
      <trkpt lat="47.28539" lon="-2.36335">
        <ele>44.799999237061</ele>
        <time>2019-06-02T07:40:09.000Z</time>
      </trkpt>
      <trkpt lat="47.28538" lon="-2.36329">
        <ele>44.400001525879</ele>
        <time>2019-06-02T07:40:10.000Z</time>
      </trkpt>
      <trkpt lat="47.28539" lon="-2.36322">
        <ele>43.799999237061</ele>
        <time>2019-06-02T07:40:11.000Z</time>
      </trkpt>
      <trkpt lat="47.28541" lon="-2.36315">
        <ele>43.400001525879</ele>
        <time>2019-06-02T07:40:12.000Z</time>
      </trkpt>
      <trkpt lat="47.28544" lon="-2.36308">
        <ele>43.400001525879</ele>
        <time>2019-06-02T07:40:13.000Z</time>
      </trkpt>
      <trkpt lat="47.28546" lon="-2.36303">
        <ele>43</ele>
        <time>2019-06-02T07:40:14.000Z</time>
      </trkpt>
      <trkpt lat="47.28548" lon="-2.36298">
        <ele>42.599998474121</ele>
        <time>2019-06-02T07:40:15.000Z</time>
      </trkpt>
      <trkpt lat="47.28549" lon="-2.36292">
        <ele>42.200000762939</ele>
        <time>2019-06-02T07:40:16.000Z</time>
      </trkpt>
      <trkpt lat="47.2855" lon="-2.36286">
        <ele>41.799999237061</ele>
        <time>2019-06-02T07:40:17.000Z</time>
      </trkpt>
      <trkpt lat="47.28551" lon="-2.3628">
        <ele>41.400001525879</ele>
        <time>2019-06-02T07:40:18.000Z</time>
      </trkpt>
      <trkpt lat="47.28553" lon="-2.36265">
        <ele>41.400001525879</ele>
        <time>2019-06-02T07:40:20.000Z</time>
      </trkpt>
      <trkpt lat="47.28552" lon="-2.36227">
        <ele>41.400001525879</ele>
        <time>2019-06-02T07:40:25.000Z</time>
      </trkpt>
      <trkpt lat="47.28552" lon="-2.36219">
        <ele>41.400001525879</ele>
        <time>2019-06-02T07:40:26.000Z</time>
      </trkpt>
      <trkpt lat="47.28552" lon="-2.36201">
        <ele>41.400001525879</ele>
        <time>2019-06-02T07:40:29.000Z</time>
      </trkpt>
      <trkpt lat="47.28552" lon="-2.36177">
        <ele>41.799999237061</ele>
        <time>2019-06-02T07:40:34.000Z</time>
      </trkpt>
      <trkpt lat="47.2855" lon="-2.36174">
        <ele>42.200000762939</ele>
        <time>2019-06-02T07:40:35.000Z</time>
      </trkpt>
      <trkpt lat="47.28547" lon="-2.36172">
        <ele>42.599998474121</ele>
        <time>2019-06-02T07:40:36.000Z</time>
      </trkpt>
      <trkpt lat="47.28543" lon="-2.3617">
        <ele>43</ele>
        <time>2019-06-02T07:40:37.000Z</time>
      </trkpt>
      <trkpt lat="47.28538" lon="-2.36168">
        <ele>43.400001525879</ele>
        <time>2019-06-02T07:40:38.000Z</time>
      </trkpt>
      <trkpt lat="47.28533" lon="-2.36167">
        <ele>43.400001525879</ele>
        <time>2019-06-02T07:40:39.000Z</time>
      </trkpt>
      <trkpt lat="47.28522" lon="-2.36164">
        <ele>43</ele>
        <time>2019-06-02T07:40:41.000Z</time>
      </trkpt>
      <trkpt lat="47.28516" lon="-2.36162">
        <ele>42.400001525879</ele>
        <time>2019-06-02T07:40:42.000Z</time>
      </trkpt>
      <trkpt lat="47.28511" lon="-2.3616">
        <ele>42</ele>
        <time>2019-06-02T07:40:43.000Z</time>
      </trkpt>
      <trkpt lat="47.28506" lon="-2.36159">
        <ele>41.599998474121</ele>
        <time>2019-06-02T07:40:44.000Z</time>
      </trkpt>
      <trkpt lat="47.28502" lon="-2.36159">
        <ele>41</ele>
        <time>2019-06-02T07:40:45.000Z</time>
      </trkpt>
      <trkpt lat="47.28498" lon="-2.36161">
        <ele>40.400001525879</ele>
        <time>2019-06-02T07:40:46.000Z</time>
      </trkpt>
      <trkpt lat="47.28494" lon="-2.36164">
        <ele>39.799999237061</ele>
        <time>2019-06-02T07:40:47.000Z</time>
      </trkpt>
      <trkpt lat="47.28491" lon="-2.36168">
        <ele>39.400001525879</ele>
        <time>2019-06-02T07:40:48.000Z</time>
      </trkpt>
      <trkpt lat="47.28487" lon="-2.36174">
        <ele>38.799999237061</ele>
        <time>2019-06-02T07:40:49.000Z</time>
      </trkpt>
      <trkpt lat="47.28485" lon="-2.3618">
        <ele>38.400001525879</ele>
        <time>2019-06-02T07:40:50.000Z</time>
      </trkpt>
      <trkpt lat="47.28482" lon="-2.36185">
        <ele>38</ele>
        <time>2019-06-02T07:40:51.000Z</time>
      </trkpt>
      <trkpt lat="47.28479" lon="-2.36191">
        <ele>37.400001525879</ele>
        <time>2019-06-02T07:40:52.000Z</time>
      </trkpt>
      <trkpt lat="47.28476" lon="-2.36195">
        <ele>37</ele>
        <time>2019-06-02T07:40:53.000Z</time>
      </trkpt>
      <trkpt lat="47.28471" lon="-2.36199">
        <ele>36.599998474121</ele>
        <time>2019-06-02T07:40:54.000Z</time>
      </trkpt>
      <trkpt lat="47.28465" lon="-2.36209">
        <ele>36.200000762939</ele>
        <time>2019-06-02T07:40:56.000Z</time>
      </trkpt>
      <trkpt lat="47.28462" lon="-2.36215">
        <ele>35.799999237061</ele>
        <time>2019-06-02T07:40:57.000Z</time>
      </trkpt>
      <trkpt lat="47.2846" lon="-2.36222">
        <ele>35.200000762939</ele>
        <time>2019-06-02T07:40:58.000Z</time>
      </trkpt>
      <trkpt lat="47.2846" lon="-2.36229">
        <ele>34.799999237061</ele>
        <time>2019-06-02T07:40:59.000Z</time>
      </trkpt>
      <trkpt lat="47.28461" lon="-2.36237">
        <ele>34.400001525879</ele>
        <time>2019-06-02T07:41:00.000Z</time>
      </trkpt>
      <trkpt lat="47.28463" lon="-2.36252">
        <ele>34.400001525879</ele>
        <time>2019-06-02T07:41:02.000Z</time>
      </trkpt>
      <trkpt lat="47.28468" lon="-2.36291">
        <ele>34.400001525879</ele>
        <time>2019-06-02T07:41:07.000Z</time>
      </trkpt>
      <trkpt lat="47.28469" lon="-2.36306">
        <ele>34.400001525879</ele>
        <time>2019-06-02T07:41:09.000Z</time>
      </trkpt>
      <trkpt lat="47.28468" lon="-2.3634">
        <ele>34.400001525879</ele>
        <time>2019-06-02T07:41:13.000Z</time>
      </trkpt>
      <trkpt lat="47.28467" lon="-2.36384">
        <ele>34.400001525879</ele>
        <time>2019-06-02T07:41:19.000Z</time>
      </trkpt>
      <trkpt lat="47.28471" lon="-2.36403">
        <ele>34.400001525879</ele>
        <time>2019-06-02T07:41:22.000Z</time>
      </trkpt>
      <trkpt lat="47.2848" lon="-2.36416">
        <ele>34.400001525879</ele>
        <time>2019-06-02T07:41:24.000Z</time>
      </trkpt>
      <trkpt lat="47.28494" lon="-2.36431">
        <ele>33.799999237061</ele>
        <time>2019-06-02T07:41:27.000Z</time>
      </trkpt>
      <trkpt lat="47.28499" lon="-2.36435">
        <ele>33.400001525879</ele>
        <time>2019-06-02T07:41:28.000Z</time>
      </trkpt>
      <trkpt lat="47.28504" lon="-2.3644">
        <ele>33</ele>
        <time>2019-06-02T07:41:29.000Z</time>
      </trkpt>
      <trkpt lat="47.28509" lon="-2.36445">
        <ele>32.599998474121</ele>
        <time>2019-06-02T07:41:30.000Z</time>
      </trkpt>
      <trkpt lat="47.28512" lon="-2.36451">
        <ele>32.200000762939</ele>
        <time>2019-06-02T07:41:31.000Z</time>
      </trkpt>
      <trkpt lat="47.28514" lon="-2.36459">
        <ele>32.200000762939</ele>
        <time>2019-06-02T07:41:32.000Z</time>
      </trkpt>
      <trkpt lat="47.28519" lon="-2.36479">
        <ele>32.200000762939</ele>
        <time>2019-06-02T07:41:35.000Z</time>
      </trkpt>
      <trkpt lat="47.2852" lon="-2.36501">
        <ele>32.200000762939</ele>
        <time>2019-06-02T07:41:39.000Z</time>
      </trkpt>
      <trkpt lat="47.28518" lon="-2.3651">
        <ele>32.200000762939</ele>
        <time>2019-06-02T07:41:41.000Z</time>
      </trkpt>
      <trkpt lat="47.28517" lon="-2.3652">
        <ele>32.200000762939</ele>
        <time>2019-06-02T07:41:43.000Z</time>
      </trkpt>
      <trkpt lat="47.28512" lon="-2.36531">
        <ele>31.200000762939</ele>
        <time>2019-06-02T07:41:45.000Z</time>
      </trkpt>
      <trkpt lat="47.28508" lon="-2.36536">
        <ele>30.799999237061</ele>
        <time>2019-06-02T07:41:46.000Z</time>
      </trkpt>
      <trkpt lat="47.28503" lon="-2.36541">
        <ele>30.39999961853</ele>
        <time>2019-06-02T07:41:47.000Z</time>
      </trkpt>
      <trkpt lat="47.28499" lon="-2.36546">
        <ele>30</ele>
        <time>2019-06-02T07:41:48.000Z</time>
      </trkpt>
      <trkpt lat="47.28485" lon="-2.36557">
        <ele>30</ele>
        <time>2019-06-02T07:41:50.000Z</time>
      </trkpt>
      <trkpt lat="47.28476" lon="-2.36572">
        <ele>30</ele>
        <time>2019-06-02T07:41:52.000Z</time>
      </trkpt>
      <trkpt lat="47.28473" lon="-2.36579">
        <ele>30</ele>
        <time>2019-06-02T07:41:53.000Z</time>
      </trkpt>
      <trkpt lat="47.28474" lon="-2.36593">
        <ele>30</ele>
        <time>2019-06-02T07:41:55.000Z</time>
      </trkpt>
      <trkpt lat="47.28476" lon="-2.36609">
        <ele>30</ele>
        <time>2019-06-02T07:41:57.000Z</time>
      </trkpt>
      <trkpt lat="47.28482" lon="-2.36632">
        <ele>30</ele>
        <time>2019-06-02T07:42:00.000Z</time>
      </trkpt>
      <trkpt lat="47.28488" lon="-2.36653">
        <ele>29.60000038147</ele>
        <time>2019-06-02T07:42:03.000Z</time>
      </trkpt>
      <trkpt lat="47.28491" lon="-2.36659">
        <ele>29.200000762939</ele>
        <time>2019-06-02T07:42:04.000Z</time>
      </trkpt>
      <trkpt lat="47.28495" lon="-2.36665">
        <ele>28.799999237061</ele>
        <time>2019-06-02T07:42:05.000Z</time>
      </trkpt>
      <trkpt lat="47.28498" lon="-2.36669">
        <ele>28.39999961853</ele>
        <time>2019-06-02T07:42:06.000Z</time>
      </trkpt>
      <trkpt lat="47.28502" lon="-2.36674">
        <ele>28</ele>
        <time>2019-06-02T07:42:07.000Z</time>
      </trkpt>
      <trkpt lat="47.2851" lon="-2.36684">
        <ele>28</ele>
        <time>2019-06-02T07:42:09.000Z</time>
      </trkpt>
      <trkpt lat="47.28514" lon="-2.36691">
        <ele>28</ele>
        <time>2019-06-02T07:42:10.000Z</time>
      </trkpt>
      <trkpt lat="47.28519" lon="-2.36698">
        <ele>28</ele>
        <time>2019-06-02T07:42:11.000Z</time>
      </trkpt>
      <trkpt lat="47.28545" lon="-2.36741">
        <ele>28</ele>
        <time>2019-06-02T07:42:16.000Z</time>
      </trkpt>
      <trkpt lat="47.2855" lon="-2.36751">
        <ele>27.60000038147</ele>
        <time>2019-06-02T07:42:17.000Z</time>
      </trkpt>
      <trkpt lat="47.28555" lon="-2.36761">
        <ele>27.200000762939</ele>
        <time>2019-06-02T07:42:18.000Z</time>
      </trkpt>
      <trkpt lat="47.2856" lon="-2.36771">
        <ele>26.60000038147</ele>
        <time>2019-06-02T07:42:19.000Z</time>
      </trkpt>
      <trkpt lat="47.28565" lon="-2.3678">
        <ele>26.200000762939</ele>
        <time>2019-06-02T07:42:20.000Z</time>
      </trkpt>
      <trkpt lat="47.2857" lon="-2.3679">
        <ele>25.799999237061</ele>
        <time>2019-06-02T07:42:21.000Z</time>
      </trkpt>
      <trkpt lat="47.28575" lon="-2.368">
        <ele>25.39999961853</ele>
        <time>2019-06-02T07:42:22.000Z</time>
      </trkpt>
      <trkpt lat="47.28579" lon="-2.36809">
        <ele>25</ele>
        <time>2019-06-02T07:42:23.000Z</time>
      </trkpt>
      <trkpt lat="47.28584" lon="-2.36818">
        <ele>24.60000038147</ele>
        <time>2019-06-02T07:42:24.000Z</time>
      </trkpt>
      <trkpt lat="47.28589" lon="-2.36828">
        <ele>24.200000762939</ele>
        <time>2019-06-02T07:42:25.000Z</time>
      </trkpt>
      <trkpt lat="47.28593" lon="-2.36836">
        <ele>23.799999237061</ele>
        <time>2019-06-02T07:42:26.000Z</time>
      </trkpt>
      <trkpt lat="47.28598" lon="-2.36841">
        <ele>23.799999237061</ele>
        <time>2019-06-02T07:42:27.000Z</time>
      </trkpt>
      <trkpt lat="47.28605" lon="-2.36843">
        <ele>23.39999961853</ele>
        <time>2019-06-02T07:42:28.000Z</time>
      </trkpt>
      <trkpt lat="47.28611" lon="-2.36842">
        <ele>23</ele>
        <time>2019-06-02T07:42:29.000Z</time>
      </trkpt>
      <trkpt lat="47.28617" lon="-2.36839">
        <ele>22.39999961853</ele>
        <time>2019-06-02T07:42:30.000Z</time>
      </trkpt>
      <trkpt lat="47.28622" lon="-2.36835">
        <ele>22</ele>
        <time>2019-06-02T07:42:31.000Z</time>
      </trkpt>
      <trkpt lat="47.28626" lon="-2.36829">
        <ele>21.60000038147</ele>
        <time>2019-06-02T07:42:32.000Z</time>
      </trkpt>
      <trkpt lat="47.2863" lon="-2.36824">
        <ele>21.60000038147</ele>
        <time>2019-06-02T07:42:33.000Z</time>
      </trkpt>
      <trkpt lat="47.28642" lon="-2.36807">
        <ele>21.60000038147</ele>
        <time>2019-06-02T07:42:36.000Z</time>
      </trkpt>
      <trkpt lat="47.28649" lon="-2.36797">
        <ele>21.60000038147</ele>
        <time>2019-06-02T07:42:38.000Z</time>
      </trkpt>
      <trkpt lat="47.28653" lon="-2.36792">
        <ele>22</ele>
        <time>2019-06-02T07:42:39.000Z</time>
      </trkpt>
      <trkpt lat="47.28656" lon="-2.3679">
        <ele>22.39999961853</ele>
        <time>2019-06-02T07:42:40.000Z</time>
      </trkpt>
      <trkpt lat="47.28659" lon="-2.3679">
        <ele>22.799999237061</ele>
        <time>2019-06-02T07:42:41.000Z</time>
      </trkpt>
      <trkpt lat="47.28661" lon="-2.36792">
        <ele>23.200000762939</ele>
        <time>2019-06-02T07:42:42.000Z</time>
      </trkpt>
      <trkpt lat="47.28663" lon="-2.36795">
        <ele>23.60000038147</ele>
        <time>2019-06-02T07:42:43.000Z</time>
      </trkpt>
      <trkpt lat="47.28667" lon="-2.368">
        <ele>23.60000038147</ele>
        <time>2019-06-02T07:42:44.000Z</time>
      </trkpt>
      <trkpt lat="47.28673" lon="-2.3681">
        <ele>23.60000038147</ele>
        <time>2019-06-02T07:42:46.000Z</time>
      </trkpt>
      <trkpt lat="47.28682" lon="-2.36827">
        <ele>23.60000038147</ele>
        <time>2019-06-02T07:42:49.000Z</time>
      </trkpt>
      <trkpt lat="47.28702" lon="-2.36867">
        <ele>23.60000038147</ele>
        <time>2019-06-02T07:42:55.000Z</time>
      </trkpt>
      <trkpt lat="47.2871" lon="-2.36885">
        <ele>23.60000038147</ele>
        <time>2019-06-02T07:42:58.000Z</time>
      </trkpt>
      <trkpt lat="47.28713" lon="-2.3689">
        <ele>23.200000762939</ele>
        <time>2019-06-02T07:42:59.000Z</time>
      </trkpt>
      <trkpt lat="47.28716" lon="-2.36897">
        <ele>22.799999237061</ele>
        <time>2019-06-02T07:43:00.000Z</time>
      </trkpt>
      <trkpt lat="47.2872" lon="-2.36902">
        <ele>22.39999961853</ele>
        <time>2019-06-02T07:43:01.000Z</time>
      </trkpt>
      <trkpt lat="47.28725" lon="-2.36907">
        <ele>22</ele>
        <time>2019-06-02T07:43:02.000Z</time>
      </trkpt>
      <trkpt lat="47.2873" lon="-2.36913">
        <ele>21.39999961853</ele>
        <time>2019-06-02T07:43:03.000Z</time>
      </trkpt>
      <trkpt lat="47.28734" lon="-2.36917">
        <ele>21</ele>
        <time>2019-06-02T07:43:04.000Z</time>
      </trkpt>
      <trkpt lat="47.28739" lon="-2.36921">
        <ele>20.39999961853</ele>
        <time>2019-06-02T07:43:05.000Z</time>
      </trkpt>
      <trkpt lat="47.28743" lon="-2.36928">
        <ele>19.799999237061</ele>
        <time>2019-06-02T07:43:06.000Z</time>
      </trkpt>
      <trkpt lat="47.28746" lon="-2.36933">
        <ele>19.39999961853</ele>
        <time>2019-06-02T07:43:07.000Z</time>
      </trkpt>
      <trkpt lat="47.28749" lon="-2.36937">
        <ele>19.39999961853</ele>
        <time>2019-06-02T07:43:08.000Z</time>
      </trkpt>
      <trkpt lat="47.28751" lon="-2.36946">
        <ele>19.799999237061</ele>
        <time>2019-06-02T07:43:10.000Z</time>
      </trkpt>
      <trkpt lat="47.28752" lon="-2.3695">
        <ele>20.39999961853</ele>
        <time>2019-06-02T07:43:11.000Z</time>
      </trkpt>
      <trkpt lat="47.28752" lon="-2.36954">
        <ele>20.799999237061</ele>
        <time>2019-06-02T07:43:12.000Z</time>
      </trkpt>
      <trkpt lat="47.28753" lon="-2.36957">
        <ele>21.200000762939</ele>
        <time>2019-06-02T07:43:13.000Z</time>
      </trkpt>
      <trkpt lat="47.28754" lon="-2.3696">
        <ele>21.799999237061</ele>
        <time>2019-06-02T07:43:14.000Z</time>
      </trkpt>
      <trkpt lat="47.28756" lon="-2.36969">
        <ele>22.200000762939</ele>
        <time>2019-06-02T07:43:17.000Z</time>
      </trkpt>
      <trkpt lat="47.28757" lon="-2.36972">
        <ele>22.60000038147</ele>
        <time>2019-06-02T07:43:18.000Z</time>
      </trkpt>
      <trkpt lat="47.28759" lon="-2.36976">
        <ele>23</ele>
        <time>2019-06-02T07:43:19.000Z</time>
      </trkpt>
      <trkpt lat="47.2876" lon="-2.3698">
        <ele>23.39999961853</ele>
        <time>2019-06-02T07:43:20.000Z</time>
      </trkpt>
      <trkpt lat="47.28761" lon="-2.36983">
        <ele>23.799999237061</ele>
        <time>2019-06-02T07:43:21.000Z</time>
      </trkpt>
      <trkpt lat="47.28763" lon="-2.36985">
        <ele>23.799999237061</ele>
        <time>2019-06-02T07:43:22.000Z</time>
      </trkpt>
      <trkpt lat="47.28768" lon="-2.3699">
        <ele>23.799999237061</ele>
        <time>2019-06-02T07:43:24.000Z</time>
      </trkpt>
      <trkpt lat="47.28774" lon="-2.37007">
        <ele>23.799999237061</ele>
        <time>2019-06-02T07:43:28.000Z</time>
      </trkpt>
      <trkpt lat="47.2878" lon="-2.37031">
        <ele>23.799999237061</ele>
        <time>2019-06-02T07:43:33.000Z</time>
      </trkpt>
      <trkpt lat="47.28787" lon="-2.37056">
        <ele>23.799999237061</ele>
        <time>2019-06-02T07:43:37.000Z</time>
      </trkpt>
      <trkpt lat="47.28789" lon="-2.37063">
        <ele>23.39999961853</ele>
        <time>2019-06-02T07:43:38.000Z</time>
      </trkpt>
      <trkpt lat="47.28791" lon="-2.37071">
        <ele>23</ele>
        <time>2019-06-02T07:43:39.000Z</time>
      </trkpt>
      <trkpt lat="47.28792" lon="-2.37078">
        <ele>22.60000038147</ele>
        <time>2019-06-02T07:43:40.000Z</time>
      </trkpt>
      <trkpt lat="47.28795" lon="-2.37084">
        <ele>22</ele>
        <time>2019-06-02T07:43:41.000Z</time>
      </trkpt>
      <trkpt lat="47.28798" lon="-2.37088">
        <ele>21.39999961853</ele>
        <time>2019-06-02T07:43:42.000Z</time>
      </trkpt>
      <trkpt lat="47.28801" lon="-2.37091">
        <ele>20.60000038147</ele>
        <time>2019-06-02T07:43:43.000Z</time>
      </trkpt>
      <trkpt lat="47.28805" lon="-2.37094">
        <ele>20</ele>
        <time>2019-06-02T07:43:44.000Z</time>
      </trkpt>
      <trkpt lat="47.28809" lon="-2.37095">
        <ele>19.39999961853</ele>
        <time>2019-06-02T07:43:45.000Z</time>
      </trkpt>
      <trkpt lat="47.28812" lon="-2.37095">
        <ele>19</ele>
        <time>2019-06-02T07:43:46.000Z</time>
      </trkpt>
      <trkpt lat="47.28815" lon="-2.37095">
        <ele>18.39999961853</ele>
        <time>2019-06-02T07:43:47.000Z</time>
      </trkpt>
      <trkpt lat="47.28816" lon="-2.37096">
        <ele>18</ele>
        <time>2019-06-02T07:43:48.000Z</time>
      </trkpt>
      <trkpt lat="47.28818" lon="-2.37097">
        <ele>16.799999237061</ele>
        <time>2019-06-02T07:43:49.000Z</time>
      </trkpt>
      <trkpt lat="47.2882" lon="-2.37099">
        <ele>16.39999961853</ele>
        <time>2019-06-02T07:43:50.000Z</time>
      </trkpt>
      <trkpt lat="47.28821" lon="-2.37098">
        <ele>15.800000190735</ele>
        <time>2019-06-02T07:43:51.000Z</time>
      </trkpt>
      <trkpt lat="47.28822" lon="-2.37098">
        <ele>15.199999809265</ele>
        <time>2019-06-02T07:43:52.000Z</time>
      </trkpt>
      <trkpt lat="47.28823" lon="-2.37097">
        <ele>14.800000190735</ele>
        <time>2019-06-02T07:43:53.000Z</time>
      </trkpt>
      <trkpt lat="47.28826" lon="-2.3709">
        <ele>14.800000190735</ele>
        <time>2019-06-02T07:43:56.000Z</time>
      </trkpt>
      <trkpt lat="47.28826" lon="-2.37069">
        <ele>14.199999809265</ele>
        <time>2019-06-02T07:44:02.000Z</time>
      </trkpt>
      <trkpt lat="47.28825" lon="-2.37064">
        <ele>13.800000190735</ele>
        <time>2019-06-02T07:44:03.000Z</time>
      </trkpt>
      <trkpt lat="47.28824" lon="-2.37059">
        <ele>13.39999961853</ele>
        <time>2019-06-02T07:44:04.000Z</time>
      </trkpt>
      <trkpt lat="47.28822" lon="-2.37055">
        <ele>13</ele>
        <time>2019-06-02T07:44:05.000Z</time>
      </trkpt>
      <trkpt lat="47.2882" lon="-2.3705">
        <ele>12.60000038147</ele>
        <time>2019-06-02T07:44:06.000Z</time>
      </trkpt>
      <trkpt lat="47.28819" lon="-2.37043">
        <ele>12.60000038147</ele>
        <time>2019-06-02T07:44:07.000Z</time>
      </trkpt>
      <trkpt lat="47.28805" lon="-2.37002">
        <ele>12.60000038147</ele>
        <time>2019-06-02T07:44:13.000Z</time>
      </trkpt>
      <trkpt lat="47.28791" lon="-2.3696">
        <ele>12.60000038147</ele>
        <time>2019-06-02T07:44:19.000Z</time>
      </trkpt>
      <trkpt lat="47.2878" lon="-2.36919">
        <ele>12.60000038147</ele>
        <time>2019-06-02T07:44:25.000Z</time>
      </trkpt>
      <trkpt lat="47.28767" lon="-2.3691">
        <ele>12.60000038147</ele>
        <time>2019-06-02T07:44:28.000Z</time>
      </trkpt>
      <trkpt lat="47.28761" lon="-2.36908">
        <ele>12.60000038147</ele>
        <time>2019-06-02T07:44:29.000Z</time>
      </trkpt>
      <trkpt lat="47.28753" lon="-2.36906">
        <ele>13</ele>
        <time>2019-06-02T07:44:31.000Z</time>
      </trkpt>
      <trkpt lat="47.28748" lon="-2.36906">
        <ele>13.60000038147</ele>
        <time>2019-06-02T07:44:32.000Z</time>
      </trkpt>
      <trkpt lat="47.28745" lon="-2.36906">
        <ele>14</ele>
        <time>2019-06-02T07:44:33.000Z</time>
      </trkpt>
      <trkpt lat="47.28742" lon="-2.36906">
        <ele>14.39999961853</ele>
        <time>2019-06-02T07:44:34.000Z</time>
      </trkpt>
      <trkpt lat="47.28739" lon="-2.36907">
        <ele>14.800000190735</ele>
        <time>2019-06-02T07:44:35.000Z</time>
      </trkpt>
      <trkpt lat="47.28736" lon="-2.36909">
        <ele>14.800000190735</ele>
        <time>2019-06-02T07:44:36.000Z</time>
      </trkpt>
      <trkpt lat="47.28733" lon="-2.36911">
        <ele>15.199999809265</ele>
        <time>2019-06-02T07:44:37.000Z</time>
      </trkpt>
      <trkpt lat="47.28731" lon="-2.36912">
        <ele>15.800000190735</ele>
        <time>2019-06-02T07:44:38.000Z</time>
      </trkpt>
      <trkpt lat="47.28728" lon="-2.36913">
        <ele>16.60000038147</ele>
        <time>2019-06-02T07:44:39.000Z</time>
      </trkpt>
      <trkpt lat="47.28725" lon="-2.36912">
        <ele>17</ele>
        <time>2019-06-02T07:44:40.000Z</time>
      </trkpt>
      <trkpt lat="47.2872" lon="-2.3691">
        <ele>17.60000038147</ele>
        <time>2019-06-02T07:44:42.000Z</time>
      </trkpt>
      <trkpt lat="47.28718" lon="-2.36908">
        <ele>18</ele>
        <time>2019-06-02T07:44:43.000Z</time>
      </trkpt>
      <trkpt lat="47.28716" lon="-2.36906">
        <ele>18.39999961853</ele>
        <time>2019-06-02T07:44:44.000Z</time>
      </trkpt>
      <trkpt lat="47.28714" lon="-2.36904">
        <ele>18.799999237061</ele>
        <time>2019-06-02T07:44:45.000Z</time>
      </trkpt>
      <trkpt lat="47.28713" lon="-2.36901">
        <ele>19.200000762939</ele>
        <time>2019-06-02T07:44:46.000Z</time>
      </trkpt>
      <trkpt lat="47.28711" lon="-2.36895">
        <ele>19.60000038147</ele>
        <time>2019-06-02T07:44:48.000Z</time>
      </trkpt>
      <trkpt lat="47.28709" lon="-2.36892">
        <ele>20</ele>
        <time>2019-06-02T07:44:49.000Z</time>
      </trkpt>
      <trkpt lat="47.28709" lon="-2.36889">
        <ele>20.39999961853</ele>
        <time>2019-06-02T07:44:50.000Z</time>
      </trkpt>
      <trkpt lat="47.28707" lon="-2.36887">
        <ele>21</ele>
        <time>2019-06-02T07:44:51.000Z</time>
      </trkpt>
      <trkpt lat="47.28706" lon="-2.36885">
        <ele>21.39999961853</ele>
        <time>2019-06-02T07:44:52.000Z</time>
      </trkpt>
      <trkpt lat="47.28699" lon="-2.36868">
        <ele>21.39999961853</ele>
        <time>2019-06-02T07:44:57.000Z</time>
      </trkpt>
      <trkpt lat="47.28692" lon="-2.36849">
        <ele>21.39999961853</ele>
        <time>2019-06-02T07:45:02.000Z</time>
      </trkpt>
      <trkpt lat="47.28693" lon="-2.36846">
        <ele>21.39999961853</ele>
        <time>2019-06-02T07:45:03.000Z</time>
      </trkpt>
      <trkpt lat="47.28693" lon="-2.36843">
        <ele>22.200000762939</ele>
        <time>2019-06-02T07:45:04.000Z</time>
      </trkpt>
      <trkpt lat="47.28694" lon="-2.3684">
        <ele>22.60000038147</ele>
        <time>2019-06-02T07:45:05.000Z</time>
      </trkpt>
      <trkpt lat="47.28696" lon="-2.36838">
        <ele>23</ele>
        <time>2019-06-02T07:45:06.000Z</time>
      </trkpt>
      <trkpt lat="47.28695" lon="-2.36834">
        <ele>23.39999961853</ele>
        <time>2019-06-02T07:45:07.000Z</time>
      </trkpt>
      <trkpt lat="47.28694" lon="-2.3683">
        <ele>23.39999961853</ele>
        <time>2019-06-02T07:45:08.000Z</time>
      </trkpt>
      <trkpt lat="47.28694" lon="-2.36812">
        <ele>23.39999961853</ele>
        <time>2019-06-02T07:45:14.000Z</time>
      </trkpt>
      <trkpt lat="47.287" lon="-2.36811">
        <ele>23.39999961853</ele>
        <time>2019-06-02T07:45:20.000Z</time>
      </trkpt>
      <trkpt lat="47.28702" lon="-2.36812">
        <ele>23.39999961853</ele>
        <time>2019-06-02T07:45:23.000Z</time>
      </trkpt>
      <trkpt lat="47.2871" lon="-2.36858">
        <ele>23.39999961853</ele>
        <time>2019-06-02T07:47:32.000Z</time>
      </trkpt>
      <trkpt lat="47.28711" lon="-2.36861">
        <ele>23.39999961853</ele>
        <time>2019-06-02T07:47:34.000Z</time>
      </trkpt>
      <trkpt lat="47.28721" lon="-2.36876">
        <ele>23</ele>
        <time>2019-06-02T07:47:39.000Z</time>
      </trkpt>
      <trkpt lat="47.28723" lon="-2.36879">
        <ele>22.39999961853</ele>
        <time>2019-06-02T07:47:40.000Z</time>
      </trkpt>
      <trkpt lat="47.28725" lon="-2.36882">
        <ele>22</ele>
        <time>2019-06-02T07:47:41.000Z</time>
      </trkpt>
      <trkpt lat="47.28727" lon="-2.36886">
        <ele>21.39999961853</ele>
        <time>2019-06-02T07:47:42.000Z</time>
      </trkpt>
      <trkpt lat="47.28729" lon="-2.36888">
        <ele>20.799999237061</ele>
        <time>2019-06-02T07:47:43.000Z</time>
      </trkpt>
      <trkpt lat="47.28731" lon="-2.36891">
        <ele>20.39999961853</ele>
        <time>2019-06-02T07:47:44.000Z</time>
      </trkpt>
      <trkpt lat="47.28734" lon="-2.36892">
        <ele>19.799999237061</ele>
        <time>2019-06-02T07:47:45.000Z</time>
      </trkpt>
      <trkpt lat="47.28737" lon="-2.36893">
        <ele>19.200000762939</ele>
        <time>2019-06-02T07:47:46.000Z</time>
      </trkpt>
      <trkpt lat="47.2874" lon="-2.36894">
        <ele>18.60000038147</ele>
        <time>2019-06-02T07:47:47.000Z</time>
      </trkpt>
      <trkpt lat="47.28743" lon="-2.36894">
        <ele>18.200000762939</ele>
        <time>2019-06-02T07:47:48.000Z</time>
      </trkpt>
      <trkpt lat="47.28746" lon="-2.36894">
        <ele>17.799999237061</ele>
        <time>2019-06-02T07:47:49.000Z</time>
      </trkpt>
      <trkpt lat="47.28749" lon="-2.36893">
        <ele>17.200000762939</ele>
        <time>2019-06-02T07:47:50.000Z</time>
      </trkpt>
      <trkpt lat="47.28751" lon="-2.36891">
        <ele>16.799999237061</ele>
        <time>2019-06-02T07:47:51.000Z</time>
      </trkpt>
      <trkpt lat="47.28753" lon="-2.36887">
        <ele>16.39999961853</ele>
        <time>2019-06-02T07:47:52.000Z</time>
      </trkpt>
      <trkpt lat="47.28755" lon="-2.36884">
        <ele>16.39999961853</ele>
        <time>2019-06-02T07:47:53.000Z</time>
      </trkpt>
      <trkpt lat="47.28756" lon="-2.36882">
        <ele>16.39999961853</ele>
        <time>2019-06-02T07:47:55.000Z</time>
      </trkpt>
      <trkpt lat="47.28758" lon="-2.36879">
        <ele>16.39999961853</ele>
        <time>2019-06-02T07:47:57.000Z</time>
      </trkpt>
      <trkpt lat="47.28764" lon="-2.36862">
        <ele>16.39999961853</ele>
        <time>2019-06-02T07:48:02.000Z</time>
      </trkpt>
      <trkpt lat="47.28765" lon="-2.36837">
        <ele>16.799999237061</ele>
        <time>2019-06-02T07:48:07.000Z</time>
      </trkpt>
      <trkpt lat="47.28766" lon="-2.36833">
        <ele>17.200000762939</ele>
        <time>2019-06-02T07:48:08.000Z</time>
      </trkpt>
      <trkpt lat="47.28768" lon="-2.36827">
        <ele>17.799999237061</ele>
        <time>2019-06-02T07:48:09.000Z</time>
      </trkpt>
      <trkpt lat="47.28769" lon="-2.36823">
        <ele>18.200000762939</ele>
        <time>2019-06-02T07:48:10.000Z</time>
      </trkpt>
      <trkpt lat="47.2877" lon="-2.36819">
        <ele>18.60000038147</ele>
        <time>2019-06-02T07:48:11.000Z</time>
      </trkpt>
      <trkpt lat="47.28773" lon="-2.36805">
        <ele>19.200000762939</ele>
        <time>2019-06-02T07:48:14.000Z</time>
      </trkpt>
      <trkpt lat="47.28775" lon="-2.368">
        <ele>19.60000038147</ele>
        <time>2019-06-02T07:48:15.000Z</time>
      </trkpt>
      <trkpt lat="47.28776" lon="-2.36795">
        <ele>20</ele>
        <time>2019-06-02T07:48:16.000Z</time>
      </trkpt>
      <trkpt lat="47.28776" lon="-2.3679">
        <ele>20.39999961853</ele>
        <time>2019-06-02T07:48:17.000Z</time>
      </trkpt>
      <trkpt lat="47.28777" lon="-2.36784">
        <ele>20.799999237061</ele>
        <time>2019-06-02T07:48:18.000Z</time>
      </trkpt>
      <trkpt lat="47.28781" lon="-2.36762">
        <ele>20.799999237061</ele>
        <time>2019-06-02T07:48:22.000Z</time>
      </trkpt>
      <trkpt lat="47.28786" lon="-2.36743">
        <ele>21.200000762939</ele>
        <time>2019-06-02T07:48:26.000Z</time>
      </trkpt>
      <trkpt lat="47.28786" lon="-2.36739">
        <ele>21.60000038147</ele>
        <time>2019-06-02T07:48:27.000Z</time>
      </trkpt>
      <trkpt lat="47.28787" lon="-2.36734">
        <ele>22</ele>
        <time>2019-06-02T07:48:28.000Z</time>
      </trkpt>
      <trkpt lat="47.28788" lon="-2.3673">
        <ele>22.39999961853</ele>
        <time>2019-06-02T07:48:29.000Z</time>
      </trkpt>
      <trkpt lat="47.28788" lon="-2.36726">
        <ele>22.799999237061</ele>
        <time>2019-06-02T07:48:30.000Z</time>
      </trkpt>
      <trkpt lat="47.28789" lon="-2.36718">
        <ele>22.799999237061</ele>
        <time>2019-06-02T07:48:32.000Z</time>
      </trkpt>
      <trkpt lat="47.28792" lon="-2.36703">
        <ele>23.39999961853</ele>
        <time>2019-06-02T07:48:35.000Z</time>
      </trkpt>
      <trkpt lat="47.28793" lon="-2.36698">
        <ele>23.799999237061</ele>
        <time>2019-06-02T07:48:36.000Z</time>
      </trkpt>
      <trkpt lat="47.28795" lon="-2.36693">
        <ele>24.39999961853</ele>
        <time>2019-06-02T07:48:37.000Z</time>
      </trkpt>
      <trkpt lat="47.28796" lon="-2.36689">
        <ele>24.799999237061</ele>
        <time>2019-06-02T07:48:38.000Z</time>
      </trkpt>
      <trkpt lat="47.28796" lon="-2.36685">
        <ele>25.200000762939</ele>
        <time>2019-06-02T07:48:39.000Z</time>
      </trkpt>
      <trkpt lat="47.28798" lon="-2.36675">
        <ele>25.799999237061</ele>
        <time>2019-06-02T07:48:41.000Z</time>
      </trkpt>
      <trkpt lat="47.288" lon="-2.36671">
        <ele>26.200000762939</ele>
        <time>2019-06-02T07:48:42.000Z</time>
      </trkpt>
      <trkpt lat="47.28802" lon="-2.36667">
        <ele>26.60000038147</ele>
        <time>2019-06-02T07:48:43.000Z</time>
      </trkpt>
      <trkpt lat="47.28803" lon="-2.36664">
        <ele>27</ele>
        <time>2019-06-02T07:48:44.000Z</time>
      </trkpt>
      <trkpt lat="47.28804" lon="-2.3666">
        <ele>27.39999961853</ele>
        <time>2019-06-02T07:48:45.000Z</time>
      </trkpt>
      <trkpt lat="47.28805" lon="-2.36657">
        <ele>27.799999237061</ele>
        <time>2019-06-02T07:48:46.000Z</time>
      </trkpt>
      <trkpt lat="47.28806" lon="-2.36655">
        <ele>28.200000762939</ele>
        <time>2019-06-02T07:48:47.000Z</time>
      </trkpt>
      <trkpt lat="47.28807" lon="-2.36652">
        <ele>28.60000038147</ele>
        <time>2019-06-02T07:48:48.000Z</time>
      </trkpt>
      <trkpt lat="47.28809" lon="-2.36649">
        <ele>29.200000762939</ele>
        <time>2019-06-02T07:48:49.000Z</time>
      </trkpt>
      <trkpt lat="47.2881" lon="-2.36647">
        <ele>29.60000038147</ele>
        <time>2019-06-02T07:48:50.000Z</time>
      </trkpt>
      <trkpt lat="47.2882" lon="-2.36632">
        <ele>30</ele>
        <time>2019-06-02T07:48:55.000Z</time>
      </trkpt>
      <trkpt lat="47.28822" lon="-2.36628">
        <ele>30.39999961853</ele>
        <time>2019-06-02T07:48:56.000Z</time>
      </trkpt>
      <trkpt lat="47.28824" lon="-2.36624">
        <ele>30.799999237061</ele>
        <time>2019-06-02T07:48:57.000Z</time>
      </trkpt>
      <trkpt lat="47.28825" lon="-2.3662">
        <ele>31.200000762939</ele>
        <time>2019-06-02T07:48:58.000Z</time>
      </trkpt>
      <trkpt lat="47.28827" lon="-2.36615">
        <ele>31.60000038147</ele>
        <time>2019-06-02T07:48:59.000Z</time>
      </trkpt>
      <trkpt lat="47.28833" lon="-2.36603">
        <ele>31.60000038147</ele>
        <time>2019-06-02T07:49:01.000Z</time>
      </trkpt>
      <trkpt lat="47.28849" lon="-2.36572">
        <ele>31.60000038147</ele>
        <time>2019-06-02T07:49:07.000Z</time>
      </trkpt>
      <trkpt lat="47.28856" lon="-2.36542">
        <ele>31.60000038147</ele>
        <time>2019-06-02T07:49:12.000Z</time>
      </trkpt>
      <trkpt lat="47.28852" lon="-2.3652">
        <ele>31.60000038147</ele>
        <time>2019-06-02T07:49:17.000Z</time>
      </trkpt>
      <trkpt lat="47.28849" lon="-2.36514">
        <ele>32</ele>
        <time>2019-06-02T07:49:19.000Z</time>
      </trkpt>
      <trkpt lat="47.28846" lon="-2.36511">
        <ele>32.400001525879</ele>
        <time>2019-06-02T07:49:20.000Z</time>
      </trkpt>
      <trkpt lat="47.28844" lon="-2.36508">
        <ele>32.799999237061</ele>
        <time>2019-06-02T07:49:21.000Z</time>
      </trkpt>
      <trkpt lat="47.28843" lon="-2.36505">
        <ele>33.200000762939</ele>
        <time>2019-06-02T07:49:22.000Z</time>
      </trkpt>
      <trkpt lat="47.28843" lon="-2.36501">
        <ele>33.599998474121</ele>
        <time>2019-06-02T07:49:23.000Z</time>
      </trkpt>
      <trkpt lat="47.28841" lon="-2.36481">
        <ele>33.599998474121</ele>
        <time>2019-06-02T07:49:27.000Z</time>
      </trkpt>
      <trkpt lat="47.28839" lon="-2.36472">
        <ele>34</ele>
        <time>2019-06-02T07:49:29.000Z</time>
      </trkpt>
      <trkpt lat="47.28839" lon="-2.36467">
        <ele>34.599998474121</ele>
        <time>2019-06-02T07:49:30.000Z</time>
      </trkpt>
      <trkpt lat="47.28838" lon="-2.36462">
        <ele>35</ele>
        <time>2019-06-02T07:49:31.000Z</time>
      </trkpt>
      <trkpt lat="47.28839" lon="-2.36458">
        <ele>35.400001525879</ele>
        <time>2019-06-02T07:49:32.000Z</time>
      </trkpt>
      <trkpt lat="47.28838" lon="-2.36454">
        <ele>35.799999237061</ele>
        <time>2019-06-02T07:49:33.000Z</time>
      </trkpt>
      <trkpt lat="47.28834" lon="-2.36441">
        <ele>35.799999237061</ele>
        <time>2019-06-02T07:49:37.000Z</time>
      </trkpt>
      <trkpt lat="47.28834" lon="-2.36435">
        <ele>36.200000762939</ele>
        <time>2019-06-02T07:49:39.000Z</time>
      </trkpt>
      <trkpt lat="47.28834" lon="-2.36433">
        <ele>36.799999237061</ele>
        <time>2019-06-02T07:49:40.000Z</time>
      </trkpt>
      <trkpt lat="47.28833" lon="-2.3643">
        <ele>37.200000762939</ele>
        <time>2019-06-02T07:49:41.000Z</time>
      </trkpt>
      <trkpt lat="47.28833" lon="-2.36427">
        <ele>37.599998474121</ele>
        <time>2019-06-02T07:49:42.000Z</time>
      </trkpt>
      <trkpt lat="47.28833" lon="-2.36424">
        <ele>38.200000762939</ele>
        <time>2019-06-02T07:49:43.000Z</time>
      </trkpt>
      <trkpt lat="47.28833" lon="-2.36419">
        <ele>38.599998474121</ele>
        <time>2019-06-02T07:49:45.000Z</time>
      </trkpt>
      <trkpt lat="47.28832" lon="-2.36416">
        <ele>39</ele>
        <time>2019-06-02T07:49:46.000Z</time>
      </trkpt>
      <trkpt lat="47.28831" lon="-2.36414">
        <ele>39.400001525879</ele>
        <time>2019-06-02T07:49:47.000Z</time>
      </trkpt>
      <trkpt lat="47.2883" lon="-2.36413">
        <ele>39.799999237061</ele>
        <time>2019-06-02T07:49:48.000Z</time>
      </trkpt>
      <trkpt lat="47.28829" lon="-2.36411">
        <ele>40.200000762939</ele>
        <time>2019-06-02T07:49:49.000Z</time>
      </trkpt>
      <trkpt lat="47.28826" lon="-2.3641">
        <ele>40.200000762939</ele>
        <time>2019-06-02T07:49:51.000Z</time>
      </trkpt>
      <trkpt lat="47.28824" lon="-2.36411">
        <ele>40.200000762939</ele>
        <time>2019-06-02T07:49:53.000Z</time>
      </trkpt>
      <trkpt lat="47.28823" lon="-2.36412">
        <ele>40.200000762939</ele>
        <time>2019-06-02T07:49:54.000Z</time>
      </trkpt>
      <trkpt lat="47.28814" lon="-2.36416">
        <ele>40.200000762939</ele>
        <time>2019-06-02T07:49:57.000Z</time>
      </trkpt>
      <trkpt lat="47.28805" lon="-2.36413">
        <ele>40.200000762939</ele>
        <time>2019-06-02T07:50:01.000Z</time>
      </trkpt>
      <trkpt lat="47.28803" lon="-2.36411">
        <ele>40.200000762939</ele>
        <time>2019-06-02T07:50:02.000Z</time>
      </trkpt>
      <trkpt lat="47.288" lon="-2.36404">
        <ele>40.200000762939</ele>
        <time>2019-06-02T07:50:05.000Z</time>
      </trkpt>
      <trkpt lat="47.28799" lon="-2.36392">
        <ele>40.200000762939</ele>
        <time>2019-06-02T07:50:09.000Z</time>
      </trkpt>
      <trkpt lat="47.28806" lon="-2.36377">
        <ele>40.200000762939</ele>
        <time>2019-06-02T07:50:15.000Z</time>
      </trkpt>
      <trkpt lat="47.28807" lon="-2.36373">
        <ele>40.200000762939</ele>
        <time>2019-06-02T07:50:16.000Z</time>
      </trkpt>
      <trkpt lat="47.2882" lon="-2.36348">
        <ele>40.200000762939</ele>
        <time>2019-06-02T07:50:22.000Z</time>
      </trkpt>
      <trkpt lat="47.28823" lon="-2.36344">
        <ele>39.799999237061</ele>
        <time>2019-06-02T07:50:23.000Z</time>
      </trkpt>
      <trkpt lat="47.28825" lon="-2.36341">
        <ele>39.400001525879</ele>
        <time>2019-06-02T07:50:24.000Z</time>
      </trkpt>
      <trkpt lat="47.28827" lon="-2.36337">
        <ele>39</ele>
        <time>2019-06-02T07:50:25.000Z</time>
      </trkpt>
      <trkpt lat="47.28829" lon="-2.36334">
        <ele>38.599998474121</ele>
        <time>2019-06-02T07:50:26.000Z</time>
      </trkpt>
      <trkpt lat="47.28831" lon="-2.36331">
        <ele>38.200000762939</ele>
        <time>2019-06-02T07:50:27.000Z</time>
      </trkpt>
      <trkpt lat="47.28846" lon="-2.36318">
        <ele>38.200000762939</ele>
        <time>2019-06-02T07:50:31.000Z</time>
      </trkpt>
      <trkpt lat="47.28858" lon="-2.36312">
        <ele>37.799999237061</ele>
        <time>2019-06-02T07:50:33.000Z</time>
      </trkpt>
      <trkpt lat="47.28864" lon="-2.36308">
        <ele>37.400001525879</ele>
        <time>2019-06-02T07:50:34.000Z</time>
      </trkpt>
      <trkpt lat="47.28871" lon="-2.36305">
        <ele>37</ele>
        <time>2019-06-02T07:50:35.000Z</time>
      </trkpt>
      <trkpt lat="47.28878" lon="-2.36302">
        <ele>36.599998474121</ele>
        <time>2019-06-02T07:50:36.000Z</time>
      </trkpt>
      <trkpt lat="47.28884" lon="-2.36299">
        <ele>36</ele>
        <time>2019-06-02T07:50:37.000Z</time>
      </trkpt>
      <trkpt lat="47.28912" lon="-2.36289">
        <ele>35.599998474121</ele>
        <time>2019-06-02T07:50:41.000Z</time>
      </trkpt>
      <trkpt lat="47.28919" lon="-2.36285">
        <ele>35.200000762939</ele>
        <time>2019-06-02T07:50:42.000Z</time>
      </trkpt>
      <trkpt lat="47.28926" lon="-2.36283">
        <ele>34.799999237061</ele>
        <time>2019-06-02T07:50:43.000Z</time>
      </trkpt>
      <trkpt lat="47.28933" lon="-2.3628">
        <ele>34.400001525879</ele>
        <time>2019-06-02T07:50:44.000Z</time>
      </trkpt>
      <trkpt lat="47.28939" lon="-2.36277">
        <ele>34</ele>
        <time>2019-06-02T07:50:45.000Z</time>
      </trkpt>
      <trkpt lat="47.28964" lon="-2.36267">
        <ele>34</ele>
        <time>2019-06-02T07:50:49.000Z</time>
      </trkpt>
      <trkpt lat="47.29" lon="-2.36252">
        <ele>34</ele>
        <time>2019-06-02T07:50:56.000Z</time>
      </trkpt>
      <trkpt lat="47.29021" lon="-2.36243">
        <ele>34</ele>
        <time>2019-06-02T07:51:02.000Z</time>
      </trkpt>
      <trkpt lat="47.29048" lon="-2.3623">
        <ele>34</ele>
        <time>2019-06-02T07:51:10.000Z</time>
      </trkpt>
      <trkpt lat="47.2908" lon="-2.36216">
        <ele>34</ele>
        <time>2019-06-02T07:51:18.000Z</time>
      </trkpt>
      <trkpt lat="47.29113" lon="-2.36203">
        <ele>34</ele>
        <time>2019-06-02T07:51:25.000Z</time>
      </trkpt>
      <trkpt lat="47.29128" lon="-2.36196">
        <ele>34</ele>
        <time>2019-06-02T07:51:28.000Z</time>
      </trkpt>
      <trkpt lat="47.29147" lon="-2.36188">
        <ele>34</ele>
        <time>2019-06-02T07:51:32.000Z</time>
      </trkpt>
      <trkpt lat="47.29173" lon="-2.36176">
        <ele>34</ele>
        <time>2019-06-02T07:51:38.000Z</time>
      </trkpt>
      <trkpt lat="47.29204" lon="-2.36162">
        <ele>34</ele>
        <time>2019-06-02T07:51:45.000Z</time>
      </trkpt>
      <trkpt lat="47.29208" lon="-2.36161">
        <ele>34</ele>
        <time>2019-06-02T07:51:46.000Z</time>
      </trkpt>
      <trkpt lat="47.29227" lon="-2.36152">
        <ele>34</ele>
        <time>2019-06-02T07:51:50.000Z</time>
      </trkpt>
      <trkpt lat="47.29267" lon="-2.36135">
        <ele>34</ele>
        <time>2019-06-02T07:51:58.000Z</time>
      </trkpt>
      <trkpt lat="47.29288" lon="-2.36126">
        <ele>34.400001525879</ele>
        <time>2019-06-02T07:52:02.000Z</time>
      </trkpt>
      <trkpt lat="47.29293" lon="-2.36124">
        <ele>34.799999237061</ele>
        <time>2019-06-02T07:52:03.000Z</time>
      </trkpt>
      <trkpt lat="47.29298" lon="-2.36121">
        <ele>35.200000762939</ele>
        <time>2019-06-02T07:52:04.000Z</time>
      </trkpt>
      <trkpt lat="47.29304" lon="-2.36118">
        <ele>35.599998474121</ele>
        <time>2019-06-02T07:52:05.000Z</time>
      </trkpt>
      <trkpt lat="47.29309" lon="-2.36115">
        <ele>36</ele>
        <time>2019-06-02T07:52:06.000Z</time>
      </trkpt>
      <trkpt lat="47.29332" lon="-2.36101">
        <ele>36</ele>
        <time>2019-06-02T07:52:10.000Z</time>
      </trkpt>
      <trkpt lat="47.29366" lon="-2.36076">
        <ele>36</ele>
        <time>2019-06-02T07:52:16.000Z</time>
      </trkpt>
      <trkpt lat="47.29395" lon="-2.36052">
        <ele>36</ele>
        <time>2019-06-02T07:52:22.000Z</time>
      </trkpt>
      <trkpt lat="47.29421" lon="-2.36028">
        <ele>36</ele>
        <time>2019-06-02T07:52:28.000Z</time>
      </trkpt>
      <trkpt lat="47.29426" lon="-2.36024">
        <ele>36</ele>
        <time>2019-06-02T07:52:29.000Z</time>
      </trkpt>
      <trkpt lat="47.2945" lon="-2.36003">
        <ele>36</ele>
        <time>2019-06-02T07:52:35.000Z</time>
      </trkpt>
      <trkpt lat="47.29454" lon="-2.35998">
        <ele>36</ele>
        <time>2019-06-02T07:52:36.000Z</time>
      </trkpt>
      <trkpt lat="47.29462" lon="-2.3598">
        <ele>36</ele>
        <time>2019-06-02T07:52:39.000Z</time>
      </trkpt>
      <trkpt lat="47.29466" lon="-2.35976">
        <ele>36</ele>
        <time>2019-06-02T07:52:40.000Z</time>
      </trkpt>
      <trkpt lat="47.29474" lon="-2.35971">
        <ele>36</ele>
        <time>2019-06-02T07:52:42.000Z</time>
      </trkpt>
      <trkpt lat="47.29484" lon="-2.35965">
        <ele>36</ele>
        <time>2019-06-02T07:52:44.000Z</time>
      </trkpt>
      <trkpt lat="47.29499" lon="-2.35953">
        <ele>36</ele>
        <time>2019-06-02T07:52:47.000Z</time>
      </trkpt>
      <trkpt lat="47.2954" lon="-2.35927">
        <ele>36</ele>
        <time>2019-06-02T07:52:55.000Z</time>
      </trkpt>
      <trkpt lat="47.29579" lon="-2.35905">
        <ele>36</ele>
        <time>2019-06-02T07:53:02.000Z</time>
      </trkpt>
      <trkpt lat="47.29584" lon="-2.35902">
        <ele>36.400001525879</ele>
        <time>2019-06-02T07:53:03.000Z</time>
      </trkpt>
      <trkpt lat="47.2959" lon="-2.35899">
        <ele>37</ele>
        <time>2019-06-02T07:53:04.000Z</time>
      </trkpt>
      <trkpt lat="47.29595" lon="-2.35895">
        <ele>37.400001525879</ele>
        <time>2019-06-02T07:53:05.000Z</time>
      </trkpt>
      <trkpt lat="47.296" lon="-2.35891">
        <ele>37.799999237061</ele>
        <time>2019-06-02T07:53:06.000Z</time>
      </trkpt>
      <trkpt lat="47.29605" lon="-2.35888">
        <ele>38.200000762939</ele>
        <time>2019-06-02T07:53:07.000Z</time>
      </trkpt>
      <trkpt lat="47.29616" lon="-2.35882">
        <ele>38.200000762939</ele>
        <time>2019-06-02T07:53:09.000Z</time>
      </trkpt>
      <trkpt lat="47.29644" lon="-2.35864">
        <ele>38.200000762939</ele>
        <time>2019-06-02T07:53:14.000Z</time>
      </trkpt>
      <trkpt lat="47.29658" lon="-2.35839">
        <ele>38.200000762939</ele>
        <time>2019-06-02T07:53:18.000Z</time>
      </trkpt>
      <trkpt lat="47.29674" lon="-2.35837">
        <ele>38.200000762939</ele>
        <time>2019-06-02T07:53:21.000Z</time>
      </trkpt>
      <trkpt lat="47.29687" lon="-2.35839">
        <ele>38.200000762939</ele>
        <time>2019-06-02T07:53:23.000Z</time>
      </trkpt>
      <trkpt lat="47.29693" lon="-2.35838">
        <ele>38.200000762939</ele>
        <time>2019-06-02T07:53:24.000Z</time>
      </trkpt>
      <trkpt lat="47.29706" lon="-2.35834">
        <ele>38.200000762939</ele>
        <time>2019-06-02T07:53:26.000Z</time>
      </trkpt>
      <trkpt lat="47.29712" lon="-2.3583">
        <ele>38.200000762939</ele>
        <time>2019-06-02T07:53:27.000Z</time>
      </trkpt>
      <trkpt lat="47.29735" lon="-2.35818">
        <ele>38.200000762939</ele>
        <time>2019-06-02T07:53:31.000Z</time>
      </trkpt>
      <trkpt lat="47.29761" lon="-2.35805">
        <ele>38.599998474121</ele>
        <time>2019-06-02T07:53:36.000Z</time>
      </trkpt>
      <trkpt lat="47.29766" lon="-2.35802">
        <ele>39</ele>
        <time>2019-06-02T07:53:37.000Z</time>
      </trkpt>
      <trkpt lat="47.29771" lon="-2.35801">
        <ele>39.400001525879</ele>
        <time>2019-06-02T07:53:38.000Z</time>
      </trkpt>
      <trkpt lat="47.29776" lon="-2.35799">
        <ele>39.799999237061</ele>
        <time>2019-06-02T07:53:39.000Z</time>
      </trkpt>
      <trkpt lat="47.29781" lon="-2.35797">
        <ele>40.400001525879</ele>
        <time>2019-06-02T07:53:40.000Z</time>
      </trkpt>
      <trkpt lat="47.29807" lon="-2.35788">
        <ele>40.400001525879</ele>
        <time>2019-06-02T07:53:45.000Z</time>
      </trkpt>
      <trkpt lat="47.29843" lon="-2.35775">
        <ele>40.400001525879</ele>
        <time>2019-06-02T07:53:51.000Z</time>
      </trkpt>
      <trkpt lat="47.29884" lon="-2.35759">
        <ele>40.400001525879</ele>
        <time>2019-06-02T07:53:57.000Z</time>
      </trkpt>
      <trkpt lat="47.2992" lon="-2.35736">
        <ele>40.400001525879</ele>
        <time>2019-06-02T07:54:03.000Z</time>
      </trkpt>
      <trkpt lat="47.29966" lon="-2.35702">
        <ele>40.400001525879</ele>
        <time>2019-06-02T07:54:11.000Z</time>
      </trkpt>
      <trkpt lat="47.30003" lon="-2.35679">
        <ele>40.400001525879</ele>
        <time>2019-06-02T07:54:18.000Z</time>
      </trkpt>
      <trkpt lat="47.30035" lon="-2.3566">
        <ele>40.400001525879</ele>
        <time>2019-06-02T07:54:24.000Z</time>
      </trkpt>
      <trkpt lat="47.30078" lon="-2.35633">
        <ele>40.400001525879</ele>
        <time>2019-06-02T07:54:32.000Z</time>
      </trkpt>
      <trkpt lat="47.30084" lon="-2.35629">
        <ele>40.799999237061</ele>
        <time>2019-06-02T07:54:33.000Z</time>
      </trkpt>
      <trkpt lat="47.30089" lon="-2.35626">
        <ele>41.200000762939</ele>
        <time>2019-06-02T07:54:34.000Z</time>
      </trkpt>
      <trkpt lat="47.30094" lon="-2.35623">
        <ele>41.599998474121</ele>
        <time>2019-06-02T07:54:35.000Z</time>
      </trkpt>
      <trkpt lat="47.301" lon="-2.35619">
        <ele>42</ele>
        <time>2019-06-02T07:54:36.000Z</time>
      </trkpt>
      <trkpt lat="47.30104" lon="-2.35616">
        <ele>42.400001525879</ele>
        <time>2019-06-02T07:54:37.000Z</time>
      </trkpt>
      <trkpt lat="47.30114" lon="-2.35609">
        <ele>42.400001525879</ele>
        <time>2019-06-02T07:54:39.000Z</time>
      </trkpt>
      <trkpt lat="47.30118" lon="-2.35605">
        <ele>42.400001525879</ele>
        <time>2019-06-02T07:54:40.000Z</time>
      </trkpt>
      <trkpt lat="47.30138" lon="-2.35593">
        <ele>42.400001525879</ele>
        <time>2019-06-02T07:54:44.000Z</time>
      </trkpt>
      <trkpt lat="47.30163" lon="-2.35582">
        <ele>42.400001525879</ele>
        <time>2019-06-02T07:54:48.000Z</time>
      </trkpt>
      <trkpt lat="47.302" lon="-2.35571">
        <ele>42.400001525879</ele>
        <time>2019-06-02T07:54:54.000Z</time>
      </trkpt>
      <trkpt lat="47.30237" lon="-2.35574">
        <ele>42.400001525879</ele>
        <time>2019-06-02T07:55:00.000Z</time>
      </trkpt>
      <trkpt lat="47.30256" lon="-2.35576">
        <ele>42.400001525879</ele>
        <time>2019-06-02T07:55:03.000Z</time>
      </trkpt>
      <trkpt lat="47.30275" lon="-2.35579">
        <ele>42.400001525879</ele>
        <time>2019-06-02T07:55:06.000Z</time>
      </trkpt>
      <trkpt lat="47.30323" lon="-2.35588">
        <ele>42.400001525879</ele>
        <time>2019-06-02T07:55:13.000Z</time>
      </trkpt>
      <trkpt lat="47.30374" lon="-2.35591">
        <ele>42.400001525879</ele>
        <time>2019-06-02T07:55:21.000Z</time>
      </trkpt>
      <trkpt lat="47.30379" lon="-2.35588">
        <ele>42.400001525879</ele>
        <time>2019-06-02T07:55:22.000Z</time>
      </trkpt>
      <trkpt lat="47.30386" lon="-2.35583">
        <ele>42.400001525879</ele>
        <time>2019-06-02T07:55:24.000Z</time>
      </trkpt>
      <trkpt lat="47.30393" lon="-2.35584">
        <ele>42</ele>
        <time>2019-06-02T07:55:27.000Z</time>
      </trkpt>
      <trkpt lat="47.30395" lon="-2.35588">
        <ele>41.599998474121</ele>
        <time>2019-06-02T07:55:28.000Z</time>
      </trkpt>
      <trkpt lat="47.30396" lon="-2.35593">
        <ele>41.200000762939</ele>
        <time>2019-06-02T07:55:29.000Z</time>
      </trkpt>
      <trkpt lat="47.30398" lon="-2.35599">
        <ele>40.799999237061</ele>
        <time>2019-06-02T07:55:30.000Z</time>
      </trkpt>
      <trkpt lat="47.304" lon="-2.35606">
        <ele>40.400001525879</ele>
        <time>2019-06-02T07:55:31.000Z</time>
      </trkpt>
      <trkpt lat="47.30403" lon="-2.35611">
        <ele>40.400001525879</ele>
        <time>2019-06-02T07:55:32.000Z</time>
      </trkpt>
      <trkpt lat="47.30422" lon="-2.35642">
        <ele>40.400001525879</ele>
        <time>2019-06-02T07:55:37.000Z</time>
      </trkpt>
      <trkpt lat="47.30427" lon="-2.35647">
        <ele>40.400001525879</ele>
        <time>2019-06-02T07:55:38.000Z</time>
      </trkpt>
      <trkpt lat="47.30443" lon="-2.35661">
        <ele>40.400001525879</ele>
        <time>2019-06-02T07:55:41.000Z</time>
      </trkpt>
      <trkpt lat="47.30465" lon="-2.35679">
        <ele>41.200000762939</ele>
        <time>2019-06-02T07:55:45.000Z</time>
      </trkpt>
      <trkpt lat="47.3047" lon="-2.35684">
        <ele>41.599998474121</ele>
        <time>2019-06-02T07:55:46.000Z</time>
      </trkpt>
      <trkpt lat="47.30475" lon="-2.35689">
        <ele>42</ele>
        <time>2019-06-02T07:55:47.000Z</time>
      </trkpt>
      <trkpt lat="47.3048" lon="-2.35695">
        <ele>42.400001525879</ele>
        <time>2019-06-02T07:55:48.000Z</time>
      </trkpt>
      <trkpt lat="47.3049" lon="-2.35708">
        <ele>42.400001525879</ele>
        <time>2019-06-02T07:55:50.000Z</time>
      </trkpt>
      <trkpt lat="47.3051" lon="-2.35735">
        <ele>42.400001525879</ele>
        <time>2019-06-02T07:55:54.000Z</time>
      </trkpt>
      <trkpt lat="47.30552" lon="-2.35789">
        <ele>42.400001525879</ele>
        <time>2019-06-02T07:56:02.000Z</time>
      </trkpt>
      <trkpt lat="47.30562" lon="-2.35803">
        <ele>42.400001525879</ele>
        <time>2019-06-02T07:56:04.000Z</time>
      </trkpt>
      <trkpt lat="47.30604" lon="-2.35853">
        <ele>42.400001525879</ele>
        <time>2019-06-02T07:56:12.000Z</time>
      </trkpt>
      <trkpt lat="47.3064" lon="-2.35891">
        <ele>42.400001525879</ele>
        <time>2019-06-02T07:56:19.000Z</time>
      </trkpt>
      <trkpt lat="47.30645" lon="-2.35895">
        <ele>42.400001525879</ele>
        <time>2019-06-02T07:56:20.000Z</time>
      </trkpt>
      <trkpt lat="47.30662" lon="-2.35898">
        <ele>42.400001525879</ele>
        <time>2019-06-02T07:56:23.000Z</time>
      </trkpt>
      <trkpt lat="47.30676" lon="-2.35883">
        <ele>42.400001525879</ele>
        <time>2019-06-02T07:56:26.000Z</time>
      </trkpt>
      <trkpt lat="47.30706" lon="-2.3585">
        <ele>42.400001525879</ele>
        <time>2019-06-02T07:56:32.000Z</time>
      </trkpt>
      <trkpt lat="47.30738" lon="-2.35814">
        <ele>42.799999237061</ele>
        <time>2019-06-02T07:56:39.000Z</time>
      </trkpt>
      <trkpt lat="47.30743" lon="-2.35808">
        <ele>43.200000762939</ele>
        <time>2019-06-02T07:56:40.000Z</time>
      </trkpt>
      <trkpt lat="47.30748" lon="-2.35804">
        <ele>43.599998474121</ele>
        <time>2019-06-02T07:56:41.000Z</time>
      </trkpt>
      <trkpt lat="47.30753" lon="-2.358">
        <ele>44</ele>
        <time>2019-06-02T07:56:42.000Z</time>
      </trkpt>
      <trkpt lat="47.30759" lon="-2.35797">
        <ele>44.400001525879</ele>
        <time>2019-06-02T07:56:43.000Z</time>
      </trkpt>
      <trkpt lat="47.30765" lon="-2.35797">
        <ele>44.400001525879</ele>
        <time>2019-06-02T07:56:44.000Z</time>
      </trkpt>
      <trkpt lat="47.30783" lon="-2.35804">
        <ele>44.400001525879</ele>
        <time>2019-06-02T07:56:47.000Z</time>
      </trkpt>
      <trkpt lat="47.30794" lon="-2.35812">
        <ele>44.400001525879</ele>
        <time>2019-06-02T07:56:49.000Z</time>
      </trkpt>
      <trkpt lat="47.30815" lon="-2.35826">
        <ele>44.400001525879</ele>
        <time>2019-06-02T07:56:53.000Z</time>
      </trkpt>
      <trkpt lat="47.30848" lon="-2.35849">
        <ele>44.400001525879</ele>
        <time>2019-06-02T07:56:59.000Z</time>
      </trkpt>
      <trkpt lat="47.30882" lon="-2.35865">
        <ele>44.400001525879</ele>
        <time>2019-06-02T07:57:04.000Z</time>
      </trkpt>
      <trkpt lat="47.30896" lon="-2.35865">
        <ele>44.400001525879</ele>
        <time>2019-06-02T07:57:06.000Z</time>
      </trkpt>
      <trkpt lat="47.30908" lon="-2.35862">
        <ele>44.400001525879</ele>
        <time>2019-06-02T07:57:08.000Z</time>
      </trkpt>
      <trkpt lat="47.30922" lon="-2.35856">
        <ele>44.400001525879</ele>
        <time>2019-06-02T07:57:10.000Z</time>
      </trkpt>
      <trkpt lat="47.30947" lon="-2.35843">
        <ele>44.400001525879</ele>
        <time>2019-06-02T07:57:14.000Z</time>
      </trkpt>
      <trkpt lat="47.30967" lon="-2.35833">
        <ele>44.400001525879</ele>
        <time>2019-06-02T07:57:17.000Z</time>
      </trkpt>
      <trkpt lat="47.30992" lon="-2.35819">
        <ele>44.400001525879</ele>
        <time>2019-06-02T07:57:21.000Z</time>
      </trkpt>
      <trkpt lat="47.31032" lon="-2.35802">
        <ele>44.400001525879</ele>
        <time>2019-06-02T07:57:27.000Z</time>
      </trkpt>
      <trkpt lat="47.31082" lon="-2.35787">
        <ele>44</ele>
        <time>2019-06-02T07:57:34.000Z</time>
      </trkpt>
      <trkpt lat="47.31089" lon="-2.35785">
        <ele>43.599998474121</ele>
        <time>2019-06-02T07:57:35.000Z</time>
      </trkpt>
      <trkpt lat="47.31096" lon="-2.35784">
        <ele>43.200000762939</ele>
        <time>2019-06-02T07:57:36.000Z</time>
      </trkpt>
      <trkpt lat="47.31103" lon="-2.35783">
        <ele>42.799999237061</ele>
        <time>2019-06-02T07:57:37.000Z</time>
      </trkpt>
      <trkpt lat="47.3111" lon="-2.35781">
        <ele>42.400001525879</ele>
        <time>2019-06-02T07:57:38.000Z</time>
      </trkpt>
      <trkpt lat="47.31136" lon="-2.35777">
        <ele>42.400001525879</ele>
        <time>2019-06-02T07:57:42.000Z</time>
      </trkpt>
      <trkpt lat="47.31159" lon="-2.35766">
        <ele>42.400001525879</ele>
        <time>2019-06-02T07:57:46.000Z</time>
      </trkpt>
      <trkpt lat="47.31164" lon="-2.35761">
        <ele>42.400001525879</ele>
        <time>2019-06-02T07:57:47.000Z</time>
      </trkpt>
      <trkpt lat="47.31175" lon="-2.35738">
        <ele>42.400001525879</ele>
        <time>2019-06-02T07:57:50.000Z</time>
      </trkpt>
      <trkpt lat="47.31177" lon="-2.35729">
        <ele>42.400001525879</ele>
        <time>2019-06-02T07:57:51.000Z</time>
      </trkpt>
      <trkpt lat="47.31184" lon="-2.35696">
        <ele>42.400001525879</ele>
        <time>2019-06-02T07:57:55.000Z</time>
      </trkpt>
      <trkpt lat="47.31199" lon="-2.35667">
        <ele>42.400001525879</ele>
        <time>2019-06-02T07:57:59.000Z</time>
      </trkpt>
      <trkpt lat="47.31215" lon="-2.35651">
        <ele>42.400001525879</ele>
        <time>2019-06-02T07:58:02.000Z</time>
      </trkpt>
      <trkpt lat="47.31227" lon="-2.35641">
        <ele>42.400001525879</ele>
        <time>2019-06-02T07:58:04.000Z</time>
      </trkpt>
      <trkpt lat="47.31274" lon="-2.35597">
        <ele>42.400001525879</ele>
        <time>2019-06-02T07:58:12.000Z</time>
      </trkpt>
      <trkpt lat="47.31285" lon="-2.35587">
        <ele>42</ele>
        <time>2019-06-02T07:58:14.000Z</time>
      </trkpt>
      <trkpt lat="47.31291" lon="-2.35583">
        <ele>41.599998474121</ele>
        <time>2019-06-02T07:58:15.000Z</time>
      </trkpt>
      <trkpt lat="47.31297" lon="-2.35579">
        <ele>41.200000762939</ele>
        <time>2019-06-02T07:58:16.000Z</time>
      </trkpt>
      <trkpt lat="47.31302" lon="-2.35575">
        <ele>40.799999237061</ele>
        <time>2019-06-02T07:58:17.000Z</time>
      </trkpt>
      <trkpt lat="47.31307" lon="-2.35571">
        <ele>40.400001525879</ele>
        <time>2019-06-02T07:58:18.000Z</time>
      </trkpt>
      <trkpt lat="47.31322" lon="-2.35561">
        <ele>40.400001525879</ele>
        <time>2019-06-02T07:58:22.000Z</time>
      </trkpt>
      <trkpt lat="47.31324" lon="-2.35562">
        <ele>40.400001525879</ele>
        <time>2019-06-02T07:58:23.000Z</time>
      </trkpt>
      <trkpt lat="47.31326" lon="-2.3557">
        <ele>40.400001525879</ele>
        <time>2019-06-02T07:58:25.000Z</time>
      </trkpt>
      <trkpt lat="47.31327" lon="-2.35587">
        <ele>40.400001525879</ele>
        <time>2019-06-02T07:58:28.000Z</time>
      </trkpt>
      <trkpt lat="47.31328" lon="-2.35598">
        <ele>40.400001525879</ele>
        <time>2019-06-02T07:58:30.000Z</time>
      </trkpt>
      <trkpt lat="47.3133" lon="-2.35626">
        <ele>40.400001525879</ele>
        <time>2019-06-02T07:58:34.000Z</time>
      </trkpt>
      <trkpt lat="47.31331" lon="-2.35639">
        <ele>40.400001525879</ele>
        <time>2019-06-02T07:58:36.000Z</time>
      </trkpt>
      <trkpt lat="47.31332" lon="-2.35676">
        <ele>40.400001525879</ele>
        <time>2019-06-02T07:58:41.000Z</time>
      </trkpt>
      <trkpt lat="47.31332" lon="-2.35731">
        <ele>40.400001525879</ele>
        <time>2019-06-02T07:58:48.000Z</time>
      </trkpt>
      <trkpt lat="47.31331" lon="-2.35756">
        <ele>40.400001525879</ele>
        <time>2019-06-02T07:58:51.000Z</time>
      </trkpt>
      <trkpt lat="47.31332" lon="-2.35771">
        <ele>40.400001525879</ele>
        <time>2019-06-02T07:58:53.000Z</time>
      </trkpt>
      <trkpt lat="47.31337" lon="-2.35823">
        <ele>40.400001525879</ele>
        <time>2019-06-02T07:58:59.000Z</time>
      </trkpt>
      <trkpt lat="47.31342" lon="-2.35858">
        <ele>40.400001525879</ele>
        <time>2019-06-02T07:59:03.000Z</time>
      </trkpt>
      <trkpt lat="47.31346" lon="-2.35867">
        <ele>40.400001525879</ele>
        <time>2019-06-02T07:59:04.000Z</time>
      </trkpt>
      <trkpt lat="47.31365" lon="-2.35905">
        <ele>40.400001525879</ele>
        <time>2019-06-02T07:59:09.000Z</time>
      </trkpt>
      <trkpt lat="47.3139" lon="-2.3595">
        <ele>40.400001525879</ele>
        <time>2019-06-02T07:59:15.000Z</time>
      </trkpt>
      <trkpt lat="47.31392" lon="-2.35957">
        <ele>40.400001525879</ele>
        <time>2019-06-02T07:59:16.000Z</time>
      </trkpt>
      <trkpt lat="47.314" lon="-2.35979">
        <ele>40.400001525879</ele>
        <time>2019-06-02T07:59:19.000Z</time>
      </trkpt>
      <trkpt lat="47.31408" lon="-2.36002">
        <ele>40.400001525879</ele>
        <time>2019-06-02T07:59:22.000Z</time>
      </trkpt>
      <trkpt lat="47.31414" lon="-2.36016">
        <ele>40.400001525879</ele>
        <time>2019-06-02T07:59:24.000Z</time>
      </trkpt>
      <trkpt lat="47.31417" lon="-2.36024">
        <ele>40.400001525879</ele>
        <time>2019-06-02T07:59:25.000Z</time>
      </trkpt>
      <trkpt lat="47.31422" lon="-2.36039">
        <ele>40.400001525879</ele>
        <time>2019-06-02T07:59:27.000Z</time>
      </trkpt>
      <trkpt lat="47.31424" lon="-2.36046">
        <ele>40.400001525879</ele>
        <time>2019-06-02T07:59:28.000Z</time>
      </trkpt>
      <trkpt lat="47.31433" lon="-2.36074">
        <ele>40.799999237061</ele>
        <time>2019-06-02T07:59:32.000Z</time>
      </trkpt>
      <trkpt lat="47.31436" lon="-2.36081">
        <ele>41.200000762939</ele>
        <time>2019-06-02T07:59:33.000Z</time>
      </trkpt>
      <trkpt lat="47.31438" lon="-2.36089">
        <ele>41.599998474121</ele>
        <time>2019-06-02T07:59:34.000Z</time>
      </trkpt>
      <trkpt lat="47.31441" lon="-2.36096">
        <ele>42</ele>
        <time>2019-06-02T07:59:35.000Z</time>
      </trkpt>
      <trkpt lat="47.31444" lon="-2.36103">
        <ele>42.400001525879</ele>
        <time>2019-06-02T07:59:36.000Z</time>
      </trkpt>
      <trkpt lat="47.31452" lon="-2.36134">
        <ele>42.400001525879</ele>
        <time>2019-06-02T07:59:40.000Z</time>
      </trkpt>
      <trkpt lat="47.31462" lon="-2.36177">
        <ele>42.400001525879</ele>
        <time>2019-06-02T07:59:45.000Z</time>
      </trkpt>
      <trkpt lat="47.31471" lon="-2.36228">
        <ele>42.400001525879</ele>
        <time>2019-06-02T07:59:51.000Z</time>
      </trkpt>
      <trkpt lat="47.31479" lon="-2.36262">
        <ele>42.400001525879</ele>
        <time>2019-06-02T07:59:55.000Z</time>
      </trkpt>
      <trkpt lat="47.31481" lon="-2.3627">
        <ele>42.400001525879</ele>
        <time>2019-06-02T07:59:56.000Z</time>
      </trkpt>
      <trkpt lat="47.31491" lon="-2.36318">
        <ele>42.400001525879</ele>
        <time>2019-06-02T08:00:02.000Z</time>
      </trkpt>
      <trkpt lat="47.31493" lon="-2.36343">
        <ele>42.400001525879</ele>
        <time>2019-06-02T08:00:05.000Z</time>
      </trkpt>
      <trkpt lat="47.31493" lon="-2.36352">
        <ele>42</ele>
        <time>2019-06-02T08:00:06.000Z</time>
      </trkpt>
      <trkpt lat="47.31492" lon="-2.36361">
        <ele>41.599998474121</ele>
        <time>2019-06-02T08:00:07.000Z</time>
      </trkpt>
      <trkpt lat="47.31492" lon="-2.3637">
        <ele>41.200000762939</ele>
        <time>2019-06-02T08:00:08.000Z</time>
      </trkpt>
      <trkpt lat="47.31492" lon="-2.36379">
        <ele>40.599998474121</ele>
        <time>2019-06-02T08:00:09.000Z</time>
      </trkpt>
      <trkpt lat="47.31492" lon="-2.36387">
        <ele>40.200000762939</ele>
        <time>2019-06-02T08:00:10.000Z</time>
      </trkpt>
      <trkpt lat="47.31493" lon="-2.36413">
        <ele>40.200000762939</ele>
        <time>2019-06-02T08:00:13.000Z</time>
      </trkpt>
      <trkpt lat="47.31494" lon="-2.36418">
        <ele>39.799999237061</ele>
        <time>2019-06-02T08:00:14.000Z</time>
      </trkpt>
      <trkpt lat="47.31494" lon="-2.36422">
        <ele>39.400001525879</ele>
        <time>2019-06-02T08:00:15.000Z</time>
      </trkpt>
      <trkpt lat="47.31494" lon="-2.36426">
        <ele>38.599998474121</ele>
        <time>2019-06-02T08:00:16.000Z</time>
      </trkpt>
      <trkpt lat="47.31494" lon="-2.3643">
        <ele>38.200000762939</ele>
        <time>2019-06-02T08:00:17.000Z</time>
      </trkpt>
      <trkpt lat="47.31496" lon="-2.36438">
        <ele>38.200000762939</ele>
        <time>2019-06-02T08:00:19.000Z</time>
      </trkpt>
      <trkpt lat="47.31497" lon="-2.36442">
        <ele>37.799999237061</ele>
        <time>2019-06-02T08:00:20.000Z</time>
      </trkpt>
      <trkpt lat="47.31496" lon="-2.36448">
        <ele>37.400001525879</ele>
        <time>2019-06-02T08:00:21.000Z</time>
      </trkpt>
      <trkpt lat="47.31496" lon="-2.36453">
        <ele>37</ele>
        <time>2019-06-02T08:00:22.000Z</time>
      </trkpt>
      <trkpt lat="47.31497" lon="-2.36457">
        <ele>36.599998474121</ele>
        <time>2019-06-02T08:00:23.000Z</time>
      </trkpt>
      <trkpt lat="47.31497" lon="-2.36462">
        <ele>36.200000762939</ele>
        <time>2019-06-02T08:00:24.000Z</time>
      </trkpt>
      <trkpt lat="47.31498" lon="-2.36471">
        <ele>36.200000762939</ele>
        <time>2019-06-02T08:00:26.000Z</time>
      </trkpt>
      <trkpt lat="47.31499" lon="-2.36482">
        <ele>36.200000762939</ele>
        <time>2019-06-02T08:00:28.000Z</time>
      </trkpt>
      <trkpt lat="47.31497" lon="-2.36501">
        <ele>36.200000762939</ele>
        <time>2019-06-02T08:00:32.000Z</time>
      </trkpt>
      <trkpt lat="47.31501" lon="-2.36512">
        <ele>36.200000762939</ele>
        <time>2019-06-02T08:00:36.000Z</time>
      </trkpt>
      <trkpt lat="47.31499" lon="-2.3653">
        <ele>36.200000762939</ele>
        <time>2019-06-02T08:00:40.000Z</time>
      </trkpt>
      <trkpt lat="47.315" lon="-2.36534">
        <ele>36.200000762939</ele>
        <time>2019-06-02T08:00:41.000Z</time>
      </trkpt>
      <trkpt lat="47.31502" lon="-2.36543">
        <ele>36.200000762939</ele>
        <time>2019-06-02T08:00:43.000Z</time>
      </trkpt>
      <trkpt lat="47.31504" lon="-2.36563">
        <ele>36.200000762939</ele>
        <time>2019-06-02T08:00:48.000Z</time>
      </trkpt>
      <trkpt lat="47.31503" lon="-2.36567">
        <ele>36.200000762939</ele>
        <time>2019-06-02T08:00:49.000Z</time>
      </trkpt>
      <trkpt lat="47.31503" lon="-2.36591">
        <ele>36.200000762939</ele>
        <time>2019-06-02T08:00:54.000Z</time>
      </trkpt>
      <trkpt lat="47.31505" lon="-2.36599">
        <ele>36.200000762939</ele>
        <time>2019-06-02T08:00:55.000Z</time>
      </trkpt>
      <trkpt lat="47.31512" lon="-2.36628">
        <ele>36.200000762939</ele>
        <time>2019-06-02T08:00:59.000Z</time>
      </trkpt>
      <trkpt lat="47.31513" lon="-2.36635">
        <ele>36.200000762939</ele>
        <time>2019-06-02T08:01:00.000Z</time>
      </trkpt>
      <trkpt lat="47.31522" lon="-2.3667">
        <ele>36.200000762939</ele>
        <time>2019-06-02T08:01:05.000Z</time>
      </trkpt>
      <trkpt lat="47.31532" lon="-2.36713">
        <ele>36.200000762939</ele>
        <time>2019-06-02T08:01:11.000Z</time>
      </trkpt>
      <trkpt lat="47.31541" lon="-2.36755">
        <ele>36.200000762939</ele>
        <time>2019-06-02T08:01:17.000Z</time>
      </trkpt>
      <trkpt lat="47.31547" lon="-2.36782">
        <ele>36.599998474121</ele>
        <time>2019-06-02T08:01:21.000Z</time>
      </trkpt>
      <trkpt lat="47.31547" lon="-2.36788">
        <ele>37</ele>
        <time>2019-06-02T08:01:22.000Z</time>
      </trkpt>
      <trkpt lat="47.31548" lon="-2.36794">
        <ele>37.400001525879</ele>
        <time>2019-06-02T08:01:23.000Z</time>
      </trkpt>
      <trkpt lat="47.31549" lon="-2.36799">
        <ele>37.799999237061</ele>
        <time>2019-06-02T08:01:24.000Z</time>
      </trkpt>
      <trkpt lat="47.3155" lon="-2.36804">
        <ele>38.200000762939</ele>
        <time>2019-06-02T08:01:25.000Z</time>
      </trkpt>
      <trkpt lat="47.31557" lon="-2.36835">
        <ele>38.200000762939</ele>
        <time>2019-06-02T08:01:30.000Z</time>
      </trkpt>
      <trkpt lat="47.31559" lon="-2.36842">
        <ele>39</ele>
        <time>2019-06-02T08:01:31.000Z</time>
      </trkpt>
      <trkpt lat="47.31561" lon="-2.3685">
        <ele>39.400001525879</ele>
        <time>2019-06-02T08:01:32.000Z</time>
      </trkpt>
      <trkpt lat="47.31563" lon="-2.36857">
        <ele>39.799999237061</ele>
        <time>2019-06-02T08:01:33.000Z</time>
      </trkpt>
      <trkpt lat="47.31565" lon="-2.36864">
        <ele>40.200000762939</ele>
        <time>2019-06-02T08:01:34.000Z</time>
      </trkpt>
      <trkpt lat="47.31569" lon="-2.36878">
        <ele>40.200000762939</ele>
        <time>2019-06-02T08:01:36.000Z</time>
      </trkpt>
      <trkpt lat="47.31574" lon="-2.36899">
        <ele>40.599998474121</ele>
        <time>2019-06-02T08:01:39.000Z</time>
      </trkpt>
      <trkpt lat="47.31576" lon="-2.36905">
        <ele>41</ele>
        <time>2019-06-02T08:01:40.000Z</time>
      </trkpt>
      <trkpt lat="47.31578" lon="-2.36911">
        <ele>41.599998474121</ele>
        <time>2019-06-02T08:01:41.000Z</time>
      </trkpt>
      <trkpt lat="47.3158" lon="-2.36918">
        <ele>42</ele>
        <time>2019-06-02T08:01:42.000Z</time>
      </trkpt>
      <trkpt lat="47.31582" lon="-2.36924">
        <ele>42.400001525879</ele>
        <time>2019-06-02T08:01:43.000Z</time>
      </trkpt>
      <trkpt lat="47.31593" lon="-2.36958">
        <ele>42.799999237061</ele>
        <time>2019-06-02T08:01:48.000Z</time>
      </trkpt>
      <trkpt lat="47.31595" lon="-2.36965">
        <ele>43.200000762939</ele>
        <time>2019-06-02T08:01:49.000Z</time>
      </trkpt>
      <trkpt lat="47.31597" lon="-2.36971">
        <ele>43.799999237061</ele>
        <time>2019-06-02T08:01:50.000Z</time>
      </trkpt>
      <trkpt lat="47.316" lon="-2.36977">
        <ele>44.200000762939</ele>
        <time>2019-06-02T08:01:51.000Z</time>
      </trkpt>
      <trkpt lat="47.31602" lon="-2.36984">
        <ele>44.599998474121</ele>
        <time>2019-06-02T08:01:52.000Z</time>
      </trkpt>
      <trkpt lat="47.31613" lon="-2.37018">
        <ele>44.599998474121</ele>
        <time>2019-06-02T08:01:57.000Z</time>
      </trkpt>
      <trkpt lat="47.31617" lon="-2.3703">
        <ele>44.599998474121</ele>
        <time>2019-06-02T08:01:59.000Z</time>
      </trkpt>
      <trkpt lat="47.31622" lon="-2.37043">
        <ele>44.599998474121</ele>
        <time>2019-06-02T08:02:01.000Z</time>
      </trkpt>
      <trkpt lat="47.31629" lon="-2.37061">
        <ele>45</ele>
        <time>2019-06-02T08:02:04.000Z</time>
      </trkpt>
      <trkpt lat="47.31632" lon="-2.37067">
        <ele>45.400001525879</ele>
        <time>2019-06-02T08:02:05.000Z</time>
      </trkpt>
      <trkpt lat="47.31635" lon="-2.37073">
        <ele>45.799999237061</ele>
        <time>2019-06-02T08:02:06.000Z</time>
      </trkpt>
      <trkpt lat="47.31638" lon="-2.37077">
        <ele>46.200000762939</ele>
        <time>2019-06-02T08:02:07.000Z</time>
      </trkpt>
      <trkpt lat="47.31641" lon="-2.37083">
        <ele>46.599998474121</ele>
        <time>2019-06-02T08:02:08.000Z</time>
      </trkpt>
      <trkpt lat="47.31653" lon="-2.37108">
        <ele>46.599998474121</ele>
        <time>2019-06-02T08:02:12.000Z</time>
      </trkpt>
      <trkpt lat="47.31673" lon="-2.37145">
        <ele>46.599998474121</ele>
        <time>2019-06-02T08:02:18.000Z</time>
      </trkpt>
      <trkpt lat="47.31682" lon="-2.37165">
        <ele>46.599998474121</ele>
        <time>2019-06-02T08:02:21.000Z</time>
      </trkpt>
      <trkpt lat="47.31689" lon="-2.37188">
        <ele>46.599998474121</ele>
        <time>2019-06-02T08:02:24.000Z</time>
      </trkpt>
      <trkpt lat="47.31686" lon="-2.37223">
        <ele>46.599998474121</ele>
        <time>2019-06-02T08:02:28.000Z</time>
      </trkpt>
      <trkpt lat="47.31682" lon="-2.3723">
        <ele>47</ele>
        <time>2019-06-02T08:02:29.000Z</time>
      </trkpt>
      <trkpt lat="47.31678" lon="-2.37236">
        <ele>47.400001525879</ele>
        <time>2019-06-02T08:02:30.000Z</time>
      </trkpt>
      <trkpt lat="47.31673" lon="-2.37242">
        <ele>47.799999237061</ele>
        <time>2019-06-02T08:02:31.000Z</time>
      </trkpt>
      <trkpt lat="47.31668" lon="-2.37247">
        <ele>48.200000762939</ele>
        <time>2019-06-02T08:02:32.000Z</time>
      </trkpt>
      <trkpt lat="47.31663" lon="-2.37252">
        <ele>48.599998474121</ele>
        <time>2019-06-02T08:02:33.000Z</time>
      </trkpt>
      <trkpt lat="47.31653" lon="-2.3726">
        <ele>48.599998474121</ele>
        <time>2019-06-02T08:02:35.000Z</time>
      </trkpt>
      <trkpt lat="47.31631" lon="-2.3728">
        <ele>48.599998474121</ele>
        <time>2019-06-02T08:02:39.000Z</time>
      </trkpt>
      <trkpt lat="47.31622" lon="-2.37294">
        <ele>48.599998474121</ele>
        <time>2019-06-02T08:02:41.000Z</time>
      </trkpt>
      <trkpt lat="47.31618" lon="-2.37325">
        <ele>48.599998474121</ele>
        <time>2019-06-02T08:02:44.000Z</time>
      </trkpt>
      <trkpt lat="47.31625" lon="-2.37355">
        <ele>48.599998474121</ele>
        <time>2019-06-02T08:02:47.000Z</time>
      </trkpt>
      <trkpt lat="47.31635" lon="-2.37404">
        <ele>48.599998474121</ele>
        <time>2019-06-02T08:02:52.000Z</time>
      </trkpt>
      <trkpt lat="47.31635" lon="-2.37415">
        <ele>48.599998474121</ele>
        <time>2019-06-02T08:02:53.000Z</time>
      </trkpt>
      <trkpt lat="47.31637" lon="-2.37457">
        <ele>48.200000762939</ele>
        <time>2019-06-02T08:02:57.000Z</time>
      </trkpt>
      <trkpt lat="47.31638" lon="-2.37466">
        <ele>47.799999237061</ele>
        <time>2019-06-02T08:02:58.000Z</time>
      </trkpt>
      <trkpt lat="47.31638" lon="-2.37476">
        <ele>47.400001525879</ele>
        <time>2019-06-02T08:02:59.000Z</time>
      </trkpt>
      <trkpt lat="47.31639" lon="-2.37485">
        <ele>47</ele>
        <time>2019-06-02T08:03:00.000Z</time>
      </trkpt>
      <trkpt lat="47.31638" lon="-2.37495">
        <ele>46.599998474121</ele>
        <time>2019-06-02T08:03:01.000Z</time>
      </trkpt>
      <trkpt lat="47.31632" lon="-2.37522">
        <ele>46.599998474121</ele>
        <time>2019-06-02T08:03:04.000Z</time>
      </trkpt>
      <trkpt lat="47.3162" lon="-2.37557">
        <ele>46.599998474121</ele>
        <time>2019-06-02T08:03:08.000Z</time>
      </trkpt>
      <trkpt lat="47.31617" lon="-2.37566">
        <ele>46.599998474121</ele>
        <time>2019-06-02T08:03:09.000Z</time>
      </trkpt>
      <trkpt lat="47.31615" lon="-2.37576">
        <ele>46.599998474121</ele>
        <time>2019-06-02T08:03:10.000Z</time>
      </trkpt>
      <trkpt lat="47.31613" lon="-2.37604">
        <ele>46.599998474121</ele>
        <time>2019-06-02T08:03:13.000Z</time>
      </trkpt>
      <trkpt lat="47.31616" lon="-2.37632">
        <ele>46.599998474121</ele>
        <time>2019-06-02T08:03:16.000Z</time>
      </trkpt>
      <trkpt lat="47.31618" lon="-2.37642">
        <ele>46.599998474121</ele>
        <time>2019-06-02T08:03:17.000Z</time>
      </trkpt>
      <trkpt lat="47.31622" lon="-2.37649">
        <ele>46.599998474121</ele>
        <time>2019-06-02T08:03:18.000Z</time>
      </trkpt>
      <trkpt lat="47.3164" lon="-2.3766">
        <ele>46.200000762939</ele>
        <time>2019-06-02T08:03:21.000Z</time>
      </trkpt>
      <trkpt lat="47.31646" lon="-2.37663">
        <ele>45.799999237061</ele>
        <time>2019-06-02T08:03:22.000Z</time>
      </trkpt>
      <trkpt lat="47.31652" lon="-2.37666">
        <ele>45.400001525879</ele>
        <time>2019-06-02T08:03:23.000Z</time>
      </trkpt>
      <trkpt lat="47.31657" lon="-2.37672">
        <ele>45</ele>
        <time>2019-06-02T08:03:24.000Z</time>
      </trkpt>
      <trkpt lat="47.31662" lon="-2.37678">
        <ele>44.400001525879</ele>
        <time>2019-06-02T08:03:25.000Z</time>
      </trkpt>
      <trkpt lat="47.31667" lon="-2.37683">
        <ele>44.400001525879</ele>
        <time>2019-06-02T08:03:26.000Z</time>
      </trkpt>
      <trkpt lat="47.31695" lon="-2.37711">
        <ele>44.400001525879</ele>
        <time>2019-06-02T08:03:31.000Z</time>
      </trkpt>
      <trkpt lat="47.31723" lon="-2.37715">
        <ele>44.400001525879</ele>
        <time>2019-06-02T08:03:35.000Z</time>
      </trkpt>
      <trkpt lat="47.31749" lon="-2.37701">
        <ele>44.400001525879</ele>
        <time>2019-06-02T08:03:39.000Z</time>
      </trkpt>
      <trkpt lat="47.31767" lon="-2.37685">
        <ele>44.400001525879</ele>
        <time>2019-06-02T08:03:42.000Z</time>
      </trkpt>
      <trkpt lat="47.31778" lon="-2.37673">
        <ele>44.400001525879</ele>
        <time>2019-06-02T08:03:44.000Z</time>
      </trkpt>
      <trkpt lat="47.31808" lon="-2.37653">
        <ele>44.400001525879</ele>
        <time>2019-06-02T08:03:49.000Z</time>
      </trkpt>
      <trkpt lat="47.31819" lon="-2.37652">
        <ele>44.400001525879</ele>
        <time>2019-06-02T08:03:51.000Z</time>
      </trkpt>
      <trkpt lat="47.31823" lon="-2.37657">
        <ele>44.400001525879</ele>
        <time>2019-06-02T08:03:52.000Z</time>
      </trkpt>
      <trkpt lat="47.31825" lon="-2.37678">
        <ele>44.400001525879</ele>
        <time>2019-06-02T08:03:55.000Z</time>
      </trkpt>
      <trkpt lat="47.31821" lon="-2.377">
        <ele>44.400001525879</ele>
        <time>2019-06-02T08:03:58.000Z</time>
      </trkpt>
      <trkpt lat="47.31819" lon="-2.37708">
        <ele>44.400001525879</ele>
        <time>2019-06-02T08:03:59.000Z</time>
      </trkpt>
      <trkpt lat="47.31815" lon="-2.37752">
        <ele>44.400001525879</ele>
        <time>2019-06-02T08:04:04.000Z</time>
      </trkpt>
      <trkpt lat="47.31808" lon="-2.37819">
        <ele>44.400001525879</ele>
        <time>2019-06-02T08:04:11.000Z</time>
      </trkpt>
      <trkpt lat="47.318" lon="-2.37897">
        <ele>44.400001525879</ele>
        <time>2019-06-02T08:04:19.000Z</time>
      </trkpt>
      <trkpt lat="47.31799" lon="-2.37906">
        <ele>44</ele>
        <time>2019-06-02T08:04:20.000Z</time>
      </trkpt>
      <trkpt lat="47.31798" lon="-2.37916">
        <ele>43.599998474121</ele>
        <time>2019-06-02T08:04:21.000Z</time>
      </trkpt>
      <trkpt lat="47.31797" lon="-2.37926">
        <ele>43.200000762939</ele>
        <time>2019-06-02T08:04:22.000Z</time>
      </trkpt>
      <trkpt lat="47.31796" lon="-2.37936">
        <ele>42.200000762939</ele>
        <time>2019-06-02T08:04:23.000Z</time>
      </trkpt>
      <trkpt lat="47.31796" lon="-2.37968">
        <ele>42.200000762939</ele>
        <time>2019-06-02T08:04:26.000Z</time>
      </trkpt>
      <trkpt lat="47.31796" lon="-2.37989">
        <ele>41.799999237061</ele>
        <time>2019-06-02T08:04:28.000Z</time>
      </trkpt>
      <trkpt lat="47.31796" lon="-2.37999">
        <ele>41.400001525879</ele>
        <time>2019-06-02T08:04:29.000Z</time>
      </trkpt>
      <trkpt lat="47.31796" lon="-2.38009">
        <ele>41</ele>
        <time>2019-06-02T08:04:30.000Z</time>
      </trkpt>
      <trkpt lat="47.31797" lon="-2.3802">
        <ele>40.599998474121</ele>
        <time>2019-06-02T08:04:31.000Z</time>
      </trkpt>
      <trkpt lat="47.31797" lon="-2.3803">
        <ele>40.200000762939</ele>
        <time>2019-06-02T08:04:32.000Z</time>
      </trkpt>
      <trkpt lat="47.31799" lon="-2.38051">
        <ele>40.200000762939</ele>
        <time>2019-06-02T08:04:34.000Z</time>
      </trkpt>
      <trkpt lat="47.31803" lon="-2.38111">
        <ele>40.200000762939</ele>
        <time>2019-06-02T08:04:40.000Z</time>
      </trkpt>
      <trkpt lat="47.31806" lon="-2.38185">
        <ele>40.200000762939</ele>
        <time>2019-06-02T08:04:48.000Z</time>
      </trkpt>
      <trkpt lat="47.31808" lon="-2.38249">
        <ele>40.200000762939</ele>
        <time>2019-06-02T08:04:55.000Z</time>
      </trkpt>
      <trkpt lat="47.31809" lon="-2.38309">
        <ele>40.599998474121</ele>
        <time>2019-06-02T08:05:02.000Z</time>
      </trkpt>
      <trkpt lat="47.3181" lon="-2.38318">
        <ele>41</ele>
        <time>2019-06-02T08:05:03.000Z</time>
      </trkpt>
      <trkpt lat="47.3181" lon="-2.38327">
        <ele>41.400001525879</ele>
        <time>2019-06-02T08:05:04.000Z</time>
      </trkpt>
      <trkpt lat="47.3181" lon="-2.38335">
        <ele>41.799999237061</ele>
        <time>2019-06-02T08:05:05.000Z</time>
      </trkpt>
      <trkpt lat="47.3181" lon="-2.38344">
        <ele>42.200000762939</ele>
        <time>2019-06-02T08:05:06.000Z</time>
      </trkpt>
      <trkpt lat="47.3181" lon="-2.38397">
        <ele>43</ele>
        <time>2019-06-02T08:05:12.000Z</time>
      </trkpt>
      <trkpt lat="47.3181" lon="-2.38406">
        <ele>43.400001525879</ele>
        <time>2019-06-02T08:05:13.000Z</time>
      </trkpt>
      <trkpt lat="47.3181" lon="-2.38414">
        <ele>43.799999237061</ele>
        <time>2019-06-02T08:05:14.000Z</time>
      </trkpt>
      <trkpt lat="47.3181" lon="-2.38423">
        <ele>44.200000762939</ele>
        <time>2019-06-02T08:05:15.000Z</time>
      </trkpt>
      <trkpt lat="47.31809" lon="-2.3847">
        <ele>44.599998474121</ele>
        <time>2019-06-02T08:05:21.000Z</time>
      </trkpt>
      <trkpt lat="47.31809" lon="-2.38476">
        <ele>45</ele>
        <time>2019-06-02T08:05:22.000Z</time>
      </trkpt>
      <trkpt lat="47.31809" lon="-2.38483">
        <ele>45.400001525879</ele>
        <time>2019-06-02T08:05:23.000Z</time>
      </trkpt>
      <trkpt lat="47.3181" lon="-2.3849">
        <ele>45.799999237061</ele>
        <time>2019-06-02T08:05:24.000Z</time>
      </trkpt>
      <trkpt lat="47.3181" lon="-2.38497">
        <ele>46.200000762939</ele>
        <time>2019-06-02T08:05:25.000Z</time>
      </trkpt>
      <trkpt lat="47.3181" lon="-2.38521">
        <ele>46.200000762939</ele>
        <time>2019-06-02T08:05:29.000Z</time>
      </trkpt>
      <trkpt lat="47.31813" lon="-2.38535">
        <ele>46.200000762939</ele>
        <time>2019-06-02T08:05:32.000Z</time>
      </trkpt>
      <trkpt lat="47.31816" lon="-2.38537">
        <ele>46.200000762939</ele>
        <time>2019-06-02T08:05:33.000Z</time>
      </trkpt>
      <trkpt lat="47.31828" lon="-2.38536">
        <ele>46.200000762939</ele>
        <time>2019-06-02T08:05:36.000Z</time>
      </trkpt>
      <trkpt lat="47.31831" lon="-2.38535">
        <ele>46.200000762939</ele>
        <time>2019-06-02T08:05:37.000Z</time>
      </trkpt>
      <trkpt lat="47.31862" lon="-2.38523">
        <ele>46.200000762939</ele>
        <time>2019-06-02T08:05:44.000Z</time>
      </trkpt>
      <trkpt lat="47.31867" lon="-2.3852">
        <ele>45.799999237061</ele>
        <time>2019-06-02T08:05:45.000Z</time>
      </trkpt>
      <trkpt lat="47.31871" lon="-2.38518">
        <ele>45.400001525879</ele>
        <time>2019-06-02T08:05:46.000Z</time>
      </trkpt>
      <trkpt lat="47.31876" lon="-2.38517">
        <ele>45</ele>
        <time>2019-06-02T08:05:47.000Z</time>
      </trkpt>
      <trkpt lat="47.31881" lon="-2.38515">
        <ele>44.599998474121</ele>
        <time>2019-06-02T08:05:48.000Z</time>
      </trkpt>
      <trkpt lat="47.31886" lon="-2.38513">
        <ele>44.200000762939</ele>
        <time>2019-06-02T08:05:49.000Z</time>
      </trkpt>
      <trkpt lat="47.31891" lon="-2.3851">
        <ele>44.200000762939</ele>
        <time>2019-06-02T08:05:50.000Z</time>
      </trkpt>
      <trkpt lat="47.319" lon="-2.38505">
        <ele>44.200000762939</ele>
        <time>2019-06-02T08:05:52.000Z</time>
      </trkpt>
      <trkpt lat="47.31911" lon="-2.38499">
        <ele>43.799999237061</ele>
        <time>2019-06-02T08:05:54.000Z</time>
      </trkpt>
      <trkpt lat="47.31916" lon="-2.38496">
        <ele>43.200000762939</ele>
        <time>2019-06-02T08:05:55.000Z</time>
      </trkpt>
      <trkpt lat="47.31921" lon="-2.38494">
        <ele>42.799999237061</ele>
        <time>2019-06-02T08:05:56.000Z</time>
      </trkpt>
      <trkpt lat="47.31927" lon="-2.38492">
        <ele>42.400001525879</ele>
        <time>2019-06-02T08:05:57.000Z</time>
      </trkpt>
      <trkpt lat="47.31933" lon="-2.38491">
        <ele>42</ele>
        <time>2019-06-02T08:05:58.000Z</time>
      </trkpt>
      <trkpt lat="47.31951" lon="-2.38489">
        <ele>42</ele>
        <time>2019-06-02T08:06:01.000Z</time>
      </trkpt>
      <trkpt lat="47.31956" lon="-2.38488">
        <ele>42</ele>
        <time>2019-06-02T08:06:02.000Z</time>
      </trkpt>
      <trkpt lat="47.31961" lon="-2.38487">
        <ele>42</ele>
        <time>2019-06-02T08:06:03.000Z</time>
      </trkpt>
      <trkpt lat="47.31983" lon="-2.38478">
        <ele>42</ele>
        <time>2019-06-02T08:06:07.000Z</time>
      </trkpt>
      <trkpt lat="47.31988" lon="-2.38476">
        <ele>41.599998474121</ele>
        <time>2019-06-02T08:06:08.000Z</time>
      </trkpt>
      <trkpt lat="47.31992" lon="-2.38475">
        <ele>41</ele>
        <time>2019-06-02T08:06:09.000Z</time>
      </trkpt>
      <trkpt lat="47.31996" lon="-2.38474">
        <ele>40.599998474121</ele>
        <time>2019-06-02T08:06:10.000Z</time>
      </trkpt>
      <trkpt lat="47.32001" lon="-2.38472">
        <ele>40.200000762939</ele>
        <time>2019-06-02T08:06:11.000Z</time>
      </trkpt>
      <trkpt lat="47.32005" lon="-2.3847">
        <ele>39.599998474121</ele>
        <time>2019-06-02T08:06:12.000Z</time>
      </trkpt>
      <trkpt lat="47.32025" lon="-2.3846">
        <ele>39.599998474121</ele>
        <time>2019-06-02T08:06:16.000Z</time>
      </trkpt>
      <trkpt lat="47.32065" lon="-2.38445">
        <ele>39.599998474121</ele>
        <time>2019-06-02T08:06:23.000Z</time>
      </trkpt>
      <trkpt lat="47.3208" lon="-2.38437">
        <ele>38.599998474121</ele>
        <time>2019-06-02T08:06:26.000Z</time>
      </trkpt>
      <trkpt lat="47.32085" lon="-2.38435">
        <ele>38.200000762939</ele>
        <time>2019-06-02T08:06:27.000Z</time>
      </trkpt>
      <trkpt lat="47.3209" lon="-2.38433">
        <ele>37.799999237061</ele>
        <time>2019-06-02T08:06:28.000Z</time>
      </trkpt>
      <trkpt lat="47.32094" lon="-2.38431">
        <ele>37.200000762939</ele>
        <time>2019-06-02T08:06:29.000Z</time>
      </trkpt>
      <trkpt lat="47.32118" lon="-2.38419">
        <ele>37.200000762939</ele>
        <time>2019-06-02T08:06:34.000Z</time>
      </trkpt>
      <trkpt lat="47.32128" lon="-2.38411">
        <ele>37.200000762939</ele>
        <time>2019-06-02T08:06:36.000Z</time>
      </trkpt>
      <trkpt lat="47.32136" lon="-2.38401">
        <ele>37.200000762939</ele>
        <time>2019-06-02T08:06:38.000Z</time>
      </trkpt>
      <trkpt lat="47.32151" lon="-2.38381">
        <ele>37.200000762939</ele>
        <time>2019-06-02T08:06:42.000Z</time>
      </trkpt>
      <trkpt lat="47.32154" lon="-2.38376">
        <ele>36.799999237061</ele>
        <time>2019-06-02T08:06:43.000Z</time>
      </trkpt>
      <trkpt lat="47.32157" lon="-2.38371">
        <ele>36.400001525879</ele>
        <time>2019-06-02T08:06:44.000Z</time>
      </trkpt>
      <trkpt lat="47.32159" lon="-2.38368">
        <ele>36</ele>
        <time>2019-06-02T08:06:45.000Z</time>
      </trkpt>
      <trkpt lat="47.32161" lon="-2.38364">
        <ele>35.599998474121</ele>
        <time>2019-06-02T08:06:46.000Z</time>
      </trkpt>
      <trkpt lat="47.32163" lon="-2.3836">
        <ele>35.200000762939</ele>
        <time>2019-06-02T08:06:47.000Z</time>
      </trkpt>
      <trkpt lat="47.32165" lon="-2.38356">
        <ele>35.200000762939</ele>
        <time>2019-06-02T08:06:48.000Z</time>
      </trkpt>
      <trkpt lat="47.32182" lon="-2.38329">
        <ele>35.200000762939</ele>
        <time>2019-06-02T08:06:54.000Z</time>
      </trkpt>
      <trkpt lat="47.32196" lon="-2.38309">
        <ele>35.200000762939</ele>
        <time>2019-06-02T08:06:58.000Z</time>
      </trkpt>
      <trkpt lat="47.322" lon="-2.38304">
        <ele>35.200000762939</ele>
        <time>2019-06-02T08:06:59.000Z</time>
      </trkpt>
      <trkpt lat="47.3221" lon="-2.38296">
        <ele>35.200000762939</ele>
        <time>2019-06-02T08:07:01.000Z</time>
      </trkpt>
      <trkpt lat="47.32214" lon="-2.38296">
        <ele>35.200000762939</ele>
        <time>2019-06-02T08:07:02.000Z</time>
      </trkpt>
      <trkpt lat="47.32227" lon="-2.38296">
        <ele>35.200000762939</ele>
        <time>2019-06-02T08:07:05.000Z</time>
      </trkpt>
      <trkpt lat="47.32241" lon="-2.38292">
        <ele>35.200000762939</ele>
        <time>2019-06-02T08:07:08.000Z</time>
      </trkpt>
      <trkpt lat="47.32251" lon="-2.38289">
        <ele>35.200000762939</ele>
        <time>2019-06-02T08:07:10.000Z</time>
      </trkpt>
      <trkpt lat="47.32256" lon="-2.38288">
        <ele>35.200000762939</ele>
        <time>2019-06-02T08:07:11.000Z</time>
      </trkpt>
      <trkpt lat="47.32267" lon="-2.38288">
        <ele>35.200000762939</ele>
        <time>2019-06-02T08:07:13.000Z</time>
      </trkpt>
      <trkpt lat="47.32293" lon="-2.38294">
        <ele>35.200000762939</ele>
        <time>2019-06-02T08:07:18.000Z</time>
      </trkpt>
      <trkpt lat="47.32299" lon="-2.38296">
        <ele>35.200000762939</ele>
        <time>2019-06-02T08:07:19.000Z</time>
      </trkpt>
      <trkpt lat="47.32326" lon="-2.38307">
        <ele>35.200000762939</ele>
        <time>2019-06-02T08:07:24.000Z</time>
      </trkpt>
      <trkpt lat="47.32337" lon="-2.38311">
        <ele>35.599998474121</ele>
        <time>2019-06-02T08:07:26.000Z</time>
      </trkpt>
      <trkpt lat="47.32343" lon="-2.38313">
        <ele>36</ele>
        <time>2019-06-02T08:07:27.000Z</time>
      </trkpt>
      <trkpt lat="47.32348" lon="-2.38316">
        <ele>36.599998474121</ele>
        <time>2019-06-02T08:07:28.000Z</time>
      </trkpt>
      <trkpt lat="47.32353" lon="-2.38318">
        <ele>37</ele>
        <time>2019-06-02T08:07:29.000Z</time>
      </trkpt>
      <trkpt lat="47.32358" lon="-2.3832">
        <ele>37.400001525879</ele>
        <time>2019-06-02T08:07:30.000Z</time>
      </trkpt>
      <trkpt lat="47.32363" lon="-2.38322">
        <ele>37.400001525879</ele>
        <time>2019-06-02T08:07:31.000Z</time>
      </trkpt>
      <trkpt lat="47.32382" lon="-2.3833">
        <ele>37.799999237061</ele>
        <time>2019-06-02T08:07:35.000Z</time>
      </trkpt>
      <trkpt lat="47.32387" lon="-2.38332">
        <ele>38.200000762939</ele>
        <time>2019-06-02T08:07:36.000Z</time>
      </trkpt>
      <trkpt lat="47.32391" lon="-2.38335">
        <ele>38.599998474121</ele>
        <time>2019-06-02T08:07:37.000Z</time>
      </trkpt>
      <trkpt lat="47.32396" lon="-2.38337">
        <ele>39</ele>
        <time>2019-06-02T08:07:38.000Z</time>
      </trkpt>
      <trkpt lat="47.32401" lon="-2.38339">
        <ele>39.400001525879</ele>
        <time>2019-06-02T08:07:39.000Z</time>
      </trkpt>
      <trkpt lat="47.32429" lon="-2.38353">
        <ele>39.400001525879</ele>
        <time>2019-06-02T08:07:45.000Z</time>
      </trkpt>
      <trkpt lat="47.32451" lon="-2.38364">
        <ele>39.400001525879</ele>
        <time>2019-06-02T08:07:50.000Z</time>
      </trkpt>
      <trkpt lat="47.3247" lon="-2.38373">
        <ele>39.400001525879</ele>
        <time>2019-06-02T08:07:55.000Z</time>
      </trkpt>
      <trkpt lat="47.32494" lon="-2.38382">
        <ele>39.400001525879</ele>
        <time>2019-06-02T08:08:02.000Z</time>
      </trkpt>
      <trkpt lat="47.32509" lon="-2.38388">
        <ele>39.400001525879</ele>
        <time>2019-06-02T08:08:07.000Z</time>
      </trkpt>
      <trkpt lat="47.32511" lon="-2.38387">
        <ele>39.400001525879</ele>
        <time>2019-06-02T08:08:08.000Z</time>
      </trkpt>
      <trkpt lat="47.32518" lon="-2.38373">
        <ele>39.400001525879</ele>
        <time>2019-06-02T08:08:13.000Z</time>
      </trkpt>
      <trkpt lat="47.32523" lon="-2.38344">
        <ele>39.400001525879</ele>
        <time>2019-06-02T08:08:18.000Z</time>
      </trkpt>
      <trkpt lat="47.32525" lon="-2.38323">
        <ele>39.400001525879</ele>
        <time>2019-06-02T08:08:21.000Z</time>
      </trkpt>
      <trkpt lat="47.32532" lon="-2.38313">
        <ele>39.400001525879</ele>
        <time>2019-06-02T08:08:23.000Z</time>
      </trkpt>
      <trkpt lat="47.32539" lon="-2.3831">
        <ele>39.400001525879</ele>
        <time>2019-06-02T08:08:24.000Z</time>
      </trkpt>
      <trkpt lat="47.32545" lon="-2.38307">
        <ele>39</ele>
        <time>2019-06-02T08:08:25.000Z</time>
      </trkpt>
      <trkpt lat="47.32551" lon="-2.38305">
        <ele>38.400001525879</ele>
        <time>2019-06-02T08:08:26.000Z</time>
      </trkpt>
      <trkpt lat="47.32558" lon="-2.38303">
        <ele>38</ele>
        <time>2019-06-02T08:08:27.000Z</time>
      </trkpt>
      <trkpt lat="47.32565" lon="-2.38301">
        <ele>37.599998474121</ele>
        <time>2019-06-02T08:08:28.000Z</time>
      </trkpt>
      <trkpt lat="47.32572" lon="-2.38299">
        <ele>37.200000762939</ele>
        <time>2019-06-02T08:08:29.000Z</time>
      </trkpt>
      <trkpt lat="47.3258" lon="-2.38297">
        <ele>37.200000762939</ele>
        <time>2019-06-02T08:08:30.000Z</time>
      </trkpt>
      <trkpt lat="47.32594" lon="-2.38295">
        <ele>37.200000762939</ele>
        <time>2019-06-02T08:08:32.000Z</time>
      </trkpt>
      <trkpt lat="47.32607" lon="-2.38299">
        <ele>37.200000762939</ele>
        <time>2019-06-02T08:08:34.000Z</time>
      </trkpt>
      <trkpt lat="47.32623" lon="-2.38313">
        <ele>37.200000762939</ele>
        <time>2019-06-02T08:08:37.000Z</time>
      </trkpt>
      <trkpt lat="47.32628" lon="-2.38319">
        <ele>37.200000762939</ele>
        <time>2019-06-02T08:08:38.000Z</time>
      </trkpt>
      <trkpt lat="47.32655" lon="-2.38354">
        <ele>37.200000762939</ele>
        <time>2019-06-02T08:08:45.000Z</time>
      </trkpt>
      <trkpt lat="47.32658" lon="-2.38358">
        <ele>37.599998474121</ele>
        <time>2019-06-02T08:08:46.000Z</time>
      </trkpt>
      <trkpt lat="47.32662" lon="-2.38363">
        <ele>38</ele>
        <time>2019-06-02T08:08:47.000Z</time>
      </trkpt>
      <trkpt lat="47.32665" lon="-2.38368">
        <ele>38.400001525879</ele>
        <time>2019-06-02T08:08:48.000Z</time>
      </trkpt>
      <trkpt lat="47.32668" lon="-2.38372">
        <ele>38.799999237061</ele>
        <time>2019-06-02T08:08:49.000Z</time>
      </trkpt>
      <trkpt lat="47.32672" lon="-2.38377">
        <ele>39.200000762939</ele>
        <time>2019-06-02T08:08:50.000Z</time>
      </trkpt>
      <trkpt lat="47.32678" lon="-2.38386">
        <ele>39.200000762939</ele>
        <time>2019-06-02T08:08:52.000Z</time>
      </trkpt>
      <trkpt lat="47.32687" lon="-2.38398">
        <ele>39.799999237061</ele>
        <time>2019-06-02T08:08:55.000Z</time>
      </trkpt>
      <trkpt lat="47.3269" lon="-2.38401">
        <ele>40.599998474121</ele>
        <time>2019-06-02T08:08:56.000Z</time>
      </trkpt>
      <trkpt lat="47.32694" lon="-2.38404">
        <ele>41</ele>
        <time>2019-06-02T08:08:57.000Z</time>
      </trkpt>
      <trkpt lat="47.32698" lon="-2.38406">
        <ele>41.400001525879</ele>
        <time>2019-06-02T08:08:58.000Z</time>
      </trkpt>
      <trkpt lat="47.32707" lon="-2.38409">
        <ele>41.400001525879</ele>
        <time>2019-06-02T08:09:00.000Z</time>
      </trkpt>
      <trkpt lat="47.32721" lon="-2.38408">
        <ele>41.400001525879</ele>
        <time>2019-06-02T08:09:03.000Z</time>
      </trkpt>
      <trkpt lat="47.32729" lon="-2.38405">
        <ele>41.400001525879</ele>
        <time>2019-06-02T08:09:05.000Z</time>
      </trkpt>
      <trkpt lat="47.32734" lon="-2.38403">
        <ele>42</ele>
        <time>2019-06-02T08:09:06.000Z</time>
      </trkpt>
      <trkpt lat="47.32737" lon="-2.38402">
        <ele>42.400001525879</ele>
        <time>2019-06-02T08:09:07.000Z</time>
      </trkpt>
      <trkpt lat="47.32741" lon="-2.38401">
        <ele>42.799999237061</ele>
        <time>2019-06-02T08:09:08.000Z</time>
      </trkpt>
      <trkpt lat="47.32744" lon="-2.384">
        <ele>43.200000762939</ele>
        <time>2019-06-02T08:09:09.000Z</time>
      </trkpt>
      <trkpt lat="47.32748" lon="-2.38399">
        <ele>43.599998474121</ele>
        <time>2019-06-02T08:09:10.000Z</time>
      </trkpt>
      <trkpt lat="47.3277" lon="-2.38394">
        <ele>43.599998474121</ele>
        <time>2019-06-02T08:09:16.000Z</time>
      </trkpt>
      <trkpt lat="47.3278" lon="-2.38387">
        <ele>43.599998474121</ele>
        <time>2019-06-02T08:09:19.000Z</time>
      </trkpt>
      <trkpt lat="47.32782" lon="-2.38382">
        <ele>43.599998474121</ele>
        <time>2019-06-02T08:09:20.000Z</time>
      </trkpt>
      <trkpt lat="47.32785" lon="-2.38361">
        <ele>43.599998474121</ele>
        <time>2019-06-02T08:09:23.000Z</time>
      </trkpt>
      <trkpt lat="47.32786" lon="-2.38353">
        <ele>43.599998474121</ele>
        <time>2019-06-02T08:09:24.000Z</time>
      </trkpt>
      <trkpt lat="47.32794" lon="-2.38305">
        <ele>43.599998474121</ele>
        <time>2019-06-02T08:09:29.000Z</time>
      </trkpt>
      <trkpt lat="47.32808" lon="-2.38249">
        <ele>43.200000762939</ele>
        <time>2019-06-02T08:09:34.000Z</time>
      </trkpt>
      <trkpt lat="47.32811" lon="-2.38237">
        <ele>42.799999237061</ele>
        <time>2019-06-02T08:09:35.000Z</time>
      </trkpt>
      <trkpt lat="47.32814" lon="-2.38224">
        <ele>42.200000762939</ele>
        <time>2019-06-02T08:09:36.000Z</time>
      </trkpt>
      <trkpt lat="47.32818" lon="-2.38212">
        <ele>41.799999237061</ele>
        <time>2019-06-02T08:09:37.000Z</time>
      </trkpt>
      <trkpt lat="47.32823" lon="-2.38199">
        <ele>41.200000762939</ele>
        <time>2019-06-02T08:09:38.000Z</time>
      </trkpt>
      <trkpt lat="47.32828" lon="-2.38187">
        <ele>40.799999237061</ele>
        <time>2019-06-02T08:09:39.000Z</time>
      </trkpt>
      <trkpt lat="47.32833" lon="-2.38176">
        <ele>40.200000762939</ele>
        <time>2019-06-02T08:09:40.000Z</time>
      </trkpt>
      <trkpt lat="47.32839" lon="-2.38165">
        <ele>39.799999237061</ele>
        <time>2019-06-02T08:09:41.000Z</time>
      </trkpt>
      <trkpt lat="47.32845" lon="-2.38154">
        <ele>39.400001525879</ele>
        <time>2019-06-02T08:09:42.000Z</time>
      </trkpt>
      <trkpt lat="47.32863" lon="-2.38123">
        <ele>38.400001525879</ele>
        <time>2019-06-02T08:09:45.000Z</time>
      </trkpt>
      <trkpt lat="47.32869" lon="-2.38114">
        <ele>38</ele>
        <time>2019-06-02T08:09:46.000Z</time>
      </trkpt>
      <trkpt lat="47.32875" lon="-2.38104">
        <ele>37.400001525879</ele>
        <time>2019-06-02T08:09:47.000Z</time>
      </trkpt>
      <trkpt lat="47.32881" lon="-2.38095">
        <ele>37</ele>
        <time>2019-06-02T08:09:48.000Z</time>
      </trkpt>
      <trkpt lat="47.32901" lon="-2.38058">
        <ele>37</ele>
        <time>2019-06-02T08:09:52.000Z</time>
      </trkpt>
      <trkpt lat="47.32936" lon="-2.38001">
        <ele>36.599998474121</ele>
        <time>2019-06-02T08:09:59.000Z</time>
      </trkpt>
      <trkpt lat="47.32942" lon="-2.37994">
        <ele>36.200000762939</ele>
        <time>2019-06-02T08:10:00.000Z</time>
      </trkpt>
      <trkpt lat="47.32948" lon="-2.37986">
        <ele>35.799999237061</ele>
        <time>2019-06-02T08:10:01.000Z</time>
      </trkpt>
      <trkpt lat="47.32954" lon="-2.37978">
        <ele>35.400001525879</ele>
        <time>2019-06-02T08:10:02.000Z</time>
      </trkpt>
      <trkpt lat="47.32959" lon="-2.37971">
        <ele>35</ele>
        <time>2019-06-02T08:10:03.000Z</time>
      </trkpt>
      <trkpt lat="47.32975" lon="-2.37946">
        <ele>35</ele>
        <time>2019-06-02T08:10:06.000Z</time>
      </trkpt>
      <trkpt lat="47.33004" lon="-2.37897">
        <ele>35</ele>
        <time>2019-06-02T08:10:12.000Z</time>
      </trkpt>
      <trkpt lat="47.33021" lon="-2.3786">
        <ele>35</ele>
        <time>2019-06-02T08:10:17.000Z</time>
      </trkpt>
      <trkpt lat="47.33024" lon="-2.37854">
        <ele>35</ele>
        <time>2019-06-02T08:10:18.000Z</time>
      </trkpt>
      <trkpt lat="47.33026" lon="-2.37849">
        <ele>34.599998474121</ele>
        <time>2019-06-02T08:10:19.000Z</time>
      </trkpt>
      <trkpt lat="47.33029" lon="-2.37844">
        <ele>34</ele>
        <time>2019-06-02T08:10:20.000Z</time>
      </trkpt>
      <trkpt lat="47.33033" lon="-2.37839">
        <ele>33.599998474121</ele>
        <time>2019-06-02T08:10:21.000Z</time>
      </trkpt>
      <trkpt lat="47.33037" lon="-2.37833">
        <ele>33.200000762939</ele>
        <time>2019-06-02T08:10:22.000Z</time>
      </trkpt>
      <trkpt lat="47.33041" lon="-2.37828">
        <ele>32.799999237061</ele>
        <time>2019-06-02T08:10:23.000Z</time>
      </trkpt>
      <trkpt lat="47.33061" lon="-2.37809">
        <ele>32.799999237061</ele>
        <time>2019-06-02T08:10:27.000Z</time>
      </trkpt>
      <trkpt lat="47.33082" lon="-2.37789">
        <ele>32.400001525879</ele>
        <time>2019-06-02T08:10:31.000Z</time>
      </trkpt>
      <trkpt lat="47.33087" lon="-2.37785">
        <ele>32</ele>
        <time>2019-06-02T08:10:32.000Z</time>
      </trkpt>
      <trkpt lat="47.33091" lon="-2.37781">
        <ele>31.60000038147</ele>
        <time>2019-06-02T08:10:33.000Z</time>
      </trkpt>
      <trkpt lat="47.33095" lon="-2.37777">
        <ele>31.200000762939</ele>
        <time>2019-06-02T08:10:34.000Z</time>
      </trkpt>
      <trkpt lat="47.331" lon="-2.37773">
        <ele>30.60000038147</ele>
        <time>2019-06-02T08:10:35.000Z</time>
      </trkpt>
      <trkpt lat="47.33104" lon="-2.37768">
        <ele>30.60000038147</ele>
        <time>2019-06-02T08:10:36.000Z</time>
      </trkpt>
      <trkpt lat="47.33111" lon="-2.37761">
        <ele>30.60000038147</ele>
        <time>2019-06-02T08:10:38.000Z</time>
      </trkpt>
      <trkpt lat="47.33115" lon="-2.37757">
        <ele>30.200000762939</ele>
        <time>2019-06-02T08:10:40.000Z</time>
      </trkpt>
      <trkpt lat="47.33116" lon="-2.37757">
        <ele>29.799999237061</ele>
        <time>2019-06-02T08:10:41.000Z</time>
      </trkpt>
      <trkpt lat="47.33117" lon="-2.37755">
        <ele>29.39999961853</ele>
        <time>2019-06-02T08:10:42.000Z</time>
      </trkpt>
      <trkpt lat="47.33119" lon="-2.37754">
        <ele>29</ele>
        <time>2019-06-02T08:10:43.000Z</time>
      </trkpt>
      <trkpt lat="47.33121" lon="-2.37752">
        <ele>28.39999961853</ele>
        <time>2019-06-02T08:10:44.000Z</time>
      </trkpt>
      <trkpt lat="47.33123" lon="-2.37748">
        <ele>28.39999961853</ele>
        <time>2019-06-02T08:10:46.000Z</time>
      </trkpt>
      <trkpt lat="47.33123" lon="-2.37746">
        <ele>28.39999961853</ele>
        <time>2019-06-02T08:10:48.000Z</time>
      </trkpt>
      <trkpt lat="47.33122" lon="-2.37745">
        <ele>28.39999961853</ele>
        <time>2019-06-02T08:10:50.000Z</time>
      </trkpt>
      <trkpt lat="47.3312" lon="-2.37743">
        <ele>28.39999961853</ele>
        <time>2019-06-02T08:10:52.000Z</time>
      </trkpt>
      <trkpt lat="47.33113" lon="-2.3774">
        <ele>28.39999961853</ele>
        <time>2019-06-02T08:10:55.000Z</time>
      </trkpt>
      <trkpt lat="47.33103" lon="-2.37731">
        <ele>28.39999961853</ele>
        <time>2019-06-02T08:11:00.000Z</time>
      </trkpt>
      <trkpt lat="47.331" lon="-2.37728">
        <ele>28.799999237061</ele>
        <time>2019-06-02T08:11:02.000Z</time>
      </trkpt>
      <trkpt lat="47.33099" lon="-2.37727">
        <ele>29.200000762939</ele>
        <time>2019-06-02T08:11:03.000Z</time>
      </trkpt>
      <trkpt lat="47.33098" lon="-2.37725">
        <ele>29.799999237061</ele>
        <time>2019-06-02T08:11:04.000Z</time>
      </trkpt>
      <trkpt lat="47.33096" lon="-2.37724">
        <ele>30.200000762939</ele>
        <time>2019-06-02T08:11:05.000Z</time>
      </trkpt>
      <trkpt lat="47.33095" lon="-2.37723">
        <ele>30.60000038147</ele>
        <time>2019-06-02T08:11:06.000Z</time>
      </trkpt>
      <trkpt lat="47.33084" lon="-2.37713">
        <ele>30.60000038147</ele>
        <time>2019-06-02T08:11:11.000Z</time>
      </trkpt>
      <trkpt lat="47.33071" lon="-2.377">
        <ele>30.60000038147</ele>
        <time>2019-06-02T08:11:15.000Z</time>
      </trkpt>
      <trkpt lat="47.33068" lon="-2.37695">
        <ele>30.60000038147</ele>
        <time>2019-06-02T08:11:16.000Z</time>
      </trkpt>
      <trkpt lat="47.33054" lon="-2.37673">
        <ele>30.60000038147</ele>
        <time>2019-06-02T08:11:20.000Z</time>
      </trkpt>
      <trkpt lat="47.3305" lon="-2.37667">
        <ele>30.60000038147</ele>
        <time>2019-06-02T08:11:21.000Z</time>
      </trkpt>
      <trkpt lat="47.33046" lon="-2.37661">
        <ele>30.60000038147</ele>
        <time>2019-06-02T08:11:22.000Z</time>
      </trkpt>
      <trkpt lat="47.33036" lon="-2.37643">
        <ele>30.60000038147</ele>
        <time>2019-06-02T08:11:25.000Z</time>
      </trkpt>
      <trkpt lat="47.33033" lon="-2.37636">
        <ele>30.60000038147</ele>
        <time>2019-06-02T08:11:26.000Z</time>
      </trkpt>
      <trkpt lat="47.33032" lon="-2.37622">
        <ele>30.60000038147</ele>
        <time>2019-06-02T08:11:28.000Z</time>
      </trkpt>
      <trkpt lat="47.33038" lon="-2.37609">
        <ele>30.60000038147</ele>
        <time>2019-06-02T08:11:30.000Z</time>
      </trkpt>
      <trkpt lat="47.33042" lon="-2.37601">
        <ele>30.60000038147</ele>
        <time>2019-06-02T08:11:31.000Z</time>
      </trkpt>
      <trkpt lat="47.33068" lon="-2.37544">
        <ele>30.60000038147</ele>
        <time>2019-06-02T08:11:38.000Z</time>
      </trkpt>
      <trkpt lat="47.33089" lon="-2.37497">
        <ele>30.60000038147</ele>
        <time>2019-06-02T08:11:43.000Z</time>
      </trkpt>
      <trkpt lat="47.33093" lon="-2.37487">
        <ele>30.200000762939</ele>
        <time>2019-06-02T08:11:44.000Z</time>
      </trkpt>
      <trkpt lat="47.33096" lon="-2.37476">
        <ele>29.799999237061</ele>
        <time>2019-06-02T08:11:45.000Z</time>
      </trkpt>
      <trkpt lat="47.331" lon="-2.37466">
        <ele>29.200000762939</ele>
        <time>2019-06-02T08:11:46.000Z</time>
      </trkpt>
      <trkpt lat="47.33104" lon="-2.37454">
        <ele>28.799999237061</ele>
        <time>2019-06-02T08:11:47.000Z</time>
      </trkpt>
      <trkpt lat="47.33108" lon="-2.37443">
        <ele>28.39999961853</ele>
        <time>2019-06-02T08:11:48.000Z</time>
      </trkpt>
      <trkpt lat="47.3311" lon="-2.37431">
        <ele>28.39999961853</ele>
        <time>2019-06-02T08:11:49.000Z</time>
      </trkpt>
      <trkpt lat="47.33109" lon="-2.37397">
        <ele>28.39999961853</ele>
        <time>2019-06-02T08:11:52.000Z</time>
      </trkpt>
      <trkpt lat="47.33105" lon="-2.37337">
        <ele>28.39999961853</ele>
        <time>2019-06-02T08:11:58.000Z</time>
      </trkpt>
      <trkpt lat="47.33102" lon="-2.37284">
        <ele>28.39999961853</ele>
        <time>2019-06-02T08:12:04.000Z</time>
      </trkpt>
      <trkpt lat="47.33102" lon="-2.37239">
        <ele>28.39999961853</ele>
        <time>2019-06-02T08:12:10.000Z</time>
      </trkpt>
      <trkpt lat="47.33103" lon="-2.37227">
        <ele>29</ele>
        <time>2019-06-02T08:12:12.000Z</time>
      </trkpt>
      <trkpt lat="47.33103" lon="-2.37221">
        <ele>29.39999961853</ele>
        <time>2019-06-02T08:12:13.000Z</time>
      </trkpt>
      <trkpt lat="47.33103" lon="-2.37216">
        <ele>30.39999961853</ele>
        <time>2019-06-02T08:12:14.000Z</time>
      </trkpt>
      <trkpt lat="47.33103" lon="-2.3721">
        <ele>30.799999237061</ele>
        <time>2019-06-02T08:12:15.000Z</time>
      </trkpt>
      <trkpt lat="47.33103" lon="-2.37205">
        <ele>30.799999237061</ele>
        <time>2019-06-02T08:12:16.000Z</time>
      </trkpt>
      <trkpt lat="47.33103" lon="-2.37199">
        <ele>31.200000762939</ele>
        <time>2019-06-02T08:12:17.000Z</time>
      </trkpt>
      <trkpt lat="47.33103" lon="-2.37193">
        <ele>31.799999237061</ele>
        <time>2019-06-02T08:12:18.000Z</time>
      </trkpt>
      <trkpt lat="47.33103" lon="-2.37187">
        <ele>32.200000762939</ele>
        <time>2019-06-02T08:12:19.000Z</time>
      </trkpt>
      <trkpt lat="47.33104" lon="-2.37181">
        <ele>32.599998474121</ele>
        <time>2019-06-02T08:12:20.000Z</time>
      </trkpt>
      <trkpt lat="47.33104" lon="-2.37175">
        <ele>33</ele>
        <time>2019-06-02T08:12:21.000Z</time>
      </trkpt>
      <trkpt lat="47.33104" lon="-2.37169">
        <ele>33</ele>
        <time>2019-06-02T08:12:22.000Z</time>
      </trkpt>
      <trkpt lat="47.33106" lon="-2.37163">
        <ele>33.400001525879</ele>
        <time>2019-06-02T08:12:23.000Z</time>
      </trkpt>
      <trkpt lat="47.33107" lon="-2.37157">
        <ele>34</ele>
        <time>2019-06-02T08:12:24.000Z</time>
      </trkpt>
      <trkpt lat="47.33108" lon="-2.3715">
        <ele>34.400001525879</ele>
        <time>2019-06-02T08:12:25.000Z</time>
      </trkpt>
      <trkpt lat="47.33108" lon="-2.37145">
        <ele>34.799999237061</ele>
        <time>2019-06-02T08:12:26.000Z</time>
      </trkpt>
      <trkpt lat="47.33108" lon="-2.37139">
        <ele>35.200000762939</ele>
        <time>2019-06-02T08:12:27.000Z</time>
      </trkpt>
      <trkpt lat="47.33107" lon="-2.37133">
        <ele>35.200000762939</ele>
        <time>2019-06-02T08:12:28.000Z</time>
      </trkpt>
      <trkpt lat="47.33107" lon="-2.37127">
        <ele>35.599998474121</ele>
        <time>2019-06-02T08:12:29.000Z</time>
      </trkpt>
      <trkpt lat="47.33107" lon="-2.3712">
        <ele>36</ele>
        <time>2019-06-02T08:12:30.000Z</time>
      </trkpt>
      <trkpt lat="47.33106" lon="-2.37114">
        <ele>36.400001525879</ele>
        <time>2019-06-02T08:12:31.000Z</time>
      </trkpt>
      <trkpt lat="47.33106" lon="-2.37107">
        <ele>36.799999237061</ele>
        <time>2019-06-02T08:12:32.000Z</time>
      </trkpt>
      <trkpt lat="47.33106" lon="-2.37101">
        <ele>37.200000762939</ele>
        <time>2019-06-02T08:12:33.000Z</time>
      </trkpt>
      <trkpt lat="47.33107" lon="-2.37087">
        <ele>37.200000762939</ele>
        <time>2019-06-02T08:12:35.000Z</time>
      </trkpt>
      <trkpt lat="47.33106" lon="-2.37079">
        <ele>37.200000762939</ele>
        <time>2019-06-02T08:12:36.000Z</time>
      </trkpt>
      <trkpt lat="47.33103" lon="-2.37057">
        <ele>37.599998474121</ele>
        <time>2019-06-02T08:12:39.000Z</time>
      </trkpt>
      <trkpt lat="47.33102" lon="-2.37049">
        <ele>38</ele>
        <time>2019-06-02T08:12:40.000Z</time>
      </trkpt>
      <trkpt lat="47.33102" lon="-2.37041">
        <ele>38.400001525879</ele>
        <time>2019-06-02T08:12:41.000Z</time>
      </trkpt>
      <trkpt lat="47.33102" lon="-2.37033">
        <ele>38.799999237061</ele>
        <time>2019-06-02T08:12:42.000Z</time>
      </trkpt>
      <trkpt lat="47.33102" lon="-2.37025">
        <ele>39.400001525879</ele>
        <time>2019-06-02T08:12:43.000Z</time>
      </trkpt>
      <trkpt lat="47.33101" lon="-2.37002">
        <ele>39.400001525879</ele>
        <time>2019-06-02T08:12:46.000Z</time>
      </trkpt>
      <trkpt lat="47.33101" lon="-2.36985">
        <ele>39.400001525879</ele>
        <time>2019-06-02T08:12:48.000Z</time>
      </trkpt>
      <trkpt lat="47.331" lon="-2.36927">
        <ele>39.400001525879</ele>
        <time>2019-06-02T08:12:54.000Z</time>
      </trkpt>
      <trkpt lat="47.331" lon="-2.36919">
        <ele>38.799999237061</ele>
        <time>2019-06-02T08:12:55.000Z</time>
      </trkpt>
      <trkpt lat="47.33099" lon="-2.36914">
        <ele>38.400001525879</ele>
        <time>2019-06-02T08:12:56.000Z</time>
      </trkpt>
      <trkpt lat="47.33099" lon="-2.36913">
        <ele>38</ele>
        <time>2019-06-02T08:12:57.000Z</time>
      </trkpt>
      <trkpt lat="47.33099" lon="-2.36913">
        <ele>37.599998474121</ele>
        <time>2019-06-02T08:12:58.000Z</time>
      </trkpt>
      <trkpt lat="47.331" lon="-2.36911">
        <ele>37.200000762939</ele>
        <time>2019-06-02T08:13:09.000Z</time>
      </trkpt>
      <trkpt lat="47.33102" lon="-2.36905">
        <ele>37.200000762939</ele>
        <time>2019-06-02T08:13:11.000Z</time>
      </trkpt>
      <trkpt lat="47.33111" lon="-2.36889">
        <ele>37.200000762939</ele>
        <time>2019-06-02T08:13:15.000Z</time>
      </trkpt>
      <trkpt lat="47.3312" lon="-2.3688">
        <ele>37.200000762939</ele>
        <time>2019-06-02T08:13:17.000Z</time>
      </trkpt>
      <trkpt lat="47.33124" lon="-2.36876">
        <ele>37.200000762939</ele>
        <time>2019-06-02T08:13:18.000Z</time>
      </trkpt>
      <trkpt lat="47.33134" lon="-2.36868">
        <ele>37.200000762939</ele>
        <time>2019-06-02T08:13:20.000Z</time>
      </trkpt>
      <trkpt lat="47.33149" lon="-2.36852">
        <ele>36.799999237061</ele>
        <time>2019-06-02T08:13:23.000Z</time>
      </trkpt>
      <trkpt lat="47.33155" lon="-2.36846">
        <ele>36.400001525879</ele>
        <time>2019-06-02T08:13:24.000Z</time>
      </trkpt>
      <trkpt lat="47.33161" lon="-2.36839">
        <ele>36</ele>
        <time>2019-06-02T08:13:25.000Z</time>
      </trkpt>
      <trkpt lat="47.33168" lon="-2.36833">
        <ele>35.200000762939</ele>
        <time>2019-06-02T08:13:26.000Z</time>
      </trkpt>
      <trkpt lat="47.33175" lon="-2.36828">
        <ele>35.200000762939</ele>
        <time>2019-06-02T08:13:27.000Z</time>
      </trkpt>
      <trkpt lat="47.33187" lon="-2.36816">
        <ele>35.200000762939</ele>
        <time>2019-06-02T08:13:29.000Z</time>
      </trkpt>
      <trkpt lat="47.33206" lon="-2.36797">
        <ele>35.200000762939</ele>
        <time>2019-06-02T08:13:32.000Z</time>
      </trkpt>
      <trkpt lat="47.3322" lon="-2.36784">
        <ele>35.200000762939</ele>
        <time>2019-06-02T08:13:34.000Z</time>
      </trkpt>
      <trkpt lat="47.33241" lon="-2.36763">
        <ele>35.200000762939</ele>
        <time>2019-06-02T08:13:37.000Z</time>
      </trkpt>
      <trkpt lat="47.33253" lon="-2.36747">
        <ele>35.200000762939</ele>
        <time>2019-06-02T08:13:39.000Z</time>
      </trkpt>
      <trkpt lat="47.33264" lon="-2.36728">
        <ele>34.799999237061</ele>
        <time>2019-06-02T08:13:41.000Z</time>
      </trkpt>
      <trkpt lat="47.33268" lon="-2.36717">
        <ele>34.200000762939</ele>
        <time>2019-06-02T08:13:42.000Z</time>
      </trkpt>
      <trkpt lat="47.33272" lon="-2.36707">
        <ele>33.799999237061</ele>
        <time>2019-06-02T08:13:43.000Z</time>
      </trkpt>
      <trkpt lat="47.33276" lon="-2.36696">
        <ele>33.400001525879</ele>
        <time>2019-06-02T08:13:44.000Z</time>
      </trkpt>
      <trkpt lat="47.33279" lon="-2.36685">
        <ele>33</ele>
        <time>2019-06-02T08:13:45.000Z</time>
      </trkpt>
      <trkpt lat="47.33298" lon="-2.36627">
        <ele>33</ele>
        <time>2019-06-02T08:13:50.000Z</time>
      </trkpt>
      <trkpt lat="47.33316" lon="-2.36563">
        <ele>33</ele>
        <time>2019-06-02T08:13:56.000Z</time>
      </trkpt>
      <trkpt lat="47.33331" lon="-2.36497">
        <ele>33</ele>
        <time>2019-06-02T08:14:03.000Z</time>
      </trkpt>
      <trkpt lat="47.33332" lon="-2.36469">
        <ele>33</ele>
        <time>2019-06-02T08:14:06.000Z</time>
      </trkpt>
      <trkpt lat="47.3333" lon="-2.36451">
        <ele>33</ele>
        <time>2019-06-02T08:14:08.000Z</time>
      </trkpt>
      <trkpt lat="47.33319" lon="-2.36387">
        <ele>33</ele>
        <time>2019-06-02T08:14:15.000Z</time>
      </trkpt>
      <trkpt lat="47.33315" lon="-2.3636">
        <ele>33.400001525879</ele>
        <time>2019-06-02T08:14:18.000Z</time>
      </trkpt>
      <trkpt lat="47.33314" lon="-2.36351">
        <ele>33.799999237061</ele>
        <time>2019-06-02T08:14:19.000Z</time>
      </trkpt>
      <trkpt lat="47.33312" lon="-2.36343">
        <ele>34.200000762939</ele>
        <time>2019-06-02T08:14:20.000Z</time>
      </trkpt>
      <trkpt lat="47.33311" lon="-2.36335">
        <ele>34.599998474121</ele>
        <time>2019-06-02T08:14:21.000Z</time>
      </trkpt>
      <trkpt lat="47.3331" lon="-2.36326">
        <ele>35</ele>
        <time>2019-06-02T08:14:22.000Z</time>
      </trkpt>
      <trkpt lat="47.33306" lon="-2.36263">
        <ele>35</ele>
        <time>2019-06-02T08:14:29.000Z</time>
      </trkpt>
      <trkpt lat="47.33308" lon="-2.36238">
        <ele>35</ele>
        <time>2019-06-02T08:14:32.000Z</time>
      </trkpt>
      <trkpt lat="47.33315" lon="-2.36222">
        <ele>35</ele>
        <time>2019-06-02T08:14:34.000Z</time>
      </trkpt>
      <trkpt lat="47.33334" lon="-2.36202">
        <ele>35</ele>
        <time>2019-06-02T08:14:38.000Z</time>
      </trkpt>
      <trkpt lat="47.33345" lon="-2.36195">
        <ele>35</ele>
        <time>2019-06-02T08:14:40.000Z</time>
      </trkpt>
      <trkpt lat="47.33356" lon="-2.36189">
        <ele>35.400001525879</ele>
        <time>2019-06-02T08:14:42.000Z</time>
      </trkpt>
      <trkpt lat="47.33362" lon="-2.36186">
        <ele>35.799999237061</ele>
        <time>2019-06-02T08:14:43.000Z</time>
      </trkpt>
      <trkpt lat="47.33367" lon="-2.36182">
        <ele>36.200000762939</ele>
        <time>2019-06-02T08:14:44.000Z</time>
      </trkpt>
      <trkpt lat="47.33373" lon="-2.36179">
        <ele>36.599998474121</ele>
        <time>2019-06-02T08:14:45.000Z</time>
      </trkpt>
      <trkpt lat="47.33378" lon="-2.36176">
        <ele>37.200000762939</ele>
        <time>2019-06-02T08:14:46.000Z</time>
      </trkpt>
      <trkpt lat="47.33392" lon="-2.36167">
        <ele>37.200000762939</ele>
        <time>2019-06-02T08:14:49.000Z</time>
      </trkpt>
      <trkpt lat="47.33406" lon="-2.36161">
        <ele>37.200000762939</ele>
        <time>2019-06-02T08:14:52.000Z</time>
      </trkpt>
      <trkpt lat="47.33409" lon="-2.36165">
        <ele>37.200000762939</ele>
        <time>2019-06-02T08:14:53.000Z</time>
      </trkpt>
      <trkpt lat="47.33414" lon="-2.36187">
        <ele>37.200000762939</ele>
        <time>2019-06-02T08:14:56.000Z</time>
      </trkpt>
      <trkpt lat="47.33415" lon="-2.36204">
        <ele>37.200000762939</ele>
        <time>2019-06-02T08:14:58.000Z</time>
      </trkpt>
      <trkpt lat="47.33413" lon="-2.36222">
        <ele>37.200000762939</ele>
        <time>2019-06-02T08:15:00.000Z</time>
      </trkpt>
      <trkpt lat="47.33412" lon="-2.36268">
        <ele>37.200000762939</ele>
        <time>2019-06-02T08:15:05.000Z</time>
      </trkpt>
      <trkpt lat="47.33413" lon="-2.36286">
        <ele>37.200000762939</ele>
        <time>2019-06-02T08:15:07.000Z</time>
      </trkpt>
      <trkpt lat="47.33418" lon="-2.3631">
        <ele>37.200000762939</ele>
        <time>2019-06-02T08:15:10.000Z</time>
      </trkpt>
      <trkpt lat="47.33423" lon="-2.36327">
        <ele>36.599998474121</ele>
        <time>2019-06-02T08:15:13.000Z</time>
      </trkpt>
      <trkpt lat="47.33425" lon="-2.36331">
        <ele>36.200000762939</ele>
        <time>2019-06-02T08:15:14.000Z</time>
      </trkpt>
      <trkpt lat="47.33427" lon="-2.36336">
        <ele>35.799999237061</ele>
        <time>2019-06-02T08:15:15.000Z</time>
      </trkpt>
      <trkpt lat="47.33428" lon="-2.36342">
        <ele>35.400001525879</ele>
        <time>2019-06-02T08:15:16.000Z</time>
      </trkpt>
      <trkpt lat="47.3343" lon="-2.36347">
        <ele>35</ele>
        <time>2019-06-02T08:15:17.000Z</time>
      </trkpt>
      <trkpt lat="47.33435" lon="-2.36364">
        <ele>35</ele>
        <time>2019-06-02T08:15:20.000Z</time>
      </trkpt>
      <trkpt lat="47.33436" lon="-2.3637">
        <ele>35</ele>
        <time>2019-06-02T08:15:21.000Z</time>
      </trkpt>
      <trkpt lat="47.33441" lon="-2.36387">
        <ele>34.400001525879</ele>
        <time>2019-06-02T08:15:24.000Z</time>
      </trkpt>
      <trkpt lat="47.33442" lon="-2.36392">
        <ele>34</ele>
        <time>2019-06-02T08:15:25.000Z</time>
      </trkpt>
      <trkpt lat="47.33444" lon="-2.36396">
        <ele>33.599998474121</ele>
        <time>2019-06-02T08:15:26.000Z</time>
      </trkpt>
      <trkpt lat="47.33446" lon="-2.36399">
        <ele>33.200000762939</ele>
        <time>2019-06-02T08:15:27.000Z</time>
      </trkpt>
      <trkpt lat="47.33448" lon="-2.36402">
        <ele>32.799999237061</ele>
        <time>2019-06-02T08:15:28.000Z</time>
      </trkpt>
      <trkpt lat="47.33455" lon="-2.36408">
        <ele>32.799999237061</ele>
        <time>2019-06-02T08:15:30.000Z</time>
      </trkpt>
      <trkpt lat="47.33459" lon="-2.3641">
        <ele>32.799999237061</ele>
        <time>2019-06-02T08:15:31.000Z</time>
      </trkpt>
      <trkpt lat="47.33471" lon="-2.36416">
        <ele>32.799999237061</ele>
        <time>2019-06-02T08:15:35.000Z</time>
      </trkpt>
      <trkpt lat="47.33472" lon="-2.3642">
        <ele>32.799999237061</ele>
        <time>2019-06-02T08:15:36.000Z</time>
      </trkpt>
      <trkpt lat="47.33474" lon="-2.36427">
        <ele>32.799999237061</ele>
        <time>2019-06-02T08:15:38.000Z</time>
      </trkpt>
      <trkpt lat="47.33475" lon="-2.36431">
        <ele>32.400001525879</ele>
        <time>2019-06-02T08:15:39.000Z</time>
      </trkpt>
      <trkpt lat="47.33475" lon="-2.36434">
        <ele>32</ele>
        <time>2019-06-02T08:15:40.000Z</time>
      </trkpt>
      <trkpt lat="47.33476" lon="-2.36438">
        <ele>31.60000038147</ele>
        <time>2019-06-02T08:15:41.000Z</time>
      </trkpt>
      <trkpt lat="47.33476" lon="-2.36441">
        <ele>31.200000762939</ele>
        <time>2019-06-02T08:15:42.000Z</time>
      </trkpt>
      <trkpt lat="47.33476" lon="-2.36446">
        <ele>30.799999237061</ele>
        <time>2019-06-02T08:15:43.000Z</time>
      </trkpt>
      <trkpt lat="47.33476" lon="-2.36459">
        <ele>30.799999237061</ele>
        <time>2019-06-02T08:15:45.000Z</time>
      </trkpt>
      <trkpt lat="47.33474" lon="-2.36497">
        <ele>30.799999237061</ele>
        <time>2019-06-02T08:15:51.000Z</time>
      </trkpt>
      <trkpt lat="47.33472" lon="-2.36526">
        <ele>30.799999237061</ele>
        <time>2019-06-02T08:15:56.000Z</time>
      </trkpt>
      <trkpt lat="47.3347" lon="-2.36556">
        <ele>30.799999237061</ele>
        <time>2019-06-02T08:16:01.000Z</time>
      </trkpt>
      <trkpt lat="47.33468" lon="-2.3658">
        <ele>30.799999237061</ele>
        <time>2019-06-02T08:16:05.000Z</time>
      </trkpt>
      <trkpt lat="47.33476" lon="-2.36588">
        <ele>30.799999237061</ele>
        <time>2019-06-02T08:16:08.000Z</time>
      </trkpt>
      <trkpt lat="47.33484" lon="-2.3659">
        <ele>30.799999237061</ele>
        <time>2019-06-02T08:16:10.000Z</time>
      </trkpt>
      <trkpt lat="47.33496" lon="-2.36593">
        <ele>30.799999237061</ele>
        <time>2019-06-02T08:16:13.000Z</time>
      </trkpt>
      <trkpt lat="47.33511" lon="-2.36605">
        <ele>30.799999237061</ele>
        <time>2019-06-02T08:16:18.000Z</time>
      </trkpt>
      <trkpt lat="47.33514" lon="-2.36607">
        <ele>30</ele>
        <time>2019-06-02T08:16:19.000Z</time>
      </trkpt>
      <trkpt lat="47.33518" lon="-2.36608">
        <ele>29.60000038147</ele>
        <time>2019-06-02T08:16:20.000Z</time>
      </trkpt>
      <trkpt lat="47.33521" lon="-2.36611">
        <ele>29</ele>
        <time>2019-06-02T08:16:21.000Z</time>
      </trkpt>
      <trkpt lat="47.33524" lon="-2.36614">
        <ele>28.60000038147</ele>
        <time>2019-06-02T08:16:22.000Z</time>
      </trkpt>
      <trkpt lat="47.33527" lon="-2.36617">
        <ele>28.60000038147</ele>
        <time>2019-06-02T08:16:23.000Z</time>
      </trkpt>
      <trkpt lat="47.33531" lon="-2.36624">
        <ele>28.200000762939</ele>
        <time>2019-06-02T08:16:25.000Z</time>
      </trkpt>
      <trkpt lat="47.33534" lon="-2.36626">
        <ele>27.799999237061</ele>
        <time>2019-06-02T08:16:26.000Z</time>
      </trkpt>
      <trkpt lat="47.33536" lon="-2.36629">
        <ele>27.39999961853</ele>
        <time>2019-06-02T08:16:27.000Z</time>
      </trkpt>
      <trkpt lat="47.33538" lon="-2.36634">
        <ele>27</ele>
        <time>2019-06-02T08:16:28.000Z</time>
      </trkpt>
      <trkpt lat="47.33539" lon="-2.36639">
        <ele>26.60000038147</ele>
        <time>2019-06-02T08:16:29.000Z</time>
      </trkpt>
      <trkpt lat="47.33539" lon="-2.36643">
        <ele>26</ele>
        <time>2019-06-02T08:16:30.000Z</time>
      </trkpt>
      <trkpt lat="47.33538" lon="-2.36648">
        <ele>25.39999961853</ele>
        <time>2019-06-02T08:16:31.000Z</time>
      </trkpt>
      <trkpt lat="47.33536" lon="-2.36653">
        <ele>24.799999237061</ele>
        <time>2019-06-02T08:16:32.000Z</time>
      </trkpt>
      <trkpt lat="47.33532" lon="-2.36657">
        <ele>24.39999961853</ele>
        <time>2019-06-02T08:16:33.000Z</time>
      </trkpt>
      <trkpt lat="47.33525" lon="-2.36664">
        <ele>24.39999961853</ele>
        <time>2019-06-02T08:16:35.000Z</time>
      </trkpt>
      <trkpt lat="47.33523" lon="-2.36669">
        <ele>24</ele>
        <time>2019-06-02T08:16:36.000Z</time>
      </trkpt>
      <trkpt lat="47.33521" lon="-2.36674">
        <ele>23.60000038147</ele>
        <time>2019-06-02T08:16:37.000Z</time>
      </trkpt>
      <trkpt lat="47.33519" lon="-2.36679">
        <ele>23.200000762939</ele>
        <time>2019-06-02T08:16:38.000Z</time>
      </trkpt>
      <trkpt lat="47.33517" lon="-2.36683">
        <ele>22.799999237061</ele>
        <time>2019-06-02T08:16:39.000Z</time>
      </trkpt>
      <trkpt lat="47.33515" lon="-2.36686">
        <ele>22.200000762939</ele>
        <time>2019-06-02T08:16:40.000Z</time>
      </trkpt>
      <trkpt lat="47.33503" lon="-2.36708">
        <ele>22.200000762939</ele>
        <time>2019-06-02T08:16:45.000Z</time>
      </trkpt>
      <trkpt lat="47.33499" lon="-2.36726">
        <ele>22.200000762939</ele>
        <time>2019-06-02T08:16:49.000Z</time>
      </trkpt>
      <trkpt lat="47.33492" lon="-2.36751">
        <ele>22.200000762939</ele>
        <time>2019-06-02T08:16:54.000Z</time>
      </trkpt>
      <trkpt lat="47.33484" lon="-2.36784">
        <ele>22.200000762939</ele>
        <time>2019-06-02T08:16:58.000Z</time>
      </trkpt>
      <trkpt lat="47.33475" lon="-2.36821">
        <ele>22.200000762939</ele>
        <time>2019-06-02T08:17:03.000Z</time>
      </trkpt>
      <trkpt lat="47.33472" lon="-2.36827">
        <ele>22.200000762939</ele>
        <time>2019-06-02T08:17:04.000Z</time>
      </trkpt>
      <trkpt lat="47.33464" lon="-2.36841">
        <ele>22.200000762939</ele>
        <time>2019-06-02T08:17:07.000Z</time>
      </trkpt>
      <trkpt lat="47.33454" lon="-2.36857">
        <ele>22.799999237061</ele>
        <time>2019-06-02T08:17:11.000Z</time>
      </trkpt>
      <trkpt lat="47.33452" lon="-2.36861">
        <ele>23.200000762939</ele>
        <time>2019-06-02T08:17:12.000Z</time>
      </trkpt>
      <trkpt lat="47.3345" lon="-2.36864">
        <ele>23.60000038147</ele>
        <time>2019-06-02T08:17:13.000Z</time>
      </trkpt>
      <trkpt lat="47.33448" lon="-2.36867">
        <ele>24</ele>
        <time>2019-06-02T08:17:14.000Z</time>
      </trkpt>
      <trkpt lat="47.33447" lon="-2.3687">
        <ele>24.39999961853</ele>
        <time>2019-06-02T08:17:15.000Z</time>
      </trkpt>
      <trkpt lat="47.33447" lon="-2.36873">
        <ele>24.39999961853</ele>
        <time>2019-06-02T08:17:16.000Z</time>
      </trkpt>
      <trkpt lat="47.33448" lon="-2.36888">
        <ele>24.39999961853</ele>
        <time>2019-06-02T08:17:20.000Z</time>
      </trkpt>
      <trkpt lat="47.33451" lon="-2.36919">
        <ele>24.39999961853</ele>
        <time>2019-06-02T08:17:26.000Z</time>
      </trkpt>
      <trkpt lat="47.33446" lon="-2.36946">
        <ele>24.39999961853</ele>
        <time>2019-06-02T08:17:31.000Z</time>
      </trkpt>
      <trkpt lat="47.33451" lon="-2.36968">
        <ele>24.39999961853</ele>
        <time>2019-06-02T08:17:36.000Z</time>
      </trkpt>
      <trkpt lat="47.3346" lon="-2.3698">
        <ele>24.39999961853</ele>
        <time>2019-06-02T08:17:39.000Z</time>
      </trkpt>
      <trkpt lat="47.33462" lon="-2.37002">
        <ele>24.39999961853</ele>
        <time>2019-06-02T08:17:42.000Z</time>
      </trkpt>
      <trkpt lat="47.33463" lon="-2.37031">
        <ele>24.39999961853</ele>
        <time>2019-06-02T08:17:45.000Z</time>
      </trkpt>
      <trkpt lat="47.33463" lon="-2.37051">
        <ele>24.799999237061</ele>
        <time>2019-06-02T08:17:47.000Z</time>
      </trkpt>
      <trkpt lat="47.33462" lon="-2.37061">
        <ele>25.200000762939</ele>
        <time>2019-06-02T08:17:48.000Z</time>
      </trkpt>
      <trkpt lat="47.33463" lon="-2.3707">
        <ele>25.60000038147</ele>
        <time>2019-06-02T08:17:49.000Z</time>
      </trkpt>
      <trkpt lat="47.33464" lon="-2.37078">
        <ele>26</ele>
        <time>2019-06-02T08:17:50.000Z</time>
      </trkpt>
      <trkpt lat="47.33466" lon="-2.37087">
        <ele>26.39999961853</ele>
        <time>2019-06-02T08:17:51.000Z</time>
      </trkpt>
      <trkpt lat="47.33468" lon="-2.37095">
        <ele>26.39999961853</ele>
        <time>2019-06-02T08:17:52.000Z</time>
      </trkpt>
      <trkpt lat="47.33478" lon="-2.37154">
        <ele>26.799999237061</ele>
        <time>2019-06-02T08:17:59.000Z</time>
      </trkpt>
      <trkpt lat="47.33479" lon="-2.37161">
        <ele>27.200000762939</ele>
        <time>2019-06-02T08:18:00.000Z</time>
      </trkpt>
      <trkpt lat="47.3348" lon="-2.37167">
        <ele>27.60000038147</ele>
        <time>2019-06-02T08:18:01.000Z</time>
      </trkpt>
      <trkpt lat="47.33481" lon="-2.37174">
        <ele>28</ele>
        <time>2019-06-02T08:18:02.000Z</time>
      </trkpt>
      <trkpt lat="47.33481" lon="-2.3718">
        <ele>28.39999961853</ele>
        <time>2019-06-02T08:18:03.000Z</time>
      </trkpt>
      <trkpt lat="47.33482" lon="-2.37187">
        <ele>28.39999961853</ele>
        <time>2019-06-02T08:18:04.000Z</time>
      </trkpt>
      <trkpt lat="47.33483" lon="-2.37193">
        <ele>28.39999961853</ele>
        <time>2019-06-02T08:18:05.000Z</time>
      </trkpt>
      <trkpt lat="47.33489" lon="-2.37214">
        <ele>28.39999961853</ele>
        <time>2019-06-02T08:18:08.000Z</time>
      </trkpt>
      <trkpt lat="47.33492" lon="-2.37218">
        <ele>28.39999961853</ele>
        <time>2019-06-02T08:18:09.000Z</time>
      </trkpt>
      <trkpt lat="47.33503" lon="-2.37228">
        <ele>28.39999961853</ele>
        <time>2019-06-02T08:18:12.000Z</time>
      </trkpt>
      <trkpt lat="47.3351" lon="-2.37227">
        <ele>28.39999961853</ele>
        <time>2019-06-02T08:18:14.000Z</time>
      </trkpt>
      <trkpt lat="47.33517" lon="-2.37228">
        <ele>28.39999961853</ele>
        <time>2019-06-02T08:18:16.000Z</time>
      </trkpt>
      <trkpt lat="47.33524" lon="-2.3723">
        <ele>29</ele>
        <time>2019-06-02T08:18:18.000Z</time>
      </trkpt>
      <trkpt lat="47.33528" lon="-2.3723">
        <ele>29.39999961853</ele>
        <time>2019-06-02T08:18:19.000Z</time>
      </trkpt>
      <trkpt lat="47.33531" lon="-2.3723">
        <ele>29.799999237061</ele>
        <time>2019-06-02T08:18:20.000Z</time>
      </trkpt>
      <trkpt lat="47.33535" lon="-2.3723">
        <ele>30.200000762939</ele>
        <time>2019-06-02T08:18:21.000Z</time>
      </trkpt>
      <trkpt lat="47.33538" lon="-2.37229">
        <ele>30.60000038147</ele>
        <time>2019-06-02T08:18:22.000Z</time>
      </trkpt>
      <trkpt lat="47.33542" lon="-2.37229">
        <ele>30.60000038147</ele>
        <time>2019-06-02T08:18:23.000Z</time>
      </trkpt>
      <trkpt lat="47.33556" lon="-2.37231">
        <ele>31</ele>
        <time>2019-06-02T08:18:27.000Z</time>
      </trkpt>
      <trkpt lat="47.33559" lon="-2.37231">
        <ele>31.39999961853</ele>
        <time>2019-06-02T08:18:28.000Z</time>
      </trkpt>
      <trkpt lat="47.33562" lon="-2.37232">
        <ele>31.799999237061</ele>
        <time>2019-06-02T08:18:29.000Z</time>
      </trkpt>
      <trkpt lat="47.33565" lon="-2.37233">
        <ele>32.200000762939</ele>
        <time>2019-06-02T08:18:30.000Z</time>
      </trkpt>
      <trkpt lat="47.33569" lon="-2.37234">
        <ele>32.599998474121</ele>
        <time>2019-06-02T08:18:31.000Z</time>
      </trkpt>
      <trkpt lat="47.33579" lon="-2.37233">
        <ele>32.599998474121</ele>
        <time>2019-06-02T08:18:34.000Z</time>
      </trkpt>
      <trkpt lat="47.33594" lon="-2.37229">
        <ele>32.599998474121</ele>
        <time>2019-06-02T08:18:38.000Z</time>
      </trkpt>
      <trkpt lat="47.33596" lon="-2.37224">
        <ele>32.599998474121</ele>
        <time>2019-06-02T08:18:39.000Z</time>
      </trkpt>
      <trkpt lat="47.33596" lon="-2.37206">
        <ele>32.599998474121</ele>
        <time>2019-06-02T08:18:42.000Z</time>
      </trkpt>
      <trkpt lat="47.33599" lon="-2.37169">
        <ele>32.599998474121</ele>
        <time>2019-06-02T08:18:47.000Z</time>
      </trkpt>
      <trkpt lat="47.33602" lon="-2.37144">
        <ele>32.599998474121</ele>
        <time>2019-06-02T08:18:50.000Z</time>
      </trkpt>
      <trkpt lat="47.33603" lon="-2.37126">
        <ele>32.599998474121</ele>
        <time>2019-06-02T08:18:52.000Z</time>
      </trkpt>
      <trkpt lat="47.33603" lon="-2.37057">
        <ele>32.599998474121</ele>
        <time>2019-06-02T08:19:00.000Z</time>
      </trkpt>
      <trkpt lat="47.33602" lon="-2.37002">
        <ele>32.599998474121</ele>
        <time>2019-06-02T08:19:06.000Z</time>
      </trkpt>
      <trkpt lat="47.33606" lon="-2.36953">
        <ele>32.599998474121</ele>
        <time>2019-06-02T08:19:11.000Z</time>
      </trkpt>
      <trkpt lat="47.33609" lon="-2.36944">
        <ele>32.599998474121</ele>
        <time>2019-06-02T08:19:12.000Z</time>
      </trkpt>
      <trkpt lat="47.33621" lon="-2.36922">
        <ele>32.599998474121</ele>
        <time>2019-06-02T08:19:15.000Z</time>
      </trkpt>
      <trkpt lat="47.33625" lon="-2.36915">
        <ele>32.599998474121</ele>
        <time>2019-06-02T08:19:16.000Z</time>
      </trkpt>
      <trkpt lat="47.33662" lon="-2.36872">
        <ele>32.599998474121</ele>
        <time>2019-06-02T08:19:23.000Z</time>
      </trkpt>
      <trkpt lat="47.33687" lon="-2.36843">
        <ele>33</ele>
        <time>2019-06-02T08:19:28.000Z</time>
      </trkpt>
      <trkpt lat="47.33692" lon="-2.36838">
        <ele>33.599998474121</ele>
        <time>2019-06-02T08:19:29.000Z</time>
      </trkpt>
      <trkpt lat="47.33697" lon="-2.36832">
        <ele>34</ele>
        <time>2019-06-02T08:19:30.000Z</time>
      </trkpt>
      <trkpt lat="47.33703" lon="-2.36828">
        <ele>34.400001525879</ele>
        <time>2019-06-02T08:19:31.000Z</time>
      </trkpt>
      <trkpt lat="47.33708" lon="-2.36824">
        <ele>34.799999237061</ele>
        <time>2019-06-02T08:19:32.000Z</time>
      </trkpt>
      <trkpt lat="47.33724" lon="-2.36814">
        <ele>34.799999237061</ele>
        <time>2019-06-02T08:19:35.000Z</time>
      </trkpt>
      <trkpt lat="47.33757" lon="-2.36803">
        <ele>34.799999237061</ele>
        <time>2019-06-02T08:19:40.000Z</time>
      </trkpt>
      <trkpt lat="47.33804" lon="-2.36786">
        <ele>34.799999237061</ele>
        <time>2019-06-02T08:19:46.000Z</time>
      </trkpt>
      <trkpt lat="47.33858" lon="-2.36771">
        <ele>34.799999237061</ele>
        <time>2019-06-02T08:19:53.000Z</time>
      </trkpt>
      <trkpt lat="47.33903" lon="-2.36759">
        <ele>34.799999237061</ele>
        <time>2019-06-02T08:20:00.000Z</time>
      </trkpt>
      <trkpt lat="47.33912" lon="-2.36757">
        <ele>34.799999237061</ele>
        <time>2019-06-02T08:20:02.000Z</time>
      </trkpt>
      <trkpt lat="47.33916" lon="-2.36758">
        <ele>34.799999237061</ele>
        <time>2019-06-02T08:20:03.000Z</time>
      </trkpt>
      <trkpt lat="47.33926" lon="-2.36759">
        <ele>34.400001525879</ele>
        <time>2019-06-02T08:20:05.000Z</time>
      </trkpt>
      <trkpt lat="47.33931" lon="-2.36759">
        <ele>34</ele>
        <time>2019-06-02T08:20:06.000Z</time>
      </trkpt>
      <trkpt lat="47.33937" lon="-2.36757">
        <ele>33.599998474121</ele>
        <time>2019-06-02T08:20:07.000Z</time>
      </trkpt>
      <trkpt lat="47.33944" lon="-2.36756">
        <ele>33.200000762939</ele>
        <time>2019-06-02T08:20:08.000Z</time>
      </trkpt>
      <trkpt lat="47.3395" lon="-2.36755">
        <ele>32.799999237061</ele>
        <time>2019-06-02T08:20:09.000Z</time>
      </trkpt>
      <trkpt lat="47.33984" lon="-2.36746">
        <ele>32.799999237061</ele>
        <time>2019-06-02T08:20:14.000Z</time>
      </trkpt>
      <trkpt lat="47.34029" lon="-2.36729">
        <ele>32.799999237061</ele>
        <time>2019-06-02T08:20:20.000Z</time>
      </trkpt>
      <trkpt lat="47.34036" lon="-2.36724">
        <ele>32.400001525879</ele>
        <time>2019-06-02T08:20:21.000Z</time>
      </trkpt>
      <trkpt lat="47.34043" lon="-2.36719">
        <ele>32</ele>
        <time>2019-06-02T08:20:22.000Z</time>
      </trkpt>
      <trkpt lat="47.3405" lon="-2.36715">
        <ele>31.39999961853</ele>
        <time>2019-06-02T08:20:23.000Z</time>
      </trkpt>
      <trkpt lat="47.34056" lon="-2.36711">
        <ele>31</ele>
        <time>2019-06-02T08:20:24.000Z</time>
      </trkpt>
      <trkpt lat="47.34063" lon="-2.36708">
        <ele>30.60000038147</ele>
        <time>2019-06-02T08:20:25.000Z</time>
      </trkpt>
      <trkpt lat="47.34074" lon="-2.36702">
        <ele>30.60000038147</ele>
        <time>2019-06-02T08:20:27.000Z</time>
      </trkpt>
      <trkpt lat="47.34079" lon="-2.36703">
        <ele>30.200000762939</ele>
        <time>2019-06-02T08:20:28.000Z</time>
      </trkpt>
      <trkpt lat="47.34083" lon="-2.36707">
        <ele>29.799999237061</ele>
        <time>2019-06-02T08:20:29.000Z</time>
      </trkpt>
      <trkpt lat="47.34086" lon="-2.36714">
        <ele>29.39999961853</ele>
        <time>2019-06-02T08:20:30.000Z</time>
      </trkpt>
      <trkpt lat="47.34088" lon="-2.36721">
        <ele>29</ele>
        <time>2019-06-02T08:20:31.000Z</time>
      </trkpt>
      <trkpt lat="47.34089" lon="-2.3673">
        <ele>28.60000038147</ele>
        <time>2019-06-02T08:20:32.000Z</time>
      </trkpt>
      <trkpt lat="47.34091" lon="-2.36739">
        <ele>28.60000038147</ele>
        <time>2019-06-02T08:20:33.000Z</time>
      </trkpt>
      <trkpt lat="47.34099" lon="-2.36786">
        <ele>28.60000038147</ele>
        <time>2019-06-02T08:20:38.000Z</time>
      </trkpt>
      <trkpt lat="47.34114" lon="-2.36855">
        <ele>28.60000038147</ele>
        <time>2019-06-02T08:20:45.000Z</time>
      </trkpt>
      <trkpt lat="47.34121" lon="-2.36873">
        <ele>28.60000038147</ele>
        <time>2019-06-02T08:20:47.000Z</time>
      </trkpt>
      <trkpt lat="47.3413" lon="-2.36889">
        <ele>28.60000038147</ele>
        <time>2019-06-02T08:20:49.000Z</time>
      </trkpt>
      <trkpt lat="47.34151" lon="-2.36928">
        <ele>28.60000038147</ele>
        <time>2019-06-02T08:20:54.000Z</time>
      </trkpt>
      <trkpt lat="47.34163" lon="-2.36949">
        <ele>28.60000038147</ele>
        <time>2019-06-02T08:20:57.000Z</time>
      </trkpt>
      <trkpt lat="47.34175" lon="-2.36968">
        <ele>28.60000038147</ele>
        <time>2019-06-02T08:21:00.000Z</time>
      </trkpt>
      <trkpt lat="47.34191" lon="-2.36992">
        <ele>28.60000038147</ele>
        <time>2019-06-02T08:21:04.000Z</time>
      </trkpt>
      <trkpt lat="47.34199" lon="-2.37004">
        <ele>28.60000038147</ele>
        <time>2019-06-02T08:21:06.000Z</time>
      </trkpt>
      <trkpt lat="47.3421" lon="-2.37021">
        <ele>29</ele>
        <time>2019-06-02T08:21:09.000Z</time>
      </trkpt>
      <trkpt lat="47.34213" lon="-2.37027">
        <ele>29.39999961853</ele>
        <time>2019-06-02T08:21:10.000Z</time>
      </trkpt>
      <trkpt lat="47.34217" lon="-2.37033">
        <ele>29.799999237061</ele>
        <time>2019-06-02T08:21:11.000Z</time>
      </trkpt>
      <trkpt lat="47.34219" lon="-2.37039">
        <ele>30.200000762939</ele>
        <time>2019-06-02T08:21:12.000Z</time>
      </trkpt>
      <trkpt lat="47.34222" lon="-2.37045">
        <ele>30.60000038147</ele>
        <time>2019-06-02T08:21:13.000Z</time>
      </trkpt>
      <trkpt lat="47.34232" lon="-2.37063">
        <ele>31</ele>
        <time>2019-06-02T08:21:16.000Z</time>
      </trkpt>
      <trkpt lat="47.34236" lon="-2.37066">
        <ele>31.39999961853</ele>
        <time>2019-06-02T08:21:17.000Z</time>
      </trkpt>
      <trkpt lat="47.3424" lon="-2.37067">
        <ele>31.799999237061</ele>
        <time>2019-06-02T08:21:18.000Z</time>
      </trkpt>
      <trkpt lat="47.34244" lon="-2.37065">
        <ele>32.200000762939</ele>
        <time>2019-06-02T08:21:19.000Z</time>
      </trkpt>
      <trkpt lat="47.34248" lon="-2.37061">
        <ele>32.799999237061</ele>
        <time>2019-06-02T08:21:20.000Z</time>
      </trkpt>
      <trkpt lat="47.34251" lon="-2.37057">
        <ele>32.799999237061</ele>
        <time>2019-06-02T08:21:21.000Z</time>
      </trkpt>
      <trkpt lat="47.34276" lon="-2.37034">
        <ele>32.799999237061</ele>
        <time>2019-06-02T08:21:26.000Z</time>
      </trkpt>
      <trkpt lat="47.34301" lon="-2.37002">
        <ele>32.799999237061</ele>
        <time>2019-06-02T08:21:31.000Z</time>
      </trkpt>
      <trkpt lat="47.34328" lon="-2.36964">
        <ele>32.799999237061</ele>
        <time>2019-06-02T08:21:37.000Z</time>
      </trkpt>
      <trkpt lat="47.34356" lon="-2.3692">
        <ele>32.799999237061</ele>
        <time>2019-06-02T08:21:43.000Z</time>
      </trkpt>
      <trkpt lat="47.34393" lon="-2.36859">
        <ele>32.799999237061</ele>
        <time>2019-06-02T08:21:51.000Z</time>
      </trkpt>
      <trkpt lat="47.34432" lon="-2.36796">
        <ele>32.799999237061</ele>
        <time>2019-06-02T08:21:59.000Z</time>
      </trkpt>
      <trkpt lat="47.34469" lon="-2.36738">
        <ele>32.799999237061</ele>
        <time>2019-06-02T08:22:06.000Z</time>
      </trkpt>
      <trkpt lat="47.34475" lon="-2.36729">
        <ele>32.200000762939</ele>
        <time>2019-06-02T08:22:07.000Z</time>
      </trkpt>
      <trkpt lat="47.3448" lon="-2.36719">
        <ele>31.799999237061</ele>
        <time>2019-06-02T08:22:08.000Z</time>
      </trkpt>
      <trkpt lat="47.34485" lon="-2.36709">
        <ele>31.39999961853</ele>
        <time>2019-06-02T08:22:09.000Z</time>
      </trkpt>
      <trkpt lat="47.3449" lon="-2.36698">
        <ele>31</ele>
        <time>2019-06-02T08:22:10.000Z</time>
      </trkpt>
      <trkpt lat="47.34496" lon="-2.36688">
        <ele>30.60000038147</ele>
        <time>2019-06-02T08:22:11.000Z</time>
      </trkpt>
      <trkpt lat="47.34501" lon="-2.36678">
        <ele>30.60000038147</ele>
        <time>2019-06-02T08:22:12.000Z</time>
      </trkpt>
      <trkpt lat="47.34529" lon="-2.36612">
        <ele>30.60000038147</ele>
        <time>2019-06-02T08:22:18.000Z</time>
      </trkpt>
      <trkpt lat="47.34533" lon="-2.36601">
        <ele>30.200000762939</ele>
        <time>2019-06-02T08:22:19.000Z</time>
      </trkpt>
      <trkpt lat="47.34537" lon="-2.3659">
        <ele>29.60000038147</ele>
        <time>2019-06-02T08:22:20.000Z</time>
      </trkpt>
      <trkpt lat="47.34541" lon="-2.36579">
        <ele>29.200000762939</ele>
        <time>2019-06-02T08:22:21.000Z</time>
      </trkpt>
      <trkpt lat="47.34546" lon="-2.36568">
        <ele>28.60000038147</ele>
        <time>2019-06-02T08:22:22.000Z</time>
      </trkpt>
      <trkpt lat="47.34551" lon="-2.36558">
        <ele>28.200000762939</ele>
        <time>2019-06-02T08:22:23.000Z</time>
      </trkpt>
      <trkpt lat="47.3456" lon="-2.36536">
        <ele>28.200000762939</ele>
        <time>2019-06-02T08:22:25.000Z</time>
      </trkpt>
      <trkpt lat="47.34582" lon="-2.36473">
        <ele>28.200000762939</ele>
        <time>2019-06-02T08:22:31.000Z</time>
      </trkpt>
      <trkpt lat="47.34586" lon="-2.36463">
        <ele>27.799999237061</ele>
        <time>2019-06-02T08:22:32.000Z</time>
      </trkpt>
      <trkpt lat="47.3459" lon="-2.36453">
        <ele>27.200000762939</ele>
        <time>2019-06-02T08:22:33.000Z</time>
      </trkpt>
      <trkpt lat="47.34594" lon="-2.36445">
        <ele>26.799999237061</ele>
        <time>2019-06-02T08:22:34.000Z</time>
      </trkpt>
      <trkpt lat="47.346" lon="-2.3644">
        <ele>26.39999961853</ele>
        <time>2019-06-02T08:22:35.000Z</time>
      </trkpt>
      <trkpt lat="47.34606" lon="-2.36436">
        <ele>26</ele>
        <time>2019-06-02T08:22:36.000Z</time>
      </trkpt>
      <trkpt lat="47.3462" lon="-2.36429">
        <ele>26</ele>
        <time>2019-06-02T08:22:38.000Z</time>
      </trkpt>
      <trkpt lat="47.34627" lon="-2.36425">
        <ele>26</ele>
        <time>2019-06-02T08:22:39.000Z</time>
      </trkpt>
      <trkpt lat="47.34646" lon="-2.36417">
        <ele>26</ele>
        <time>2019-06-02T08:22:42.000Z</time>
      </trkpt>
      <trkpt lat="47.34652" lon="-2.36414">
        <ele>26</ele>
        <time>2019-06-02T08:22:43.000Z</time>
      </trkpt>
      <trkpt lat="47.34677" lon="-2.36402">
        <ele>26.39999961853</ele>
        <time>2019-06-02T08:22:47.000Z</time>
      </trkpt>
      <trkpt lat="47.34683" lon="-2.364">
        <ele>26.799999237061</ele>
        <time>2019-06-02T08:22:48.000Z</time>
      </trkpt>
      <trkpt lat="47.3469" lon="-2.36398">
        <ele>27.200000762939</ele>
        <time>2019-06-02T08:22:49.000Z</time>
      </trkpt>
      <trkpt lat="47.34695" lon="-2.36396">
        <ele>27.60000038147</ele>
        <time>2019-06-02T08:22:50.000Z</time>
      </trkpt>
      <trkpt lat="47.347" lon="-2.36394">
        <ele>28</ele>
        <time>2019-06-02T08:22:51.000Z</time>
      </trkpt>
      <trkpt lat="47.34712" lon="-2.36389">
        <ele>28</ele>
        <time>2019-06-02T08:22:53.000Z</time>
      </trkpt>
      <trkpt lat="47.34723" lon="-2.36384">
        <ele>28</ele>
        <time>2019-06-02T08:22:55.000Z</time>
      </trkpt>
      <trkpt lat="47.34746" lon="-2.3637">
        <ele>28.39999961853</ele>
        <time>2019-06-02T08:23:00.000Z</time>
      </trkpt>
      <trkpt lat="47.34751" lon="-2.36367">
        <ele>28.799999237061</ele>
        <time>2019-06-02T08:23:01.000Z</time>
      </trkpt>
      <trkpt lat="47.34757" lon="-2.36363">
        <ele>29.39999961853</ele>
        <time>2019-06-02T08:23:02.000Z</time>
      </trkpt>
      <trkpt lat="47.34763" lon="-2.3636">
        <ele>29.799999237061</ele>
        <time>2019-06-02T08:23:03.000Z</time>
      </trkpt>
      <trkpt lat="47.34769" lon="-2.36357">
        <ele>30.200000762939</ele>
        <time>2019-06-02T08:23:04.000Z</time>
      </trkpt>
      <trkpt lat="47.34781" lon="-2.36348">
        <ele>30.200000762939</ele>
        <time>2019-06-02T08:23:06.000Z</time>
      </trkpt>
      <trkpt lat="47.34827" lon="-2.36318">
        <ele>30.200000762939</ele>
        <time>2019-06-02T08:23:13.000Z</time>
      </trkpt>
      <trkpt lat="47.3488" lon="-2.3628">
        <ele>30.200000762939</ele>
        <time>2019-06-02T08:23:21.000Z</time>
      </trkpt>
      <trkpt lat="47.34926" lon="-2.36238">
        <ele>30.200000762939</ele>
        <time>2019-06-02T08:23:28.000Z</time>
      </trkpt>
      <trkpt lat="47.34933" lon="-2.3623">
        <ele>30.200000762939</ele>
        <time>2019-06-02T08:23:29.000Z</time>
      </trkpt>
      <trkpt lat="47.34952" lon="-2.36207">
        <ele>29.799999237061</ele>
        <time>2019-06-02T08:23:32.000Z</time>
      </trkpt>
      <trkpt lat="47.34958" lon="-2.36199">
        <ele>29.200000762939</ele>
        <time>2019-06-02T08:23:33.000Z</time>
      </trkpt>
      <trkpt lat="47.34965" lon="-2.36191">
        <ele>28.799999237061</ele>
        <time>2019-06-02T08:23:34.000Z</time>
      </trkpt>
      <trkpt lat="47.34971" lon="-2.36184">
        <ele>28.39999961853</ele>
        <time>2019-06-02T08:23:35.000Z</time>
      </trkpt>
      <trkpt lat="47.34979" lon="-2.36177">
        <ele>28</ele>
        <time>2019-06-02T08:23:36.000Z</time>
      </trkpt>
      <trkpt lat="47.35008" lon="-2.36164">
        <ele>27.60000038147</ele>
        <time>2019-06-02T08:23:40.000Z</time>
      </trkpt>
      <trkpt lat="47.35018" lon="-2.36165">
        <ele>26.60000038147</ele>
        <time>2019-06-02T08:23:41.000Z</time>
      </trkpt>
      <trkpt lat="47.35032" lon="-2.36169">
        <ele>26.200000762939</ele>
        <time>2019-06-02T08:23:43.000Z</time>
      </trkpt>
      <trkpt lat="47.35041" lon="-2.36172">
        <ele>25.60000038147</ele>
        <time>2019-06-02T08:23:44.000Z</time>
      </trkpt>
      <trkpt lat="47.35081" lon="-2.36175">
        <ele>25.60000038147</ele>
        <time>2019-06-02T08:23:49.000Z</time>
      </trkpt>
      <trkpt lat="47.35087" lon="-2.36173">
        <ele>25.200000762939</ele>
        <time>2019-06-02T08:23:50.000Z</time>
      </trkpt>
      <trkpt lat="47.35093" lon="-2.36171">
        <ele>24.799999237061</ele>
        <time>2019-06-02T08:23:51.000Z</time>
      </trkpt>
      <trkpt lat="47.35099" lon="-2.36169">
        <ele>24.200000762939</ele>
        <time>2019-06-02T08:23:52.000Z</time>
      </trkpt>
      <trkpt lat="47.35105" lon="-2.36167">
        <ele>23.799999237061</ele>
        <time>2019-06-02T08:23:53.000Z</time>
      </trkpt>
      <trkpt lat="47.35112" lon="-2.36164">
        <ele>23.39999961853</ele>
        <time>2019-06-02T08:23:54.000Z</time>
      </trkpt>
      <trkpt lat="47.35144" lon="-2.36143">
        <ele>23.39999961853</ele>
        <time>2019-06-02T08:23:59.000Z</time>
      </trkpt>
      <trkpt lat="47.35168" lon="-2.36125">
        <ele>23.39999961853</ele>
        <time>2019-06-02T08:24:03.000Z</time>
      </trkpt>
      <trkpt lat="47.35203" lon="-2.36098">
        <ele>23.39999961853</ele>
        <time>2019-06-02T08:24:09.000Z</time>
      </trkpt>
      <trkpt lat="47.35208" lon="-2.36094">
        <ele>22.799999237061</ele>
        <time>2019-06-02T08:24:10.000Z</time>
      </trkpt>
      <trkpt lat="47.35214" lon="-2.36089">
        <ele>22.39999961853</ele>
        <time>2019-06-02T08:24:11.000Z</time>
      </trkpt>
      <trkpt lat="47.35219" lon="-2.36085">
        <ele>22</ele>
        <time>2019-06-02T08:24:12.000Z</time>
      </trkpt>
      <trkpt lat="47.35223" lon="-2.36081">
        <ele>21.60000038147</ele>
        <time>2019-06-02T08:24:13.000Z</time>
      </trkpt>
      <trkpt lat="47.35228" lon="-2.36078">
        <ele>21.200000762939</ele>
        <time>2019-06-02T08:24:14.000Z</time>
      </trkpt>
      <trkpt lat="47.35266" lon="-2.36048">
        <ele>21.200000762939</ele>
        <time>2019-06-02T08:24:22.000Z</time>
      </trkpt>
      <trkpt lat="47.353" lon="-2.36012">
        <ele>21.200000762939</ele>
        <time>2019-06-02T08:24:29.000Z</time>
      </trkpt>
      <trkpt lat="47.35304" lon="-2.36005">
        <ele>21.200000762939</ele>
        <time>2019-06-02T08:24:30.000Z</time>
      </trkpt>
      <trkpt lat="47.35314" lon="-2.35983">
        <ele>21.200000762939</ele>
        <time>2019-06-02T08:24:33.000Z</time>
      </trkpt>
      <trkpt lat="47.35332" lon="-2.35942">
        <ele>21.200000762939</ele>
        <time>2019-06-02T08:24:39.000Z</time>
      </trkpt>
      <trkpt lat="47.35351" lon="-2.3591">
        <ele>21.200000762939</ele>
        <time>2019-06-02T08:24:44.000Z</time>
      </trkpt>
      <trkpt lat="47.35355" lon="-2.35905">
        <ele>21.200000762939</ele>
        <time>2019-06-02T08:24:45.000Z</time>
      </trkpt>
      <trkpt lat="47.35386" lon="-2.35874">
        <ele>21.200000762939</ele>
        <time>2019-06-02T08:24:52.000Z</time>
      </trkpt>
      <trkpt lat="47.35404" lon="-2.35846">
        <ele>21.200000762939</ele>
        <time>2019-06-02T08:24:57.000Z</time>
      </trkpt>
      <trkpt lat="47.35429" lon="-2.35815">
        <ele>21.200000762939</ele>
        <time>2019-06-02T08:25:03.000Z</time>
      </trkpt>
      <trkpt lat="47.35434" lon="-2.35809">
        <ele>21.60000038147</ele>
        <time>2019-06-02T08:25:04.000Z</time>
      </trkpt>
      <trkpt lat="47.35438" lon="-2.35803">
        <ele>22</ele>
        <time>2019-06-02T08:25:05.000Z</time>
      </trkpt>
      <trkpt lat="47.35443" lon="-2.35797">
        <ele>22.39999961853</ele>
        <time>2019-06-02T08:25:06.000Z</time>
      </trkpt>
      <trkpt lat="47.35448" lon="-2.35791">
        <ele>22.799999237061</ele>
        <time>2019-06-02T08:25:07.000Z</time>
      </trkpt>
      <trkpt lat="47.35453" lon="-2.35785">
        <ele>23.200000762939</ele>
        <time>2019-06-02T08:25:08.000Z</time>
      </trkpt>
      <trkpt lat="47.35462" lon="-2.35772">
        <ele>23.200000762939</ele>
        <time>2019-06-02T08:25:10.000Z</time>
      </trkpt>
      <trkpt lat="47.35493" lon="-2.3572">
        <ele>23.200000762939</ele>
        <time>2019-06-02T08:25:17.000Z</time>
      </trkpt>
      <trkpt lat="47.35526" lon="-2.35682">
        <ele>23.200000762939</ele>
        <time>2019-06-02T08:25:23.000Z</time>
      </trkpt>
      <trkpt lat="47.35572" lon="-2.35641">
        <ele>23.200000762939</ele>
        <time>2019-06-02T08:25:30.000Z</time>
      </trkpt>
      <trkpt lat="47.35586" lon="-2.35627">
        <ele>22.799999237061</ele>
        <time>2019-06-02T08:25:32.000Z</time>
      </trkpt>
      <trkpt lat="47.35593" lon="-2.3562">
        <ele>22.39999961853</ele>
        <time>2019-06-02T08:25:33.000Z</time>
      </trkpt>
      <trkpt lat="47.35599" lon="-2.35612">
        <ele>22</ele>
        <time>2019-06-02T08:25:34.000Z</time>
      </trkpt>
      <trkpt lat="47.35606" lon="-2.35604">
        <ele>21.60000038147</ele>
        <time>2019-06-02T08:25:35.000Z</time>
      </trkpt>
      <trkpt lat="47.35612" lon="-2.35596">
        <ele>21.200000762939</ele>
        <time>2019-06-02T08:25:36.000Z</time>
      </trkpt>
      <trkpt lat="47.35619" lon="-2.35588">
        <ele>21.200000762939</ele>
        <time>2019-06-02T08:25:37.000Z</time>
      </trkpt>
      <trkpt lat="47.3564" lon="-2.35568">
        <ele>21.200000762939</ele>
        <time>2019-06-02T08:25:40.000Z</time>
      </trkpt>
      <trkpt lat="47.35684" lon="-2.35535">
        <ele>21.200000762939</ele>
        <time>2019-06-02T08:25:46.000Z</time>
      </trkpt>
      <trkpt lat="47.35719" lon="-2.35519">
        <ele>21.200000762939</ele>
        <time>2019-06-02T08:25:51.000Z</time>
      </trkpt>
      <trkpt lat="47.35753" lon="-2.35503">
        <ele>21.200000762939</ele>
        <time>2019-06-02T08:25:56.000Z</time>
      </trkpt>
      <trkpt lat="47.3578" lon="-2.35489">
        <ele>20.799999237061</ele>
        <time>2019-06-02T08:26:00.000Z</time>
      </trkpt>
      <trkpt lat="47.35787" lon="-2.35486">
        <ele>20.39999961853</ele>
        <time>2019-06-02T08:26:01.000Z</time>
      </trkpt>
      <trkpt lat="47.35793" lon="-2.35484">
        <ele>20</ele>
        <time>2019-06-02T08:26:02.000Z</time>
      </trkpt>
      <trkpt lat="47.35799" lon="-2.35481">
        <ele>19.60000038147</ele>
        <time>2019-06-02T08:26:03.000Z</time>
      </trkpt>
      <trkpt lat="47.35806" lon="-2.35479">
        <ele>19.200000762939</ele>
        <time>2019-06-02T08:26:04.000Z</time>
      </trkpt>
      <trkpt lat="47.35819" lon="-2.35472">
        <ele>19.200000762939</ele>
        <time>2019-06-02T08:26:06.000Z</time>
      </trkpt>
      <trkpt lat="47.35858" lon="-2.35453">
        <ele>19.200000762939</ele>
        <time>2019-06-02T08:26:12.000Z</time>
      </trkpt>
      <trkpt lat="47.35897" lon="-2.35423">
        <ele>19.200000762939</ele>
        <time>2019-06-02T08:26:19.000Z</time>
      </trkpt>
      <trkpt lat="47.35901" lon="-2.35418">
        <ele>19.200000762939</ele>
        <time>2019-06-02T08:26:20.000Z</time>
      </trkpt>
      <trkpt lat="47.35917" lon="-2.35406">
        <ele>19.200000762939</ele>
        <time>2019-06-02T08:26:23.000Z</time>
      </trkpt>
      <trkpt lat="47.35923" lon="-2.35403">
        <ele>19.200000762939</ele>
        <time>2019-06-02T08:26:24.000Z</time>
      </trkpt>
      <trkpt lat="47.35942" lon="-2.3538">
        <ele>19.200000762939</ele>
        <time>2019-06-02T08:26:28.000Z</time>
      </trkpt>
      <trkpt lat="47.35946" lon="-2.35374">
        <ele>19.200000762939</ele>
        <time>2019-06-02T08:26:29.000Z</time>
      </trkpt>
      <trkpt lat="47.35962" lon="-2.35351">
        <ele>19.200000762939</ele>
        <time>2019-06-02T08:26:32.000Z</time>
      </trkpt>
      <trkpt lat="47.35967" lon="-2.35344">
        <ele>19.200000762939</ele>
        <time>2019-06-02T08:26:33.000Z</time>
      </trkpt>
      <trkpt lat="47.35995" lon="-2.35308">
        <ele>19.200000762939</ele>
        <time>2019-06-02T08:26:38.000Z</time>
      </trkpt>
      <trkpt lat="47.36" lon="-2.353">
        <ele>19.200000762939</ele>
        <time>2019-06-02T08:26:39.000Z</time>
      </trkpt>
      <trkpt lat="47.36032" lon="-2.35257">
        <ele>19.200000762939</ele>
        <time>2019-06-02T08:26:45.000Z</time>
      </trkpt>
      <trkpt lat="47.36064" lon="-2.35213">
        <ele>19.200000762939</ele>
        <time>2019-06-02T08:26:51.000Z</time>
      </trkpt>
      <trkpt lat="47.36084" lon="-2.35182">
        <ele>19.200000762939</ele>
        <time>2019-06-02T08:26:55.000Z</time>
      </trkpt>
      <trkpt lat="47.36087" lon="-2.35172">
        <ele>19.200000762939</ele>
        <time>2019-06-02T08:26:56.000Z</time>
      </trkpt>
      <trkpt lat="47.3609" lon="-2.3514">
        <ele>19.200000762939</ele>
        <time>2019-06-02T08:26:59.000Z</time>
      </trkpt>
      <trkpt lat="47.3609" lon="-2.35131">
        <ele>19.200000762939</ele>
        <time>2019-06-02T08:27:00.000Z</time>
      </trkpt>
      <trkpt lat="47.36096" lon="-2.35051">
        <ele>19.200000762939</ele>
        <time>2019-06-02T08:27:08.000Z</time>
      </trkpt>
      <trkpt lat="47.36095" lon="-2.34989">
        <ele>19.200000762939</ele>
        <time>2019-06-02T08:27:14.000Z</time>
      </trkpt>
      <trkpt lat="47.36087" lon="-2.34939">
        <ele>19.200000762939</ele>
        <time>2019-06-02T08:27:19.000Z</time>
      </trkpt>
      <trkpt lat="47.36086" lon="-2.34918">
        <ele>19.200000762939</ele>
        <time>2019-06-02T08:27:21.000Z</time>
      </trkpt>
      <trkpt lat="47.36087" lon="-2.3489">
        <ele>19.200000762939</ele>
        <time>2019-06-02T08:27:24.000Z</time>
      </trkpt>
      <trkpt lat="47.36086" lon="-2.34882">
        <ele>19.200000762939</ele>
        <time>2019-06-02T08:27:25.000Z</time>
      </trkpt>
      <trkpt lat="47.3608" lon="-2.34871">
        <ele>19.200000762939</ele>
        <time>2019-06-02T08:27:27.000Z</time>
      </trkpt>
      <trkpt lat="47.36066" lon="-2.34865">
        <ele>19.200000762939</ele>
        <time>2019-06-02T08:27:30.000Z</time>
      </trkpt>
      <trkpt lat="47.36051" lon="-2.34867">
        <ele>19.200000762939</ele>
        <time>2019-06-02T08:27:32.000Z</time>
      </trkpt>
      <trkpt lat="47.36037" lon="-2.34867">
        <ele>19.200000762939</ele>
        <time>2019-06-02T08:27:34.000Z</time>
      </trkpt>
      <trkpt lat="47.35983" lon="-2.34865">
        <ele>19.200000762939</ele>
        <time>2019-06-02T08:27:42.000Z</time>
      </trkpt>
      <trkpt lat="47.3594" lon="-2.34862">
        <ele>19.200000762939</ele>
        <time>2019-06-02T08:27:49.000Z</time>
      </trkpt>
      <trkpt lat="47.35927" lon="-2.3486">
        <ele>19.200000762939</ele>
        <time>2019-06-02T08:27:51.000Z</time>
      </trkpt>
      <trkpt lat="47.35916" lon="-2.34849">
        <ele>19.200000762939</ele>
        <time>2019-06-02T08:27:53.000Z</time>
      </trkpt>
      <trkpt lat="47.35905" lon="-2.34825">
        <ele>19.200000762939</ele>
        <time>2019-06-02T08:27:56.000Z</time>
      </trkpt>
      <trkpt lat="47.35902" lon="-2.34817">
        <ele>19.200000762939</ele>
        <time>2019-06-02T08:27:57.000Z</time>
      </trkpt>
      <trkpt lat="47.35886" lon="-2.34778">
        <ele>19.200000762939</ele>
        <time>2019-06-02T08:28:02.000Z</time>
      </trkpt>
      <trkpt lat="47.3587" lon="-2.34739">
        <ele>19.60000038147</ele>
        <time>2019-06-02T08:28:07.000Z</time>
      </trkpt>
      <trkpt lat="47.35867" lon="-2.34732">
        <ele>20</ele>
        <time>2019-06-02T08:28:08.000Z</time>
      </trkpt>
      <trkpt lat="47.35864" lon="-2.34724">
        <ele>20.39999961853</ele>
        <time>2019-06-02T08:28:09.000Z</time>
      </trkpt>
      <trkpt lat="47.35861" lon="-2.34717">
        <ele>20.799999237061</ele>
        <time>2019-06-02T08:28:10.000Z</time>
      </trkpt>
      <trkpt lat="47.35858" lon="-2.34709">
        <ele>21.200000762939</ele>
        <time>2019-06-02T08:28:11.000Z</time>
      </trkpt>
      <trkpt lat="47.35836" lon="-2.34659">
        <ele>21.200000762939</ele>
        <time>2019-06-02T08:28:18.000Z</time>
      </trkpt>
      <trkpt lat="47.3582" lon="-2.34622">
        <ele>21.200000762939</ele>
        <time>2019-06-02T08:28:23.000Z</time>
      </trkpt>
      <trkpt lat="47.35799" lon="-2.34562">
        <ele>21.200000762939</ele>
        <time>2019-06-02T08:28:31.000Z</time>
      </trkpt>
      <trkpt lat="47.35793" lon="-2.34519">
        <ele>21.200000762939</ele>
        <time>2019-06-02T08:28:36.000Z</time>
      </trkpt>
      <trkpt lat="47.35784" lon="-2.34454">
        <ele>21.200000762939</ele>
        <time>2019-06-02T08:28:43.000Z</time>
      </trkpt>
      <trkpt lat="47.35778" lon="-2.344">
        <ele>21.200000762939</ele>
        <time>2019-06-02T08:28:49.000Z</time>
      </trkpt>
      <trkpt lat="47.35767" lon="-2.34328">
        <ele>21.200000762939</ele>
        <time>2019-06-02T08:28:58.000Z</time>
      </trkpt>
      <trkpt lat="47.35764" lon="-2.34306">
        <ele>21.200000762939</ele>
        <time>2019-06-02T08:29:01.000Z</time>
      </trkpt>
      <trkpt lat="47.35763" lon="-2.34291">
        <ele>21.60000038147</ele>
        <time>2019-06-02T08:29:03.000Z</time>
      </trkpt>
      <trkpt lat="47.35762" lon="-2.34283">
        <ele>22</ele>
        <time>2019-06-02T08:29:04.000Z</time>
      </trkpt>
      <trkpt lat="47.35762" lon="-2.34275">
        <ele>22.39999961853</ele>
        <time>2019-06-02T08:29:05.000Z</time>
      </trkpt>
      <trkpt lat="47.35762" lon="-2.34268">
        <ele>22.799999237061</ele>
        <time>2019-06-02T08:29:06.000Z</time>
      </trkpt>
      <trkpt lat="47.35762" lon="-2.34261">
        <ele>23.200000762939</ele>
        <time>2019-06-02T08:29:07.000Z</time>
      </trkpt>
      <trkpt lat="47.35763" lon="-2.34245">
        <ele>23.200000762939</ele>
        <time>2019-06-02T08:29:09.000Z</time>
      </trkpt>
      <trkpt lat="47.35763" lon="-2.34238">
        <ele>23.200000762939</ele>
        <time>2019-06-02T08:29:10.000Z</time>
      </trkpt>
      <trkpt lat="47.35763" lon="-2.34211">
        <ele>23.200000762939</ele>
        <time>2019-06-02T08:29:14.000Z</time>
      </trkpt>
      <trkpt lat="47.35757" lon="-2.34202">
        <ele>23.200000762939</ele>
        <time>2019-06-02T08:29:17.000Z</time>
      </trkpt>
      <trkpt lat="47.35747" lon="-2.34208">
        <ele>23.200000762939</ele>
        <time>2019-06-02T08:29:20.000Z</time>
      </trkpt>
      <trkpt lat="47.35742" lon="-2.3421">
        <ele>23.200000762939</ele>
        <time>2019-06-02T08:29:21.000Z</time>
      </trkpt>
      <trkpt lat="47.35731" lon="-2.34212">
        <ele>23.60000038147</ele>
        <time>2019-06-02T08:29:23.000Z</time>
      </trkpt>
      <trkpt lat="47.35725" lon="-2.34214">
        <ele>24</ele>
        <time>2019-06-02T08:29:24.000Z</time>
      </trkpt>
      <trkpt lat="47.35719" lon="-2.34215">
        <ele>24.799999237061</ele>
        <time>2019-06-02T08:29:25.000Z</time>
      </trkpt>
      <trkpt lat="47.35712" lon="-2.34216">
        <ele>25.200000762939</ele>
        <time>2019-06-02T08:29:26.000Z</time>
      </trkpt>
      <trkpt lat="47.35705" lon="-2.34215">
        <ele>25.200000762939</ele>
        <time>2019-06-02T08:29:27.000Z</time>
      </trkpt>
      <trkpt lat="47.35691" lon="-2.34212">
        <ele>25.200000762939</ele>
        <time>2019-06-02T08:29:29.000Z</time>
      </trkpt>
      <trkpt lat="47.35669" lon="-2.34205">
        <ele>24.799999237061</ele>
        <time>2019-06-02T08:29:32.000Z</time>
      </trkpt>
      <trkpt lat="47.35662" lon="-2.34203">
        <ele>24.39999961853</ele>
        <time>2019-06-02T08:29:33.000Z</time>
      </trkpt>
      <trkpt lat="47.35654" lon="-2.342">
        <ele>23.799999237061</ele>
        <time>2019-06-02T08:29:34.000Z</time>
      </trkpt>
      <trkpt lat="47.35647" lon="-2.34197">
        <ele>23.39999961853</ele>
        <time>2019-06-02T08:29:35.000Z</time>
      </trkpt>
      <trkpt lat="47.3564" lon="-2.34195">
        <ele>23</ele>
        <time>2019-06-02T08:29:36.000Z</time>
      </trkpt>
      <trkpt lat="47.35597" lon="-2.34186">
        <ele>22.60000038147</ele>
        <time>2019-06-02T08:29:42.000Z</time>
      </trkpt>
      <trkpt lat="47.3559" lon="-2.34185">
        <ele>22.200000762939</ele>
        <time>2019-06-02T08:29:43.000Z</time>
      </trkpt>
      <trkpt lat="47.35584" lon="-2.34184">
        <ele>21.799999237061</ele>
        <time>2019-06-02T08:29:44.000Z</time>
      </trkpt>
      <trkpt lat="47.35578" lon="-2.34183">
        <ele>21.200000762939</ele>
        <time>2019-06-02T08:29:45.000Z</time>
      </trkpt>
      <trkpt lat="47.35573" lon="-2.34185">
        <ele>20.799999237061</ele>
        <time>2019-06-02T08:29:46.000Z</time>
      </trkpt>
      <trkpt lat="47.35569" lon="-2.34187">
        <ele>20.799999237061</ele>
        <time>2019-06-02T08:29:47.000Z</time>
      </trkpt>
      <trkpt lat="47.35563" lon="-2.34202">
        <ele>20.39999961853</ele>
        <time>2019-06-02T08:29:49.000Z</time>
      </trkpt>
      <trkpt lat="47.35563" lon="-2.34211">
        <ele>19.60000038147</ele>
        <time>2019-06-02T08:29:50.000Z</time>
      </trkpt>
      <trkpt lat="47.35564" lon="-2.3422">
        <ele>19.200000762939</ele>
        <time>2019-06-02T08:29:51.000Z</time>
      </trkpt>
      <trkpt lat="47.35564" lon="-2.34229">
        <ele>18.60000038147</ele>
        <time>2019-06-02T08:29:52.000Z</time>
      </trkpt>
      <trkpt lat="47.35563" lon="-2.34258">
        <ele>18.60000038147</ele>
        <time>2019-06-02T08:29:55.000Z</time>
      </trkpt>
      <trkpt lat="47.35559" lon="-2.34326">
        <ele>18.60000038147</ele>
        <time>2019-06-02T08:30:02.000Z</time>
      </trkpt>
      <trkpt lat="47.35548" lon="-2.34384">
        <ele>18.60000038147</ele>
        <time>2019-06-02T08:30:08.000Z</time>
      </trkpt>
      <trkpt lat="47.3554" lon="-2.34426">
        <ele>18.200000762939</ele>
        <time>2019-06-02T08:30:13.000Z</time>
      </trkpt>
      <trkpt lat="47.35538" lon="-2.34434">
        <ele>17.799999237061</ele>
        <time>2019-06-02T08:30:14.000Z</time>
      </trkpt>
      <trkpt lat="47.35537" lon="-2.34443">
        <ele>17</ele>
        <time>2019-06-02T08:30:15.000Z</time>
      </trkpt>
      <trkpt lat="47.35535" lon="-2.34452">
        <ele>16.60000038147</ele>
        <time>2019-06-02T08:30:16.000Z</time>
      </trkpt>
      <trkpt lat="47.3553" lon="-2.34491">
        <ele>16.200000762939</ele>
        <time>2019-06-02T08:30:20.000Z</time>
      </trkpt>
      <trkpt lat="47.35528" lon="-2.34501">
        <ele>15.800000190735</ele>
        <time>2019-06-02T08:30:21.000Z</time>
      </trkpt>
      <trkpt lat="47.35526" lon="-2.34511">
        <ele>15.39999961853</ele>
        <time>2019-06-02T08:30:22.000Z</time>
      </trkpt>
      <trkpt lat="47.35525" lon="-2.3452">
        <ele>15</ele>
        <time>2019-06-02T08:30:23.000Z</time>
      </trkpt>
      <trkpt lat="47.35523" lon="-2.34529">
        <ele>14.39999961853</ele>
        <time>2019-06-02T08:30:24.000Z</time>
      </trkpt>
      <trkpt lat="47.3552" lon="-2.34538">
        <ele>14.39999961853</ele>
        <time>2019-06-02T08:30:25.000Z</time>
      </trkpt>
      <trkpt lat="47.35518" lon="-2.34545">
        <ele>14.39999961853</ele>
        <time>2019-06-02T08:30:26.000Z</time>
      </trkpt>
      <trkpt lat="47.35501" lon="-2.34585">
        <ele>14.39999961853</ele>
        <time>2019-06-02T08:30:31.000Z</time>
      </trkpt>
      <trkpt lat="47.35479" lon="-2.34634">
        <ele>14.39999961853</ele>
        <time>2019-06-02T08:30:37.000Z</time>
      </trkpt>
      <trkpt lat="47.35459" lon="-2.34683">
        <ele>14.39999961853</ele>
        <time>2019-06-02T08:30:43.000Z</time>
      </trkpt>
      <trkpt lat="47.35447" lon="-2.34708">
        <ele>14.800000190735</ele>
        <time>2019-06-02T08:30:47.000Z</time>
      </trkpt>
      <trkpt lat="47.35442" lon="-2.34708">
        <ele>15.39999961853</ele>
        <time>2019-06-02T08:30:48.000Z</time>
      </trkpt>
      <trkpt lat="47.35437" lon="-2.34704">
        <ele>15.800000190735</ele>
        <time>2019-06-02T08:30:49.000Z</time>
      </trkpt>
      <trkpt lat="47.35434" lon="-2.34698">
        <ele>16.200000762939</ele>
        <time>2019-06-02T08:30:50.000Z</time>
      </trkpt>
      <trkpt lat="47.35431" lon="-2.34693">
        <ele>16.60000038147</ele>
        <time>2019-06-02T08:30:51.000Z</time>
      </trkpt>
      <trkpt lat="47.35424" lon="-2.34681">
        <ele>16.60000038147</ele>
        <time>2019-06-02T08:30:53.000Z</time>
      </trkpt>
      <trkpt lat="47.35415" lon="-2.34663">
        <ele>16.60000038147</ele>
        <time>2019-06-02T08:30:56.000Z</time>
      </trkpt>
      <trkpt lat="47.354" lon="-2.34613">
        <ele>16.60000038147</ele>
        <time>2019-06-02T08:31:03.000Z</time>
      </trkpt>
      <trkpt lat="47.3538" lon="-2.34563">
        <ele>16.60000038147</ele>
        <time>2019-06-02T08:31:09.000Z</time>
      </trkpt>
      <trkpt lat="47.35357" lon="-2.34519">
        <ele>16.60000038147</ele>
        <time>2019-06-02T08:31:15.000Z</time>
      </trkpt>
      <trkpt lat="47.35332" lon="-2.3449">
        <ele>16.60000038147</ele>
        <time>2019-06-02T08:31:20.000Z</time>
      </trkpt>
      <trkpt lat="47.35326" lon="-2.34485">
        <ele>16.60000038147</ele>
        <time>2019-06-02T08:31:21.000Z</time>
      </trkpt>
      <trkpt lat="47.35304" lon="-2.34473">
        <ele>16.60000038147</ele>
        <time>2019-06-02T08:31:25.000Z</time>
      </trkpt>
      <trkpt lat="47.35284" lon="-2.3447">
        <ele>16.60000038147</ele>
        <time>2019-06-02T08:31:28.000Z</time>
      </trkpt>
      <trkpt lat="47.35276" lon="-2.34475">
        <ele>16.60000038147</ele>
        <time>2019-06-02T08:31:29.000Z</time>
      </trkpt>
      <trkpt lat="47.35237" lon="-2.34493">
        <ele>16.60000038147</ele>
        <time>2019-06-02T08:31:35.000Z</time>
      </trkpt>
      <trkpt lat="47.35197" lon="-2.34508">
        <ele>16.60000038147</ele>
        <time>2019-06-02T08:31:41.000Z</time>
      </trkpt>
      <trkpt lat="47.35161" lon="-2.34523">
        <ele>16.60000038147</ele>
        <time>2019-06-02T08:31:47.000Z</time>
      </trkpt>
      <trkpt lat="47.35129" lon="-2.34538">
        <ele>16.60000038147</ele>
        <time>2019-06-02T08:31:53.000Z</time>
      </trkpt>
      <trkpt lat="47.35092" lon="-2.34549">
        <ele>16.60000038147</ele>
        <time>2019-06-02T08:32:01.000Z</time>
      </trkpt>
      <trkpt lat="47.35087" lon="-2.34549">
        <ele>16.60000038147</ele>
        <time>2019-06-02T08:32:03.000Z</time>
      </trkpt>
      <trkpt lat="47.35085" lon="-2.34543">
        <ele>16.60000038147</ele>
        <time>2019-06-02T08:32:05.000Z</time>
      </trkpt>
      <trkpt lat="47.35083" lon="-2.34534">
        <ele>16.60000038147</ele>
        <time>2019-06-02T08:32:09.000Z</time>
      </trkpt>
      <trkpt lat="47.35082" lon="-2.34531">
        <ele>16.60000038147</ele>
        <time>2019-06-02T08:32:10.000Z</time>
      </trkpt>
      <trkpt lat="47.35073" lon="-2.34517">
        <ele>16.60000038147</ele>
        <time>2019-06-02T08:32:14.000Z</time>
      </trkpt>
      <trkpt lat="47.35072" lon="-2.34512">
        <ele>16</ele>
        <time>2019-06-02T08:32:16.000Z</time>
      </trkpt>
      <trkpt lat="47.35071" lon="-2.3451">
        <ele>15.199999809265</ele>
        <time>2019-06-02T08:32:17.000Z</time>
      </trkpt>
      <trkpt lat="47.3507" lon="-2.34508">
        <ele>14.800000190735</ele>
        <time>2019-06-02T08:32:18.000Z</time>
      </trkpt>
      <trkpt lat="47.35069" lon="-2.34507">
        <ele>14.39999961853</ele>
        <time>2019-06-02T08:32:19.000Z</time>
      </trkpt>
      <trkpt lat="47.35064" lon="-2.34499">
        <ele>14.39999961853</ele>
        <time>2019-06-02T08:32:24.000Z</time>
      </trkpt>
      <trkpt lat="47.35063" lon="-2.34498">
        <ele>14</ele>
        <time>2019-06-02T08:32:26.000Z</time>
      </trkpt>
      <trkpt lat="47.35062" lon="-2.34498">
        <ele>13.39999961853</ele>
        <time>2019-06-02T08:32:27.000Z</time>
      </trkpt>
      <trkpt lat="47.35062" lon="-2.34498">
        <ele>13</ele>
        <time>2019-06-02T08:32:28.000Z</time>
      </trkpt>
      <trkpt lat="47.35061" lon="-2.34498">
        <ele>12.60000038147</ele>
        <time>2019-06-02T08:32:29.000Z</time>
      </trkpt>
      <trkpt lat="47.35059" lon="-2.34498">
        <ele>12.199999809265</ele>
        <time>2019-06-02T08:32:30.000Z</time>
      </trkpt>
      <trkpt lat="47.35057" lon="-2.34498">
        <ele>12.199999809265</ele>
        <time>2019-06-02T08:32:31.000Z</time>
      </trkpt>
      <trkpt lat="47.3505" lon="-2.34501">
        <ele>12.199999809265</ele>
        <time>2019-06-02T08:32:34.000Z</time>
      </trkpt>
      <trkpt lat="47.35044" lon="-2.34498">
        <ele>12.199999809265</ele>
        <time>2019-06-02T08:32:36.000Z</time>
      </trkpt>
      <trkpt lat="47.35042" lon="-2.34495">
        <ele>12.199999809265</ele>
        <time>2019-06-02T08:32:37.000Z</time>
      </trkpt>
      <trkpt lat="47.35036" lon="-2.3448">
        <ele>12.199999809265</ele>
        <time>2019-06-02T08:32:40.000Z</time>
      </trkpt>
      <trkpt lat="47.35034" lon="-2.34475">
        <ele>12.199999809265</ele>
        <time>2019-06-02T08:32:41.000Z</time>
      </trkpt>
      <trkpt lat="47.35031" lon="-2.34475">
        <ele>12.199999809265</ele>
        <time>2019-06-02T08:32:42.000Z</time>
      </trkpt>
      <trkpt lat="47.35025" lon="-2.34476">
        <ele>12.199999809265</ele>
        <time>2019-06-02T08:32:44.000Z</time>
      </trkpt>
      <trkpt lat="47.35014" lon="-2.34468">
        <ele>12.199999809265</ele>
        <time>2019-06-02T08:32:48.000Z</time>
      </trkpt>
      <trkpt lat="47.35013" lon="-2.34463">
        <ele>12.60000038147</ele>
        <time>2019-06-02T08:32:49.000Z</time>
      </trkpt>
      <trkpt lat="47.35012" lon="-2.34459">
        <ele>13.199999809265</ele>
        <time>2019-06-02T08:32:50.000Z</time>
      </trkpt>
      <trkpt lat="47.35011" lon="-2.34454">
        <ele>13.60000038147</ele>
        <time>2019-06-02T08:32:51.000Z</time>
      </trkpt>
      <trkpt lat="47.35009" lon="-2.34448">
        <ele>14</ele>
        <time>2019-06-02T08:32:52.000Z</time>
      </trkpt>
      <trkpt lat="47.35008" lon="-2.34443">
        <ele>14.39999961853</ele>
        <time>2019-06-02T08:32:53.000Z</time>
      </trkpt>
      <trkpt lat="47.35006" lon="-2.34438">
        <ele>14.800000190735</ele>
        <time>2019-06-02T08:32:54.000Z</time>
      </trkpt>
      <trkpt lat="47.35005" lon="-2.34433">
        <ele>15.199999809265</ele>
        <time>2019-06-02T08:32:55.000Z</time>
      </trkpt>
      <trkpt lat="47.35004" lon="-2.34428">
        <ele>15.60000038147</ele>
        <time>2019-06-02T08:32:56.000Z</time>
      </trkpt>
      <trkpt lat="47.35003" lon="-2.34423">
        <ele>16.200000762939</ele>
        <time>2019-06-02T08:32:57.000Z</time>
      </trkpt>
      <trkpt lat="47.35002" lon="-2.34418">
        <ele>16.60000038147</ele>
        <time>2019-06-02T08:32:58.000Z</time>
      </trkpt>
      <trkpt lat="47.34997" lon="-2.34399">
        <ele>16.60000038147</ele>
        <time>2019-06-02T08:33:02.000Z</time>
      </trkpt>
      <trkpt lat="47.34992" lon="-2.34388">
        <ele>17</ele>
        <time>2019-06-02T08:33:05.000Z</time>
      </trkpt>
      <trkpt lat="47.3499" lon="-2.34384">
        <ele>17.39999961853</ele>
        <time>2019-06-02T08:33:06.000Z</time>
      </trkpt>
      <trkpt lat="47.34988" lon="-2.3438">
        <ele>17.799999237061</ele>
        <time>2019-06-02T08:33:07.000Z</time>
      </trkpt>
      <trkpt lat="47.34984" lon="-2.34376">
        <ele>18.60000038147</ele>
        <time>2019-06-02T08:33:08.000Z</time>
      </trkpt>
      <trkpt lat="47.34974" lon="-2.34361">
        <ele>18.60000038147</ele>
        <time>2019-06-02T08:33:12.000Z</time>
      </trkpt>
      <trkpt lat="47.34964" lon="-2.34336">
        <ele>19</ele>
        <time>2019-06-02T08:33:18.000Z</time>
      </trkpt>
      <trkpt lat="47.34961" lon="-2.34332">
        <ele>19.39999961853</ele>
        <time>2019-06-02T08:33:19.000Z</time>
      </trkpt>
      <trkpt lat="47.34959" lon="-2.34328">
        <ele>19.799999237061</ele>
        <time>2019-06-02T08:33:20.000Z</time>
      </trkpt>
      <trkpt lat="47.34958" lon="-2.34323">
        <ele>20.200000762939</ele>
        <time>2019-06-02T08:33:21.000Z</time>
      </trkpt>
      <trkpt lat="47.34956" lon="-2.34318">
        <ele>20.60000038147</ele>
        <time>2019-06-02T08:33:22.000Z</time>
      </trkpt>
      <trkpt lat="47.34952" lon="-2.34305">
        <ele>21.200000762939</ele>
        <time>2019-06-02T08:33:25.000Z</time>
      </trkpt>
      <trkpt lat="47.3495" lon="-2.34301">
        <ele>21.60000038147</ele>
        <time>2019-06-02T08:33:26.000Z</time>
      </trkpt>
      <trkpt lat="47.34949" lon="-2.34297">
        <ele>22</ele>
        <time>2019-06-02T08:33:27.000Z</time>
      </trkpt>
      <trkpt lat="47.34948" lon="-2.34292">
        <ele>22.39999961853</ele>
        <time>2019-06-02T08:33:28.000Z</time>
      </trkpt>
      <trkpt lat="47.34946" lon="-2.34288">
        <ele>22.799999237061</ele>
        <time>2019-06-02T08:33:29.000Z</time>
      </trkpt>
      <trkpt lat="47.34942" lon="-2.34276">
        <ele>23.200000762939</ele>
        <time>2019-06-02T08:33:32.000Z</time>
      </trkpt>
      <trkpt lat="47.3494" lon="-2.34272">
        <ele>23.799999237061</ele>
        <time>2019-06-02T08:33:33.000Z</time>
      </trkpt>
      <trkpt lat="47.34939" lon="-2.34268">
        <ele>24.200000762939</ele>
        <time>2019-06-02T08:33:34.000Z</time>
      </trkpt>
      <trkpt lat="47.34937" lon="-2.34265">
        <ele>24.60000038147</ele>
        <time>2019-06-02T08:33:35.000Z</time>
      </trkpt>
      <trkpt lat="47.34935" lon="-2.34261">
        <ele>25</ele>
        <time>2019-06-02T08:33:36.000Z</time>
      </trkpt>
      <trkpt lat="47.34928" lon="-2.34241">
        <ele>25</ele>
        <time>2019-06-02T08:33:41.000Z</time>
      </trkpt>
      <trkpt lat="47.34927" lon="-2.34237">
        <ele>25.39999961853</ele>
        <time>2019-06-02T08:33:42.000Z</time>
      </trkpt>
      <trkpt lat="47.34925" lon="-2.34234">
        <ele>25.799999237061</ele>
        <time>2019-06-02T08:33:43.000Z</time>
      </trkpt>
      <trkpt lat="47.34924" lon="-2.3423">
        <ele>26.200000762939</ele>
        <time>2019-06-02T08:33:44.000Z</time>
      </trkpt>
      <trkpt lat="47.34923" lon="-2.34227">
        <ele>26.60000038147</ele>
        <time>2019-06-02T08:33:45.000Z</time>
      </trkpt>
      <trkpt lat="47.34922" lon="-2.34224">
        <ele>27</ele>
        <time>2019-06-02T08:33:46.000Z</time>
      </trkpt>
      <trkpt lat="47.34922" lon="-2.34221">
        <ele>27</ele>
        <time>2019-06-02T08:33:47.000Z</time>
      </trkpt>
      <trkpt lat="47.3493" lon="-2.34208">
        <ele>27</ele>
        <time>2019-06-02T08:33:51.000Z</time>
      </trkpt>
      <trkpt lat="47.34933" lon="-2.34205">
        <ele>27</ele>
        <time>2019-06-02T08:33:52.000Z</time>
      </trkpt>
      <trkpt lat="47.34941" lon="-2.342">
        <ele>27</ele>
        <time>2019-06-02T08:33:54.000Z</time>
      </trkpt>
      <trkpt lat="47.34949" lon="-2.34195">
        <ele>27</ele>
        <time>2019-06-02T08:33:56.000Z</time>
      </trkpt>
      <trkpt lat="47.34966" lon="-2.34192">
        <ele>27</ele>
        <time>2019-06-02T08:34:00.000Z</time>
      </trkpt>
      <trkpt lat="47.34979" lon="-2.34181">
        <ele>27</ele>
        <time>2019-06-02T08:34:04.000Z</time>
      </trkpt>
      <trkpt lat="47.34982" lon="-2.34177">
        <ele>26.60000038147</ele>
        <time>2019-06-02T08:34:05.000Z</time>
      </trkpt>
      <trkpt lat="47.34984" lon="-2.34172">
        <ele>26.200000762939</ele>
        <time>2019-06-02T08:34:06.000Z</time>
      </trkpt>
      <trkpt lat="47.34987" lon="-2.34167">
        <ele>25.799999237061</ele>
        <time>2019-06-02T08:34:07.000Z</time>
      </trkpt>
      <trkpt lat="47.34989" lon="-2.3416">
        <ele>25.200000762939</ele>
        <time>2019-06-02T08:34:08.000Z</time>
      </trkpt>
      <trkpt lat="47.34992" lon="-2.34154">
        <ele>24.799999237061</ele>
        <time>2019-06-02T08:34:09.000Z</time>
      </trkpt>
      <trkpt lat="47.35004" lon="-2.34141">
        <ele>24.39999961853</ele>
        <time>2019-06-02T08:34:12.000Z</time>
      </trkpt>
      <trkpt lat="47.35008" lon="-2.34137">
        <ele>24</ele>
        <time>2019-06-02T08:34:13.000Z</time>
      </trkpt>
      <trkpt lat="47.35011" lon="-2.34133">
        <ele>23.60000038147</ele>
        <time>2019-06-02T08:34:14.000Z</time>
      </trkpt>
      <trkpt lat="47.35015" lon="-2.3413">
        <ele>23.200000762939</ele>
        <time>2019-06-02T08:34:15.000Z</time>
      </trkpt>
      <trkpt lat="47.35018" lon="-2.34129">
        <ele>22.799999237061</ele>
        <time>2019-06-02T08:34:16.000Z</time>
      </trkpt>
      <trkpt lat="47.35025" lon="-2.34132">
        <ele>22.799999237061</ele>
        <time>2019-06-02T08:34:19.000Z</time>
      </trkpt>
      <trkpt lat="47.35032" lon="-2.34131">
        <ele>22.799999237061</ele>
        <time>2019-06-02T08:34:21.000Z</time>
      </trkpt>
      <trkpt lat="47.35037" lon="-2.3413">
        <ele>22.799999237061</ele>
        <time>2019-06-02T08:34:22.000Z</time>
      </trkpt>
      <trkpt lat="47.35062" lon="-2.34126">
        <ele>22.799999237061</ele>
        <time>2019-06-02T08:34:27.000Z</time>
      </trkpt>
      <trkpt lat="47.35094" lon="-2.34123">
        <ele>22.799999237061</ele>
        <time>2019-06-02T08:34:33.000Z</time>
      </trkpt>
      <trkpt lat="47.35125" lon="-2.34112">
        <ele>22.799999237061</ele>
        <time>2019-06-02T08:34:40.000Z</time>
      </trkpt>
      <trkpt lat="47.35148" lon="-2.34103">
        <ele>22.799999237061</ele>
        <time>2019-06-02T08:34:45.000Z</time>
      </trkpt>
      <trkpt lat="47.35154" lon="-2.34102">
        <ele>22.799999237061</ele>
        <time>2019-06-02T08:34:46.000Z</time>
      </trkpt>
      <trkpt lat="47.35169" lon="-2.34101">
        <ele>22.799999237061</ele>
        <time>2019-06-02T08:34:49.000Z</time>
      </trkpt>
      <trkpt lat="47.35172" lon="-2.34099">
        <ele>22.799999237061</ele>
        <time>2019-06-02T08:34:50.000Z</time>
      </trkpt>
      <trkpt lat="47.35175" lon="-2.34096">
        <ele>22.200000762939</ele>
        <time>2019-06-02T08:34:51.000Z</time>
      </trkpt>
      <trkpt lat="47.35178" lon="-2.3409">
        <ele>21.799999237061</ele>
        <time>2019-06-02T08:34:52.000Z</time>
      </trkpt>
      <trkpt lat="47.35179" lon="-2.34083">
        <ele>21.39999961853</ele>
        <time>2019-06-02T08:34:53.000Z</time>
      </trkpt>
      <trkpt lat="47.3518" lon="-2.34076">
        <ele>21</ele>
        <time>2019-06-02T08:34:54.000Z</time>
      </trkpt>
      <trkpt lat="47.35183" lon="-2.34067">
        <ele>20.39999961853</ele>
        <time>2019-06-02T08:34:55.000Z</time>
      </trkpt>
      <trkpt lat="47.35186" lon="-2.34058">
        <ele>20.39999961853</ele>
        <time>2019-06-02T08:34:56.000Z</time>
      </trkpt>
      <trkpt lat="47.35189" lon="-2.34049">
        <ele>20</ele>
        <time>2019-06-02T08:34:57.000Z</time>
      </trkpt>
      <trkpt lat="47.35193" lon="-2.3404">
        <ele>19.60000038147</ele>
        <time>2019-06-02T08:34:58.000Z</time>
      </trkpt>
      <trkpt lat="47.35197" lon="-2.34031">
        <ele>19.200000762939</ele>
        <time>2019-06-02T08:34:59.000Z</time>
      </trkpt>
      <trkpt lat="47.35201" lon="-2.34022">
        <ele>18.799999237061</ele>
        <time>2019-06-02T08:35:00.000Z</time>
      </trkpt>
      <trkpt lat="47.35206" lon="-2.34015">
        <ele>18.39999961853</ele>
        <time>2019-06-02T08:35:01.000Z</time>
      </trkpt>
      <trkpt lat="47.35212" lon="-2.34009">
        <ele>18</ele>
        <time>2019-06-02T08:35:02.000Z</time>
      </trkpt>
      <trkpt lat="47.35218" lon="-2.34006">
        <ele>17.39999961853</ele>
        <time>2019-06-02T08:35:03.000Z</time>
      </trkpt>
      <trkpt lat="47.35225" lon="-2.34003">
        <ele>17</ele>
        <time>2019-06-02T08:35:04.000Z</time>
      </trkpt>
      <trkpt lat="47.35232" lon="-2.34001">
        <ele>16.60000038147</ele>
        <time>2019-06-02T08:35:05.000Z</time>
      </trkpt>
      <trkpt lat="47.35238" lon="-2.33998">
        <ele>16</ele>
        <time>2019-06-02T08:35:06.000Z</time>
      </trkpt>
      <trkpt lat="47.35256" lon="-2.33987">
        <ele>16</ele>
        <time>2019-06-02T08:35:09.000Z</time>
      </trkpt>
      <trkpt lat="47.3526" lon="-2.33982">
        <ele>15</ele>
        <time>2019-06-02T08:35:10.000Z</time>
      </trkpt>
      <trkpt lat="47.35262" lon="-2.33976">
        <ele>14.39999961853</ele>
        <time>2019-06-02T08:35:11.000Z</time>
      </trkpt>
      <trkpt lat="47.35263" lon="-2.33972">
        <ele>14</ele>
        <time>2019-06-02T08:35:12.000Z</time>
      </trkpt>
      <trkpt lat="47.35266" lon="-2.33969">
        <ele>13.39999961853</ele>
        <time>2019-06-02T08:35:13.000Z</time>
      </trkpt>
      <trkpt lat="47.35284" lon="-2.33968">
        <ele>13.39999961853</ele>
        <time>2019-06-02T08:35:17.000Z</time>
      </trkpt>
      <trkpt lat="47.35316" lon="-2.33972">
        <ele>13.39999961853</ele>
        <time>2019-06-02T08:35:23.000Z</time>
      </trkpt>
      <trkpt lat="47.35355" lon="-2.33979">
        <ele>13.39999961853</ele>
        <time>2019-06-02T08:35:30.000Z</time>
      </trkpt>
      <trkpt lat="47.35396" lon="-2.33985">
        <ele>13.39999961853</ele>
        <time>2019-06-02T08:35:37.000Z</time>
      </trkpt>
      <trkpt lat="47.35419" lon="-2.33988">
        <ele>13.39999961853</ele>
        <time>2019-06-02T08:35:41.000Z</time>
      </trkpt>
      <trkpt lat="47.35425" lon="-2.33986">
        <ele>13.39999961853</ele>
        <time>2019-06-02T08:35:42.000Z</time>
      </trkpt>
      <trkpt lat="47.35431" lon="-2.33974">
        <ele>13.39999961853</ele>
        <time>2019-06-02T08:35:44.000Z</time>
      </trkpt>
      <trkpt lat="47.35436" lon="-2.3395">
        <ele>13.800000190735</ele>
        <time>2019-06-02T08:35:47.000Z</time>
      </trkpt>
      <trkpt lat="47.35438" lon="-2.33942">
        <ele>14.199999809265</ele>
        <time>2019-06-02T08:35:48.000Z</time>
      </trkpt>
      <trkpt lat="47.3544" lon="-2.33934">
        <ele>14.800000190735</ele>
        <time>2019-06-02T08:35:49.000Z</time>
      </trkpt>
      <trkpt lat="47.35442" lon="-2.33925">
        <ele>15.199999809265</ele>
        <time>2019-06-02T08:35:50.000Z</time>
      </trkpt>
      <trkpt lat="47.35444" lon="-2.33917">
        <ele>15.60000038147</ele>
        <time>2019-06-02T08:35:51.000Z</time>
      </trkpt>
      <trkpt lat="47.35449" lon="-2.33892">
        <ele>15.60000038147</ele>
        <time>2019-06-02T08:35:54.000Z</time>
      </trkpt>
      <trkpt lat="47.35452" lon="-2.33884">
        <ele>15.60000038147</ele>
        <time>2019-06-02T08:35:55.000Z</time>
      </trkpt>
      <trkpt lat="47.35463" lon="-2.33851">
        <ele>15.60000038147</ele>
        <time>2019-06-02T08:35:59.000Z</time>
      </trkpt>
      <trkpt lat="47.35485" lon="-2.33792">
        <ele>15.60000038147</ele>
        <time>2019-06-02T08:36:06.000Z</time>
      </trkpt>
      <trkpt lat="47.35496" lon="-2.33768">
        <ele>15.60000038147</ele>
        <time>2019-06-02T08:36:09.000Z</time>
      </trkpt>
      <trkpt lat="47.35501" lon="-2.33749">
        <ele>15.60000038147</ele>
        <time>2019-06-02T08:36:11.000Z</time>
      </trkpt>
      <trkpt lat="47.35511" lon="-2.33688">
        <ele>15.60000038147</ele>
        <time>2019-06-02T08:36:17.000Z</time>
      </trkpt>
      <trkpt lat="47.35513" lon="-2.33678">
        <ele>15.60000038147</ele>
        <time>2019-06-02T08:36:18.000Z</time>
      </trkpt>
      <trkpt lat="47.35532" lon="-2.33621">
        <ele>15.60000038147</ele>
        <time>2019-06-02T08:36:24.000Z</time>
      </trkpt>
      <trkpt lat="47.3554" lon="-2.33604">
        <ele>15.60000038147</ele>
        <time>2019-06-02T08:36:26.000Z</time>
      </trkpt>
      <trkpt lat="47.3555" lon="-2.33592">
        <ele>15.60000038147</ele>
        <time>2019-06-02T08:36:28.000Z</time>
      </trkpt>
      <trkpt lat="47.35576" lon="-2.33582">
        <ele>15.60000038147</ele>
        <time>2019-06-02T08:36:32.000Z</time>
      </trkpt>
      <trkpt lat="47.3562" lon="-2.3357">
        <ele>15.60000038147</ele>
        <time>2019-06-02T08:36:39.000Z</time>
      </trkpt>
      <trkpt lat="47.35673" lon="-2.33556">
        <ele>15.60000038147</ele>
        <time>2019-06-02T08:36:47.000Z</time>
      </trkpt>
      <trkpt lat="47.35698" lon="-2.33551">
        <ele>15.60000038147</ele>
        <time>2019-06-02T08:36:51.000Z</time>
      </trkpt>
      <trkpt lat="47.35705" lon="-2.3355">
        <ele>15.60000038147</ele>
        <time>2019-06-02T08:36:52.000Z</time>
      </trkpt>
      <trkpt lat="47.35751" lon="-2.33539">
        <ele>15.60000038147</ele>
        <time>2019-06-02T08:36:59.000Z</time>
      </trkpt>
      <trkpt lat="47.35789" lon="-2.3353">
        <ele>15.60000038147</ele>
        <time>2019-06-02T08:37:05.000Z</time>
      </trkpt>
      <trkpt lat="47.35821" lon="-2.3352">
        <ele>15.60000038147</ele>
        <time>2019-06-02T08:37:10.000Z</time>
      </trkpt>
      <trkpt lat="47.35862" lon="-2.33511">
        <ele>15.199999809265</ele>
        <time>2019-06-02T08:37:16.000Z</time>
      </trkpt>
      <trkpt lat="47.35869" lon="-2.33509">
        <ele>14.800000190735</ele>
        <time>2019-06-02T08:37:17.000Z</time>
      </trkpt>
      <trkpt lat="47.35876" lon="-2.33508">
        <ele>14.39999961853</ele>
        <time>2019-06-02T08:37:18.000Z</time>
      </trkpt>
      <trkpt lat="47.35883" lon="-2.33506">
        <ele>14</ele>
        <time>2019-06-02T08:37:19.000Z</time>
      </trkpt>
      <trkpt lat="47.3589" lon="-2.33505">
        <ele>13.60000038147</ele>
        <time>2019-06-02T08:37:20.000Z</time>
      </trkpt>
      <trkpt lat="47.35904" lon="-2.33502">
        <ele>13.60000038147</ele>
        <time>2019-06-02T08:37:22.000Z</time>
      </trkpt>
      <trkpt lat="47.35954" lon="-2.33489">
        <ele>13.60000038147</ele>
        <time>2019-06-02T08:37:29.000Z</time>
      </trkpt>
      <trkpt lat="47.36004" lon="-2.33476">
        <ele>13.60000038147</ele>
        <time>2019-06-02T08:37:36.000Z</time>
      </trkpt>
      <trkpt lat="47.36036" lon="-2.33467">
        <ele>13.60000038147</ele>
        <time>2019-06-02T08:37:42.000Z</time>
      </trkpt>
      <trkpt lat="47.36044" lon="-2.33449">
        <ele>13.60000038147</ele>
        <time>2019-06-02T08:37:45.000Z</time>
      </trkpt>
      <trkpt lat="47.36048" lon="-2.33411">
        <ele>13.60000038147</ele>
        <time>2019-06-02T08:37:49.000Z</time>
      </trkpt>
      <trkpt lat="47.36049" lon="-2.33401">
        <ele>13.60000038147</ele>
        <time>2019-06-02T08:37:50.000Z</time>
      </trkpt>
      <trkpt lat="47.36055" lon="-2.33348">
        <ele>13.60000038147</ele>
        <time>2019-06-02T08:37:55.000Z</time>
      </trkpt>
      <trkpt lat="47.36063" lon="-2.33278">
        <ele>13.60000038147</ele>
        <time>2019-06-02T08:38:02.000Z</time>
      </trkpt>
      <trkpt lat="47.36068" lon="-2.33238">
        <ele>13.60000038147</ele>
        <time>2019-06-02T08:38:07.000Z</time>
      </trkpt>
      <trkpt lat="47.36073" lon="-2.33188">
        <ele>13.60000038147</ele>
        <time>2019-06-02T08:38:13.000Z</time>
      </trkpt>
      <trkpt lat="47.36076" lon="-2.33156">
        <ele>14</ele>
        <time>2019-06-02T08:38:17.000Z</time>
      </trkpt>
      <trkpt lat="47.36077" lon="-2.33147">
        <ele>14.39999961853</ele>
        <time>2019-06-02T08:38:18.000Z</time>
      </trkpt>
      <trkpt lat="47.36078" lon="-2.33138">
        <ele>14.800000190735</ele>
        <time>2019-06-02T08:38:19.000Z</time>
      </trkpt>
      <trkpt lat="47.36078" lon="-2.33128">
        <ele>15.199999809265</ele>
        <time>2019-06-02T08:38:20.000Z</time>
      </trkpt>
      <trkpt lat="47.3608" lon="-2.33119">
        <ele>15.60000038147</ele>
        <time>2019-06-02T08:38:21.000Z</time>
      </trkpt>
      <trkpt lat="47.36082" lon="-2.331">
        <ele>15.60000038147</ele>
        <time>2019-06-02T08:38:23.000Z</time>
      </trkpt>
      <trkpt lat="47.36089" lon="-2.3303">
        <ele>15.60000038147</ele>
        <time>2019-06-02T08:38:30.000Z</time>
      </trkpt>
      <trkpt lat="47.36095" lon="-2.32963">
        <ele>15.60000038147</ele>
        <time>2019-06-02T08:38:37.000Z</time>
      </trkpt>
      <trkpt lat="47.36096" lon="-2.32953">
        <ele>16</ele>
        <time>2019-06-02T08:38:38.000Z</time>
      </trkpt>
      <trkpt lat="47.36097" lon="-2.32944">
        <ele>16.39999961853</ele>
        <time>2019-06-02T08:38:39.000Z</time>
      </trkpt>
      <trkpt lat="47.36098" lon="-2.32935">
        <ele>16.799999237061</ele>
        <time>2019-06-02T08:38:40.000Z</time>
      </trkpt>
      <trkpt lat="47.36099" lon="-2.32926">
        <ele>17.200000762939</ele>
        <time>2019-06-02T08:38:41.000Z</time>
      </trkpt>
      <trkpt lat="47.361" lon="-2.32916">
        <ele>17.60000038147</ele>
        <time>2019-06-02T08:38:42.000Z</time>
      </trkpt>
      <trkpt lat="47.36101" lon="-2.32899">
        <ele>17.60000038147</ele>
        <time>2019-06-02T08:38:44.000Z</time>
      </trkpt>
      <trkpt lat="47.36105" lon="-2.32884">
        <ele>17.200000762939</ele>
        <time>2019-06-02T08:38:46.000Z</time>
      </trkpt>
      <trkpt lat="47.36109" lon="-2.32879">
        <ele>16.799999237061</ele>
        <time>2019-06-02T08:38:47.000Z</time>
      </trkpt>
      <trkpt lat="47.36114" lon="-2.32877">
        <ele>16.39999961853</ele>
        <time>2019-06-02T08:38:48.000Z</time>
      </trkpt>
      <trkpt lat="47.36119" lon="-2.32877">
        <ele>16</ele>
        <time>2019-06-02T08:38:49.000Z</time>
      </trkpt>
      <trkpt lat="47.36125" lon="-2.32879">
        <ele>15.60000038147</ele>
        <time>2019-06-02T08:38:50.000Z</time>
      </trkpt>
      <trkpt lat="47.36131" lon="-2.32882">
        <ele>15.60000038147</ele>
        <time>2019-06-02T08:38:51.000Z</time>
      </trkpt>
      <trkpt lat="47.3616" lon="-2.32892">
        <ele>15.60000038147</ele>
        <time>2019-06-02T08:38:56.000Z</time>
      </trkpt>
      <trkpt lat="47.36197" lon="-2.32901">
        <ele>15.60000038147</ele>
        <time>2019-06-02T08:39:02.000Z</time>
      </trkpt>
      <trkpt lat="47.36239" lon="-2.32913">
        <ele>15.60000038147</ele>
        <time>2019-06-02T08:39:09.000Z</time>
      </trkpt>
      <trkpt lat="47.36274" lon="-2.32925">
        <ele>15.60000038147</ele>
        <time>2019-06-02T08:39:15.000Z</time>
      </trkpt>
      <trkpt lat="47.36291" lon="-2.3293">
        <ele>16</ele>
        <time>2019-06-02T08:39:18.000Z</time>
      </trkpt>
      <trkpt lat="47.36297" lon="-2.32932">
        <ele>16.39999961853</ele>
        <time>2019-06-02T08:39:19.000Z</time>
      </trkpt>
      <trkpt lat="47.36303" lon="-2.32934">
        <ele>16.799999237061</ele>
        <time>2019-06-02T08:39:20.000Z</time>
      </trkpt>
      <trkpt lat="47.36308" lon="-2.32936">
        <ele>17.39999961853</ele>
        <time>2019-06-02T08:39:21.000Z</time>
      </trkpt>
      <trkpt lat="47.36314" lon="-2.32938">
        <ele>17.799999237061</ele>
        <time>2019-06-02T08:39:22.000Z</time>
      </trkpt>
      <trkpt lat="47.36326" lon="-2.32941">
        <ele>17.799999237061</ele>
        <time>2019-06-02T08:39:24.000Z</time>
      </trkpt>
      <trkpt lat="47.36341" lon="-2.32947">
        <ele>17.799999237061</ele>
        <time>2019-06-02T08:39:27.000Z</time>
      </trkpt>
      <trkpt lat="47.36364" lon="-2.32953">
        <ele>17.799999237061</ele>
        <time>2019-06-02T08:39:32.000Z</time>
      </trkpt>
      <trkpt lat="47.36375" lon="-2.32951">
        <ele>17.799999237061</ele>
        <time>2019-06-02T08:39:35.000Z</time>
      </trkpt>
      <trkpt lat="47.36376" lon="-2.32945">
        <ele>17.799999237061</ele>
        <time>2019-06-02T08:39:36.000Z</time>
      </trkpt>
      <trkpt lat="47.36378" lon="-2.32919">
        <ele>17.799999237061</ele>
        <time>2019-06-02T08:39:40.000Z</time>
      </trkpt>
      <trkpt lat="47.36381" lon="-2.32886">
        <ele>17.799999237061</ele>
        <time>2019-06-02T08:39:44.000Z</time>
      </trkpt>
      <trkpt lat="47.36381" lon="-2.32878">
        <ele>17.799999237061</ele>
        <time>2019-06-02T08:39:45.000Z</time>
      </trkpt>
      <trkpt lat="47.36384" lon="-2.32834">
        <ele>17.799999237061</ele>
        <time>2019-06-02T08:39:50.000Z</time>
      </trkpt>
      <trkpt lat="47.36388" lon="-2.3278">
        <ele>17.799999237061</ele>
        <time>2019-06-02T08:39:56.000Z</time>
      </trkpt>
      <trkpt lat="47.36399" lon="-2.32723">
        <ele>17.799999237061</ele>
        <time>2019-06-02T08:40:02.000Z</time>
      </trkpt>
      <trkpt lat="47.36414" lon="-2.32649">
        <ele>17.799999237061</ele>
        <time>2019-06-02T08:40:10.000Z</time>
      </trkpt>
      <trkpt lat="47.36421" lon="-2.32598">
        <ele>17.799999237061</ele>
        <time>2019-06-02T08:40:16.000Z</time>
      </trkpt>
      <trkpt lat="47.3643" lon="-2.32544">
        <ele>17.799999237061</ele>
        <time>2019-06-02T08:40:22.000Z</time>
      </trkpt>
      <trkpt lat="47.36432" lon="-2.32535">
        <ele>17.39999961853</ele>
        <time>2019-06-02T08:40:23.000Z</time>
      </trkpt>
      <trkpt lat="47.36434" lon="-2.32526">
        <ele>16.60000038147</ele>
        <time>2019-06-02T08:40:24.000Z</time>
      </trkpt>
      <trkpt lat="47.36436" lon="-2.32516">
        <ele>16.200000762939</ele>
        <time>2019-06-02T08:40:25.000Z</time>
      </trkpt>
      <trkpt lat="47.36438" lon="-2.32507">
        <ele>15.60000038147</ele>
        <time>2019-06-02T08:40:26.000Z</time>
      </trkpt>
      <trkpt lat="47.36443" lon="-2.32496">
        <ele>15.60000038147</ele>
        <time>2019-06-02T08:40:27.000Z</time>
      </trkpt>
      <trkpt lat="47.36451" lon="-2.32475">
        <ele>15.60000038147</ele>
        <time>2019-06-02T08:40:29.000Z</time>
      </trkpt>
      <trkpt lat="47.3648" lon="-2.32408">
        <ele>15.60000038147</ele>
        <time>2019-06-02T08:40:36.000Z</time>
      </trkpt>
      <trkpt lat="47.36485" lon="-2.32398">
        <ele>15.60000038147</ele>
        <time>2019-06-02T08:40:37.000Z</time>
      </trkpt>
      <trkpt lat="47.36497" lon="-2.32371">
        <ele>15.199999809265</ele>
        <time>2019-06-02T08:40:40.000Z</time>
      </trkpt>
      <trkpt lat="47.36501" lon="-2.32362">
        <ele>14.800000190735</ele>
        <time>2019-06-02T08:40:41.000Z</time>
      </trkpt>
      <trkpt lat="47.36506" lon="-2.32353">
        <ele>14.39999961853</ele>
        <time>2019-06-02T08:40:42.000Z</time>
      </trkpt>
      <trkpt lat="47.3651" lon="-2.32343">
        <ele>14</ele>
        <time>2019-06-02T08:40:43.000Z</time>
      </trkpt>
      <trkpt lat="47.36515" lon="-2.32334">
        <ele>13.60000038147</ele>
        <time>2019-06-02T08:40:44.000Z</time>
      </trkpt>
      <trkpt lat="47.36539" lon="-2.32281">
        <ele>13.60000038147</ele>
        <time>2019-06-02T08:40:50.000Z</time>
      </trkpt>
      <trkpt lat="47.36552" lon="-2.32256">
        <ele>13.199999809265</ele>
        <time>2019-06-02T08:40:53.000Z</time>
      </trkpt>
      <trkpt lat="47.36554" lon="-2.32248">
        <ele>12.800000190735</ele>
        <time>2019-06-02T08:40:54.000Z</time>
      </trkpt>
      <trkpt lat="47.36553" lon="-2.32241">
        <ele>12.39999961853</ele>
        <time>2019-06-02T08:40:55.000Z</time>
      </trkpt>
      <trkpt lat="47.36552" lon="-2.32235">
        <ele>12</ele>
        <time>2019-06-02T08:40:56.000Z</time>
      </trkpt>
      <trkpt lat="47.36549" lon="-2.3223">
        <ele>11.60000038147</ele>
        <time>2019-06-02T08:40:57.000Z</time>
      </trkpt>
      <trkpt lat="47.36545" lon="-2.32225">
        <ele>11.60000038147</ele>
        <time>2019-06-02T08:40:58.000Z</time>
      </trkpt>
      <trkpt lat="47.36513" lon="-2.32183">
        <ele>11.60000038147</ele>
        <time>2019-06-02T08:41:05.000Z</time>
      </trkpt>
      <trkpt lat="47.36473" lon="-2.32135">
        <ele>11.60000038147</ele>
        <time>2019-06-02T08:41:13.000Z</time>
      </trkpt>
      <trkpt lat="47.36454" lon="-2.32113">
        <ele>11.60000038147</ele>
        <time>2019-06-02T08:41:18.000Z</time>
      </trkpt>
      <trkpt lat="47.36448" lon="-2.32107">
        <ele>12</ele>
        <time>2019-06-02T08:41:19.000Z</time>
      </trkpt>
      <trkpt lat="47.36443" lon="-2.32102">
        <ele>12.39999961853</ele>
        <time>2019-06-02T08:41:20.000Z</time>
      </trkpt>
      <trkpt lat="47.36437" lon="-2.32096">
        <ele>12.800000190735</ele>
        <time>2019-06-02T08:41:21.000Z</time>
      </trkpt>
      <trkpt lat="47.36432" lon="-2.3209">
        <ele>13.199999809265</ele>
        <time>2019-06-02T08:41:22.000Z</time>
      </trkpt>
      <trkpt lat="47.36426" lon="-2.32084">
        <ele>13.60000038147</ele>
        <time>2019-06-02T08:41:23.000Z</time>
      </trkpt>
      <trkpt lat="47.36411" lon="-2.32066">
        <ele>13.60000038147</ele>
        <time>2019-06-02T08:41:26.000Z</time>
      </trkpt>
      <trkpt lat="47.3638" lon="-2.32031">
        <ele>13.60000038147</ele>
        <time>2019-06-02T08:41:32.000Z</time>
      </trkpt>
      <trkpt lat="47.36349" lon="-2.31999">
        <ele>13.60000038147</ele>
        <time>2019-06-02T08:41:38.000Z</time>
      </trkpt>
      <trkpt lat="47.36344" lon="-2.31995">
        <ele>13.60000038147</ele>
        <time>2019-06-02T08:41:39.000Z</time>
      </trkpt>
      <trkpt lat="47.36335" lon="-2.31986">
        <ele>13.60000038147</ele>
        <time>2019-06-02T08:41:41.000Z</time>
      </trkpt>
      <trkpt lat="47.36325" lon="-2.31978">
        <ele>13.60000038147</ele>
        <time>2019-06-02T08:41:43.000Z</time>
      </trkpt>
      <trkpt lat="47.36294" lon="-2.31949">
        <ele>13.60000038147</ele>
        <time>2019-06-02T08:41:49.000Z</time>
      </trkpt>
      <trkpt lat="47.36289" lon="-2.31943">
        <ele>13.60000038147</ele>
        <time>2019-06-02T08:41:50.000Z</time>
      </trkpt>
      <trkpt lat="47.36265" lon="-2.31924">
        <ele>13.60000038147</ele>
        <time>2019-06-02T08:41:54.000Z</time>
      </trkpt>
      <trkpt lat="47.36255" lon="-2.31913">
        <ele>13.60000038147</ele>
        <time>2019-06-02T08:41:56.000Z</time>
      </trkpt>
      <trkpt lat="47.36241" lon="-2.31898">
        <ele>13.60000038147</ele>
        <time>2019-06-02T08:41:59.000Z</time>
      </trkpt>
      <trkpt lat="47.36237" lon="-2.31894">
        <ele>13.199999809265</ele>
        <time>2019-06-02T08:42:00.000Z</time>
      </trkpt>
      <trkpt lat="47.36235" lon="-2.31891">
        <ele>12.800000190735</ele>
        <time>2019-06-02T08:42:01.000Z</time>
      </trkpt>
      <trkpt lat="47.36234" lon="-2.31889">
        <ele>12.39999961853</ele>
        <time>2019-06-02T08:42:02.000Z</time>
      </trkpt>
      <trkpt lat="47.36233" lon="-2.31887">
        <ele>12</ele>
        <time>2019-06-02T08:42:03.000Z</time>
      </trkpt>
      <trkpt lat="47.36233" lon="-2.31886">
        <ele>11.60000038147</ele>
        <time>2019-06-02T08:42:04.000Z</time>
      </trkpt>
      <trkpt lat="47.36232" lon="-2.31883">
        <ele>11.60000038147</ele>
        <time>2019-06-02T08:42:06.000Z</time>
      </trkpt>
      <trkpt lat="47.36232" lon="-2.31881">
        <ele>11.60000038147</ele>
        <time>2019-06-02T08:42:07.000Z</time>
      </trkpt>
      <trkpt lat="47.36228" lon="-2.31864">
        <ele>11.60000038147</ele>
        <time>2019-06-02T08:42:13.000Z</time>
      </trkpt>
      <trkpt lat="47.36224" lon="-2.31836">
        <ele>11.60000038147</ele>
        <time>2019-06-02T08:42:18.000Z</time>
      </trkpt>
      <trkpt lat="47.36217" lon="-2.31796">
        <ele>11.60000038147</ele>
        <time>2019-06-02T08:42:24.000Z</time>
      </trkpt>
      <trkpt lat="47.36216" lon="-2.31787">
        <ele>11.60000038147</ele>
        <time>2019-06-02T08:42:25.000Z</time>
      </trkpt>
      <trkpt lat="47.36207" lon="-2.31725">
        <ele>11.60000038147</ele>
        <time>2019-06-02T08:42:32.000Z</time>
      </trkpt>
      <trkpt lat="47.36202" lon="-2.31682">
        <ele>11.60000038147</ele>
        <time>2019-06-02T08:42:37.000Z</time>
      </trkpt>
      <trkpt lat="47.362" lon="-2.31675">
        <ele>11.60000038147</ele>
        <time>2019-06-02T08:42:38.000Z</time>
      </trkpt>
      <trkpt lat="47.36194" lon="-2.31636">
        <ele>11.60000038147</ele>
        <time>2019-06-02T08:42:43.000Z</time>
      </trkpt>
      <trkpt lat="47.36186" lon="-2.31577">
        <ele>11.60000038147</ele>
        <time>2019-06-02T08:42:50.000Z</time>
      </trkpt>
      <trkpt lat="47.36179" lon="-2.31518">
        <ele>11.60000038147</ele>
        <time>2019-06-02T08:42:58.000Z</time>
      </trkpt>
      <trkpt lat="47.36171" lon="-2.31474">
        <ele>11.60000038147</ele>
        <time>2019-06-02T08:43:05.000Z</time>
      </trkpt>
      <trkpt lat="47.36159" lon="-2.31442">
        <ele>11.60000038147</ele>
        <time>2019-06-02T08:43:11.000Z</time>
      </trkpt>
      <trkpt lat="47.3614" lon="-2.31405">
        <ele>11.60000038147</ele>
        <time>2019-06-02T08:43:19.000Z</time>
      </trkpt>
      <trkpt lat="47.36125" lon="-2.31377">
        <ele>11.60000038147</ele>
        <time>2019-06-02T08:43:26.000Z</time>
      </trkpt>
      <trkpt lat="47.36111" lon="-2.31353">
        <ele>11.60000038147</ele>
        <time>2019-06-02T08:43:33.000Z</time>
      </trkpt>
      <trkpt lat="47.36098" lon="-2.31334">
        <ele>11.60000038147</ele>
        <time>2019-06-02T08:43:40.000Z</time>
      </trkpt>
      <trkpt lat="47.36093" lon="-2.31314">
        <ele>11.60000038147</ele>
        <time>2019-06-02T08:43:45.000Z</time>
      </trkpt>
      <trkpt lat="47.36094" lon="-2.3128">
        <ele>11.60000038147</ele>
        <time>2019-06-02T08:43:51.000Z</time>
      </trkpt>
      <trkpt lat="47.36093" lon="-2.31269">
        <ele>11.199999809265</ele>
        <time>2019-06-02T08:43:53.000Z</time>
      </trkpt>
      <trkpt lat="47.36093" lon="-2.31263">
        <ele>10.800000190735</ele>
        <time>2019-06-02T08:43:54.000Z</time>
      </trkpt>
      <trkpt lat="47.36092" lon="-2.31258">
        <ele>10.39999961853</ele>
        <time>2019-06-02T08:43:55.000Z</time>
      </trkpt>
      <trkpt lat="47.36092" lon="-2.31254">
        <ele>10</ele>
        <time>2019-06-02T08:43:56.000Z</time>
      </trkpt>
      <trkpt lat="47.36092" lon="-2.3125">
        <ele>9.6000003814697</ele>
        <time>2019-06-02T08:43:57.000Z</time>
      </trkpt>
      <trkpt lat="47.36091" lon="-2.31241">
        <ele>9.6000003814697</ele>
        <time>2019-06-02T08:43:59.000Z</time>
      </trkpt>
      <trkpt lat="47.36087" lon="-2.31227">
        <ele>9.6000003814697</ele>
        <time>2019-06-02T08:44:05.000Z</time>
      </trkpt>
      <trkpt lat="47.36084" lon="-2.31227">
        <ele>7.4000000953674</ele>
        <time>2019-06-02T08:55:41.000Z</time>
      </trkpt>
      <trkpt lat="47.36086" lon="-2.31233">
        <ele>7.4000000953674</ele>
        <time>2019-06-02T08:55:43.000Z</time>
      </trkpt>
      <trkpt lat="47.36092" lon="-2.31247">
        <ele>7.4000000953674</ele>
        <time>2019-06-02T08:55:47.000Z</time>
      </trkpt>
      <trkpt lat="47.36092" lon="-2.31265">
        <ele>7.4000000953674</ele>
        <time>2019-06-02T08:55:51.000Z</time>
      </trkpt>
      <trkpt lat="47.36092" lon="-2.31269">
        <ele>7.4000000953674</ele>
        <time>2019-06-02T08:55:52.000Z</time>
      </trkpt>
      <trkpt lat="47.36093" lon="-2.31296">
        <ele>7.4000000953674</ele>
        <time>2019-06-02T08:55:57.000Z</time>
      </trkpt>
      <trkpt lat="47.36092" lon="-2.31315">
        <ele>7.8000001907349</ele>
        <time>2019-06-02T08:56:01.000Z</time>
      </trkpt>
      <trkpt lat="47.36092" lon="-2.31319">
        <ele>8.3999996185303</ele>
        <time>2019-06-02T08:56:02.000Z</time>
      </trkpt>
      <trkpt lat="47.36092" lon="-2.31322">
        <ele>8.8000001907349</ele>
        <time>2019-06-02T08:56:03.000Z</time>
      </trkpt>
      <trkpt lat="47.36092" lon="-2.31327">
        <ele>9.1999998092651</ele>
        <time>2019-06-02T08:56:04.000Z</time>
      </trkpt>
      <trkpt lat="47.36093" lon="-2.31332">
        <ele>9.6000003814697</ele>
        <time>2019-06-02T08:56:05.000Z</time>
      </trkpt>
      <trkpt lat="47.3609" lon="-2.31341">
        <ele>9.6000003814697</ele>
        <time>2019-06-02T08:56:07.000Z</time>
      </trkpt>
      <trkpt lat="47.36086" lon="-2.31344">
        <ele>9.6000003814697</ele>
        <time>2019-06-02T08:56:08.000Z</time>
      </trkpt>
      <trkpt lat="47.36073" lon="-2.31347">
        <ele>9.6000003814697</ele>
        <time>2019-06-02T08:56:12.000Z</time>
      </trkpt>
      <trkpt lat="47.36058" lon="-2.31352">
        <ele>9.6000003814697</ele>
        <time>2019-06-02T08:56:16.000Z</time>
      </trkpt>
      <trkpt lat="47.36054" lon="-2.31352">
        <ele>9.6000003814697</ele>
        <time>2019-06-02T08:56:17.000Z</time>
      </trkpt>
      <trkpt lat="47.36029" lon="-2.31352">
        <ele>9.6000003814697</ele>
        <time>2019-06-02T08:56:22.000Z</time>
      </trkpt>
      <trkpt lat="47.35999" lon="-2.31364">
        <ele>9.6000003814697</ele>
        <time>2019-06-02T08:56:28.000Z</time>
      </trkpt>
      <trkpt lat="47.35968" lon="-2.31375">
        <ele>9.6000003814697</ele>
        <time>2019-06-02T08:56:35.000Z</time>
      </trkpt>
      <trkpt lat="47.35959" lon="-2.31375">
        <ele>9.6000003814697</ele>
        <time>2019-06-02T08:56:37.000Z</time>
      </trkpt>
      <trkpt lat="47.35951" lon="-2.31368">
        <ele>9.6000003814697</ele>
        <time>2019-06-02T08:56:39.000Z</time>
      </trkpt>
      <trkpt lat="47.35934" lon="-2.31347">
        <ele>9.6000003814697</ele>
        <time>2019-06-02T08:56:45.000Z</time>
      </trkpt>
      <trkpt lat="47.35922" lon="-2.31335">
        <ele>9.6000003814697</ele>
        <time>2019-06-02T08:56:50.000Z</time>
      </trkpt>
      <trkpt lat="47.35918" lon="-2.31333">
        <ele>9.6000003814697</ele>
        <time>2019-06-02T08:56:54.000Z</time>
      </trkpt>
      <trkpt lat="47.35917" lon="-2.31333">
        <ele>9.6000003814697</ele>
        <time>2019-06-02T08:56:57.000Z</time>
      </trkpt>
      <trkpt lat="47.3591" lon="-2.31311">
        <ele>9.6000003814697</ele>
        <time>2019-06-02T08:57:47.000Z</time>
      </trkpt>
      <trkpt lat="47.35909" lon="-2.31311">
        <ele>9.6000003814697</ele>
        <time>2019-06-02T08:57:48.000Z</time>
      </trkpt>
      <trkpt lat="47.35908" lon="-2.31311">
        <ele>9.6000003814697</ele>
        <time>2019-06-02T08:57:49.000Z</time>
      </trkpt>
      <trkpt lat="47.35907" lon="-2.31312">
        <ele>9.6000003814697</ele>
        <time>2019-06-02T08:57:52.000Z</time>
      </trkpt>
      <trkpt lat="47.35904" lon="-2.31314">
        <ele>9.6000003814697</ele>
        <time>2019-06-02T08:58:05.000Z</time>
      </trkpt>
      <trkpt lat="47.35898" lon="-2.31318">
        <ele>9.6000003814697</ele>
        <time>2019-06-02T08:58:08.000Z</time>
      </trkpt>
      <trkpt lat="47.3588" lon="-2.3133">
        <ele>9.6000003814697</ele>
        <time>2019-06-02T08:58:14.000Z</time>
      </trkpt>
      <trkpt lat="47.35858" lon="-2.31345">
        <ele>9.6000003814697</ele>
        <time>2019-06-02T08:58:20.000Z</time>
      </trkpt>
      <trkpt lat="47.35829" lon="-2.31364">
        <ele>9.6000003814697</ele>
        <time>2019-06-02T08:58:26.000Z</time>
      </trkpt>
      <trkpt lat="47.35824" lon="-2.31366">
        <ele>9.6000003814697</ele>
        <time>2019-06-02T08:58:27.000Z</time>
      </trkpt>
      <trkpt lat="47.35805" lon="-2.3138">
        <ele>9.6000003814697</ele>
        <time>2019-06-02T08:58:31.000Z</time>
      </trkpt>
      <trkpt lat="47.35779" lon="-2.31399">
        <ele>9.6000003814697</ele>
        <time>2019-06-02T08:58:36.000Z</time>
      </trkpt>
      <trkpt lat="47.3577" lon="-2.31405">
        <ele>9.6000003814697</ele>
        <time>2019-06-02T08:58:38.000Z</time>
      </trkpt>
      <trkpt lat="47.35736" lon="-2.31428">
        <ele>9.6000003814697</ele>
        <time>2019-06-02T08:58:45.000Z</time>
      </trkpt>
      <trkpt lat="47.35708" lon="-2.31443">
        <ele>9.6000003814697</ele>
        <time>2019-06-02T08:58:51.000Z</time>
      </trkpt>
      <trkpt lat="47.35705" lon="-2.31447">
        <ele>9.6000003814697</ele>
        <time>2019-06-02T08:58:52.000Z</time>
      </trkpt>
      <trkpt lat="47.35695" lon="-2.31461">
        <ele>9.6000003814697</ele>
        <time>2019-06-02T08:58:55.000Z</time>
      </trkpt>
      <trkpt lat="47.35691" lon="-2.31466">
        <ele>9.6000003814697</ele>
        <time>2019-06-02T08:58:56.000Z</time>
      </trkpt>
      <trkpt lat="47.35679" lon="-2.31489">
        <ele>9.6000003814697</ele>
        <time>2019-06-02T08:59:00.000Z</time>
      </trkpt>
      <trkpt lat="47.35667" lon="-2.31514">
        <ele>9.6000003814697</ele>
        <time>2019-06-02T08:59:04.000Z</time>
      </trkpt>
      <trkpt lat="47.35663" lon="-2.31528">
        <ele>9.6000003814697</ele>
        <time>2019-06-02T08:59:06.000Z</time>
      </trkpt>
      <trkpt lat="47.35647" lon="-2.3157">
        <ele>9.6000003814697</ele>
        <time>2019-06-02T08:59:12.000Z</time>
      </trkpt>
      <trkpt lat="47.35631" lon="-2.31607">
        <ele>9.6000003814697</ele>
        <time>2019-06-02T08:59:18.000Z</time>
      </trkpt>
      <trkpt lat="47.35622" lon="-2.31627">
        <ele>9.6000003814697</ele>
        <time>2019-06-02T08:59:21.000Z</time>
      </trkpt>
      <trkpt lat="47.35617" lon="-2.31639">
        <ele>9.6000003814697</ele>
        <time>2019-06-02T08:59:23.000Z</time>
      </trkpt>
      <trkpt lat="47.35599" lon="-2.31684">
        <ele>9.6000003814697</ele>
        <time>2019-06-02T08:59:30.000Z</time>
      </trkpt>
      <trkpt lat="47.35581" lon="-2.3173">
        <ele>9.6000003814697</ele>
        <time>2019-06-02T08:59:38.000Z</time>
      </trkpt>
      <trkpt lat="47.35574" lon="-2.31746">
        <ele>9.6000003814697</ele>
        <time>2019-06-02T08:59:41.000Z</time>
      </trkpt>
      <trkpt lat="47.35569" lon="-2.31762">
        <ele>9.6000003814697</ele>
        <time>2019-06-02T08:59:44.000Z</time>
      </trkpt>
      <trkpt lat="47.35567" lon="-2.31766">
        <ele>9.6000003814697</ele>
        <time>2019-06-02T08:59:45.000Z</time>
      </trkpt>
      <trkpt lat="47.35562" lon="-2.31773">
        <ele>9.6000003814697</ele>
        <time>2019-06-02T08:59:47.000Z</time>
      </trkpt>
      <trkpt lat="47.35558" lon="-2.31783">
        <ele>9.6000003814697</ele>
        <time>2019-06-02T08:59:49.000Z</time>
      </trkpt>
      <trkpt lat="47.35549" lon="-2.31806">
        <ele>9.6000003814697</ele>
        <time>2019-06-02T08:59:54.000Z</time>
      </trkpt>
      <trkpt lat="47.35544" lon="-2.31827">
        <ele>9.6000003814697</ele>
        <time>2019-06-02T08:59:59.000Z</time>
      </trkpt>
      <trkpt lat="47.35534" lon="-2.31848">
        <ele>9.6000003814697</ele>
        <time>2019-06-02T09:00:03.000Z</time>
      </trkpt>
      <trkpt lat="47.35532" lon="-2.31854">
        <ele>9.6000003814697</ele>
        <time>2019-06-02T09:00:04.000Z</time>
      </trkpt>
      <trkpt lat="47.3553" lon="-2.31859">
        <ele>9.6000003814697</ele>
        <time>2019-06-02T09:00:05.000Z</time>
      </trkpt>
      <trkpt lat="47.35519" lon="-2.31884">
        <ele>9.6000003814697</ele>
        <time>2019-06-02T09:00:10.000Z</time>
      </trkpt>
      <trkpt lat="47.35512" lon="-2.31904">
        <ele>9.6000003814697</ele>
        <time>2019-06-02T09:00:15.000Z</time>
      </trkpt>
      <trkpt lat="47.35511" lon="-2.3191">
        <ele>9.6000003814697</ele>
        <time>2019-06-02T09:00:20.000Z</time>
      </trkpt>
      <trkpt lat="47.3551" lon="-2.31911">
        <ele>9.6000003814697</ele>
        <time>2019-06-02T09:00:21.000Z</time>
      </trkpt>
      <trkpt lat="47.35508" lon="-2.31912">
        <ele>9.6000003814697</ele>
        <time>2019-06-02T09:00:37.000Z</time>
      </trkpt>
      <trkpt lat="47.35509" lon="-2.31912">
        <ele>9.6000003814697</ele>
        <time>2019-06-02T09:00:39.000Z</time>
      </trkpt>
      <trkpt lat="47.35509" lon="-2.31913">
        <ele>9.6000003814697</ele>
        <time>2019-06-02T09:00:40.000Z</time>
      </trkpt>
      <trkpt lat="47.35497" lon="-2.31955">
        <ele>9.6000003814697</ele>
        <time>2019-06-02T09:02:00.000Z</time>
      </trkpt>
      <trkpt lat="47.35499" lon="-2.31958">
        <ele>9.6000003814697</ele>
        <time>2019-06-02T09:02:02.000Z</time>
      </trkpt>
      <trkpt lat="47.35504" lon="-2.31971">
        <ele>9.6000003814697</ele>
        <time>2019-06-02T09:02:06.000Z</time>
      </trkpt>
      <trkpt lat="47.35508" lon="-2.32001">
        <ele>9.6000003814697</ele>
        <time>2019-06-02T09:02:12.000Z</time>
      </trkpt>
      <trkpt lat="47.35514" lon="-2.32038">
        <ele>9.6000003814697</ele>
        <time>2019-06-02T09:02:19.000Z</time>
      </trkpt>
      <trkpt lat="47.35519" lon="-2.32078">
        <ele>9.6000003814697</ele>
        <time>2019-06-02T09:02:25.000Z</time>
      </trkpt>
      <trkpt lat="47.35518" lon="-2.32084">
        <ele>9.6000003814697</ele>
        <time>2019-06-02T09:02:26.000Z</time>
      </trkpt>
      <trkpt lat="47.35513" lon="-2.3214">
        <ele>9.6000003814697</ele>
        <time>2019-06-02T09:02:34.000Z</time>
      </trkpt>
      <trkpt lat="47.35509" lon="-2.32177">
        <ele>9.6000003814697</ele>
        <time>2019-06-02T09:02:40.000Z</time>
      </trkpt>
      <trkpt lat="47.35508" lon="-2.32184">
        <ele>9.6000003814697</ele>
        <time>2019-06-02T09:02:41.000Z</time>
      </trkpt>
      <trkpt lat="47.35504" lon="-2.32204">
        <ele>9.6000003814697</ele>
        <time>2019-06-02T09:02:44.000Z</time>
      </trkpt>
      <trkpt lat="47.35503" lon="-2.32211">
        <ele>9.6000003814697</ele>
        <time>2019-06-02T09:02:45.000Z</time>
      </trkpt>
      <trkpt lat="47.35504" lon="-2.32231">
        <ele>9.6000003814697</ele>
        <time>2019-06-02T09:02:48.000Z</time>
      </trkpt>
      <trkpt lat="47.35503" lon="-2.32238">
        <ele>9.6000003814697</ele>
        <time>2019-06-02T09:02:49.000Z</time>
      </trkpt>
      <trkpt lat="47.35499" lon="-2.32256">
        <ele>9.6000003814697</ele>
        <time>2019-06-02T09:02:52.000Z</time>
      </trkpt>
      <trkpt lat="47.35485" lon="-2.32268">
        <ele>9.6000003814697</ele>
        <time>2019-06-02T09:02:56.000Z</time>
      </trkpt>
      <trkpt lat="47.3548" lon="-2.3227">
        <ele>9.6000003814697</ele>
        <time>2019-06-02T09:02:57.000Z</time>
      </trkpt>
      <trkpt lat="47.35465" lon="-2.32277">
        <ele>9.6000003814697</ele>
        <time>2019-06-02T09:03:00.000Z</time>
      </trkpt>
      <trkpt lat="47.35436" lon="-2.32292">
        <ele>9.6000003814697</ele>
        <time>2019-06-02T09:03:06.000Z</time>
      </trkpt>
      <trkpt lat="47.35427" lon="-2.32298">
        <ele>9.6000003814697</ele>
        <time>2019-06-02T09:03:08.000Z</time>
      </trkpt>
      <trkpt lat="47.35423" lon="-2.32301">
        <ele>9.6000003814697</ele>
        <time>2019-06-02T09:03:09.000Z</time>
      </trkpt>
      <trkpt lat="47.35418" lon="-2.32304">
        <ele>9.6000003814697</ele>
        <time>2019-06-02T09:03:10.000Z</time>
      </trkpt>
      <trkpt lat="47.35414" lon="-2.32306">
        <ele>9.6000003814697</ele>
        <time>2019-06-02T09:03:11.000Z</time>
      </trkpt>
      <trkpt lat="47.35401" lon="-2.32315">
        <ele>9.6000003814697</ele>
        <time>2019-06-02T09:03:14.000Z</time>
      </trkpt>
      <trkpt lat="47.35396" lon="-2.32317">
        <ele>9.6000003814697</ele>
        <time>2019-06-02T09:03:15.000Z</time>
      </trkpt>
      <trkpt lat="47.35364" lon="-2.3233">
        <ele>9.6000003814697</ele>
        <time>2019-06-02T09:03:21.000Z</time>
      </trkpt>
      <trkpt lat="47.35349" lon="-2.32339">
        <ele>9.6000003814697</ele>
        <time>2019-06-02T09:03:24.000Z</time>
      </trkpt>
      <trkpt lat="47.35339" lon="-2.32343">
        <ele>9.6000003814697</ele>
        <time>2019-06-02T09:03:26.000Z</time>
      </trkpt>
      <trkpt lat="47.35335" lon="-2.32346">
        <ele>9.6000003814697</ele>
        <time>2019-06-02T09:03:27.000Z</time>
      </trkpt>
      <trkpt lat="47.35328" lon="-2.32353">
        <ele>9.6000003814697</ele>
        <time>2019-06-02T09:03:29.000Z</time>
      </trkpt>
      <trkpt lat="47.35304" lon="-2.32365">
        <ele>9.6000003814697</ele>
        <time>2019-06-02T09:03:34.000Z</time>
      </trkpt>
      <trkpt lat="47.35287" lon="-2.32373">
        <ele>9.6000003814697</ele>
        <time>2019-06-02T09:03:37.000Z</time>
      </trkpt>
      <trkpt lat="47.35276" lon="-2.32377">
        <ele>9.6000003814697</ele>
        <time>2019-06-02T09:03:39.000Z</time>
      </trkpt>
      <trkpt lat="47.35257" lon="-2.32387">
        <ele>9.6000003814697</ele>
        <time>2019-06-02T09:03:43.000Z</time>
      </trkpt>
      <trkpt lat="47.35226" lon="-2.32401">
        <ele>9.6000003814697</ele>
        <time>2019-06-02T09:03:49.000Z</time>
      </trkpt>
      <trkpt lat="47.35221" lon="-2.32404">
        <ele>9.6000003814697</ele>
        <time>2019-06-02T09:03:50.000Z</time>
      </trkpt>
      <trkpt lat="47.35212" lon="-2.32409">
        <ele>9.6000003814697</ele>
        <time>2019-06-02T09:03:52.000Z</time>
      </trkpt>
      <trkpt lat="47.35202" lon="-2.32418">
        <ele>9.6000003814697</ele>
        <time>2019-06-02T09:03:54.000Z</time>
      </trkpt>
      <trkpt lat="47.35193" lon="-2.32426">
        <ele>9.1999998092651</ele>
        <time>2019-06-02T09:03:56.000Z</time>
      </trkpt>
      <trkpt lat="47.35188" lon="-2.32429">
        <ele>8.8000001907349</ele>
        <time>2019-06-02T09:03:57.000Z</time>
      </trkpt>
      <trkpt lat="47.35183" lon="-2.32432">
        <ele>8.3999996185303</ele>
        <time>2019-06-02T09:03:58.000Z</time>
      </trkpt>
      <trkpt lat="47.35179" lon="-2.32435">
        <ele>7.8000001907349</ele>
        <time>2019-06-02T09:03:59.000Z</time>
      </trkpt>
      <trkpt lat="47.35174" lon="-2.32439">
        <ele>7.4000000953674</ele>
        <time>2019-06-02T09:04:00.000Z</time>
      </trkpt>
      <trkpt lat="47.35166" lon="-2.32446">
        <ele>7.4000000953674</ele>
        <time>2019-06-02T09:04:02.000Z</time>
      </trkpt>
      <trkpt lat="47.35162" lon="-2.32449">
        <ele>7.4000000953674</ele>
        <time>2019-06-02T09:04:03.000Z</time>
      </trkpt>
      <trkpt lat="47.35136" lon="-2.32473">
        <ele>7.4000000953674</ele>
        <time>2019-06-02T09:04:10.000Z</time>
      </trkpt>
      <trkpt lat="47.35125" lon="-2.32486">
        <ele>7.4000000953674</ele>
        <time>2019-06-02T09:04:13.000Z</time>
      </trkpt>
      <trkpt lat="47.35114" lon="-2.32497">
        <ele>7.4000000953674</ele>
        <time>2019-06-02T09:04:16.000Z</time>
      </trkpt>
      <trkpt lat="47.35101" lon="-2.32512">
        <ele>7.4000000953674</ele>
        <time>2019-06-02T09:04:20.000Z</time>
      </trkpt>
      <trkpt lat="47.35098" lon="-2.32517">
        <ele>7.4000000953674</ele>
        <time>2019-06-02T09:04:21.000Z</time>
      </trkpt>
      <trkpt lat="47.35084" lon="-2.32531">
        <ele>7.4000000953674</ele>
        <time>2019-06-02T09:04:25.000Z</time>
      </trkpt>
      <trkpt lat="47.35061" lon="-2.32553">
        <ele>7.4000000953674</ele>
        <time>2019-06-02T09:04:32.000Z</time>
      </trkpt>
      <trkpt lat="47.35046" lon="-2.32565">
        <ele>7.4000000953674</ele>
        <time>2019-06-02T09:04:37.000Z</time>
      </trkpt>
      <trkpt lat="47.35028" lon="-2.32578">
        <ele>7.4000000953674</ele>
        <time>2019-06-02T09:04:43.000Z</time>
      </trkpt>
      <trkpt lat="47.35019" lon="-2.32585">
        <ele>7.4000000953674</ele>
        <time>2019-06-02T09:04:46.000Z</time>
      </trkpt>
      <trkpt lat="47.35016" lon="-2.32586">
        <ele>7.4000000953674</ele>
        <time>2019-06-02T09:04:47.000Z</time>
      </trkpt>
      <trkpt lat="47.34996" lon="-2.32593">
        <ele>7.4000000953674</ele>
        <time>2019-06-02T09:04:53.000Z</time>
      </trkpt>
      <trkpt lat="47.34988" lon="-2.32595">
        <ele>7.4000000953674</ele>
        <time>2019-06-02T09:04:55.000Z</time>
      </trkpt>
      <trkpt lat="47.34971" lon="-2.32597">
        <ele>7.4000000953674</ele>
        <time>2019-06-02T09:04:59.000Z</time>
      </trkpt>
      <trkpt lat="47.34951" lon="-2.32599">
        <ele>7.4000000953674</ele>
        <time>2019-06-02T09:05:04.000Z</time>
      </trkpt>
      <trkpt lat="47.34947" lon="-2.32599">
        <ele>7.4000000953674</ele>
        <time>2019-06-02T09:05:05.000Z</time>
      </trkpt>
      <trkpt lat="47.34943" lon="-2.32599">
        <ele>7.4000000953674</ele>
        <time>2019-06-02T09:05:06.000Z</time>
      </trkpt>
      <trkpt lat="47.34928" lon="-2.32602">
        <ele>7.4000000953674</ele>
        <time>2019-06-02T09:05:10.000Z</time>
      </trkpt>
      <trkpt lat="47.3492" lon="-2.32607">
        <ele>7.4000000953674</ele>
        <time>2019-06-02T09:05:12.000Z</time>
      </trkpt>
      <trkpt lat="47.3491" lon="-2.32616">
        <ele>7.4000000953674</ele>
        <time>2019-06-02T09:05:15.000Z</time>
      </trkpt>
      <trkpt lat="47.3489" lon="-2.32635">
        <ele>7.4000000953674</ele>
        <time>2019-06-02T09:05:21.000Z</time>
      </trkpt>
      <trkpt lat="47.34872" lon="-2.32646">
        <ele>7.4000000953674</ele>
        <time>2019-06-02T09:05:26.000Z</time>
      </trkpt>
      <trkpt lat="47.34854" lon="-2.32653">
        <ele>7.4000000953674</ele>
        <time>2019-06-02T09:05:31.000Z</time>
      </trkpt>
      <trkpt lat="47.34841" lon="-2.32664">
        <ele>7.4000000953674</ele>
        <time>2019-06-02T09:05:36.000Z</time>
      </trkpt>
      <trkpt lat="47.34826" lon="-2.32675">
        <ele>7.4000000953674</ele>
        <time>2019-06-02T09:05:41.000Z</time>
      </trkpt>
      <trkpt lat="47.34805" lon="-2.32688">
        <ele>7.4000000953674</ele>
        <time>2019-06-02T09:05:46.000Z</time>
      </trkpt>
      <trkpt lat="47.34789" lon="-2.32696">
        <ele>7.4000000953674</ele>
        <time>2019-06-02T09:05:50.000Z</time>
      </trkpt>
      <trkpt lat="47.34772" lon="-2.32708">
        <ele>7.4000000953674</ele>
        <time>2019-06-02T09:05:55.000Z</time>
      </trkpt>
      <trkpt lat="47.3476" lon="-2.32719">
        <ele>7.4000000953674</ele>
        <time>2019-06-02T09:05:59.000Z</time>
      </trkpt>
      <trkpt lat="47.34743" lon="-2.32733">
        <ele>7.4000000953674</ele>
        <time>2019-06-02T09:06:04.000Z</time>
      </trkpt>
      <trkpt lat="47.34725" lon="-2.32749">
        <ele>7.4000000953674</ele>
        <time>2019-06-02T09:06:10.000Z</time>
      </trkpt>
      <trkpt lat="47.34721" lon="-2.32749">
        <ele>7.4000000953674</ele>
        <time>2019-06-02T09:06:11.000Z</time>
      </trkpt>
      <trkpt lat="47.34713" lon="-2.32742">
        <ele>7.4000000953674</ele>
        <time>2019-06-02T09:06:13.000Z</time>
      </trkpt>
      <trkpt lat="47.34706" lon="-2.32732">
        <ele>7.4000000953674</ele>
        <time>2019-06-02T09:06:15.000Z</time>
      </trkpt>
      <trkpt lat="47.34702" lon="-2.32726">
        <ele>7.4000000953674</ele>
        <time>2019-06-02T09:06:16.000Z</time>
      </trkpt>
      <trkpt lat="47.34698" lon="-2.32721">
        <ele>7.4000000953674</ele>
        <time>2019-06-02T09:06:17.000Z</time>
      </trkpt>
      <trkpt lat="47.34683" lon="-2.32694">
        <ele>7.4000000953674</ele>
        <time>2019-06-02T09:06:22.000Z</time>
      </trkpt>
      <trkpt lat="47.3468" lon="-2.3269">
        <ele>7.4000000953674</ele>
        <time>2019-06-02T09:06:23.000Z</time>
      </trkpt>
      <trkpt lat="47.34668" lon="-2.32668">
        <ele>7.4000000953674</ele>
        <time>2019-06-02T09:06:28.000Z</time>
      </trkpt>
      <trkpt lat="47.34652" lon="-2.32647">
        <ele>7.4000000953674</ele>
        <time>2019-06-02T09:06:34.000Z</time>
      </trkpt>
      <trkpt lat="47.34637" lon="-2.32637">
        <ele>7.4000000953674</ele>
        <time>2019-06-02T09:06:40.000Z</time>
      </trkpt>
      <trkpt lat="47.34635" lon="-2.32634">
        <ele>7.4000000953674</ele>
        <time>2019-06-02T09:06:41.000Z</time>
      </trkpt>
      <trkpt lat="47.34628" lon="-2.32629">
        <ele>7.4000000953674</ele>
        <time>2019-06-02T09:06:44.000Z</time>
      </trkpt>
      <trkpt lat="47.34625" lon="-2.32628">
        <ele>7.4000000953674</ele>
        <time>2019-06-02T09:06:45.000Z</time>
      </trkpt>
      <trkpt lat="47.34616" lon="-2.3263">
        <ele>8.1999998092651</ele>
        <time>2019-06-02T09:06:48.000Z</time>
      </trkpt>
      <trkpt lat="47.34613" lon="-2.32632">
        <ele>8.6000003814697</ele>
        <time>2019-06-02T09:06:49.000Z</time>
      </trkpt>
      <trkpt lat="47.3461" lon="-2.32635">
        <ele>9</ele>
        <time>2019-06-02T09:06:50.000Z</time>
      </trkpt>
      <trkpt lat="47.34607" lon="-2.32638">
        <ele>9.3999996185303</ele>
        <time>2019-06-02T09:06:51.000Z</time>
      </trkpt>
      <trkpt lat="47.34599" lon="-2.32648">
        <ele>9.3999996185303</ele>
        <time>2019-06-02T09:06:54.000Z</time>
      </trkpt>
      <trkpt lat="47.34585" lon="-2.32661">
        <ele>10</ele>
        <time>2019-06-02T09:06:58.000Z</time>
      </trkpt>
      <trkpt lat="47.34582" lon="-2.32664">
        <ele>10.39999961853</ele>
        <time>2019-06-02T09:06:59.000Z</time>
      </trkpt>
      <trkpt lat="47.3458" lon="-2.32667">
        <ele>10.800000190735</ele>
        <time>2019-06-02T09:07:00.000Z</time>
      </trkpt>
      <trkpt lat="47.34577" lon="-2.3267">
        <ele>11.199999809265</ele>
        <time>2019-06-02T09:07:01.000Z</time>
      </trkpt>
      <trkpt lat="47.34574" lon="-2.32673">
        <ele>11.800000190735</ele>
        <time>2019-06-02T09:07:02.000Z</time>
      </trkpt>
      <trkpt lat="47.34558" lon="-2.32686">
        <ele>11.800000190735</ele>
        <time>2019-06-02T09:07:06.000Z</time>
      </trkpt>
      <trkpt lat="47.34539" lon="-2.32701">
        <ele>12.199999809265</ele>
        <time>2019-06-02T09:07:11.000Z</time>
      </trkpt>
      <trkpt lat="47.34534" lon="-2.32704">
        <ele>12.60000038147</ele>
        <time>2019-06-02T09:07:12.000Z</time>
      </trkpt>
      <trkpt lat="47.3453" lon="-2.32706">
        <ele>13.39999961853</ele>
        <time>2019-06-02T09:07:13.000Z</time>
      </trkpt>
      <trkpt lat="47.34527" lon="-2.32708">
        <ele>13.800000190735</ele>
        <time>2019-06-02T09:07:14.000Z</time>
      </trkpt>
      <trkpt lat="47.34511" lon="-2.32717">
        <ele>13.800000190735</ele>
        <time>2019-06-02T09:07:18.000Z</time>
      </trkpt>
      <trkpt lat="47.34483" lon="-2.32734">
        <ele>13.800000190735</ele>
        <time>2019-06-02T09:07:24.000Z</time>
      </trkpt>
      <trkpt lat="47.34465" lon="-2.32745">
        <ele>13.800000190735</ele>
        <time>2019-06-02T09:07:28.000Z</time>
      </trkpt>
      <trkpt lat="47.34457" lon="-2.32752">
        <ele>13.800000190735</ele>
        <time>2019-06-02T09:07:30.000Z</time>
      </trkpt>
      <trkpt lat="47.34454" lon="-2.32758">
        <ele>13.800000190735</ele>
        <time>2019-06-02T09:07:31.000Z</time>
      </trkpt>
      <trkpt lat="47.34448" lon="-2.32785">
        <ele>13.800000190735</ele>
        <time>2019-06-02T09:07:35.000Z</time>
      </trkpt>
      <trkpt lat="47.34448" lon="-2.32792">
        <ele>13.800000190735</ele>
        <time>2019-06-02T09:07:36.000Z</time>
      </trkpt>
      <trkpt lat="47.34449" lon="-2.32807">
        <ele>13.800000190735</ele>
        <time>2019-06-02T09:07:38.000Z</time>
      </trkpt>
      <trkpt lat="47.34449" lon="-2.32827">
        <ele>13.800000190735</ele>
        <time>2019-06-02T09:07:41.000Z</time>
      </trkpt>
      <trkpt lat="47.34447" lon="-2.32833">
        <ele>13.39999961853</ele>
        <time>2019-06-02T09:07:42.000Z</time>
      </trkpt>
      <trkpt lat="47.34445" lon="-2.32838">
        <ele>12.800000190735</ele>
        <time>2019-06-02T09:07:43.000Z</time>
      </trkpt>
      <trkpt lat="47.34442" lon="-2.32843">
        <ele>12.39999961853</ele>
        <time>2019-06-02T09:07:44.000Z</time>
      </trkpt>
      <trkpt lat="47.34438" lon="-2.32847">
        <ele>12</ele>
        <time>2019-06-02T09:07:45.000Z</time>
      </trkpt>
      <trkpt lat="47.34434" lon="-2.3285">
        <ele>11.60000038147</ele>
        <time>2019-06-02T09:07:46.000Z</time>
      </trkpt>
      <trkpt lat="47.34426" lon="-2.32855">
        <ele>11.60000038147</ele>
        <time>2019-06-02T09:07:48.000Z</time>
      </trkpt>
      <trkpt lat="47.34422" lon="-2.32857">
        <ele>11.60000038147</ele>
        <time>2019-06-02T09:07:49.000Z</time>
      </trkpt>
      <trkpt lat="47.34406" lon="-2.32866">
        <ele>11.60000038147</ele>
        <time>2019-06-02T09:07:52.000Z</time>
      </trkpt>
      <trkpt lat="47.344" lon="-2.32869">
        <ele>11.60000038147</ele>
        <time>2019-06-02T09:07:53.000Z</time>
      </trkpt>
      <trkpt lat="47.34387" lon="-2.32882">
        <ele>11.60000038147</ele>
        <time>2019-06-02T09:07:56.000Z</time>
      </trkpt>
      <trkpt lat="47.34382" lon="-2.32886">
        <ele>11.60000038147</ele>
        <time>2019-06-02T09:07:57.000Z</time>
      </trkpt>
      <trkpt lat="47.34378" lon="-2.32891">
        <ele>11.60000038147</ele>
        <time>2019-06-02T09:07:58.000Z</time>
      </trkpt>
      <trkpt lat="47.34356" lon="-2.32914">
        <ele>11.60000038147</ele>
        <time>2019-06-02T09:08:03.000Z</time>
      </trkpt>
      <trkpt lat="47.34353" lon="-2.32937">
        <ele>11.60000038147</ele>
        <time>2019-06-02T09:08:06.000Z</time>
      </trkpt>
      <trkpt lat="47.34354" lon="-2.32944">
        <ele>11.199999809265</ele>
        <time>2019-06-02T09:08:07.000Z</time>
      </trkpt>
      <trkpt lat="47.34357" lon="-2.32951">
        <ele>10.60000038147</ele>
        <time>2019-06-02T09:08:08.000Z</time>
      </trkpt>
      <trkpt lat="47.34359" lon="-2.32958">
        <ele>10.199999809265</ele>
        <time>2019-06-02T09:08:09.000Z</time>
      </trkpt>
      <trkpt lat="47.34361" lon="-2.32966">
        <ele>9.8000001907349</ele>
        <time>2019-06-02T09:08:10.000Z</time>
      </trkpt>
      <trkpt lat="47.34363" lon="-2.32974">
        <ele>9.3999996185303</ele>
        <time>2019-06-02T09:08:11.000Z</time>
      </trkpt>
      <trkpt lat="47.34367" lon="-2.33001">
        <ele>9.3999996185303</ele>
        <time>2019-06-02T09:08:14.000Z</time>
      </trkpt>
      <trkpt lat="47.34368" lon="-2.3301">
        <ele>9.3999996185303</ele>
        <time>2019-06-02T09:08:15.000Z</time>
      </trkpt>
      <trkpt lat="47.34371" lon="-2.33029">
        <ele>9.3999996185303</ele>
        <time>2019-06-02T09:08:18.000Z</time>
      </trkpt>
      <trkpt lat="47.34373" lon="-2.33034">
        <ele>9.3999996185303</ele>
        <time>2019-06-02T09:08:19.000Z</time>
      </trkpt>
      <trkpt lat="47.34382" lon="-2.33057">
        <ele>9.3999996185303</ele>
        <time>2019-06-02T09:08:24.000Z</time>
      </trkpt>
      <trkpt lat="47.34389" lon="-2.33093">
        <ele>9.3999996185303</ele>
        <time>2019-06-02T09:08:30.000Z</time>
      </trkpt>
      <trkpt lat="47.34395" lon="-2.33125">
        <ele>9.3999996185303</ele>
        <time>2019-06-02T09:08:36.000Z</time>
      </trkpt>
      <trkpt lat="47.34402" lon="-2.33155">
        <ele>9.3999996185303</ele>
        <time>2019-06-02T09:08:42.000Z</time>
      </trkpt>
      <trkpt lat="47.3441" lon="-2.332">
        <ele>9.3999996185303</ele>
        <time>2019-06-02T09:08:50.000Z</time>
      </trkpt>
      <trkpt lat="47.34415" lon="-2.33227">
        <ele>9.8000001907349</ele>
        <time>2019-06-02T09:08:55.000Z</time>
      </trkpt>
      <trkpt lat="47.34416" lon="-2.33233">
        <ele>10.199999809265</ele>
        <time>2019-06-02T09:08:56.000Z</time>
      </trkpt>
      <trkpt lat="47.34417" lon="-2.33238">
        <ele>10.60000038147</ele>
        <time>2019-06-02T09:08:57.000Z</time>
      </trkpt>
      <trkpt lat="47.34419" lon="-2.33244">
        <ele>11</ele>
        <time>2019-06-02T09:08:58.000Z</time>
      </trkpt>
      <trkpt lat="47.34421" lon="-2.33248">
        <ele>11.39999961853</ele>
        <time>2019-06-02T09:08:59.000Z</time>
      </trkpt>
      <trkpt lat="47.34424" lon="-2.3326">
        <ele>11.39999961853</ele>
        <time>2019-06-02T09:09:01.000Z</time>
      </trkpt>
      <trkpt lat="47.34437" lon="-2.33285">
        <ele>11.39999961853</ele>
        <time>2019-06-02T09:09:06.000Z</time>
      </trkpt>
      <trkpt lat="47.34452" lon="-2.33305">
        <ele>11.39999961853</ele>
        <time>2019-06-02T09:09:10.000Z</time>
      </trkpt>
      <trkpt lat="47.34459" lon="-2.33332">
        <ele>11.39999961853</ele>
        <time>2019-06-02T09:09:14.000Z</time>
      </trkpt>
      <trkpt lat="47.34461" lon="-2.33338">
        <ele>11.39999961853</ele>
        <time>2019-06-02T09:09:15.000Z</time>
      </trkpt>
      <trkpt lat="47.34463" lon="-2.33352">
        <ele>11.39999961853</ele>
        <time>2019-06-02T09:09:17.000Z</time>
      </trkpt>
      <trkpt lat="47.34466" lon="-2.3338">
        <ele>11.39999961853</ele>
        <time>2019-06-02T09:09:21.000Z</time>
      </trkpt>
      <trkpt lat="47.34473" lon="-2.33423">
        <ele>11.39999961853</ele>
        <time>2019-06-02T09:09:28.000Z</time>
      </trkpt>
      <trkpt lat="47.34478" lon="-2.33459">
        <ele>11.39999961853</ele>
        <time>2019-06-02T09:09:34.000Z</time>
      </trkpt>
      <trkpt lat="47.34481" lon="-2.33487">
        <ele>11.39999961853</ele>
        <time>2019-06-02T09:09:39.000Z</time>
      </trkpt>
      <trkpt lat="47.34485" lon="-2.33525">
        <ele>11.39999961853</ele>
        <time>2019-06-02T09:09:46.000Z</time>
      </trkpt>
      <trkpt lat="47.3449" lon="-2.33562">
        <ele>11.39999961853</ele>
        <time>2019-06-02T09:09:53.000Z</time>
      </trkpt>
      <trkpt lat="47.34492" lon="-2.33573">
        <ele>11.800000190735</ele>
        <time>2019-06-02T09:09:56.000Z</time>
      </trkpt>
      <trkpt lat="47.34494" lon="-2.33576">
        <ele>12.199999809265</ele>
        <time>2019-06-02T09:09:57.000Z</time>
      </trkpt>
      <trkpt lat="47.34496" lon="-2.3358">
        <ele>12.60000038147</ele>
        <time>2019-06-02T09:09:58.000Z</time>
      </trkpt>
      <trkpt lat="47.34497" lon="-2.33584">
        <ele>13.199999809265</ele>
        <time>2019-06-02T09:09:59.000Z</time>
      </trkpt>
      <trkpt lat="47.34498" lon="-2.3359">
        <ele>13.60000038147</ele>
        <time>2019-06-02T09:10:00.000Z</time>
      </trkpt>
      <trkpt lat="47.345" lon="-2.33599">
        <ele>13.60000038147</ele>
        <time>2019-06-02T09:10:02.000Z</time>
      </trkpt>
      <trkpt lat="47.34508" lon="-2.33631">
        <ele>13.60000038147</ele>
        <time>2019-06-02T09:10:08.000Z</time>
      </trkpt>
      <trkpt lat="47.34514" lon="-2.33655">
        <ele>13.60000038147</ele>
        <time>2019-06-02T09:10:13.000Z</time>
      </trkpt>
      <trkpt lat="47.3452" lon="-2.33685">
        <ele>13.60000038147</ele>
        <time>2019-06-02T09:10:18.000Z</time>
      </trkpt>
      <trkpt lat="47.34526" lon="-2.33712">
        <ele>14</ele>
        <time>2019-06-02T09:10:23.000Z</time>
      </trkpt>
      <trkpt lat="47.34528" lon="-2.33717">
        <ele>14.39999961853</ele>
        <time>2019-06-02T09:10:24.000Z</time>
      </trkpt>
      <trkpt lat="47.34529" lon="-2.33723">
        <ele>14.800000190735</ele>
        <time>2019-06-02T09:10:25.000Z</time>
      </trkpt>
      <trkpt lat="47.3453" lon="-2.33728">
        <ele>15.199999809265</ele>
        <time>2019-06-02T09:10:26.000Z</time>
      </trkpt>
      <trkpt lat="47.34531" lon="-2.33734">
        <ele>15.60000038147</ele>
        <time>2019-06-02T09:10:27.000Z</time>
      </trkpt>
      <trkpt lat="47.34533" lon="-2.33744">
        <ele>15.60000038147</ele>
        <time>2019-06-02T09:10:29.000Z</time>
      </trkpt>
      <trkpt lat="47.34537" lon="-2.33761">
        <ele>15.60000038147</ele>
        <time>2019-06-02T09:10:32.000Z</time>
      </trkpt>
      <trkpt lat="47.34539" lon="-2.33771">
        <ele>15.60000038147</ele>
        <time>2019-06-02T09:10:34.000Z</time>
      </trkpt>
      <trkpt lat="47.34545" lon="-2.33797">
        <ele>15.60000038147</ele>
        <time>2019-06-02T09:10:39.000Z</time>
      </trkpt>
      <trkpt lat="47.34546" lon="-2.33802">
        <ele>15.60000038147</ele>
        <time>2019-06-02T09:10:40.000Z</time>
      </trkpt>
      <trkpt lat="47.3455" lon="-2.33831">
        <ele>15.60000038147</ele>
        <time>2019-06-02T09:10:44.000Z</time>
      </trkpt>
      <trkpt lat="47.34559" lon="-2.33877">
        <ele>15.60000038147</ele>
        <time>2019-06-02T09:10:50.000Z</time>
      </trkpt>
      <trkpt lat="47.34561" lon="-2.33883">
        <ele>15.60000038147</ele>
        <time>2019-06-02T09:10:51.000Z</time>
      </trkpt>
      <trkpt lat="47.34572" lon="-2.33916">
        <ele>15.60000038147</ele>
        <time>2019-06-02T09:10:56.000Z</time>
      </trkpt>
      <trkpt lat="47.34587" lon="-2.33965">
        <ele>15.60000038147</ele>
        <time>2019-06-02T09:11:02.000Z</time>
      </trkpt>
      <trkpt lat="47.34602" lon="-2.34023">
        <ele>15.60000038147</ele>
        <time>2019-06-02T09:11:09.000Z</time>
      </trkpt>
      <trkpt lat="47.34613" lon="-2.34069">
        <ele>15.60000038147</ele>
        <time>2019-06-02T09:11:15.000Z</time>
      </trkpt>
      <trkpt lat="47.34625" lon="-2.3411">
        <ele>15.60000038147</ele>
        <time>2019-06-02T09:11:21.000Z</time>
      </trkpt>
      <trkpt lat="47.34627" lon="-2.34115">
        <ele>15.60000038147</ele>
        <time>2019-06-02T09:11:22.000Z</time>
      </trkpt>
      <trkpt lat="47.34632" lon="-2.34124">
        <ele>15.60000038147</ele>
        <time>2019-06-02T09:11:24.000Z</time>
      </trkpt>
      <trkpt lat="47.34642" lon="-2.34138">
        <ele>15.60000038147</ele>
        <time>2019-06-02T09:11:27.000Z</time>
      </trkpt>
      <trkpt lat="47.34649" lon="-2.34147">
        <ele>15.60000038147</ele>
        <time>2019-06-02T09:11:29.000Z</time>
      </trkpt>
      <trkpt lat="47.3466" lon="-2.34153">
        <ele>15.60000038147</ele>
        <time>2019-06-02T09:11:32.000Z</time>
      </trkpt>
      <trkpt lat="47.34676" lon="-2.34162">
        <ele>15.60000038147</ele>
        <time>2019-06-02T09:11:37.000Z</time>
      </trkpt>
      <trkpt lat="47.34674" lon="-2.34179">
        <ele>15.60000038147</ele>
        <time>2019-06-02T09:11:40.000Z</time>
      </trkpt>
      <trkpt lat="47.3467" lon="-2.34191">
        <ele>15.60000038147</ele>
        <time>2019-06-02T09:11:42.000Z</time>
      </trkpt>
      <trkpt lat="47.34667" lon="-2.34203">
        <ele>15.60000038147</ele>
        <time>2019-06-02T09:11:44.000Z</time>
      </trkpt>
      <trkpt lat="47.34663" lon="-2.34214">
        <ele>15.60000038147</ele>
        <time>2019-06-02T09:11:46.000Z</time>
      </trkpt>
      <trkpt lat="47.34661" lon="-2.3422">
        <ele>15.60000038147</ele>
        <time>2019-06-02T09:11:47.000Z</time>
      </trkpt>
      <trkpt lat="47.34655" lon="-2.34237">
        <ele>16</ele>
        <time>2019-06-02T09:11:50.000Z</time>
      </trkpt>
      <trkpt lat="47.34653" lon="-2.34242">
        <ele>16.39999961853</ele>
        <time>2019-06-02T09:11:51.000Z</time>
      </trkpt>
      <trkpt lat="47.34651" lon="-2.34249">
        <ele>16.799999237061</ele>
        <time>2019-06-02T09:11:52.000Z</time>
      </trkpt>
      <trkpt lat="47.34649" lon="-2.34255">
        <ele>17.200000762939</ele>
        <time>2019-06-02T09:11:53.000Z</time>
      </trkpt>
      <trkpt lat="47.34647" lon="-2.34261">
        <ele>17.799999237061</ele>
        <time>2019-06-02T09:11:54.000Z</time>
      </trkpt>
      <trkpt lat="47.34645" lon="-2.34267">
        <ele>17.799999237061</ele>
        <time>2019-06-02T09:11:55.000Z</time>
      </trkpt>
      <trkpt lat="47.3464" lon="-2.34279">
        <ele>17.799999237061</ele>
        <time>2019-06-02T09:11:57.000Z</time>
      </trkpt>
      <trkpt lat="47.34638" lon="-2.34284">
        <ele>18.200000762939</ele>
        <time>2019-06-02T09:11:58.000Z</time>
      </trkpt>
      <trkpt lat="47.34636" lon="-2.3429">
        <ele>18.60000038147</ele>
        <time>2019-06-02T09:11:59.000Z</time>
      </trkpt>
      <trkpt lat="47.34634" lon="-2.34296">
        <ele>19.200000762939</ele>
        <time>2019-06-02T09:12:00.000Z</time>
      </trkpt>
      <trkpt lat="47.34633" lon="-2.34302">
        <ele>19.60000038147</ele>
        <time>2019-06-02T09:12:01.000Z</time>
      </trkpt>
      <trkpt lat="47.34632" lon="-2.34308">
        <ele>20</ele>
        <time>2019-06-02T09:12:02.000Z</time>
      </trkpt>
      <trkpt lat="47.34631" lon="-2.34314">
        <ele>20</ele>
        <time>2019-06-02T09:12:03.000Z</time>
      </trkpt>
      <trkpt lat="47.34621" lon="-2.34351">
        <ele>20</ele>
        <time>2019-06-02T09:12:09.000Z</time>
      </trkpt>
      <trkpt lat="47.34613" lon="-2.34376">
        <ele>20.39999961853</ele>
        <time>2019-06-02T09:12:13.000Z</time>
      </trkpt>
      <trkpt lat="47.34611" lon="-2.34383">
        <ele>20.799999237061</ele>
        <time>2019-06-02T09:12:14.000Z</time>
      </trkpt>
      <trkpt lat="47.34609" lon="-2.34389">
        <ele>21.200000762939</ele>
        <time>2019-06-02T09:12:15.000Z</time>
      </trkpt>
      <trkpt lat="47.34607" lon="-2.34396">
        <ele>21.60000038147</ele>
        <time>2019-06-02T09:12:16.000Z</time>
      </trkpt>
      <trkpt lat="47.34605" lon="-2.34403">
        <ele>22</ele>
        <time>2019-06-02T09:12:17.000Z</time>
      </trkpt>
      <trkpt lat="47.34599" lon="-2.3444">
        <ele>22</ele>
        <time>2019-06-02T09:12:22.000Z</time>
      </trkpt>
      <trkpt lat="47.346" lon="-2.34477">
        <ele>22</ele>
        <time>2019-06-02T09:12:27.000Z</time>
      </trkpt>
      <trkpt lat="47.34608" lon="-2.34528">
        <ele>22</ele>
        <time>2019-06-02T09:12:34.000Z</time>
      </trkpt>
      <trkpt lat="47.34616" lon="-2.34582">
        <ele>22</ele>
        <time>2019-06-02T09:12:41.000Z</time>
      </trkpt>
      <trkpt lat="47.34626" lon="-2.34635">
        <ele>22</ele>
        <time>2019-06-02T09:12:47.000Z</time>
      </trkpt>
      <trkpt lat="47.3463" lon="-2.34653">
        <ele>21.60000038147</ele>
        <time>2019-06-02T09:12:49.000Z</time>
      </trkpt>
      <trkpt lat="47.34631" lon="-2.34662">
        <ele>21.200000762939</ele>
        <time>2019-06-02T09:12:50.000Z</time>
      </trkpt>
      <trkpt lat="47.34633" lon="-2.34672">
        <ele>20.799999237061</ele>
        <time>2019-06-02T09:12:51.000Z</time>
      </trkpt>
      <trkpt lat="47.34635" lon="-2.34684">
        <ele>20.39999961853</ele>
        <time>2019-06-02T09:12:52.000Z</time>
      </trkpt>
      <trkpt lat="47.34637" lon="-2.34694">
        <ele>20</ele>
        <time>2019-06-02T09:12:53.000Z</time>
      </trkpt>
      <trkpt lat="47.34639" lon="-2.34716">
        <ele>20</ele>
        <time>2019-06-02T09:12:55.000Z</time>
      </trkpt>
      <trkpt lat="47.3464" lon="-2.34728">
        <ele>19.39999961853</ele>
        <time>2019-06-02T09:12:56.000Z</time>
      </trkpt>
      <trkpt lat="47.34639" lon="-2.34739">
        <ele>19</ele>
        <time>2019-06-02T09:12:57.000Z</time>
      </trkpt>
      <trkpt lat="47.34638" lon="-2.3475">
        <ele>18.60000038147</ele>
        <time>2019-06-02T09:12:58.000Z</time>
      </trkpt>
      <trkpt lat="47.34636" lon="-2.34762">
        <ele>17.60000038147</ele>
        <time>2019-06-02T09:12:59.000Z</time>
      </trkpt>
      <trkpt lat="47.3463" lon="-2.34782">
        <ele>17.60000038147</ele>
        <time>2019-06-02T09:13:01.000Z</time>
      </trkpt>
      <trkpt lat="47.34622" lon="-2.34801">
        <ele>17.60000038147</ele>
        <time>2019-06-02T09:13:03.000Z</time>
      </trkpt>
      <trkpt lat="47.34606" lon="-2.34836">
        <ele>17.60000038147</ele>
        <time>2019-06-02T09:13:07.000Z</time>
      </trkpt>
      <trkpt lat="47.34585" lon="-2.34883">
        <ele>17.60000038147</ele>
        <time>2019-06-02T09:13:13.000Z</time>
      </trkpt>
      <trkpt lat="47.34578" lon="-2.34902">
        <ele>17.60000038147</ele>
        <time>2019-06-02T09:13:16.000Z</time>
      </trkpt>
      <trkpt lat="47.34578" lon="-2.34907">
        <ele>17.60000038147</ele>
        <time>2019-06-02T09:13:17.000Z</time>
      </trkpt>
      <trkpt lat="47.34583" lon="-2.34921">
        <ele>17.60000038147</ele>
        <time>2019-06-02T09:13:20.000Z</time>
      </trkpt>
      <trkpt lat="47.34595" lon="-2.3495">
        <ele>17.60000038147</ele>
        <time>2019-06-02T09:13:26.000Z</time>
      </trkpt>
      <trkpt lat="47.3461" lon="-2.34972">
        <ele>17.60000038147</ele>
        <time>2019-06-02T09:13:31.000Z</time>
      </trkpt>
      <trkpt lat="47.3462" lon="-2.3499">
        <ele>17.60000038147</ele>
        <time>2019-06-02T09:13:35.000Z</time>
      </trkpt>
      <trkpt lat="47.34622" lon="-2.34993">
        <ele>17.200000762939</ele>
        <time>2019-06-02T09:13:36.000Z</time>
      </trkpt>
      <trkpt lat="47.34624" lon="-2.34996">
        <ele>16.799999237061</ele>
        <time>2019-06-02T09:13:37.000Z</time>
      </trkpt>
      <trkpt lat="47.34626" lon="-2.34998">
        <ele>16.39999961853</ele>
        <time>2019-06-02T09:13:38.000Z</time>
      </trkpt>
      <trkpt lat="47.34627" lon="-2.35">
        <ele>16</ele>
        <time>2019-06-02T09:13:39.000Z</time>
      </trkpt>
      <trkpt lat="47.34629" lon="-2.35002">
        <ele>15.60000038147</ele>
        <time>2019-06-02T09:13:40.000Z</time>
      </trkpt>
      <trkpt lat="47.34631" lon="-2.35006">
        <ele>15.60000038147</ele>
        <time>2019-06-02T09:13:42.000Z</time>
      </trkpt>
      <trkpt lat="47.34633" lon="-2.35016">
        <ele>15.60000038147</ele>
        <time>2019-06-02T09:13:45.000Z</time>
      </trkpt>
      <trkpt lat="47.34635" lon="-2.35019">
        <ele>15.60000038147</ele>
        <time>2019-06-02T09:13:46.000Z</time>
      </trkpt>
      <trkpt lat="47.34639" lon="-2.35025">
        <ele>15.60000038147</ele>
        <time>2019-06-02T09:13:48.000Z</time>
      </trkpt>
      <trkpt lat="47.34642" lon="-2.35026">
        <ele>15.60000038147</ele>
        <time>2019-06-02T09:13:49.000Z</time>
      </trkpt>
      <trkpt lat="47.34654" lon="-2.35028">
        <ele>15.60000038147</ele>
        <time>2019-06-02T09:13:53.000Z</time>
      </trkpt>
      <trkpt lat="47.34657" lon="-2.35029">
        <ele>15.60000038147</ele>
        <time>2019-06-02T09:13:54.000Z</time>
      </trkpt>
      <trkpt lat="47.34668" lon="-2.3503">
        <ele>15.60000038147</ele>
        <time>2019-06-02T09:13:58.000Z</time>
      </trkpt>
      <trkpt lat="47.34672" lon="-2.35034">
        <ele>15.60000038147</ele>
        <time>2019-06-02T09:14:00.000Z</time>
      </trkpt>
      <trkpt lat="47.34682" lon="-2.3505">
        <ele>15.60000038147</ele>
        <time>2019-06-02T09:14:05.000Z</time>
      </trkpt>
      <trkpt lat="47.3469" lon="-2.3507">
        <ele>15.60000038147</ele>
        <time>2019-06-02T09:14:11.000Z</time>
      </trkpt>
      <trkpt lat="47.34705" lon="-2.35092">
        <ele>15.60000038147</ele>
        <time>2019-06-02T09:14:15.000Z</time>
      </trkpt>
      <trkpt lat="47.34723" lon="-2.35122">
        <ele>15.60000038147</ele>
        <time>2019-06-02T09:14:20.000Z</time>
      </trkpt>
      <trkpt lat="47.34739" lon="-2.35144">
        <ele>15.60000038147</ele>
        <time>2019-06-02T09:14:25.000Z</time>
      </trkpt>
      <trkpt lat="47.34757" lon="-2.35169">
        <ele>15.60000038147</ele>
        <time>2019-06-02T09:14:30.000Z</time>
      </trkpt>
      <trkpt lat="47.34757" lon="-2.35196">
        <ele>15.60000038147</ele>
        <time>2019-06-02T09:14:37.000Z</time>
      </trkpt>
      <trkpt lat="47.34757" lon="-2.35202">
        <ele>15.60000038147</ele>
        <time>2019-06-02T09:14:39.000Z</time>
      </trkpt>
      <trkpt lat="47.34757" lon="-2.35207">
        <ele>15.60000038147</ele>
        <time>2019-06-02T09:14:40.000Z</time>
      </trkpt>
      <trkpt lat="47.34757" lon="-2.3523">
        <ele>15.60000038147</ele>
        <time>2019-06-02T09:14:44.000Z</time>
      </trkpt>
      <trkpt lat="47.34753" lon="-2.35249">
        <ele>15.60000038147</ele>
        <time>2019-06-02T09:14:47.000Z</time>
      </trkpt>
      <trkpt lat="47.34749" lon="-2.35266">
        <ele>15.60000038147</ele>
        <time>2019-06-02T09:14:50.000Z</time>
      </trkpt>
      <trkpt lat="47.34745" lon="-2.35282">
        <ele>15.60000038147</ele>
        <time>2019-06-02T09:14:53.000Z</time>
      </trkpt>
      <trkpt lat="47.34742" lon="-2.35286">
        <ele>15.60000038147</ele>
        <time>2019-06-02T09:14:54.000Z</time>
      </trkpt>
      <trkpt lat="47.34735" lon="-2.35297">
        <ele>15.60000038147</ele>
        <time>2019-06-02T09:14:57.000Z</time>
      </trkpt>
      <trkpt lat="47.34731" lon="-2.35308">
        <ele>15.60000038147</ele>
        <time>2019-06-02T09:15:00.000Z</time>
      </trkpt>
      <trkpt lat="47.34731" lon="-2.35316">
        <ele>15.60000038147</ele>
        <time>2019-06-02T09:15:02.000Z</time>
      </trkpt>
      <trkpt lat="47.3473" lon="-2.35326">
        <ele>15.60000038147</ele>
        <time>2019-06-02T09:15:04.000Z</time>
      </trkpt>
      <trkpt lat="47.34729" lon="-2.35347">
        <ele>15.60000038147</ele>
        <time>2019-06-02T09:15:08.000Z</time>
      </trkpt>
      <trkpt lat="47.34725" lon="-2.35362">
        <ele>15.60000038147</ele>
        <time>2019-06-02T09:15:12.000Z</time>
      </trkpt>
      <trkpt lat="47.34709" lon="-2.35385">
        <ele>15.60000038147</ele>
        <time>2019-06-02T09:15:17.000Z</time>
      </trkpt>
      <trkpt lat="47.34693" lon="-2.35398">
        <ele>15.60000038147</ele>
        <time>2019-06-02T09:15:22.000Z</time>
      </trkpt>
      <trkpt lat="47.34674" lon="-2.35401">
        <ele>15.60000038147</ele>
        <time>2019-06-02T09:15:27.000Z</time>
      </trkpt>
      <trkpt lat="47.34659" lon="-2.35406">
        <ele>15.60000038147</ele>
        <time>2019-06-02T09:15:32.000Z</time>
      </trkpt>
      <trkpt lat="47.34649" lon="-2.35403">
        <ele>15.60000038147</ele>
        <time>2019-06-02T09:15:37.000Z</time>
      </trkpt>
      <trkpt lat="47.34637" lon="-2.35397">
        <ele>15.60000038147</ele>
        <time>2019-06-02T09:15:42.000Z</time>
      </trkpt>
      <trkpt lat="47.34624" lon="-2.35387">
        <ele>15.60000038147</ele>
        <time>2019-06-02T09:15:46.000Z</time>
      </trkpt>
      <trkpt lat="47.34603" lon="-2.35372">
        <ele>15.60000038147</ele>
        <time>2019-06-02T09:15:52.000Z</time>
      </trkpt>
      <trkpt lat="47.34599" lon="-2.35372">
        <ele>15.60000038147</ele>
        <time>2019-06-02T09:15:53.000Z</time>
      </trkpt>
      <trkpt lat="47.34582" lon="-2.35371">
        <ele>15.60000038147</ele>
        <time>2019-06-02T09:15:58.000Z</time>
      </trkpt>
      <trkpt lat="47.34558" lon="-2.35364">
        <ele>15.60000038147</ele>
        <time>2019-06-02T09:16:03.000Z</time>
      </trkpt>
      <trkpt lat="47.34547" lon="-2.35362">
        <ele>15.60000038147</ele>
        <time>2019-06-02T09:16:05.000Z</time>
      </trkpt>
      <trkpt lat="47.3453" lon="-2.35361">
        <ele>15.60000038147</ele>
        <time>2019-06-02T09:16:08.000Z</time>
      </trkpt>
      <trkpt lat="47.3452" lon="-2.35364">
        <ele>15.60000038147</ele>
        <time>2019-06-02T09:16:10.000Z</time>
      </trkpt>
      <trkpt lat="47.34507" lon="-2.35373">
        <ele>15.60000038147</ele>
        <time>2019-06-02T09:16:13.000Z</time>
      </trkpt>
      <trkpt lat="47.34489" lon="-2.35385">
        <ele>15.60000038147</ele>
        <time>2019-06-02T09:16:18.000Z</time>
      </trkpt>
      <trkpt lat="47.34482" lon="-2.35395">
        <ele>15.60000038147</ele>
        <time>2019-06-02T09:16:20.000Z</time>
      </trkpt>
      <trkpt lat="47.34474" lon="-2.35402">
        <ele>15.60000038147</ele>
        <time>2019-06-02T09:16:22.000Z</time>
      </trkpt>
      <trkpt lat="47.3447" lon="-2.35405">
        <ele>15.60000038147</ele>
        <time>2019-06-02T09:16:23.000Z</time>
      </trkpt>
      <trkpt lat="47.34455" lon="-2.35405">
        <ele>15.199999809265</ele>
        <time>2019-06-02T09:16:27.000Z</time>
      </trkpt>
      <trkpt lat="47.34453" lon="-2.35405">
        <ele>14.800000190735</ele>
        <time>2019-06-02T09:16:28.000Z</time>
      </trkpt>
      <trkpt lat="47.3445" lon="-2.35406">
        <ele>14.39999961853</ele>
        <time>2019-06-02T09:16:29.000Z</time>
      </trkpt>
      <trkpt lat="47.34447" lon="-2.35405">
        <ele>14</ele>
        <time>2019-06-02T09:16:30.000Z</time>
      </trkpt>
      <trkpt lat="47.34444" lon="-2.35404">
        <ele>13.60000038147</ele>
        <time>2019-06-02T09:16:31.000Z</time>
      </trkpt>
      <trkpt lat="47.34437" lon="-2.35403">
        <ele>13.60000038147</ele>
        <time>2019-06-02T09:16:33.000Z</time>
      </trkpt>
      <trkpt lat="47.3443" lon="-2.35407">
        <ele>13.60000038147</ele>
        <time>2019-06-02T09:16:35.000Z</time>
      </trkpt>
      <trkpt lat="47.34425" lon="-2.3542">
        <ele>13.60000038147</ele>
        <time>2019-06-02T09:16:38.000Z</time>
      </trkpt>
      <trkpt lat="47.3442" lon="-2.35434">
        <ele>13.60000038147</ele>
        <time>2019-06-02T09:16:40.000Z</time>
      </trkpt>
      <trkpt lat="47.34413" lon="-2.35454">
        <ele>13.60000038147</ele>
        <time>2019-06-02T09:16:43.000Z</time>
      </trkpt>
      <trkpt lat="47.3441" lon="-2.35461">
        <ele>13.60000038147</ele>
        <time>2019-06-02T09:16:44.000Z</time>
      </trkpt>
      <trkpt lat="47.34407" lon="-2.35468">
        <ele>14</ele>
        <time>2019-06-02T09:16:45.000Z</time>
      </trkpt>
      <trkpt lat="47.34404" lon="-2.35475">
        <ele>14.39999961853</ele>
        <time>2019-06-02T09:16:46.000Z</time>
      </trkpt>
      <trkpt lat="47.344" lon="-2.35481">
        <ele>14.800000190735</ele>
        <time>2019-06-02T09:16:47.000Z</time>
      </trkpt>
      <trkpt lat="47.34396" lon="-2.35487">
        <ele>15.199999809265</ele>
        <time>2019-06-02T09:16:48.000Z</time>
      </trkpt>
      <trkpt lat="47.34392" lon="-2.35494">
        <ele>15.60000038147</ele>
        <time>2019-06-02T09:16:49.000Z</time>
      </trkpt>
      <trkpt lat="47.34371" lon="-2.35523">
        <ele>15.60000038147</ele>
        <time>2019-06-02T09:16:54.000Z</time>
      </trkpt>
      <trkpt lat="47.3434" lon="-2.35566">
        <ele>15.60000038147</ele>
        <time>2019-06-02T09:17:01.000Z</time>
      </trkpt>
      <trkpt lat="47.34309" lon="-2.3561">
        <ele>15.60000038147</ele>
        <time>2019-06-02T09:17:08.000Z</time>
      </trkpt>
      <trkpt lat="47.34279" lon="-2.35653">
        <ele>15.60000038147</ele>
        <time>2019-06-02T09:17:15.000Z</time>
      </trkpt>
      <trkpt lat="47.34271" lon="-2.35665">
        <ele>15.60000038147</ele>
        <time>2019-06-02T09:17:17.000Z</time>
      </trkpt>
      <trkpt lat="47.34248" lon="-2.35697">
        <ele>15.60000038147</ele>
        <time>2019-06-02T09:17:22.000Z</time>
      </trkpt>
      <trkpt lat="47.34225" lon="-2.35733">
        <ele>15.60000038147</ele>
        <time>2019-06-02T09:17:28.000Z</time>
      </trkpt>
      <trkpt lat="47.34215" lon="-2.3573">
        <ele>15.60000038147</ele>
        <time>2019-06-02T09:17:31.000Z</time>
      </trkpt>
      <trkpt lat="47.3421" lon="-2.35717">
        <ele>15.60000038147</ele>
        <time>2019-06-02T09:17:35.000Z</time>
      </trkpt>
      <trkpt lat="47.34209" lon="-2.35712">
        <ele>16</ele>
        <time>2019-06-02T09:17:37.000Z</time>
      </trkpt>
      <trkpt lat="47.34208" lon="-2.35709">
        <ele>16.60000038147</ele>
        <time>2019-06-02T09:17:38.000Z</time>
      </trkpt>
      <trkpt lat="47.34207" lon="-2.35705">
        <ele>17</ele>
        <time>2019-06-02T09:17:39.000Z</time>
      </trkpt>
      <trkpt lat="47.34205" lon="-2.35702">
        <ele>17.60000038147</ele>
        <time>2019-06-02T09:17:40.000Z</time>
      </trkpt>
      <trkpt lat="47.34203" lon="-2.35699">
        <ele>18</ele>
        <time>2019-06-02T09:17:41.000Z</time>
      </trkpt>
      <trkpt lat="47.34194" lon="-2.35688">
        <ele>18</ele>
        <time>2019-06-02T09:17:44.000Z</time>
      </trkpt>
      <trkpt lat="47.34191" lon="-2.35684">
        <ele>18.39999961853</ele>
        <time>2019-06-02T09:17:45.000Z</time>
      </trkpt>
      <trkpt lat="47.34189" lon="-2.35679">
        <ele>19</ele>
        <time>2019-06-02T09:17:46.000Z</time>
      </trkpt>
      <trkpt lat="47.34187" lon="-2.35675">
        <ele>19.39999961853</ele>
        <time>2019-06-02T09:17:47.000Z</time>
      </trkpt>
      <trkpt lat="47.34184" lon="-2.35671">
        <ele>19.799999237061</ele>
        <time>2019-06-02T09:17:48.000Z</time>
      </trkpt>
      <trkpt lat="47.34181" lon="-2.35667">
        <ele>20.39999961853</ele>
        <time>2019-06-02T09:17:49.000Z</time>
      </trkpt>
      <trkpt lat="47.34179" lon="-2.35663">
        <ele>20.39999961853</ele>
        <time>2019-06-02T09:17:50.000Z</time>
      </trkpt>
      <trkpt lat="47.3417" lon="-2.3565">
        <ele>20.799999237061</ele>
        <time>2019-06-02T09:17:53.000Z</time>
      </trkpt>
      <trkpt lat="47.34168" lon="-2.35646">
        <ele>21.200000762939</ele>
        <time>2019-06-02T09:17:54.000Z</time>
      </trkpt>
      <trkpt lat="47.34165" lon="-2.35642">
        <ele>21.60000038147</ele>
        <time>2019-06-02T09:17:55.000Z</time>
      </trkpt>
      <trkpt lat="47.34162" lon="-2.35637">
        <ele>22.60000038147</ele>
        <time>2019-06-02T09:17:56.000Z</time>
      </trkpt>
      <trkpt lat="47.3416" lon="-2.35632">
        <ele>22.60000038147</ele>
        <time>2019-06-02T09:17:57.000Z</time>
      </trkpt>
      <trkpt lat="47.34152" lon="-2.35617">
        <ele>22.60000038147</ele>
        <time>2019-06-02T09:18:00.000Z</time>
      </trkpt>
      <trkpt lat="47.34146" lon="-2.35607">
        <ele>22.60000038147</ele>
        <time>2019-06-02T09:18:02.000Z</time>
      </trkpt>
      <trkpt lat="47.3414" lon="-2.35595">
        <ele>22.60000038147</ele>
        <time>2019-06-02T09:18:04.000Z</time>
      </trkpt>
      <trkpt lat="47.3413" lon="-2.35568">
        <ele>22.60000038147</ele>
        <time>2019-06-02T09:18:08.000Z</time>
      </trkpt>
      <trkpt lat="47.34111" lon="-2.35513">
        <ele>22.60000038147</ele>
        <time>2019-06-02T09:18:15.000Z</time>
      </trkpt>
      <trkpt lat="47.34091" lon="-2.3546">
        <ele>22.60000038147</ele>
        <time>2019-06-02T09:18:22.000Z</time>
      </trkpt>
      <trkpt lat="47.34075" lon="-2.35416">
        <ele>22.60000038147</ele>
        <time>2019-06-02T09:18:28.000Z</time>
      </trkpt>
      <trkpt lat="47.34051" lon="-2.35362">
        <ele>23</ele>
        <time>2019-06-02T09:18:36.000Z</time>
      </trkpt>
      <trkpt lat="47.34048" lon="-2.35357">
        <ele>23.39999961853</ele>
        <time>2019-06-02T09:18:37.000Z</time>
      </trkpt>
      <trkpt lat="47.34043" lon="-2.35352">
        <ele>23.799999237061</ele>
        <time>2019-06-02T09:18:38.000Z</time>
      </trkpt>
      <trkpt lat="47.34039" lon="-2.35347">
        <ele>24.200000762939</ele>
        <time>2019-06-02T09:18:39.000Z</time>
      </trkpt>
      <trkpt lat="47.34035" lon="-2.35342">
        <ele>24.60000038147</ele>
        <time>2019-06-02T09:18:40.000Z</time>
      </trkpt>
      <trkpt lat="47.3403" lon="-2.35337">
        <ele>24.60000038147</ele>
        <time>2019-06-02T09:18:41.000Z</time>
      </trkpt>
      <trkpt lat="47.34025" lon="-2.35333">
        <ele>24.60000038147</ele>
        <time>2019-06-02T09:18:42.000Z</time>
      </trkpt>
      <trkpt lat="47.33993" lon="-2.35303">
        <ele>24.60000038147</ele>
        <time>2019-06-02T09:18:49.000Z</time>
      </trkpt>
      <trkpt lat="47.3397" lon="-2.35279">
        <ele>24.60000038147</ele>
        <time>2019-06-02T09:18:55.000Z</time>
      </trkpt>
      <trkpt lat="47.33967" lon="-2.35275">
        <ele>25</ele>
        <time>2019-06-02T09:18:56.000Z</time>
      </trkpt>
      <trkpt lat="47.33964" lon="-2.35271">
        <ele>25.39999961853</ele>
        <time>2019-06-02T09:18:57.000Z</time>
      </trkpt>
      <trkpt lat="47.33961" lon="-2.35268">
        <ele>26</ele>
        <time>2019-06-02T09:18:58.000Z</time>
      </trkpt>
      <trkpt lat="47.33958" lon="-2.35268">
        <ele>26.39999961853</ele>
        <time>2019-06-02T09:18:59.000Z</time>
      </trkpt>
      <trkpt lat="47.33955" lon="-2.35268">
        <ele>26.799999237061</ele>
        <time>2019-06-02T09:19:00.000Z</time>
      </trkpt>
      <trkpt lat="47.33935" lon="-2.35279">
        <ele>26.799999237061</ele>
        <time>2019-06-02T09:19:05.000Z</time>
      </trkpt>
      <trkpt lat="47.33931" lon="-2.35283">
        <ele>26.799999237061</ele>
        <time>2019-06-02T09:19:06.000Z</time>
      </trkpt>
      <trkpt lat="47.33922" lon="-2.35289">
        <ele>27.200000762939</ele>
        <time>2019-06-02T09:19:08.000Z</time>
      </trkpt>
      <trkpt lat="47.33917" lon="-2.35291">
        <ele>27.60000038147</ele>
        <time>2019-06-02T09:19:09.000Z</time>
      </trkpt>
      <trkpt lat="47.33911" lon="-2.35294">
        <ele>28</ele>
        <time>2019-06-02T09:19:10.000Z</time>
      </trkpt>
      <trkpt lat="47.33906" lon="-2.35295">
        <ele>29</ele>
        <time>2019-06-02T09:19:11.000Z</time>
      </trkpt>
      <trkpt lat="47.33876" lon="-2.35307">
        <ele>29</ele>
        <time>2019-06-02T09:19:17.000Z</time>
      </trkpt>
      <trkpt lat="47.3386" lon="-2.35316">
        <ele>29</ele>
        <time>2019-06-02T09:19:21.000Z</time>
      </trkpt>
      <trkpt lat="47.33856" lon="-2.35319">
        <ele>29</ele>
        <time>2019-06-02T09:19:22.000Z</time>
      </trkpt>
      <trkpt lat="47.33846" lon="-2.35331">
        <ele>29</ele>
        <time>2019-06-02T09:19:25.000Z</time>
      </trkpt>
      <trkpt lat="47.33838" lon="-2.35338">
        <ele>29</ele>
        <time>2019-06-02T09:19:27.000Z</time>
      </trkpt>
      <trkpt lat="47.33819" lon="-2.3535">
        <ele>29</ele>
        <time>2019-06-02T09:19:31.000Z</time>
      </trkpt>
      <trkpt lat="47.33814" lon="-2.35351">
        <ele>29</ele>
        <time>2019-06-02T09:19:32.000Z</time>
      </trkpt>
      <trkpt lat="47.33787" lon="-2.35353">
        <ele>29</ele>
        <time>2019-06-02T09:19:37.000Z</time>
      </trkpt>
      <trkpt lat="47.33756" lon="-2.35357">
        <ele>29</ele>
        <time>2019-06-02T09:19:43.000Z</time>
      </trkpt>
      <trkpt lat="47.33741" lon="-2.35361">
        <ele>29</ele>
        <time>2019-06-02T09:19:46.000Z</time>
      </trkpt>
      <trkpt lat="47.33731" lon="-2.35363">
        <ele>29</ele>
        <time>2019-06-02T09:19:48.000Z</time>
      </trkpt>
      <trkpt lat="47.33726" lon="-2.35363">
        <ele>29</ele>
        <time>2019-06-02T09:19:49.000Z</time>
      </trkpt>
      <trkpt lat="47.33715" lon="-2.35363">
        <ele>29</ele>
        <time>2019-06-02T09:19:51.000Z</time>
      </trkpt>
      <trkpt lat="47.3371" lon="-2.35363">
        <ele>29</ele>
        <time>2019-06-02T09:19:52.000Z</time>
      </trkpt>
      <trkpt lat="47.33699" lon="-2.35363">
        <ele>29</ele>
        <time>2019-06-02T09:19:54.000Z</time>
      </trkpt>
      <trkpt lat="47.33678" lon="-2.35364">
        <ele>29</ele>
        <time>2019-06-02T09:19:58.000Z</time>
      </trkpt>
      <trkpt lat="47.33641" lon="-2.35368">
        <ele>29</ele>
        <time>2019-06-02T09:20:05.000Z</time>
      </trkpt>
      <trkpt lat="47.33631" lon="-2.35369">
        <ele>29</ele>
        <time>2019-06-02T09:20:07.000Z</time>
      </trkpt>
      <trkpt lat="47.33614" lon="-2.35373">
        <ele>29</ele>
        <time>2019-06-02T09:20:10.000Z</time>
      </trkpt>
      <trkpt lat="47.33601" lon="-2.35377">
        <ele>28.39999961853</ele>
        <time>2019-06-02T09:20:12.000Z</time>
      </trkpt>
      <trkpt lat="47.33595" lon="-2.35379">
        <ele>28</ele>
        <time>2019-06-02T09:20:13.000Z</time>
      </trkpt>
      <trkpt lat="47.33589" lon="-2.35381">
        <ele>27.60000038147</ele>
        <time>2019-06-02T09:20:14.000Z</time>
      </trkpt>
      <trkpt lat="47.33583" lon="-2.35383">
        <ele>27.200000762939</ele>
        <time>2019-06-02T09:20:15.000Z</time>
      </trkpt>
      <trkpt lat="47.33578" lon="-2.35386">
        <ele>26.799999237061</ele>
        <time>2019-06-02T09:20:16.000Z</time>
      </trkpt>
      <trkpt lat="47.33551" lon="-2.35399">
        <ele>26.799999237061</ele>
        <time>2019-06-02T09:20:21.000Z</time>
      </trkpt>
      <trkpt lat="47.33546" lon="-2.35401">
        <ele>26.799999237061</ele>
        <time>2019-06-02T09:20:22.000Z</time>
      </trkpt>
      <trkpt lat="47.3353" lon="-2.35408">
        <ele>26.799999237061</ele>
        <time>2019-06-02T09:20:25.000Z</time>
      </trkpt>
      <trkpt lat="47.33524" lon="-2.3541">
        <ele>26.799999237061</ele>
        <time>2019-06-02T09:20:26.000Z</time>
      </trkpt>
      <trkpt lat="47.33515" lon="-2.35415">
        <ele>26.799999237061</ele>
        <time>2019-06-02T09:20:28.000Z</time>
      </trkpt>
      <trkpt lat="47.33496" lon="-2.35426">
        <ele>26.799999237061</ele>
        <time>2019-06-02T09:20:32.000Z</time>
      </trkpt>
      <trkpt lat="47.33483" lon="-2.35432">
        <ele>26.799999237061</ele>
        <time>2019-06-02T09:20:35.000Z</time>
      </trkpt>
      <trkpt lat="47.33478" lon="-2.35434">
        <ele>26.799999237061</ele>
        <time>2019-06-02T09:20:36.000Z</time>
      </trkpt>
      <trkpt lat="47.33462" lon="-2.3544">
        <ele>26.799999237061</ele>
        <time>2019-06-02T09:20:40.000Z</time>
      </trkpt>
      <trkpt lat="47.3344" lon="-2.35453">
        <ele>26.799999237061</ele>
        <time>2019-06-02T09:20:45.000Z</time>
      </trkpt>
      <trkpt lat="47.33429" lon="-2.35457">
        <ele>27.200000762939</ele>
        <time>2019-06-02T09:20:47.000Z</time>
      </trkpt>
      <trkpt lat="47.33424" lon="-2.35459">
        <ele>27.60000038147</ele>
        <time>2019-06-02T09:20:48.000Z</time>
      </trkpt>
      <trkpt lat="47.3342" lon="-2.35461">
        <ele>28.39999961853</ele>
        <time>2019-06-02T09:20:49.000Z</time>
      </trkpt>
      <trkpt lat="47.33416" lon="-2.35463">
        <ele>28.799999237061</ele>
        <time>2019-06-02T09:20:50.000Z</time>
      </trkpt>
      <trkpt lat="47.33396" lon="-2.35472">
        <ele>28.799999237061</ele>
        <time>2019-06-02T09:20:54.000Z</time>
      </trkpt>
      <trkpt lat="47.33385" lon="-2.35477">
        <ele>28.799999237061</ele>
        <time>2019-06-02T09:20:56.000Z</time>
      </trkpt>
      <trkpt lat="47.33373" lon="-2.35484">
        <ele>28.799999237061</ele>
        <time>2019-06-02T09:20:58.000Z</time>
      </trkpt>
      <trkpt lat="47.3335" lon="-2.35496">
        <ele>28.799999237061</ele>
        <time>2019-06-02T09:21:02.000Z</time>
      </trkpt>
      <trkpt lat="47.33324" lon="-2.3551">
        <ele>29.39999961853</ele>
        <time>2019-06-02T09:21:07.000Z</time>
      </trkpt>
      <trkpt lat="47.33319" lon="-2.35512">
        <ele>29.799999237061</ele>
        <time>2019-06-02T09:21:08.000Z</time>
      </trkpt>
      <trkpt lat="47.33314" lon="-2.35515">
        <ele>30.200000762939</ele>
        <time>2019-06-02T09:21:09.000Z</time>
      </trkpt>
      <trkpt lat="47.33309" lon="-2.35518">
        <ele>30.60000038147</ele>
        <time>2019-06-02T09:21:10.000Z</time>
      </trkpt>
      <trkpt lat="47.33305" lon="-2.35521">
        <ele>31.200000762939</ele>
        <time>2019-06-02T09:21:11.000Z</time>
      </trkpt>
      <trkpt lat="47.33301" lon="-2.35524">
        <ele>31.200000762939</ele>
        <time>2019-06-02T09:21:12.000Z</time>
      </trkpt>
      <trkpt lat="47.33291" lon="-2.35533">
        <ele>31.200000762939</ele>
        <time>2019-06-02T09:21:15.000Z</time>
      </trkpt>
      <trkpt lat="47.33273" lon="-2.35555">
        <ele>31.200000762939</ele>
        <time>2019-06-02T09:21:20.000Z</time>
      </trkpt>
      <trkpt lat="47.33247" lon="-2.3558">
        <ele>31.200000762939</ele>
        <time>2019-06-02T09:21:26.000Z</time>
      </trkpt>
      <trkpt lat="47.33242" lon="-2.35583">
        <ele>31.200000762939</ele>
        <time>2019-06-02T09:21:27.000Z</time>
      </trkpt>
      <trkpt lat="47.33213" lon="-2.35605">
        <ele>31.200000762939</ele>
        <time>2019-06-02T09:21:33.000Z</time>
      </trkpt>
      <trkpt lat="47.33175" lon="-2.3563">
        <ele>31.200000762939</ele>
        <time>2019-06-02T09:21:41.000Z</time>
      </trkpt>
      <trkpt lat="47.3316" lon="-2.35636">
        <ele>31.200000762939</ele>
        <time>2019-06-02T09:21:44.000Z</time>
      </trkpt>
      <trkpt lat="47.33144" lon="-2.3564">
        <ele>31.200000762939</ele>
        <time>2019-06-02T09:21:47.000Z</time>
      </trkpt>
      <trkpt lat="47.3312" lon="-2.35644">
        <ele>30.60000038147</ele>
        <time>2019-06-02T09:21:51.000Z</time>
      </trkpt>
      <trkpt lat="47.33114" lon="-2.35645">
        <ele>30.200000762939</ele>
        <time>2019-06-02T09:21:52.000Z</time>
      </trkpt>
      <trkpt lat="47.33108" lon="-2.35646">
        <ele>29.799999237061</ele>
        <time>2019-06-02T09:21:53.000Z</time>
      </trkpt>
      <trkpt lat="47.33102" lon="-2.35647">
        <ele>29.39999961853</ele>
        <time>2019-06-02T09:21:54.000Z</time>
      </trkpt>
      <trkpt lat="47.33096" lon="-2.35649">
        <ele>28.799999237061</ele>
        <time>2019-06-02T09:21:55.000Z</time>
      </trkpt>
      <trkpt lat="47.33064" lon="-2.35654">
        <ele>28.39999961853</ele>
        <time>2019-06-02T09:22:00.000Z</time>
      </trkpt>
      <trkpt lat="47.33058" lon="-2.35654">
        <ele>28</ele>
        <time>2019-06-02T09:22:01.000Z</time>
      </trkpt>
      <trkpt lat="47.33051" lon="-2.35655">
        <ele>27.60000038147</ele>
        <time>2019-06-02T09:22:02.000Z</time>
      </trkpt>
      <trkpt lat="47.33045" lon="-2.35656">
        <ele>26.60000038147</ele>
        <time>2019-06-02T09:22:03.000Z</time>
      </trkpt>
      <trkpt lat="47.33029" lon="-2.35659">
        <ele>26.200000762939</ele>
        <time>2019-06-02T09:22:06.000Z</time>
      </trkpt>
      <trkpt lat="47.33025" lon="-2.35659">
        <ele>25.799999237061</ele>
        <time>2019-06-02T09:22:07.000Z</time>
      </trkpt>
      <trkpt lat="47.33023" lon="-2.3566">
        <ele>25.39999961853</ele>
        <time>2019-06-02T09:22:08.000Z</time>
      </trkpt>
      <trkpt lat="47.33021" lon="-2.3566">
        <ele>25</ele>
        <time>2019-06-02T09:22:09.000Z</time>
      </trkpt>
      <trkpt lat="47.33019" lon="-2.35659">
        <ele>24.39999961853</ele>
        <time>2019-06-02T09:22:10.000Z</time>
      </trkpt>
      <trkpt lat="47.33018" lon="-2.35658">
        <ele>24</ele>
        <time>2019-06-02T09:22:12.000Z</time>
      </trkpt>
      <trkpt lat="47.33018" lon="-2.35658">
        <ele>23.60000038147</ele>
        <time>2019-06-02T09:22:13.000Z</time>
      </trkpt>
      <trkpt lat="47.33018" lon="-2.35653">
        <ele>22.39999961853</ele>
        <time>2019-06-02T09:22:31.000Z</time>
      </trkpt>
      <trkpt lat="47.33018" lon="-2.35645">
        <ele>22.39999961853</ele>
        <time>2019-06-02T09:22:33.000Z</time>
      </trkpt>
      <trkpt lat="47.33018" lon="-2.35635">
        <ele>22.39999961853</ele>
        <time>2019-06-02T09:22:35.000Z</time>
      </trkpt>
      <trkpt lat="47.33019" lon="-2.35621">
        <ele>22.39999961853</ele>
        <time>2019-06-02T09:22:38.000Z</time>
      </trkpt>
      <trkpt lat="47.33022" lon="-2.35591">
        <ele>22.39999961853</ele>
        <time>2019-06-02T09:22:44.000Z</time>
      </trkpt>
      <trkpt lat="47.33025" lon="-2.35563">
        <ele>23</ele>
        <time>2019-06-02T09:22:49.000Z</time>
      </trkpt>
      <trkpt lat="47.33025" lon="-2.35558">
        <ele>23.39999961853</ele>
        <time>2019-06-02T09:22:50.000Z</time>
      </trkpt>
      <trkpt lat="47.33024" lon="-2.35551">
        <ele>23.799999237061</ele>
        <time>2019-06-02T09:22:51.000Z</time>
      </trkpt>
      <trkpt lat="47.33025" lon="-2.35545">
        <ele>24.200000762939</ele>
        <time>2019-06-02T09:22:52.000Z</time>
      </trkpt>
      <trkpt lat="47.33026" lon="-2.35539">
        <ele>24.60000038147</ele>
        <time>2019-06-02T09:22:53.000Z</time>
      </trkpt>
      <trkpt lat="47.33027" lon="-2.35519">
        <ele>24.60000038147</ele>
        <time>2019-06-02T09:22:56.000Z</time>
      </trkpt>
      <trkpt lat="47.33031" lon="-2.35491">
        <ele>24.60000038147</ele>
        <time>2019-06-02T09:23:00.000Z</time>
      </trkpt>
      <trkpt lat="47.33031" lon="-2.35484">
        <ele>25</ele>
        <time>2019-06-02T09:23:01.000Z</time>
      </trkpt>
      <trkpt lat="47.33031" lon="-2.35477">
        <ele>25.39999961853</ele>
        <time>2019-06-02T09:23:02.000Z</time>
      </trkpt>
      <trkpt lat="47.33032" lon="-2.35471">
        <ele>25.799999237061</ele>
        <time>2019-06-02T09:23:03.000Z</time>
      </trkpt>
      <trkpt lat="47.33032" lon="-2.35465">
        <ele>26.200000762939</ele>
        <time>2019-06-02T09:23:04.000Z</time>
      </trkpt>
      <trkpt lat="47.33033" lon="-2.35459">
        <ele>26.60000038147</ele>
        <time>2019-06-02T09:23:05.000Z</time>
      </trkpt>
      <trkpt lat="47.33031" lon="-2.35453">
        <ele>26.60000038147</ele>
        <time>2019-06-02T09:23:06.000Z</time>
      </trkpt>
      <trkpt lat="47.33031" lon="-2.35435">
        <ele>26.60000038147</ele>
        <time>2019-06-02T09:23:09.000Z</time>
      </trkpt>
      <trkpt lat="47.33029" lon="-2.3539">
        <ele>26.60000038147</ele>
        <time>2019-06-02T09:23:16.000Z</time>
      </trkpt>
      <trkpt lat="47.33028" lon="-2.35383">
        <ele>26.60000038147</ele>
        <time>2019-06-02T09:23:17.000Z</time>
      </trkpt>
      <trkpt lat="47.33026" lon="-2.35377">
        <ele>27</ele>
        <time>2019-06-02T09:23:18.000Z</time>
      </trkpt>
      <trkpt lat="47.33026" lon="-2.35372">
        <ele>27.39999961853</ele>
        <time>2019-06-02T09:23:19.000Z</time>
      </trkpt>
      <trkpt lat="47.33025" lon="-2.35366">
        <ele>27.799999237061</ele>
        <time>2019-06-02T09:23:20.000Z</time>
      </trkpt>
      <trkpt lat="47.33025" lon="-2.35358">
        <ele>28.200000762939</ele>
        <time>2019-06-02T09:23:21.000Z</time>
      </trkpt>
      <trkpt lat="47.33025" lon="-2.35352">
        <ele>28.60000038147</ele>
        <time>2019-06-02T09:23:22.000Z</time>
      </trkpt>
      <trkpt lat="47.33023" lon="-2.35336">
        <ele>28.60000038147</ele>
        <time>2019-06-02T09:23:24.000Z</time>
      </trkpt>
      <trkpt lat="47.33022" lon="-2.35298">
        <ele>28.60000038147</ele>
        <time>2019-06-02T09:23:29.000Z</time>
      </trkpt>
      <trkpt lat="47.33023" lon="-2.35284">
        <ele>28.60000038147</ele>
        <time>2019-06-02T09:23:31.000Z</time>
      </trkpt>
      <trkpt lat="47.33025" lon="-2.35276">
        <ele>28.60000038147</ele>
        <time>2019-06-02T09:23:32.000Z</time>
      </trkpt>
      <trkpt lat="47.33028" lon="-2.35254">
        <ele>28.60000038147</ele>
        <time>2019-06-02T09:23:35.000Z</time>
      </trkpt>
      <trkpt lat="47.33028" lon="-2.35247">
        <ele>28.60000038147</ele>
        <time>2019-06-02T09:23:36.000Z</time>
      </trkpt>
      <trkpt lat="47.33029" lon="-2.35221">
        <ele>28.60000038147</ele>
        <time>2019-06-02T09:23:39.000Z</time>
      </trkpt>
      <trkpt lat="47.33028" lon="-2.35214">
        <ele>28.60000038147</ele>
        <time>2019-06-02T09:23:40.000Z</time>
      </trkpt>
      <trkpt lat="47.33026" lon="-2.35183">
        <ele>28.60000038147</ele>
        <time>2019-06-02T09:23:44.000Z</time>
      </trkpt>
      <trkpt lat="47.33026" lon="-2.35175">
        <ele>28.60000038147</ele>
        <time>2019-06-02T09:23:45.000Z</time>
      </trkpt>
      <trkpt lat="47.33026" lon="-2.35156">
        <ele>28.60000038147</ele>
        <time>2019-06-02T09:23:49.000Z</time>
      </trkpt>
      <trkpt lat="47.33025" lon="-2.35128">
        <ele>28.60000038147</ele>
        <time>2019-06-02T09:23:54.000Z</time>
      </trkpt>
      <trkpt lat="47.33023" lon="-2.35104">
        <ele>28.60000038147</ele>
        <time>2019-06-02T09:23:59.000Z</time>
      </trkpt>
      <trkpt lat="47.33021" lon="-2.35096">
        <ele>28.60000038147</ele>
        <time>2019-06-02T09:24:01.000Z</time>
      </trkpt>
      <trkpt lat="47.33014" lon="-2.35079">
        <ele>28.60000038147</ele>
        <time>2019-06-02T09:24:04.000Z</time>
      </trkpt>
      <trkpt lat="47.3301" lon="-2.35062">
        <ele>28.200000762939</ele>
        <time>2019-06-02T09:24:08.000Z</time>
      </trkpt>
      <trkpt lat="47.33009" lon="-2.35056">
        <ele>27.799999237061</ele>
        <time>2019-06-02T09:24:09.000Z</time>
      </trkpt>
      <trkpt lat="47.33007" lon="-2.35048">
        <ele>27.39999961853</ele>
        <time>2019-06-02T09:24:10.000Z</time>
      </trkpt>
      <trkpt lat="47.33005" lon="-2.35044">
        <ele>27</ele>
        <time>2019-06-02T09:24:11.000Z</time>
      </trkpt>
      <trkpt lat="47.33002" lon="-2.3504">
        <ele>26.60000038147</ele>
        <time>2019-06-02T09:24:12.000Z</time>
      </trkpt>
      <trkpt lat="47.32999" lon="-2.35035">
        <ele>26.60000038147</ele>
        <time>2019-06-02T09:24:13.000Z</time>
      </trkpt>
      <trkpt lat="47.32989" lon="-2.35013">
        <ele>26.60000038147</ele>
        <time>2019-06-02T09:24:17.000Z</time>
      </trkpt>
      <trkpt lat="47.32984" lon="-2.34998">
        <ele>26.60000038147</ele>
        <time>2019-06-02T09:24:20.000Z</time>
      </trkpt>
      <trkpt lat="47.32984" lon="-2.34993">
        <ele>26.60000038147</ele>
        <time>2019-06-02T09:24:21.000Z</time>
      </trkpt>
      <trkpt lat="47.32983" lon="-2.34985">
        <ele>26.60000038147</ele>
        <time>2019-06-02T09:24:23.000Z</time>
      </trkpt>
      <trkpt lat="47.32981" lon="-2.34975">
        <ele>26.60000038147</ele>
        <time>2019-06-02T09:24:25.000Z</time>
      </trkpt>
      <trkpt lat="47.32975" lon="-2.34956">
        <ele>26.60000038147</ele>
        <time>2019-06-02T09:24:28.000Z</time>
      </trkpt>
      <trkpt lat="47.32966" lon="-2.34931">
        <ele>26.60000038147</ele>
        <time>2019-06-02T09:24:31.000Z</time>
      </trkpt>
      <trkpt lat="47.32959" lon="-2.3491">
        <ele>26.60000038147</ele>
        <time>2019-06-02T09:24:33.000Z</time>
      </trkpt>
      <trkpt lat="47.32952" lon="-2.34893">
        <ele>26.200000762939</ele>
        <time>2019-06-02T09:24:35.000Z</time>
      </trkpt>
      <trkpt lat="47.32949" lon="-2.34885">
        <ele>25.799999237061</ele>
        <time>2019-06-02T09:24:36.000Z</time>
      </trkpt>
      <trkpt lat="47.32946" lon="-2.34879">
        <ele>25.39999961853</ele>
        <time>2019-06-02T09:24:37.000Z</time>
      </trkpt>
      <trkpt lat="47.32944" lon="-2.34873">
        <ele>24.799999237061</ele>
        <time>2019-06-02T09:24:38.000Z</time>
      </trkpt>
      <trkpt lat="47.32941" lon="-2.34865">
        <ele>24.39999961853</ele>
        <time>2019-06-02T09:24:39.000Z</time>
      </trkpt>
      <trkpt lat="47.32924" lon="-2.34817">
        <ele>24.39999961853</ele>
        <time>2019-06-02T09:24:46.000Z</time>
      </trkpt>
      <trkpt lat="47.32922" lon="-2.34809">
        <ele>24.39999961853</ele>
        <time>2019-06-02T09:24:47.000Z</time>
      </trkpt>
      <trkpt lat="47.32913" lon="-2.34792">
        <ele>24.39999961853</ele>
        <time>2019-06-02T09:24:50.000Z</time>
      </trkpt>
      <trkpt lat="47.329" lon="-2.34794">
        <ele>24.39999961853</ele>
        <time>2019-06-02T09:24:53.000Z</time>
      </trkpt>
      <trkpt lat="47.32896" lon="-2.34796">
        <ele>24.39999961853</ele>
        <time>2019-06-02T09:24:54.000Z</time>
      </trkpt>
      <trkpt lat="47.32889" lon="-2.34801">
        <ele>24.39999961853</ele>
        <time>2019-06-02T09:24:57.000Z</time>
      </trkpt>
      <trkpt lat="47.32871" lon="-2.34812">
        <ele>24.39999961853</ele>
        <time>2019-06-02T09:25:02.000Z</time>
      </trkpt>
      <trkpt lat="47.32863" lon="-2.34817">
        <ele>24.39999961853</ele>
        <time>2019-06-02T09:25:04.000Z</time>
      </trkpt>
      <trkpt lat="47.32844" lon="-2.34829">
        <ele>24.39999961853</ele>
        <time>2019-06-02T09:25:08.000Z</time>
      </trkpt>
      <trkpt lat="47.32815" lon="-2.3485">
        <ele>24.39999961853</ele>
        <time>2019-06-02T09:25:14.000Z</time>
      </trkpt>
      <trkpt lat="47.3281" lon="-2.34854">
        <ele>24.39999961853</ele>
        <time>2019-06-02T09:25:15.000Z</time>
      </trkpt>
      <trkpt lat="47.32792" lon="-2.34868">
        <ele>24.39999961853</ele>
        <time>2019-06-02T09:25:19.000Z</time>
      </trkpt>
      <trkpt lat="47.32766" lon="-2.34887">
        <ele>24.39999961853</ele>
        <time>2019-06-02T09:25:25.000Z</time>
      </trkpt>
      <trkpt lat="47.32737" lon="-2.34907">
        <ele>24.39999961853</ele>
        <time>2019-06-02T09:25:31.000Z</time>
      </trkpt>
      <trkpt lat="47.32707" lon="-2.34926">
        <ele>24.39999961853</ele>
        <time>2019-06-02T09:25:37.000Z</time>
      </trkpt>
      <trkpt lat="47.32697" lon="-2.34933">
        <ele>24.799999237061</ele>
        <time>2019-06-02T09:25:39.000Z</time>
      </trkpt>
      <trkpt lat="47.32692" lon="-2.34936">
        <ele>25.200000762939</ele>
        <time>2019-06-02T09:25:40.000Z</time>
      </trkpt>
      <trkpt lat="47.32688" lon="-2.34939">
        <ele>25.60000038147</ele>
        <time>2019-06-02T09:25:41.000Z</time>
      </trkpt>
      <trkpt lat="47.32684" lon="-2.34943">
        <ele>26</ele>
        <time>2019-06-02T09:25:42.000Z</time>
      </trkpt>
      <trkpt lat="47.3268" lon="-2.34948">
        <ele>26.39999961853</ele>
        <time>2019-06-02T09:25:43.000Z</time>
      </trkpt>
      <trkpt lat="47.32676" lon="-2.34951">
        <ele>26.39999961853</ele>
        <time>2019-06-02T09:25:44.000Z</time>
      </trkpt>
      <trkpt lat="47.32664" lon="-2.34958">
        <ele>26.39999961853</ele>
        <time>2019-06-02T09:25:47.000Z</time>
      </trkpt>
      <trkpt lat="47.32657" lon="-2.34962">
        <ele>26.39999961853</ele>
        <time>2019-06-02T09:25:49.000Z</time>
      </trkpt>
      <trkpt lat="47.32649" lon="-2.34967">
        <ele>26.39999961853</ele>
        <time>2019-06-02T09:25:51.000Z</time>
      </trkpt>
      <trkpt lat="47.32637" lon="-2.34975">
        <ele>26.39999961853</ele>
        <time>2019-06-02T09:25:54.000Z</time>
      </trkpt>
      <trkpt lat="47.32628" lon="-2.34982">
        <ele>26.39999961853</ele>
        <time>2019-06-02T09:25:56.000Z</time>
      </trkpt>
      <trkpt lat="47.32615" lon="-2.34991">
        <ele>26.39999961853</ele>
        <time>2019-06-02T09:25:59.000Z</time>
      </trkpt>
      <trkpt lat="47.32611" lon="-2.34993">
        <ele>27</ele>
        <time>2019-06-02T09:26:00.000Z</time>
      </trkpt>
      <trkpt lat="47.32606" lon="-2.34995">
        <ele>27.39999961853</ele>
        <time>2019-06-02T09:26:01.000Z</time>
      </trkpt>
      <trkpt lat="47.32601" lon="-2.34997">
        <ele>27.799999237061</ele>
        <time>2019-06-02T09:26:02.000Z</time>
      </trkpt>
      <trkpt lat="47.32595" lon="-2.34999">
        <ele>28.200000762939</ele>
        <time>2019-06-02T09:26:03.000Z</time>
      </trkpt>
      <trkpt lat="47.32591" lon="-2.35002">
        <ele>28.60000038147</ele>
        <time>2019-06-02T09:26:04.000Z</time>
      </trkpt>
      <trkpt lat="47.32577" lon="-2.35009">
        <ele>28.60000038147</ele>
        <time>2019-06-02T09:26:07.000Z</time>
      </trkpt>
      <trkpt lat="47.32563" lon="-2.35014">
        <ele>28.60000038147</ele>
        <time>2019-06-02T09:26:10.000Z</time>
      </trkpt>
      <trkpt lat="47.32535" lon="-2.35024">
        <ele>28.60000038147</ele>
        <time>2019-06-02T09:26:16.000Z</time>
      </trkpt>
      <trkpt lat="47.32495" lon="-2.35033">
        <ele>28.60000038147</ele>
        <time>2019-06-02T09:26:23.000Z</time>
      </trkpt>
      <trkpt lat="47.32464" lon="-2.3504">
        <ele>29</ele>
        <time>2019-06-02T09:26:29.000Z</time>
      </trkpt>
      <trkpt lat="47.32459" lon="-2.35041">
        <ele>29.39999961853</ele>
        <time>2019-06-02T09:26:30.000Z</time>
      </trkpt>
      <trkpt lat="47.32454" lon="-2.35042">
        <ele>29.799999237061</ele>
        <time>2019-06-02T09:26:31.000Z</time>
      </trkpt>
      <trkpt lat="47.32448" lon="-2.35043">
        <ele>30.200000762939</ele>
        <time>2019-06-02T09:26:32.000Z</time>
      </trkpt>
      <trkpt lat="47.32442" lon="-2.35044">
        <ele>30.60000038147</ele>
        <time>2019-06-02T09:26:33.000Z</time>
      </trkpt>
      <trkpt lat="47.32426" lon="-2.35045">
        <ele>30.60000038147</ele>
        <time>2019-06-02T09:26:36.000Z</time>
      </trkpt>
      <trkpt lat="47.32386" lon="-2.35049">
        <ele>30.60000038147</ele>
        <time>2019-06-02T09:26:43.000Z</time>
      </trkpt>
      <trkpt lat="47.32381" lon="-2.35048">
        <ele>30.60000038147</ele>
        <time>2019-06-02T09:26:44.000Z</time>
      </trkpt>
      <trkpt lat="47.32365" lon="-2.35048">
        <ele>30.60000038147</ele>
        <time>2019-06-02T09:26:47.000Z</time>
      </trkpt>
      <trkpt lat="47.32338" lon="-2.35046">
        <ele>30.60000038147</ele>
        <time>2019-06-02T09:26:52.000Z</time>
      </trkpt>
      <trkpt lat="47.32299" lon="-2.35045">
        <ele>30.60000038147</ele>
        <time>2019-06-02T09:26:59.000Z</time>
      </trkpt>
      <trkpt lat="47.32289" lon="-2.35047">
        <ele>29.799999237061</ele>
        <time>2019-06-02T09:27:01.000Z</time>
      </trkpt>
      <trkpt lat="47.32283" lon="-2.35048">
        <ele>29.200000762939</ele>
        <time>2019-06-02T09:27:02.000Z</time>
      </trkpt>
      <trkpt lat="47.32277" lon="-2.35049">
        <ele>28.799999237061</ele>
        <time>2019-06-02T09:27:03.000Z</time>
      </trkpt>
      <trkpt lat="47.32272" lon="-2.35049">
        <ele>28.39999961853</ele>
        <time>2019-06-02T09:27:04.000Z</time>
      </trkpt>
      <trkpt lat="47.32252" lon="-2.35047">
        <ele>28.39999961853</ele>
        <time>2019-06-02T09:27:07.000Z</time>
      </trkpt>
      <trkpt lat="47.32247" lon="-2.35047">
        <ele>28.39999961853</ele>
        <time>2019-06-02T09:27:08.000Z</time>
      </trkpt>
      <trkpt lat="47.3223" lon="-2.35051">
        <ele>28.39999961853</ele>
        <time>2019-06-02T09:27:11.000Z</time>
      </trkpt>
      <trkpt lat="47.32224" lon="-2.35051">
        <ele>28.39999961853</ele>
        <time>2019-06-02T09:27:12.000Z</time>
      </trkpt>
      <trkpt lat="47.32186" lon="-2.35055">
        <ele>28.39999961853</ele>
        <time>2019-06-02T09:27:18.000Z</time>
      </trkpt>
      <trkpt lat="47.32155" lon="-2.35058">
        <ele>28.39999961853</ele>
        <time>2019-06-02T09:27:23.000Z</time>
      </trkpt>
      <trkpt lat="47.32148" lon="-2.35058">
        <ele>28</ele>
        <time>2019-06-02T09:27:24.000Z</time>
      </trkpt>
      <trkpt lat="47.3214" lon="-2.35059">
        <ele>27.200000762939</ele>
        <time>2019-06-02T09:27:25.000Z</time>
      </trkpt>
      <trkpt lat="47.32133" lon="-2.35059">
        <ele>26.799999237061</ele>
        <time>2019-06-02T09:27:26.000Z</time>
      </trkpt>
      <trkpt lat="47.32127" lon="-2.3506">
        <ele>26.39999961853</ele>
        <time>2019-06-02T09:27:27.000Z</time>
      </trkpt>
      <trkpt lat="47.3212" lon="-2.3506">
        <ele>26.39999961853</ele>
        <time>2019-06-02T09:27:28.000Z</time>
      </trkpt>
      <trkpt lat="47.32081" lon="-2.35057">
        <ele>26.39999961853</ele>
        <time>2019-06-02T09:27:34.000Z</time>
      </trkpt>
      <trkpt lat="47.32075" lon="-2.35058">
        <ele>26.39999961853</ele>
        <time>2019-06-02T09:27:35.000Z</time>
      </trkpt>
      <trkpt lat="47.32057" lon="-2.35058">
        <ele>26.39999961853</ele>
        <time>2019-06-02T09:27:38.000Z</time>
      </trkpt>
      <trkpt lat="47.3204" lon="-2.35058">
        <ele>26.39999961853</ele>
        <time>2019-06-02T09:27:41.000Z</time>
      </trkpt>
      <trkpt lat="47.32037" lon="-2.35061">
        <ele>26.39999961853</ele>
        <time>2019-06-02T09:27:42.000Z</time>
      </trkpt>
      <trkpt lat="47.32036" lon="-2.35072">
        <ele>26.39999961853</ele>
        <time>2019-06-02T09:27:45.000Z</time>
      </trkpt>
      <trkpt lat="47.32041" lon="-2.35089">
        <ele>26.39999961853</ele>
        <time>2019-06-02T09:27:48.000Z</time>
      </trkpt>
      <trkpt lat="47.32041" lon="-2.35094">
        <ele>26.39999961853</ele>
        <time>2019-06-02T09:27:49.000Z</time>
      </trkpt>
      <trkpt lat="47.3204" lon="-2.35107">
        <ele>26.39999961853</ele>
        <time>2019-06-02T09:27:51.000Z</time>
      </trkpt>
      <trkpt lat="47.32036" lon="-2.35114">
        <ele>26.39999961853</ele>
        <time>2019-06-02T09:27:52.000Z</time>
      </trkpt>
      <trkpt lat="47.32025" lon="-2.35129">
        <ele>26.39999961853</ele>
        <time>2019-06-02T09:27:55.000Z</time>
      </trkpt>
      <trkpt lat="47.32021" lon="-2.35133">
        <ele>26.39999961853</ele>
        <time>2019-06-02T09:27:56.000Z</time>
      </trkpt>
      <trkpt lat="47.32002" lon="-2.35153">
        <ele>26.39999961853</ele>
        <time>2019-06-02T09:28:01.000Z</time>
      </trkpt>
      <trkpt lat="47.31976" lon="-2.35175">
        <ele>26.39999961853</ele>
        <time>2019-06-02T09:28:07.000Z</time>
      </trkpt>
      <trkpt lat="47.31973" lon="-2.35179">
        <ele>26.39999961853</ele>
        <time>2019-06-02T09:28:08.000Z</time>
      </trkpt>
      <trkpt lat="47.31964" lon="-2.35187">
        <ele>26.39999961853</ele>
        <time>2019-06-02T09:28:10.000Z</time>
      </trkpt>
      <trkpt lat="47.3196" lon="-2.35191">
        <ele>26.39999961853</ele>
        <time>2019-06-02T09:28:11.000Z</time>
      </trkpt>
      <trkpt lat="47.31938" lon="-2.35214">
        <ele>26.39999961853</ele>
        <time>2019-06-02T09:28:16.000Z</time>
      </trkpt>
      <trkpt lat="47.31919" lon="-2.35232">
        <ele>26.39999961853</ele>
        <time>2019-06-02T09:28:20.000Z</time>
      </trkpt>
      <trkpt lat="47.31915" lon="-2.35236">
        <ele>26.39999961853</ele>
        <time>2019-06-02T09:28:21.000Z</time>
      </trkpt>
      <trkpt lat="47.31911" lon="-2.35241">
        <ele>26.39999961853</ele>
        <time>2019-06-02T09:28:22.000Z</time>
      </trkpt>
      <trkpt lat="47.31899" lon="-2.35256">
        <ele>26.39999961853</ele>
        <time>2019-06-02T09:28:26.000Z</time>
      </trkpt>
      <trkpt lat="47.31876" lon="-2.35277">
        <ele>26.39999961853</ele>
        <time>2019-06-02T09:28:32.000Z</time>
      </trkpt>
      <trkpt lat="47.31854" lon="-2.35295">
        <ele>26.39999961853</ele>
        <time>2019-06-02T09:28:37.000Z</time>
      </trkpt>
      <trkpt lat="47.31847" lon="-2.35302">
        <ele>26.799999237061</ele>
        <time>2019-06-02T09:28:39.000Z</time>
      </trkpt>
      <trkpt lat="47.31843" lon="-2.35306">
        <ele>27.60000038147</ele>
        <time>2019-06-02T09:28:40.000Z</time>
      </trkpt>
      <trkpt lat="47.31838" lon="-2.35309">
        <ele>28</ele>
        <time>2019-06-02T09:28:41.000Z</time>
      </trkpt>
      <trkpt lat="47.31833" lon="-2.35313">
        <ele>28.39999961853</ele>
        <time>2019-06-02T09:28:42.000Z</time>
      </trkpt>
      <trkpt lat="47.31818" lon="-2.35322">
        <ele>28.39999961853</ele>
        <time>2019-06-02T09:28:45.000Z</time>
      </trkpt>
      <trkpt lat="47.31804" lon="-2.35331">
        <ele>28.39999961853</ele>
        <time>2019-06-02T09:28:48.000Z</time>
      </trkpt>
      <trkpt lat="47.31798" lon="-2.35335">
        <ele>28.799999237061</ele>
        <time>2019-06-02T09:28:49.000Z</time>
      </trkpt>
      <trkpt lat="47.31793" lon="-2.35338">
        <ele>29.39999961853</ele>
        <time>2019-06-02T09:28:50.000Z</time>
      </trkpt>
      <trkpt lat="47.31789" lon="-2.3534">
        <ele>29.799999237061</ele>
        <time>2019-06-02T09:28:51.000Z</time>
      </trkpt>
      <trkpt lat="47.31785" lon="-2.35342">
        <ele>30.200000762939</ele>
        <time>2019-06-02T09:28:52.000Z</time>
      </trkpt>
      <trkpt lat="47.3178" lon="-2.35345">
        <ele>30.60000038147</ele>
        <time>2019-06-02T09:28:53.000Z</time>
      </trkpt>
      <trkpt lat="47.31775" lon="-2.35349">
        <ele>30.60000038147</ele>
        <time>2019-06-02T09:28:54.000Z</time>
      </trkpt>
      <trkpt lat="47.31753" lon="-2.35365">
        <ele>30.60000038147</ele>
        <time>2019-06-02T09:28:58.000Z</time>
      </trkpt>
      <trkpt lat="47.31754" lon="-2.35369">
        <ele>30.60000038147</ele>
        <time>2019-06-02T09:28:59.000Z</time>
      </trkpt>
      <trkpt lat="47.31757" lon="-2.35379">
        <ele>30.60000038147</ele>
        <time>2019-06-02T09:29:01.000Z</time>
      </trkpt>
      <trkpt lat="47.31765" lon="-2.3539">
        <ele>30.60000038147</ele>
        <time>2019-06-02T09:29:03.000Z</time>
      </trkpt>
      <trkpt lat="47.31773" lon="-2.35401">
        <ele>30.60000038147</ele>
        <time>2019-06-02T09:29:05.000Z</time>
      </trkpt>
      <trkpt lat="47.31786" lon="-2.35418">
        <ele>30.60000038147</ele>
        <time>2019-06-02T09:29:08.000Z</time>
      </trkpt>
      <trkpt lat="47.3179" lon="-2.35424">
        <ele>30.60000038147</ele>
        <time>2019-06-02T09:29:09.000Z</time>
      </trkpt>
      <trkpt lat="47.31805" lon="-2.35452">
        <ele>30.60000038147</ele>
        <time>2019-06-02T09:29:13.000Z</time>
      </trkpt>
      <trkpt lat="47.31819" lon="-2.35476">
        <ele>30.200000762939</ele>
        <time>2019-06-02T09:29:17.000Z</time>
      </trkpt>
      <trkpt lat="47.31822" lon="-2.3548">
        <ele>29.799999237061</ele>
        <time>2019-06-02T09:29:18.000Z</time>
      </trkpt>
      <trkpt lat="47.31823" lon="-2.35489">
        <ele>29.200000762939</ele>
        <time>2019-06-02T09:29:19.000Z</time>
      </trkpt>
      <trkpt lat="47.31826" lon="-2.35497">
        <ele>28.799999237061</ele>
        <time>2019-06-02T09:29:20.000Z</time>
      </trkpt>
      <trkpt lat="47.31828" lon="-2.35504">
        <ele>28.39999961853</ele>
        <time>2019-06-02T09:29:21.000Z</time>
      </trkpt>
      <trkpt lat="47.31831" lon="-2.35511">
        <ele>28.39999961853</ele>
        <time>2019-06-02T09:29:22.000Z</time>
      </trkpt>
      <trkpt lat="47.31839" lon="-2.35528">
        <ele>28.39999961853</ele>
        <time>2019-06-02T09:29:25.000Z</time>
      </trkpt>
      <trkpt lat="47.31833" lon="-2.35549">
        <ele>28.39999961853</ele>
        <time>2019-06-02T09:29:28.000Z</time>
      </trkpt>
      <trkpt lat="47.31817" lon="-2.35564">
        <ele>28.39999961853</ele>
        <time>2019-06-02T09:29:32.000Z</time>
      </trkpt>
      <trkpt lat="47.31807" lon="-2.35587">
        <ele>28.39999961853</ele>
        <time>2019-06-02T09:29:36.000Z</time>
      </trkpt>
      <trkpt lat="47.31798" lon="-2.35604">
        <ele>28.39999961853</ele>
        <time>2019-06-02T09:29:39.000Z</time>
      </trkpt>
      <trkpt lat="47.31796" lon="-2.35608">
        <ele>28.39999961853</ele>
        <time>2019-06-02T09:29:40.000Z</time>
      </trkpt>
      <trkpt lat="47.31791" lon="-2.35619">
        <ele>28.39999961853</ele>
        <time>2019-06-02T09:29:42.000Z</time>
      </trkpt>
      <trkpt lat="47.31787" lon="-2.35628">
        <ele>28.39999961853</ele>
        <time>2019-06-02T09:29:44.000Z</time>
      </trkpt>
      <trkpt lat="47.31787" lon="-2.35634">
        <ele>28.39999961853</ele>
        <time>2019-06-02T09:29:45.000Z</time>
      </trkpt>
      <trkpt lat="47.31788" lon="-2.35647">
        <ele>28.799999237061</ele>
        <time>2019-06-02T09:29:47.000Z</time>
      </trkpt>
      <trkpt lat="47.31787" lon="-2.35653">
        <ele>29.200000762939</ele>
        <time>2019-06-02T09:29:48.000Z</time>
      </trkpt>
      <trkpt lat="47.31787" lon="-2.35659">
        <ele>29.60000038147</ele>
        <time>2019-06-02T09:29:49.000Z</time>
      </trkpt>
      <trkpt lat="47.31785" lon="-2.35665">
        <ele>30</ele>
        <time>2019-06-02T09:29:50.000Z</time>
      </trkpt>
      <trkpt lat="47.31784" lon="-2.35672">
        <ele>30.39999961853</ele>
        <time>2019-06-02T09:29:51.000Z</time>
      </trkpt>
      <trkpt lat="47.31784" lon="-2.35683">
        <ele>30.39999961853</ele>
        <time>2019-06-02T09:29:53.000Z</time>
      </trkpt>
      <trkpt lat="47.31783" lon="-2.35701">
        <ele>30.799999237061</ele>
        <time>2019-06-02T09:29:56.000Z</time>
      </trkpt>
      <trkpt lat="47.31781" lon="-2.35707">
        <ele>31.200000762939</ele>
        <time>2019-06-02T09:29:57.000Z</time>
      </trkpt>
      <trkpt lat="47.31782" lon="-2.35715">
        <ele>31.60000038147</ele>
        <time>2019-06-02T09:29:58.000Z</time>
      </trkpt>
      <trkpt lat="47.31782" lon="-2.35722">
        <ele>32</ele>
        <time>2019-06-02T09:29:59.000Z</time>
      </trkpt>
      <trkpt lat="47.31783" lon="-2.35728">
        <ele>32.400001525879</ele>
        <time>2019-06-02T09:30:00.000Z</time>
      </trkpt>
      <trkpt lat="47.31783" lon="-2.35743">
        <ele>32.400001525879</ele>
        <time>2019-06-02T09:30:02.000Z</time>
      </trkpt>
      <trkpt lat="47.31784" lon="-2.3575">
        <ele>32.400001525879</ele>
        <time>2019-06-02T09:30:03.000Z</time>
      </trkpt>
      <trkpt lat="47.31784" lon="-2.35773">
        <ele>32.400001525879</ele>
        <time>2019-06-02T09:30:06.000Z</time>
      </trkpt>
      <trkpt lat="47.31789" lon="-2.35787">
        <ele>32.400001525879</ele>
        <time>2019-06-02T09:30:08.000Z</time>
      </trkpt>
      <trkpt lat="47.31805" lon="-2.3581">
        <ele>32.400001525879</ele>
        <time>2019-06-02T09:30:12.000Z</time>
      </trkpt>
      <trkpt lat="47.31813" lon="-2.35822">
        <ele>32.400001525879</ele>
        <time>2019-06-02T09:30:14.000Z</time>
      </trkpt>
      <trkpt lat="47.3182" lon="-2.35835">
        <ele>32.400001525879</ele>
        <time>2019-06-02T09:30:16.000Z</time>
      </trkpt>
      <trkpt lat="47.31824" lon="-2.3585">
        <ele>32.799999237061</ele>
        <time>2019-06-02T09:30:18.000Z</time>
      </trkpt>
      <trkpt lat="47.31824" lon="-2.35858">
        <ele>33.400001525879</ele>
        <time>2019-06-02T09:30:19.000Z</time>
      </trkpt>
      <trkpt lat="47.31823" lon="-2.35866">
        <ele>33.799999237061</ele>
        <time>2019-06-02T09:30:20.000Z</time>
      </trkpt>
      <trkpt lat="47.31819" lon="-2.35873">
        <ele>34.200000762939</ele>
        <time>2019-06-02T09:30:21.000Z</time>
      </trkpt>
      <trkpt lat="47.31815" lon="-2.35878">
        <ele>34.599998474121</ele>
        <time>2019-06-02T09:30:22.000Z</time>
      </trkpt>
      <trkpt lat="47.31805" lon="-2.35884">
        <ele>34.599998474121</ele>
        <time>2019-06-02T09:30:24.000Z</time>
      </trkpt>
      <trkpt lat="47.31793" lon="-2.35892">
        <ele>34.599998474121</ele>
        <time>2019-06-02T09:30:27.000Z</time>
      </trkpt>
      <trkpt lat="47.31779" lon="-2.35901">
        <ele>34.599998474121</ele>
        <time>2019-06-02T09:30:30.000Z</time>
      </trkpt>
      <trkpt lat="47.31751" lon="-2.35919">
        <ele>34.599998474121</ele>
        <time>2019-06-02T09:30:36.000Z</time>
      </trkpt>
      <trkpt lat="47.31723" lon="-2.35937">
        <ele>34.599998474121</ele>
        <time>2019-06-02T09:30:42.000Z</time>
      </trkpt>
      <trkpt lat="47.31709" lon="-2.35945">
        <ele>35</ele>
        <time>2019-06-02T09:30:45.000Z</time>
      </trkpt>
      <trkpt lat="47.31705" lon="-2.35948">
        <ele>35.400001525879</ele>
        <time>2019-06-02T09:30:46.000Z</time>
      </trkpt>
      <trkpt lat="47.31701" lon="-2.35951">
        <ele>35.799999237061</ele>
        <time>2019-06-02T09:30:47.000Z</time>
      </trkpt>
      <trkpt lat="47.31696" lon="-2.35954">
        <ele>36.200000762939</ele>
        <time>2019-06-02T09:30:48.000Z</time>
      </trkpt>
      <trkpt lat="47.31692" lon="-2.35956">
        <ele>36.599998474121</ele>
        <time>2019-06-02T09:30:49.000Z</time>
      </trkpt>
      <trkpt lat="47.31671" lon="-2.35969">
        <ele>36.599998474121</ele>
        <time>2019-06-02T09:30:54.000Z</time>
      </trkpt>
      <trkpt lat="47.31653" lon="-2.35981">
        <ele>36.599998474121</ele>
        <time>2019-06-02T09:30:58.000Z</time>
      </trkpt>
      <trkpt lat="47.31648" lon="-2.35985">
        <ele>36.599998474121</ele>
        <time>2019-06-02T09:30:59.000Z</time>
      </trkpt>
      <trkpt lat="47.31637" lon="-2.35997">
        <ele>36.599998474121</ele>
        <time>2019-06-02T09:31:02.000Z</time>
      </trkpt>
      <trkpt lat="47.31627" lon="-2.36005">
        <ele>37</ele>
        <time>2019-06-02T09:31:04.000Z</time>
      </trkpt>
      <trkpt lat="47.31623" lon="-2.3601">
        <ele>37.400001525879</ele>
        <time>2019-06-02T09:31:05.000Z</time>
      </trkpt>
      <trkpt lat="47.31619" lon="-2.36014">
        <ele>37.799999237061</ele>
        <time>2019-06-02T09:31:06.000Z</time>
      </trkpt>
      <trkpt lat="47.31615" lon="-2.3602">
        <ele>38.799999237061</ele>
        <time>2019-06-02T09:31:07.000Z</time>
      </trkpt>
      <trkpt lat="47.31607" lon="-2.36028">
        <ele>38.799999237061</ele>
        <time>2019-06-02T09:31:09.000Z</time>
      </trkpt>
      <trkpt lat="47.3159" lon="-2.36044">
        <ele>38.799999237061</ele>
        <time>2019-06-02T09:31:13.000Z</time>
      </trkpt>
      <trkpt lat="47.31582" lon="-2.3605">
        <ele>38.799999237061</ele>
        <time>2019-06-02T09:31:15.000Z</time>
      </trkpt>
      <trkpt lat="47.31561" lon="-2.36069">
        <ele>39.200000762939</ele>
        <time>2019-06-02T09:31:20.000Z</time>
      </trkpt>
      <trkpt lat="47.31557" lon="-2.36073">
        <ele>39.599998474121</ele>
        <time>2019-06-02T09:31:21.000Z</time>
      </trkpt>
      <trkpt lat="47.31553" lon="-2.36077">
        <ele>40</ele>
        <time>2019-06-02T09:31:22.000Z</time>
      </trkpt>
      <trkpt lat="47.31549" lon="-2.36083">
        <ele>40.400001525879</ele>
        <time>2019-06-02T09:31:23.000Z</time>
      </trkpt>
      <trkpt lat="47.31546" lon="-2.36087">
        <ele>40.799999237061</ele>
        <time>2019-06-02T09:31:24.000Z</time>
      </trkpt>
      <trkpt lat="47.31541" lon="-2.36092">
        <ele>40.799999237061</ele>
        <time>2019-06-02T09:31:25.000Z</time>
      </trkpt>
      <trkpt lat="47.31526" lon="-2.36109">
        <ele>40.799999237061</ele>
        <time>2019-06-02T09:31:29.000Z</time>
      </trkpt>
      <trkpt lat="47.31513" lon="-2.36123">
        <ele>40.799999237061</ele>
        <time>2019-06-02T09:31:32.000Z</time>
      </trkpt>
      <trkpt lat="47.31491" lon="-2.36147">
        <ele>40.799999237061</ele>
        <time>2019-06-02T09:31:37.000Z</time>
      </trkpt>
      <trkpt lat="47.31483" lon="-2.36156">
        <ele>40.799999237061</ele>
        <time>2019-06-02T09:31:39.000Z</time>
      </trkpt>
      <trkpt lat="47.31474" lon="-2.36168">
        <ele>40.799999237061</ele>
        <time>2019-06-02T09:31:42.000Z</time>
      </trkpt>
      <trkpt lat="47.31467" lon="-2.3617">
        <ele>40.799999237061</ele>
        <time>2019-06-02T09:31:45.000Z</time>
      </trkpt>
      <trkpt lat="47.31465" lon="-2.36168">
        <ele>40.799999237061</ele>
        <time>2019-06-02T09:31:46.000Z</time>
      </trkpt>
      <trkpt lat="47.31462" lon="-2.36164">
        <ele>40.799999237061</ele>
        <time>2019-06-02T09:31:49.000Z</time>
      </trkpt>
      <trkpt lat="47.31462" lon="-2.36165">
        <ele>40.799999237061</ele>
        <time>2019-06-02T09:31:50.000Z</time>
      </trkpt>
      <trkpt lat="47.31462" lon="-2.36161">
        <ele>40.799999237061</ele>
        <time>2019-06-02T09:32:30.000Z</time>
      </trkpt>
      <trkpt lat="47.31457" lon="-2.36142">
        <ele>40.799999237061</ele>
        <time>2019-06-02T09:32:34.000Z</time>
      </trkpt>
      <trkpt lat="47.31451" lon="-2.36128">
        <ele>40.799999237061</ele>
        <time>2019-06-02T09:32:37.000Z</time>
      </trkpt>
      <trkpt lat="47.31444" lon="-2.3611">
        <ele>40.799999237061</ele>
        <time>2019-06-02T09:32:40.000Z</time>
      </trkpt>
      <trkpt lat="47.31442" lon="-2.36103">
        <ele>40.799999237061</ele>
        <time>2019-06-02T09:32:41.000Z</time>
      </trkpt>
      <trkpt lat="47.31433" lon="-2.36073">
        <ele>40.799999237061</ele>
        <time>2019-06-02T09:32:45.000Z</time>
      </trkpt>
      <trkpt lat="47.31413" lon="-2.3602">
        <ele>40.799999237061</ele>
        <time>2019-06-02T09:32:51.000Z</time>
      </trkpt>
      <trkpt lat="47.31406" lon="-2.36">
        <ele>40.400001525879</ele>
        <time>2019-06-02T09:32:53.000Z</time>
      </trkpt>
      <trkpt lat="47.31404" lon="-2.35992">
        <ele>40</ele>
        <time>2019-06-02T09:32:54.000Z</time>
      </trkpt>
      <trkpt lat="47.31401" lon="-2.35981">
        <ele>39.400001525879</ele>
        <time>2019-06-02T09:32:55.000Z</time>
      </trkpt>
      <trkpt lat="47.31398" lon="-2.35972">
        <ele>39</ele>
        <time>2019-06-02T09:32:56.000Z</time>
      </trkpt>
      <trkpt lat="47.31393" lon="-2.35962">
        <ele>38.599998474121</ele>
        <time>2019-06-02T09:32:57.000Z</time>
      </trkpt>
      <trkpt lat="47.31383" lon="-2.35946">
        <ele>38.200000762939</ele>
        <time>2019-06-02T09:32:59.000Z</time>
      </trkpt>
      <trkpt lat="47.31379" lon="-2.35938">
        <ele>37.799999237061</ele>
        <time>2019-06-02T09:33:00.000Z</time>
      </trkpt>
      <trkpt lat="47.31374" lon="-2.35929">
        <ele>37.400001525879</ele>
        <time>2019-06-02T09:33:01.000Z</time>
      </trkpt>
      <trkpt lat="47.31369" lon="-2.35921">
        <ele>37</ele>
        <time>2019-06-02T09:33:02.000Z</time>
      </trkpt>
      <trkpt lat="47.31365" lon="-2.35912">
        <ele>36.599998474121</ele>
        <time>2019-06-02T09:33:03.000Z</time>
      </trkpt>
      <trkpt lat="47.31357" lon="-2.35896">
        <ele>36.599998474121</ele>
        <time>2019-06-02T09:33:05.000Z</time>
      </trkpt>
      <trkpt lat="47.31343" lon="-2.35862">
        <ele>36.599998474121</ele>
        <time>2019-06-02T09:33:09.000Z</time>
      </trkpt>
      <trkpt lat="47.31339" lon="-2.35826">
        <ele>36.599998474121</ele>
        <time>2019-06-02T09:33:13.000Z</time>
      </trkpt>
      <trkpt lat="47.31338" lon="-2.35817">
        <ele>37</ele>
        <time>2019-06-02T09:33:14.000Z</time>
      </trkpt>
      <trkpt lat="47.31337" lon="-2.3581">
        <ele>37.400001525879</ele>
        <time>2019-06-02T09:33:15.000Z</time>
      </trkpt>
      <trkpt lat="47.31336" lon="-2.358">
        <ele>37.799999237061</ele>
        <time>2019-06-02T09:33:16.000Z</time>
      </trkpt>
      <trkpt lat="47.31335" lon="-2.35791">
        <ele>38.400001525879</ele>
        <time>2019-06-02T09:33:17.000Z</time>
      </trkpt>
      <trkpt lat="47.31334" lon="-2.35783">
        <ele>38.799999237061</ele>
        <time>2019-06-02T09:33:18.000Z</time>
      </trkpt>
      <trkpt lat="47.31333" lon="-2.35774">
        <ele>38.799999237061</ele>
        <time>2019-06-02T09:33:19.000Z</time>
      </trkpt>
      <trkpt lat="47.31333" lon="-2.35766">
        <ele>38.799999237061</ele>
        <time>2019-06-02T09:33:20.000Z</time>
      </trkpt>
      <trkpt lat="47.31333" lon="-2.35732">
        <ele>38.799999237061</ele>
        <time>2019-06-02T09:33:24.000Z</time>
      </trkpt>
      <trkpt lat="47.31332" lon="-2.3569">
        <ele>38.799999237061</ele>
        <time>2019-06-02T09:33:29.000Z</time>
      </trkpt>
      <trkpt lat="47.31331" lon="-2.35651">
        <ele>38.799999237061</ele>
        <time>2019-06-02T09:33:34.000Z</time>
      </trkpt>
      <trkpt lat="47.31331" lon="-2.35642">
        <ele>38.799999237061</ele>
        <time>2019-06-02T09:33:35.000Z</time>
      </trkpt>
      <trkpt lat="47.31328" lon="-2.35583">
        <ele>38.799999237061</ele>
        <time>2019-06-02T09:33:42.000Z</time>
      </trkpt>
      <trkpt lat="47.31328" lon="-2.35572">
        <ele>38.799999237061</ele>
        <time>2019-06-02T09:33:43.000Z</time>
      </trkpt>
      <trkpt lat="47.3133" lon="-2.35547">
        <ele>38.799999237061</ele>
        <time>2019-06-02T09:33:46.000Z</time>
      </trkpt>
      <trkpt lat="47.31332" lon="-2.3553">
        <ele>38.799999237061</ele>
        <time>2019-06-02T09:33:48.000Z</time>
      </trkpt>
      <trkpt lat="47.31333" lon="-2.35511">
        <ele>38.799999237061</ele>
        <time>2019-06-02T09:33:50.000Z</time>
      </trkpt>
      <trkpt lat="47.31333" lon="-2.35502">
        <ele>38.400001525879</ele>
        <time>2019-06-02T09:33:51.000Z</time>
      </trkpt>
      <trkpt lat="47.31333" lon="-2.35493">
        <ele>38</ele>
        <time>2019-06-02T09:33:52.000Z</time>
      </trkpt>
      <trkpt lat="47.31333" lon="-2.35485">
        <ele>37.400001525879</ele>
        <time>2019-06-02T09:33:53.000Z</time>
      </trkpt>
      <trkpt lat="47.31333" lon="-2.35476">
        <ele>37</ele>
        <time>2019-06-02T09:33:54.000Z</time>
      </trkpt>
      <trkpt lat="47.31333" lon="-2.35466">
        <ele>36.599998474121</ele>
        <time>2019-06-02T09:33:55.000Z</time>
      </trkpt>
      <trkpt lat="47.31333" lon="-2.35458">
        <ele>36.599998474121</ele>
        <time>2019-06-02T09:33:56.000Z</time>
      </trkpt>
      <trkpt lat="47.31331" lon="-2.35441">
        <ele>36.599998474121</ele>
        <time>2019-06-02T09:33:58.000Z</time>
      </trkpt>
      <trkpt lat="47.31331" lon="-2.35379">
        <ele>36.599998474121</ele>
        <time>2019-06-02T09:34:05.000Z</time>
      </trkpt>
      <trkpt lat="47.31335" lon="-2.35314">
        <ele>36.599998474121</ele>
        <time>2019-06-02T09:34:12.000Z</time>
      </trkpt>
      <trkpt lat="47.31337" lon="-2.35228">
        <ele>36.599998474121</ele>
        <time>2019-06-02T09:34:21.000Z</time>
      </trkpt>
      <trkpt lat="47.31337" lon="-2.35218">
        <ele>36.599998474121</ele>
        <time>2019-06-02T09:34:22.000Z</time>
      </trkpt>
      <trkpt lat="47.31341" lon="-2.35142">
        <ele>36.599998474121</ele>
        <time>2019-06-02T09:34:30.000Z</time>
      </trkpt>
      <trkpt lat="47.31343" lon="-2.35072">
        <ele>36.599998474121</ele>
        <time>2019-06-02T09:34:37.000Z</time>
      </trkpt>
      <trkpt lat="47.31341" lon="-2.35007">
        <ele>36.599998474121</ele>
        <time>2019-06-02T09:34:44.000Z</time>
      </trkpt>
      <trkpt lat="47.3134" lon="-2.34998">
        <ele>36.599998474121</ele>
        <time>2019-06-02T09:34:45.000Z</time>
      </trkpt>
      <trkpt lat="47.31333" lon="-2.34966">
        <ele>36.599998474121</ele>
        <time>2019-06-02T09:34:49.000Z</time>
      </trkpt>
      <trkpt lat="47.3132" lon="-2.34918">
        <ele>36.599998474121</ele>
        <time>2019-06-02T09:34:55.000Z</time>
      </trkpt>
      <trkpt lat="47.31306" lon="-2.34868">
        <ele>36.599998474121</ele>
        <time>2019-06-02T09:35:02.000Z</time>
      </trkpt>
      <trkpt lat="47.31296" lon="-2.34819">
        <ele>36.599998474121</ele>
        <time>2019-06-02T09:35:08.000Z</time>
      </trkpt>
      <trkpt lat="47.31285" lon="-2.34762">
        <ele>36.599998474121</ele>
        <time>2019-06-02T09:35:15.000Z</time>
      </trkpt>
      <trkpt lat="47.3128" lon="-2.34727">
        <ele>36.599998474121</ele>
        <time>2019-06-02T09:35:20.000Z</time>
      </trkpt>
      <trkpt lat="47.31277" lon="-2.34708">
        <ele>36.599998474121</ele>
        <time>2019-06-02T09:35:24.000Z</time>
      </trkpt>
      <trkpt lat="47.31282" lon="-2.34685">
        <ele>36.599998474121</ele>
        <time>2019-06-02T09:35:29.000Z</time>
      </trkpt>
      <trkpt lat="47.31292" lon="-2.34663">
        <ele>36.599998474121</ele>
        <time>2019-06-02T09:35:33.000Z</time>
      </trkpt>
      <trkpt lat="47.31293" lon="-2.34656">
        <ele>36.599998474121</ele>
        <time>2019-06-02T09:35:34.000Z</time>
      </trkpt>
      <trkpt lat="47.31289" lon="-2.34624">
        <ele>36.200000762939</ele>
        <time>2019-06-02T09:35:38.000Z</time>
      </trkpt>
      <trkpt lat="47.31288" lon="-2.34614">
        <ele>35.799999237061</ele>
        <time>2019-06-02T09:35:39.000Z</time>
      </trkpt>
      <trkpt lat="47.31287" lon="-2.34604">
        <ele>35.400001525879</ele>
        <time>2019-06-02T09:35:40.000Z</time>
      </trkpt>
      <trkpt lat="47.31286" lon="-2.34593">
        <ele>35</ele>
        <time>2019-06-02T09:35:41.000Z</time>
      </trkpt>
      <trkpt lat="47.31285" lon="-2.34582">
        <ele>34.599998474121</ele>
        <time>2019-06-02T09:35:42.000Z</time>
      </trkpt>
      <trkpt lat="47.31284" lon="-2.3457">
        <ele>34.599998474121</ele>
        <time>2019-06-02T09:35:43.000Z</time>
      </trkpt>
      <trkpt lat="47.31278" lon="-2.34513">
        <ele>34.200000762939</ele>
        <time>2019-06-02T09:35:48.000Z</time>
      </trkpt>
      <trkpt lat="47.31276" lon="-2.345">
        <ele>33.799999237061</ele>
        <time>2019-06-02T09:35:49.000Z</time>
      </trkpt>
      <trkpt lat="47.31275" lon="-2.34488">
        <ele>33.400001525879</ele>
        <time>2019-06-02T09:35:50.000Z</time>
      </trkpt>
      <trkpt lat="47.31274" lon="-2.34476">
        <ele>32.799999237061</ele>
        <time>2019-06-02T09:35:51.000Z</time>
      </trkpt>
      <trkpt lat="47.31272" lon="-2.34464">
        <ele>32.400001525879</ele>
        <time>2019-06-02T09:35:52.000Z</time>
      </trkpt>
      <trkpt lat="47.31266" lon="-2.34415">
        <ele>32.400001525879</ele>
        <time>2019-06-02T09:35:56.000Z</time>
      </trkpt>
      <trkpt lat="47.31259" lon="-2.34378">
        <ele>32.400001525879</ele>
        <time>2019-06-02T09:35:59.000Z</time>
      </trkpt>
      <trkpt lat="47.31255" lon="-2.34367">
        <ele>32</ele>
        <time>2019-06-02T09:36:00.000Z</time>
      </trkpt>
      <trkpt lat="47.31251" lon="-2.34357">
        <ele>31.60000038147</ele>
        <time>2019-06-02T09:36:01.000Z</time>
      </trkpt>
      <trkpt lat="47.31247" lon="-2.34348">
        <ele>31.200000762939</ele>
        <time>2019-06-02T09:36:02.000Z</time>
      </trkpt>
      <trkpt lat="47.31243" lon="-2.34342">
        <ele>30.39999961853</ele>
        <time>2019-06-02T09:36:03.000Z</time>
      </trkpt>
      <trkpt lat="47.31223" lon="-2.3433">
        <ele>30.39999961853</ele>
        <time>2019-06-02T09:36:06.000Z</time>
      </trkpt>
      <trkpt lat="47.31198" lon="-2.34308">
        <ele>29.799999237061</ele>
        <time>2019-06-02T09:36:09.000Z</time>
      </trkpt>
      <trkpt lat="47.31192" lon="-2.34299">
        <ele>29.39999961853</ele>
        <time>2019-06-02T09:36:10.000Z</time>
      </trkpt>
      <trkpt lat="47.31186" lon="-2.34289">
        <ele>29</ele>
        <time>2019-06-02T09:36:11.000Z</time>
      </trkpt>
      <trkpt lat="47.3118" lon="-2.34278">
        <ele>28.60000038147</ele>
        <time>2019-06-02T09:36:12.000Z</time>
      </trkpt>
      <trkpt lat="47.31175" lon="-2.34268">
        <ele>28</ele>
        <time>2019-06-02T09:36:13.000Z</time>
      </trkpt>
      <trkpt lat="47.31143" lon="-2.34212">
        <ele>28</ele>
        <time>2019-06-02T09:36:19.000Z</time>
      </trkpt>
      <trkpt lat="47.31116" lon="-2.34166">
        <ele>28</ele>
        <time>2019-06-02T09:36:25.000Z</time>
      </trkpt>
      <trkpt lat="47.31108" lon="-2.34151">
        <ele>28.39999961853</ele>
        <time>2019-06-02T09:36:27.000Z</time>
      </trkpt>
      <trkpt lat="47.31104" lon="-2.34143">
        <ele>28.799999237061</ele>
        <time>2019-06-02T09:36:28.000Z</time>
      </trkpt>
      <trkpt lat="47.311" lon="-2.34135">
        <ele>29.799999237061</ele>
        <time>2019-06-02T09:36:29.000Z</time>
      </trkpt>
      <trkpt lat="47.31096" lon="-2.34128">
        <ele>30.200000762939</ele>
        <time>2019-06-02T09:36:30.000Z</time>
      </trkpt>
      <trkpt lat="47.31092" lon="-2.3412">
        <ele>30.200000762939</ele>
        <time>2019-06-02T09:36:31.000Z</time>
      </trkpt>
      <trkpt lat="47.31088" lon="-2.34112">
        <ele>30.60000038147</ele>
        <time>2019-06-02T09:36:32.000Z</time>
      </trkpt>
      <trkpt lat="47.31084" lon="-2.34105">
        <ele>31</ele>
        <time>2019-06-02T09:36:33.000Z</time>
      </trkpt>
      <trkpt lat="47.3108" lon="-2.34096">
        <ele>31.39999961853</ele>
        <time>2019-06-02T09:36:34.000Z</time>
      </trkpt>
      <trkpt lat="47.31077" lon="-2.34088">
        <ele>31.799999237061</ele>
        <time>2019-06-02T09:36:35.000Z</time>
      </trkpt>
      <trkpt lat="47.31074" lon="-2.34079">
        <ele>32.200000762939</ele>
        <time>2019-06-02T09:36:36.000Z</time>
      </trkpt>
      <trkpt lat="47.31069" lon="-2.34061">
        <ele>32.599998474121</ele>
        <time>2019-06-02T09:36:38.000Z</time>
      </trkpt>
      <trkpt lat="47.31067" lon="-2.34051">
        <ele>33</ele>
        <time>2019-06-02T09:36:39.000Z</time>
      </trkpt>
      <trkpt lat="47.31066" lon="-2.34041">
        <ele>33.400001525879</ele>
        <time>2019-06-02T09:36:40.000Z</time>
      </trkpt>
      <trkpt lat="47.31064" lon="-2.34031">
        <ele>33.799999237061</ele>
        <time>2019-06-02T09:36:41.000Z</time>
      </trkpt>
      <trkpt lat="47.31064" lon="-2.34022">
        <ele>34.400001525879</ele>
        <time>2019-06-02T09:36:42.000Z</time>
      </trkpt>
      <trkpt lat="47.31061" lon="-2.33966">
        <ele>34.400001525879</ele>
        <time>2019-06-02T09:36:48.000Z</time>
      </trkpt>
      <trkpt lat="47.3106" lon="-2.33957">
        <ele>34.400001525879</ele>
        <time>2019-06-02T09:36:49.000Z</time>
      </trkpt>
      <trkpt lat="47.31056" lon="-2.3395">
        <ele>34.400001525879</ele>
        <time>2019-06-02T09:36:50.000Z</time>
      </trkpt>
      <trkpt lat="47.31045" lon="-2.33945">
        <ele>34.400001525879</ele>
        <time>2019-06-02T09:36:52.000Z</time>
      </trkpt>
      <trkpt lat="47.31034" lon="-2.33948">
        <ele>34.400001525879</ele>
        <time>2019-06-02T09:36:54.000Z</time>
      </trkpt>
      <trkpt lat="47.31028" lon="-2.3395">
        <ele>34.799999237061</ele>
        <time>2019-06-02T09:36:55.000Z</time>
      </trkpt>
      <trkpt lat="47.31022" lon="-2.33952">
        <ele>35.200000762939</ele>
        <time>2019-06-02T09:36:56.000Z</time>
      </trkpt>
      <trkpt lat="47.31016" lon="-2.33953">
        <ele>35.599998474121</ele>
        <time>2019-06-02T09:36:57.000Z</time>
      </trkpt>
      <trkpt lat="47.31011" lon="-2.33954">
        <ele>36</ele>
        <time>2019-06-02T09:36:58.000Z</time>
      </trkpt>
      <trkpt lat="47.31004" lon="-2.33955">
        <ele>36.400001525879</ele>
        <time>2019-06-02T09:36:59.000Z</time>
      </trkpt>
      <trkpt lat="47.30983" lon="-2.33956">
        <ele>36.400001525879</ele>
        <time>2019-06-02T09:37:03.000Z</time>
      </trkpt>
      <trkpt lat="47.30971" lon="-2.33956">
        <ele>36.400001525879</ele>
        <time>2019-06-02T09:37:05.000Z</time>
      </trkpt>
      <trkpt lat="47.30955" lon="-2.33953">
        <ele>36.400001525879</ele>
        <time>2019-06-02T09:37:08.000Z</time>
      </trkpt>
      <trkpt lat="47.3095" lon="-2.33952">
        <ele>36.400001525879</ele>
        <time>2019-06-02T09:37:09.000Z</time>
      </trkpt>
      <trkpt lat="47.30922" lon="-2.33947">
        <ele>36.799999237061</ele>
        <time>2019-06-02T09:37:14.000Z</time>
      </trkpt>
      <trkpt lat="47.30916" lon="-2.33946">
        <ele>37.200000762939</ele>
        <time>2019-06-02T09:37:15.000Z</time>
      </trkpt>
      <trkpt lat="47.3091" lon="-2.33946">
        <ele>37.599998474121</ele>
        <time>2019-06-02T09:37:16.000Z</time>
      </trkpt>
      <trkpt lat="47.30904" lon="-2.33946">
        <ele>38</ele>
        <time>2019-06-02T09:37:17.000Z</time>
      </trkpt>
      <trkpt lat="47.30899" lon="-2.33947">
        <ele>38.400001525879</ele>
        <time>2019-06-02T09:37:18.000Z</time>
      </trkpt>
      <trkpt lat="47.3087" lon="-2.33951">
        <ele>38.400001525879</ele>
        <time>2019-06-02T09:37:23.000Z</time>
      </trkpt>
      <trkpt lat="47.30827" lon="-2.33959">
        <ele>38.400001525879</ele>
        <time>2019-06-02T09:37:31.000Z</time>
      </trkpt>
      <trkpt lat="47.308" lon="-2.33968">
        <ele>38.400001525879</ele>
        <time>2019-06-02T09:37:36.000Z</time>
      </trkpt>
      <trkpt lat="47.30795" lon="-2.3397">
        <ele>38.400001525879</ele>
        <time>2019-06-02T09:37:37.000Z</time>
      </trkpt>
      <trkpt lat="47.30758" lon="-2.3398">
        <ele>38.400001525879</ele>
        <time>2019-06-02T09:37:44.000Z</time>
      </trkpt>
      <trkpt lat="47.30727" lon="-2.33987">
        <ele>38.400001525879</ele>
        <time>2019-06-02T09:37:50.000Z</time>
      </trkpt>
      <trkpt lat="47.3072" lon="-2.33996">
        <ele>38.400001525879</ele>
        <time>2019-06-02T09:37:53.000Z</time>
      </trkpt>
      <trkpt lat="47.30717" lon="-2.34017">
        <ele>38.400001525879</ele>
        <time>2019-06-02T09:37:59.000Z</time>
      </trkpt>
      <trkpt lat="47.30709" lon="-2.34019">
        <ele>38.400001525879</ele>
        <time>2019-06-02T09:38:04.000Z</time>
      </trkpt>
      <trkpt lat="47.30705" lon="-2.3402">
        <ele>38.400001525879</ele>
        <time>2019-06-02T09:38:06.000Z</time>
      </trkpt>
      <trkpt lat="47.30696" lon="-2.34018">
        <ele>38.400001525879</ele>
        <time>2019-06-02T09:38:10.000Z</time>
      </trkpt>
      <trkpt lat="47.30685" lon="-2.34019">
        <ele>38.400001525879</ele>
        <time>2019-06-02T09:38:15.000Z</time>
      </trkpt>
      <trkpt lat="47.30673" lon="-2.34029">
        <ele>38.400001525879</ele>
        <time>2019-06-02T09:38:20.000Z</time>
      </trkpt>
      <trkpt lat="47.30661" lon="-2.34044">
        <ele>38.400001525879</ele>
        <time>2019-06-02T09:38:25.000Z</time>
      </trkpt>
      <trkpt lat="47.30647" lon="-2.34057">
        <ele>38.400001525879</ele>
        <time>2019-06-02T09:38:31.000Z</time>
      </trkpt>
      <trkpt lat="47.30644" lon="-2.34057">
        <ele>38.400001525879</ele>
        <time>2019-06-02T09:38:32.000Z</time>
      </trkpt>
      <trkpt lat="47.30636" lon="-2.34059">
        <ele>38.400001525879</ele>
        <time>2019-06-02T09:38:35.000Z</time>
      </trkpt>
      <trkpt lat="47.30627" lon="-2.34064">
        <ele>38.400001525879</ele>
        <time>2019-06-02T09:38:38.000Z</time>
      </trkpt>
      <trkpt lat="47.30621" lon="-2.34068">
        <ele>38.400001525879</ele>
        <time>2019-06-02T09:38:40.000Z</time>
      </trkpt>
      <trkpt lat="47.30606" lon="-2.3408">
        <ele>38.400001525879</ele>
        <time>2019-06-02T09:38:45.000Z</time>
      </trkpt>
      <trkpt lat="47.30593" lon="-2.34104">
        <ele>38.400001525879</ele>
        <time>2019-06-02T09:38:51.000Z</time>
      </trkpt>
      <trkpt lat="47.3058" lon="-2.34128">
        <ele>38.400001525879</ele>
        <time>2019-06-02T09:38:57.000Z</time>
      </trkpt>
      <trkpt lat="47.30561" lon="-2.34154">
        <ele>38.400001525879</ele>
        <time>2019-06-02T09:39:05.000Z</time>
      </trkpt>
      <trkpt lat="47.30548" lon="-2.3417">
        <ele>38.400001525879</ele>
        <time>2019-06-02T09:39:12.000Z</time>
      </trkpt>
      <trkpt lat="47.30546" lon="-2.34172">
        <ele>38.400001525879</ele>
        <time>2019-06-02T09:39:13.000Z</time>
      </trkpt>
      <trkpt lat="47.30539" lon="-2.34179">
        <ele>38.400001525879</ele>
        <time>2019-06-02T09:39:16.000Z</time>
      </trkpt>
      <trkpt lat="47.30536" lon="-2.3418">
        <ele>38.400001525879</ele>
        <time>2019-06-02T09:39:17.000Z</time>
      </trkpt>
      <trkpt lat="47.30531" lon="-2.34183">
        <ele>38.400001525879</ele>
        <time>2019-06-02T09:39:19.000Z</time>
      </trkpt>
      <trkpt lat="47.30519" lon="-2.34194">
        <ele>38.400001525879</ele>
        <time>2019-06-02T09:39:24.000Z</time>
      </trkpt>
      <trkpt lat="47.30512" lon="-2.34213">
        <ele>38.400001525879</ele>
        <time>2019-06-02T09:39:29.000Z</time>
      </trkpt>
      <trkpt lat="47.3051" lon="-2.34218">
        <ele>38.400001525879</ele>
        <time>2019-06-02T09:39:30.000Z</time>
      </trkpt>
      <trkpt lat="47.30498" lon="-2.34243">
        <ele>38.400001525879</ele>
        <time>2019-06-02T09:39:36.000Z</time>
      </trkpt>
      <trkpt lat="47.30492" lon="-2.34265">
        <ele>38.400001525879</ele>
        <time>2019-06-02T09:39:41.000Z</time>
      </trkpt>
      <trkpt lat="47.30493" lon="-2.3427">
        <ele>38.400001525879</ele>
        <time>2019-06-02T09:39:42.000Z</time>
      </trkpt>
      <trkpt lat="47.30497" lon="-2.34277">
        <ele>38.400001525879</ele>
        <time>2019-06-02T09:39:44.000Z</time>
      </trkpt>
      <trkpt lat="47.30512" lon="-2.34306">
        <ele>38.400001525879</ele>
        <time>2019-06-02T09:39:49.000Z</time>
      </trkpt>
      <trkpt lat="47.30512" lon="-2.34312">
        <ele>38.799999237061</ele>
        <time>2019-06-02T09:39:50.000Z</time>
      </trkpt>
      <trkpt lat="47.30513" lon="-2.34317">
        <ele>39.200000762939</ele>
        <time>2019-06-02T09:39:51.000Z</time>
      </trkpt>
      <trkpt lat="47.30513" lon="-2.34322">
        <ele>39.599998474121</ele>
        <time>2019-06-02T09:39:52.000Z</time>
      </trkpt>
      <trkpt lat="47.30514" lon="-2.34327">
        <ele>40</ele>
        <time>2019-06-02T09:39:53.000Z</time>
      </trkpt>
      <trkpt lat="47.30515" lon="-2.34332">
        <ele>40.400001525879</ele>
        <time>2019-06-02T09:39:54.000Z</time>
      </trkpt>
      <trkpt lat="47.30515" lon="-2.34338">
        <ele>40.400001525879</ele>
        <time>2019-06-02T09:39:55.000Z</time>
      </trkpt>
      <trkpt lat="47.30514" lon="-2.34348">
        <ele>40.400001525879</ele>
        <time>2019-06-02T09:39:57.000Z</time>
      </trkpt>
      <trkpt lat="47.3051" lon="-2.34377">
        <ele>40.400001525879</ele>
        <time>2019-06-02T09:40:02.000Z</time>
      </trkpt>
      <trkpt lat="47.30508" lon="-2.34382">
        <ele>40.400001525879</ele>
        <time>2019-06-02T09:40:03.000Z</time>
      </trkpt>
      <trkpt lat="47.30504" lon="-2.34392">
        <ele>40.400001525879</ele>
        <time>2019-06-02T09:40:05.000Z</time>
      </trkpt>
      <trkpt lat="47.305" lon="-2.34407">
        <ele>40.400001525879</ele>
        <time>2019-06-02T09:40:08.000Z</time>
      </trkpt>
      <trkpt lat="47.305" lon="-2.34411">
        <ele>40.400001525879</ele>
        <time>2019-06-02T09:40:09.000Z</time>
      </trkpt>
      <trkpt lat="47.30501" lon="-2.34417">
        <ele>40.400001525879</ele>
        <time>2019-06-02T09:40:10.000Z</time>
      </trkpt>
      <trkpt lat="47.30504" lon="-2.34434">
        <ele>40.400001525879</ele>
        <time>2019-06-02T09:40:14.000Z</time>
      </trkpt>
      <trkpt lat="47.30504" lon="-2.34439">
        <ele>40.400001525879</ele>
        <time>2019-06-02T09:40:15.000Z</time>
      </trkpt>
      <trkpt lat="47.30505" lon="-2.34443">
        <ele>40.400001525879</ele>
        <time>2019-06-02T09:40:16.000Z</time>
      </trkpt>
      <trkpt lat="47.30511" lon="-2.34462">
        <ele>40.400001525879</ele>
        <time>2019-06-02T09:40:20.000Z</time>
      </trkpt>
      <trkpt lat="47.30515" lon="-2.34467">
        <ele>40.400001525879</ele>
        <time>2019-06-02T09:40:22.000Z</time>
      </trkpt>
      <trkpt lat="47.30518" lon="-2.34469">
        <ele>40.400001525879</ele>
        <time>2019-06-02T09:40:24.000Z</time>
      </trkpt>
      <trkpt lat="47.30523" lon="-2.34477">
        <ele>40.400001525879</ele>
        <time>2019-06-02T09:40:27.000Z</time>
      </trkpt>
      <trkpt lat="47.30527" lon="-2.34484">
        <ele>40.400001525879</ele>
        <time>2019-06-02T09:40:29.000Z</time>
      </trkpt>
      <trkpt lat="47.30542" lon="-2.34506">
        <ele>40.400001525879</ele>
        <time>2019-06-02T09:40:34.000Z</time>
      </trkpt>
      <trkpt lat="47.30552" lon="-2.34527">
        <ele>40.400001525879</ele>
        <time>2019-06-02T09:40:39.000Z</time>
      </trkpt>
      <trkpt lat="47.30555" lon="-2.34536">
        <ele>40.400001525879</ele>
        <time>2019-06-02T09:40:40.000Z</time>
      </trkpt>
      <trkpt lat="47.30553" lon="-2.34551">
        <ele>40.400001525879</ele>
        <time>2019-06-02T09:40:42.000Z</time>
      </trkpt>
      <trkpt lat="47.30537" lon="-2.3458">
        <ele>40.400001525879</ele>
        <time>2019-06-02T09:40:47.000Z</time>
      </trkpt>
      <trkpt lat="47.30524" lon="-2.34596">
        <ele>40.400001525879</ele>
        <time>2019-06-02T09:40:50.000Z</time>
      </trkpt>
      <trkpt lat="47.30515" lon="-2.34608">
        <ele>40.400001525879</ele>
        <time>2019-06-02T09:40:52.000Z</time>
      </trkpt>
      <trkpt lat="47.30506" lon="-2.34627">
        <ele>40.400001525879</ele>
        <time>2019-06-02T09:40:55.000Z</time>
      </trkpt>
      <trkpt lat="47.30504" lon="-2.34633">
        <ele>40.400001525879</ele>
        <time>2019-06-02T09:40:56.000Z</time>
      </trkpt>
      <trkpt lat="47.30496" lon="-2.34645">
        <ele>40.400001525879</ele>
        <time>2019-06-02T09:40:58.000Z</time>
      </trkpt>
      <trkpt lat="47.30486" lon="-2.34655">
        <ele>40.400001525879</ele>
        <time>2019-06-02T09:41:00.000Z</time>
      </trkpt>
      <trkpt lat="47.30455" lon="-2.34689">
        <ele>40.400001525879</ele>
        <time>2019-06-02T09:41:06.000Z</time>
      </trkpt>
      <trkpt lat="47.30435" lon="-2.34707">
        <ele>40.400001525879</ele>
        <time>2019-06-02T09:41:10.000Z</time>
      </trkpt>
      <trkpt lat="47.3043" lon="-2.34712">
        <ele>40.400001525879</ele>
        <time>2019-06-02T09:41:11.000Z</time>
      </trkpt>
      <trkpt lat="47.30424" lon="-2.34718">
        <ele>40.400001525879</ele>
        <time>2019-06-02T09:41:12.000Z</time>
      </trkpt>
      <trkpt lat="47.30414" lon="-2.34726">
        <ele>40.400001525879</ele>
        <time>2019-06-02T09:41:14.000Z</time>
      </trkpt>
      <trkpt lat="47.30403" lon="-2.34732">
        <ele>40.400001525879</ele>
        <time>2019-06-02T09:41:16.000Z</time>
      </trkpt>
      <trkpt lat="47.30375" lon="-2.34749">
        <ele>40.400001525879</ele>
        <time>2019-06-02T09:41:21.000Z</time>
      </trkpt>
      <trkpt lat="47.30371" lon="-2.34754">
        <ele>40.400001525879</ele>
        <time>2019-06-02T09:41:22.000Z</time>
      </trkpt>
      <trkpt lat="47.30362" lon="-2.34761">
        <ele>40.400001525879</ele>
        <time>2019-06-02T09:41:24.000Z</time>
      </trkpt>
      <trkpt lat="47.30347" lon="-2.34773">
        <ele>40.400001525879</ele>
        <time>2019-06-02T09:41:27.000Z</time>
      </trkpt>
      <trkpt lat="47.30338" lon="-2.34784">
        <ele>40.400001525879</ele>
        <time>2019-06-02T09:41:29.000Z</time>
      </trkpt>
      <trkpt lat="47.3032" lon="-2.34817">
        <ele>40.400001525879</ele>
        <time>2019-06-02T09:41:34.000Z</time>
      </trkpt>
      <trkpt lat="47.30316" lon="-2.34822">
        <ele>40.400001525879</ele>
        <time>2019-06-02T09:41:35.000Z</time>
      </trkpt>
      <trkpt lat="47.30297" lon="-2.34845">
        <ele>40.400001525879</ele>
        <time>2019-06-02T09:41:39.000Z</time>
      </trkpt>
      <trkpt lat="47.30276" lon="-2.34859">
        <ele>40.400001525879</ele>
        <time>2019-06-02T09:41:43.000Z</time>
      </trkpt>
      <trkpt lat="47.30271" lon="-2.34863">
        <ele>40.400001525879</ele>
        <time>2019-06-02T09:41:44.000Z</time>
      </trkpt>
      <trkpt lat="47.30259" lon="-2.34869">
        <ele>40.400001525879</ele>
        <time>2019-06-02T09:41:46.000Z</time>
      </trkpt>
      <trkpt lat="47.30248" lon="-2.34875">
        <ele>40.400001525879</ele>
        <time>2019-06-02T09:41:48.000Z</time>
      </trkpt>
      <trkpt lat="47.30237" lon="-2.34884">
        <ele>40.400001525879</ele>
        <time>2019-06-02T09:41:50.000Z</time>
      </trkpt>
      <trkpt lat="47.30232" lon="-2.3489">
        <ele>40.400001525879</ele>
        <time>2019-06-02T09:41:51.000Z</time>
      </trkpt>
      <trkpt lat="47.30226" lon="-2.34895">
        <ele>40.400001525879</ele>
        <time>2019-06-02T09:41:52.000Z</time>
      </trkpt>
      <trkpt lat="47.30215" lon="-2.34904">
        <ele>40.400001525879</ele>
        <time>2019-06-02T09:41:54.000Z</time>
      </trkpt>
      <trkpt lat="47.30209" lon="-2.34919">
        <ele>40.400001525879</ele>
        <time>2019-06-02T09:41:56.000Z</time>
      </trkpt>
      <trkpt lat="47.3021" lon="-2.34937">
        <ele>40.400001525879</ele>
        <time>2019-06-02T09:41:58.000Z</time>
      </trkpt>
      <trkpt lat="47.3021" lon="-2.34947">
        <ele>40.400001525879</ele>
        <time>2019-06-02T09:41:59.000Z</time>
      </trkpt>
      <trkpt lat="47.30209" lon="-2.34976">
        <ele>40.400001525879</ele>
        <time>2019-06-02T09:42:02.000Z</time>
      </trkpt>
      <trkpt lat="47.30209" lon="-2.35008">
        <ele>40.400001525879</ele>
        <time>2019-06-02T09:42:05.000Z</time>
      </trkpt>
      <trkpt lat="47.3021" lon="-2.35029">
        <ele>40.400001525879</ele>
        <time>2019-06-02T09:42:07.000Z</time>
      </trkpt>
      <trkpt lat="47.3021" lon="-2.35059">
        <ele>40.400001525879</ele>
        <time>2019-06-02T09:42:10.000Z</time>
      </trkpt>
      <trkpt lat="47.3021" lon="-2.35069">
        <ele>40</ele>
        <time>2019-06-02T09:42:11.000Z</time>
      </trkpt>
      <trkpt lat="47.3021" lon="-2.35079">
        <ele>39.599998474121</ele>
        <time>2019-06-02T09:42:12.000Z</time>
      </trkpt>
      <trkpt lat="47.3021" lon="-2.35089">
        <ele>39.200000762939</ele>
        <time>2019-06-02T09:42:13.000Z</time>
      </trkpt>
      <trkpt lat="47.3021" lon="-2.35098">
        <ele>38.799999237061</ele>
        <time>2019-06-02T09:42:14.000Z</time>
      </trkpt>
      <trkpt lat="47.30209" lon="-2.35107">
        <ele>38.400001525879</ele>
        <time>2019-06-02T09:42:15.000Z</time>
      </trkpt>
      <trkpt lat="47.30208" lon="-2.35116">
        <ele>38.400001525879</ele>
        <time>2019-06-02T09:42:16.000Z</time>
      </trkpt>
      <trkpt lat="47.30208" lon="-2.35156">
        <ele>38.400001525879</ele>
        <time>2019-06-02T09:42:20.000Z</time>
      </trkpt>
      <trkpt lat="47.30205" lon="-2.35163">
        <ele>38.400001525879</ele>
        <time>2019-06-02T09:42:21.000Z</time>
      </trkpt>
      <trkpt lat="47.30197" lon="-2.3517">
        <ele>38</ele>
        <time>2019-06-02T09:42:23.000Z</time>
      </trkpt>
      <trkpt lat="47.30192" lon="-2.35171">
        <ele>37.599998474121</ele>
        <time>2019-06-02T09:42:24.000Z</time>
      </trkpt>
      <trkpt lat="47.30187" lon="-2.35173">
        <ele>37.200000762939</ele>
        <time>2019-06-02T09:42:25.000Z</time>
      </trkpt>
      <trkpt lat="47.30183" lon="-2.35175">
        <ele>36.599998474121</ele>
        <time>2019-06-02T09:42:26.000Z</time>
      </trkpt>
      <trkpt lat="47.30179" lon="-2.35177">
        <ele>36.200000762939</ele>
        <time>2019-06-02T09:42:27.000Z</time>
      </trkpt>
      <trkpt lat="47.30171" lon="-2.35179">
        <ele>36.200000762939</ele>
        <time>2019-06-02T09:42:29.000Z</time>
      </trkpt>
      <trkpt lat="47.30167" lon="-2.35184">
        <ele>36.200000762939</ele>
        <time>2019-06-02T09:42:32.000Z</time>
      </trkpt>
      <trkpt lat="47.30166" lon="-2.35186">
        <ele>36.200000762939</ele>
        <time>2019-06-02T09:42:33.000Z</time>
      </trkpt>
      <trkpt lat="47.30157" lon="-2.35192">
        <ele>36.200000762939</ele>
        <time>2019-06-02T09:42:38.000Z</time>
      </trkpt>
      <trkpt lat="47.30143" lon="-2.35196">
        <ele>36.200000762939</ele>
        <time>2019-06-02T09:42:43.000Z</time>
      </trkpt>
      <trkpt lat="47.30139" lon="-2.35197">
        <ele>36.200000762939</ele>
        <time>2019-06-02T09:42:44.000Z</time>
      </trkpt>
      <trkpt lat="47.30124" lon="-2.35201">
        <ele>36.200000762939</ele>
        <time>2019-06-02T09:42:47.000Z</time>
      </trkpt>
      <trkpt lat="47.30119" lon="-2.35203">
        <ele>36.200000762939</ele>
        <time>2019-06-02T09:42:48.000Z</time>
      </trkpt>
      <trkpt lat="47.30104" lon="-2.35211">
        <ele>36.200000762939</ele>
        <time>2019-06-02T09:42:51.000Z</time>
      </trkpt>
      <trkpt lat="47.30093" lon="-2.35215">
        <ele>36.200000762939</ele>
        <time>2019-06-02T09:42:53.000Z</time>
      </trkpt>
      <trkpt lat="47.30087" lon="-2.35217">
        <ele>36.200000762939</ele>
        <time>2019-06-02T09:42:54.000Z</time>
      </trkpt>
      <trkpt lat="47.30076" lon="-2.35221">
        <ele>36.200000762939</ele>
        <time>2019-06-02T09:42:56.000Z</time>
      </trkpt>
      <trkpt lat="47.30072" lon="-2.35224">
        <ele>36.200000762939</ele>
        <time>2019-06-02T09:42:57.000Z</time>
      </trkpt>
      <trkpt lat="47.30062" lon="-2.3523">
        <ele>36.200000762939</ele>
        <time>2019-06-02T09:42:59.000Z</time>
      </trkpt>
      <trkpt lat="47.30053" lon="-2.35235">
        <ele>36.200000762939</ele>
        <time>2019-06-02T09:43:01.000Z</time>
      </trkpt>
      <trkpt lat="47.30034" lon="-2.35246">
        <ele>36.200000762939</ele>
        <time>2019-06-02T09:43:05.000Z</time>
      </trkpt>
      <trkpt lat="47.30031" lon="-2.35249">
        <ele>36.200000762939</ele>
        <time>2019-06-02T09:43:06.000Z</time>
      </trkpt>
      <trkpt lat="47.30024" lon="-2.35248">
        <ele>36.200000762939</ele>
        <time>2019-06-02T09:43:09.000Z</time>
      </trkpt>
      <trkpt lat="47.30021" lon="-2.3525">
        <ele>35.799999237061</ele>
        <time>2019-06-02T09:43:10.000Z</time>
      </trkpt>
      <trkpt lat="47.30018" lon="-2.35253">
        <ele>35.400001525879</ele>
        <time>2019-06-02T09:43:11.000Z</time>
      </trkpt>
      <trkpt lat="47.30015" lon="-2.35255">
        <ele>35</ele>
        <time>2019-06-02T09:43:12.000Z</time>
      </trkpt>
      <trkpt lat="47.30013" lon="-2.35257">
        <ele>34.599998474121</ele>
        <time>2019-06-02T09:43:13.000Z</time>
      </trkpt>
      <trkpt lat="47.3001" lon="-2.35258">
        <ele>34.200000762939</ele>
        <time>2019-06-02T09:43:14.000Z</time>
      </trkpt>
      <trkpt lat="47.30005" lon="-2.3526">
        <ele>34.200000762939</ele>
        <time>2019-06-02T09:43:16.000Z</time>
      </trkpt>
      <trkpt lat="47.29997" lon="-2.3526">
        <ele>34.200000762939</ele>
        <time>2019-06-02T09:43:20.000Z</time>
      </trkpt>
      <trkpt lat="47.29996" lon="-2.35263">
        <ele>34.200000762939</ele>
        <time>2019-06-02T09:44:01.000Z</time>
      </trkpt>
      <trkpt lat="47.29992" lon="-2.35269">
        <ele>34.200000762939</ele>
        <time>2019-06-02T09:44:04.000Z</time>
      </trkpt>
      <trkpt lat="47.2999" lon="-2.35271">
        <ele>34.200000762939</ele>
        <time>2019-06-02T09:44:05.000Z</time>
      </trkpt>
      <trkpt lat="47.29979" lon="-2.35284">
        <ele>34.200000762939</ele>
        <time>2019-06-02T09:44:09.000Z</time>
      </trkpt>
      <trkpt lat="47.29951" lon="-2.35319">
        <ele>34.200000762939</ele>
        <time>2019-06-02T09:44:17.000Z</time>
      </trkpt>
      <trkpt lat="47.29925" lon="-2.35352">
        <ele>34.200000762939</ele>
        <time>2019-06-02T09:44:24.000Z</time>
      </trkpt>
      <trkpt lat="47.29895" lon="-2.35387">
        <ele>34.599998474121</ele>
        <time>2019-06-02T09:44:32.000Z</time>
      </trkpt>
      <trkpt lat="47.29891" lon="-2.35391">
        <ele>35</ele>
        <time>2019-06-02T09:44:33.000Z</time>
      </trkpt>
      <trkpt lat="47.29886" lon="-2.35396">
        <ele>35.400001525879</ele>
        <time>2019-06-02T09:44:34.000Z</time>
      </trkpt>
      <trkpt lat="47.29882" lon="-2.354">
        <ele>35.799999237061</ele>
        <time>2019-06-02T09:44:35.000Z</time>
      </trkpt>
      <trkpt lat="47.29878" lon="-2.35404">
        <ele>36.200000762939</ele>
        <time>2019-06-02T09:44:36.000Z</time>
      </trkpt>
      <trkpt lat="47.2987" lon="-2.35412">
        <ele>36.200000762939</ele>
        <time>2019-06-02T09:44:38.000Z</time>
      </trkpt>
      <trkpt lat="47.29839" lon="-2.35446">
        <ele>36.200000762939</ele>
        <time>2019-06-02T09:44:46.000Z</time>
      </trkpt>
      <trkpt lat="47.29831" lon="-2.35456">
        <ele>36.200000762939</ele>
        <time>2019-06-02T09:44:48.000Z</time>
      </trkpt>
      <trkpt lat="47.29828" lon="-2.35469">
        <ele>36.200000762939</ele>
        <time>2019-06-02T09:44:50.000Z</time>
      </trkpt>
      <trkpt lat="47.29833" lon="-2.35489">
        <ele>36.200000762939</ele>
        <time>2019-06-02T09:44:53.000Z</time>
      </trkpt>
      <trkpt lat="47.29834" lon="-2.35495">
        <ele>36.200000762939</ele>
        <time>2019-06-02T09:44:54.000Z</time>
      </trkpt>
      <trkpt lat="47.29842" lon="-2.35523">
        <ele>36.599998474121</ele>
        <time>2019-06-02T09:44:58.000Z</time>
      </trkpt>
      <trkpt lat="47.29844" lon="-2.3553">
        <ele>37</ele>
        <time>2019-06-02T09:44:59.000Z</time>
      </trkpt>
      <trkpt lat="47.29846" lon="-2.35537">
        <ele>37.400001525879</ele>
        <time>2019-06-02T09:45:00.000Z</time>
      </trkpt>
      <trkpt lat="47.29848" lon="-2.35544">
        <ele>37.799999237061</ele>
        <time>2019-06-02T09:45:01.000Z</time>
      </trkpt>
      <trkpt lat="47.2985" lon="-2.35551">
        <ele>38.400001525879</ele>
        <time>2019-06-02T09:45:02.000Z</time>
      </trkpt>
      <trkpt lat="47.29861" lon="-2.35591">
        <ele>38.400001525879</ele>
        <time>2019-06-02T09:45:08.000Z</time>
      </trkpt>
      <trkpt lat="47.29868" lon="-2.35618">
        <ele>38.799999237061</ele>
        <time>2019-06-02T09:45:12.000Z</time>
      </trkpt>
      <trkpt lat="47.2987" lon="-2.35625">
        <ele>39.200000762939</ele>
        <time>2019-06-02T09:45:13.000Z</time>
      </trkpt>
      <trkpt lat="47.29872" lon="-2.35631">
        <ele>39.599998474121</ele>
        <time>2019-06-02T09:45:14.000Z</time>
      </trkpt>
      <trkpt lat="47.29873" lon="-2.35638">
        <ele>40</ele>
        <time>2019-06-02T09:45:15.000Z</time>
      </trkpt>
      <trkpt lat="47.29874" lon="-2.35645">
        <ele>40.400001525879</ele>
        <time>2019-06-02T09:45:16.000Z</time>
      </trkpt>
      <trkpt lat="47.29882" lon="-2.35695">
        <ele>40.400001525879</ele>
        <time>2019-06-02T09:45:23.000Z</time>
      </trkpt>
      <trkpt lat="47.29893" lon="-2.35737">
        <ele>40.400001525879</ele>
        <time>2019-06-02T09:45:30.000Z</time>
      </trkpt>
      <trkpt lat="47.29894" lon="-2.35753">
        <ele>40.400001525879</ele>
        <time>2019-06-02T09:45:34.000Z</time>
      </trkpt>
      <trkpt lat="47.2989" lon="-2.35759">
        <ele>40.400001525879</ele>
        <time>2019-06-02T09:45:36.000Z</time>
      </trkpt>
      <trkpt lat="47.29884" lon="-2.35764">
        <ele>40.400001525879</ele>
        <time>2019-06-02T09:45:38.000Z</time>
      </trkpt>
      <trkpt lat="47.29876" lon="-2.3577">
        <ele>40.400001525879</ele>
        <time>2019-06-02T09:45:40.000Z</time>
      </trkpt>
      <trkpt lat="47.29867" lon="-2.35773">
        <ele>40.400001525879</ele>
        <time>2019-06-02T09:45:42.000Z</time>
      </trkpt>
      <trkpt lat="47.29837" lon="-2.35785">
        <ele>40.400001525879</ele>
        <time>2019-06-02T09:45:48.000Z</time>
      </trkpt>
      <trkpt lat="47.29805" lon="-2.35796">
        <ele>40.400001525879</ele>
        <time>2019-06-02T09:45:54.000Z</time>
      </trkpt>
      <trkpt lat="47.29794" lon="-2.358">
        <ele>40.799999237061</ele>
        <time>2019-06-02T09:45:56.000Z</time>
      </trkpt>
      <trkpt lat="47.29789" lon="-2.35802">
        <ele>41.599998474121</ele>
        <time>2019-06-02T09:45:57.000Z</time>
      </trkpt>
      <trkpt lat="47.29784" lon="-2.35803">
        <ele>42</ele>
        <time>2019-06-02T09:45:58.000Z</time>
      </trkpt>
      <trkpt lat="47.29779" lon="-2.35805">
        <ele>42.400001525879</ele>
        <time>2019-06-02T09:45:59.000Z</time>
      </trkpt>
      <trkpt lat="47.29758" lon="-2.35812">
        <ele>42.400001525879</ele>
        <time>2019-06-02T09:46:03.000Z</time>
      </trkpt>
      <trkpt lat="47.2974" lon="-2.3582">
        <ele>42.400001525879</ele>
        <time>2019-06-02T09:46:06.000Z</time>
      </trkpt>
      <trkpt lat="47.29728" lon="-2.35827">
        <ele>42.400001525879</ele>
        <time>2019-06-02T09:46:08.000Z</time>
      </trkpt>
      <trkpt lat="47.29686" lon="-2.35847">
        <ele>42</ele>
        <time>2019-06-02T09:46:14.000Z</time>
      </trkpt>
      <trkpt lat="47.2968" lon="-2.35849">
        <ele>41.599998474121</ele>
        <time>2019-06-02T09:46:15.000Z</time>
      </trkpt>
      <trkpt lat="47.29674" lon="-2.35852">
        <ele>41.200000762939</ele>
        <time>2019-06-02T09:46:16.000Z</time>
      </trkpt>
      <trkpt lat="47.29668" lon="-2.35857">
        <ele>40.599998474121</ele>
        <time>2019-06-02T09:46:17.000Z</time>
      </trkpt>
      <trkpt lat="47.29663" lon="-2.35861">
        <ele>40.200000762939</ele>
        <time>2019-06-02T09:46:18.000Z</time>
      </trkpt>
      <trkpt lat="47.29652" lon="-2.35869">
        <ele>40.200000762939</ele>
        <time>2019-06-02T09:46:20.000Z</time>
      </trkpt>
      <trkpt lat="47.29634" lon="-2.35878">
        <ele>40.200000762939</ele>
        <time>2019-06-02T09:46:23.000Z</time>
      </trkpt>
      <trkpt lat="47.29599" lon="-2.35898">
        <ele>40.200000762939</ele>
        <time>2019-06-02T09:46:30.000Z</time>
      </trkpt>
      <trkpt lat="47.29564" lon="-2.35918">
        <ele>40.200000762939</ele>
        <time>2019-06-02T09:46:37.000Z</time>
      </trkpt>
      <trkpt lat="47.29536" lon="-2.35933">
        <ele>40.200000762939</ele>
        <time>2019-06-02T09:46:43.000Z</time>
      </trkpt>
      <trkpt lat="47.29512" lon="-2.35942">
        <ele>40.200000762939</ele>
        <time>2019-06-02T09:46:49.000Z</time>
      </trkpt>
      <trkpt lat="47.29506" lon="-2.35927">
        <ele>40.200000762939</ele>
        <time>2019-06-02T09:46:52.000Z</time>
      </trkpt>
      <trkpt lat="47.29504" lon="-2.35921">
        <ele>39.799999237061</ele>
        <time>2019-06-02T09:46:53.000Z</time>
      </trkpt>
      <trkpt lat="47.29503" lon="-2.35915">
        <ele>39.400001525879</ele>
        <time>2019-06-02T09:46:54.000Z</time>
      </trkpt>
      <trkpt lat="47.29502" lon="-2.35909">
        <ele>39</ele>
        <time>2019-06-02T09:46:55.000Z</time>
      </trkpt>
      <trkpt lat="47.29499" lon="-2.35904">
        <ele>38.599998474121</ele>
        <time>2019-06-02T09:46:56.000Z</time>
      </trkpt>
      <trkpt lat="47.29496" lon="-2.35901">
        <ele>38.200000762939</ele>
        <time>2019-06-02T09:46:57.000Z</time>
      </trkpt>
      <trkpt lat="47.29483" lon="-2.359">
        <ele>38.200000762939</ele>
        <time>2019-06-02T09:47:00.000Z</time>
      </trkpt>
      <trkpt lat="47.29469" lon="-2.35901">
        <ele>38.200000762939</ele>
        <time>2019-06-02T09:47:03.000Z</time>
      </trkpt>
      <trkpt lat="47.29456" lon="-2.35904">
        <ele>38.200000762939</ele>
        <time>2019-06-02T09:47:06.000Z</time>
      </trkpt>
      <trkpt lat="47.29445" lon="-2.35911">
        <ele>38.200000762939</ele>
        <time>2019-06-02T09:47:09.000Z</time>
      </trkpt>
      <trkpt lat="47.2944" lon="-2.35916">
        <ele>38.200000762939</ele>
        <time>2019-06-02T09:47:11.000Z</time>
      </trkpt>
      <trkpt lat="47.29432" lon="-2.35906">
        <ele>38.200000762939</ele>
        <time>2019-06-02T09:47:14.000Z</time>
      </trkpt>
      <trkpt lat="47.2943" lon="-2.35901">
        <ele>38.200000762939</ele>
        <time>2019-06-02T09:47:15.000Z</time>
      </trkpt>
      <trkpt lat="47.29415" lon="-2.35882">
        <ele>38.200000762939</ele>
        <time>2019-06-02T09:47:19.000Z</time>
      </trkpt>
      <trkpt lat="47.29396" lon="-2.35859">
        <ele>38.200000762939</ele>
        <time>2019-06-02T09:47:24.000Z</time>
      </trkpt>
      <trkpt lat="47.29364" lon="-2.35827">
        <ele>38.200000762939</ele>
        <time>2019-06-02T09:47:31.000Z</time>
      </trkpt>
      <trkpt lat="47.29325" lon="-2.35793">
        <ele>38.200000762939</ele>
        <time>2019-06-02T09:47:39.000Z</time>
      </trkpt>
      <trkpt lat="47.29291" lon="-2.35764">
        <ele>38.200000762939</ele>
        <time>2019-06-02T09:47:46.000Z</time>
      </trkpt>
      <trkpt lat="47.2926" lon="-2.35735">
        <ele>38.200000762939</ele>
        <time>2019-06-02T09:47:53.000Z</time>
      </trkpt>
      <trkpt lat="47.29251" lon="-2.35737">
        <ele>38.200000762939</ele>
        <time>2019-06-02T09:47:55.000Z</time>
      </trkpt>
      <trkpt lat="47.29244" lon="-2.35749">
        <ele>38.200000762939</ele>
        <time>2019-06-02T09:47:57.000Z</time>
      </trkpt>
      <trkpt lat="47.2924" lon="-2.35755">
        <ele>38.200000762939</ele>
        <time>2019-06-02T09:47:58.000Z</time>
      </trkpt>
      <trkpt lat="47.29237" lon="-2.35761">
        <ele>38.200000762939</ele>
        <time>2019-06-02T09:47:59.000Z</time>
      </trkpt>
      <trkpt lat="47.2921" lon="-2.35791">
        <ele>38.200000762939</ele>
        <time>2019-06-02T09:48:05.000Z</time>
      </trkpt>
      <trkpt lat="47.29196" lon="-2.35804">
        <ele>38.200000762939</ele>
        <time>2019-06-02T09:48:08.000Z</time>
      </trkpt>
      <trkpt lat="47.29182" lon="-2.35813">
        <ele>38.200000762939</ele>
        <time>2019-06-02T09:48:11.000Z</time>
      </trkpt>
      <trkpt lat="47.29143" lon="-2.35843">
        <ele>38.200000762939</ele>
        <time>2019-06-02T09:48:19.000Z</time>
      </trkpt>
      <trkpt lat="47.29119" lon="-2.35868">
        <ele>38.200000762939</ele>
        <time>2019-06-02T09:48:24.000Z</time>
      </trkpt>
      <trkpt lat="47.29089" lon="-2.35905">
        <ele>38.200000762939</ele>
        <time>2019-06-02T09:48:31.000Z</time>
      </trkpt>
      <trkpt lat="47.2908" lon="-2.35916">
        <ele>38.200000762939</ele>
        <time>2019-06-02T09:48:33.000Z</time>
      </trkpt>
      <trkpt lat="47.29062" lon="-2.35937">
        <ele>38.200000762939</ele>
        <time>2019-06-02T09:48:37.000Z</time>
      </trkpt>
      <trkpt lat="47.29029" lon="-2.35974">
        <ele>38.200000762939</ele>
        <time>2019-06-02T09:48:44.000Z</time>
      </trkpt>
      <trkpt lat="47.29025" lon="-2.35978">
        <ele>38.599998474121</ele>
        <time>2019-06-02T09:48:45.000Z</time>
      </trkpt>
      <trkpt lat="47.29021" lon="-2.35983">
        <ele>39</ele>
        <time>2019-06-02T09:48:46.000Z</time>
      </trkpt>
      <trkpt lat="47.29016" lon="-2.35988">
        <ele>39.400001525879</ele>
        <time>2019-06-02T09:48:47.000Z</time>
      </trkpt>
      <trkpt lat="47.29011" lon="-2.35993">
        <ele>39.799999237061</ele>
        <time>2019-06-02T09:48:48.000Z</time>
      </trkpt>
      <trkpt lat="47.29007" lon="-2.35997">
        <ele>40.400001525879</ele>
        <time>2019-06-02T09:48:49.000Z</time>
      </trkpt>
      <trkpt lat="47.28997" lon="-2.36007">
        <ele>40.400001525879</ele>
        <time>2019-06-02T09:48:51.000Z</time>
      </trkpt>
      <trkpt lat="47.2896" lon="-2.36042">
        <ele>40.400001525879</ele>
        <time>2019-06-02T09:48:59.000Z</time>
      </trkpt>
      <trkpt lat="47.28931" lon="-2.3606">
        <ele>40.400001525879</ele>
        <time>2019-06-02T09:49:05.000Z</time>
      </trkpt>
      <trkpt lat="47.28897" lon="-2.36088">
        <ele>40.400001525879</ele>
        <time>2019-06-02T09:49:12.000Z</time>
      </trkpt>
      <trkpt lat="47.28865" lon="-2.3612">
        <ele>40.400001525879</ele>
        <time>2019-06-02T09:49:19.000Z</time>
      </trkpt>
      <trkpt lat="47.28838" lon="-2.3615">
        <ele>40.400001525879</ele>
        <time>2019-06-02T09:49:25.000Z</time>
      </trkpt>
      <trkpt lat="47.28835" lon="-2.36156">
        <ele>40.400001525879</ele>
        <time>2019-06-02T09:49:26.000Z</time>
      </trkpt>
      <trkpt lat="47.28827" lon="-2.36167">
        <ele>40.400001525879</ele>
        <time>2019-06-02T09:49:28.000Z</time>
      </trkpt>
      <trkpt lat="47.28815" lon="-2.36181">
        <ele>40.400001525879</ele>
        <time>2019-06-02T09:49:31.000Z</time>
      </trkpt>
      <trkpt lat="47.2881" lon="-2.36185">
        <ele>40.400001525879</ele>
        <time>2019-06-02T09:49:32.000Z</time>
      </trkpt>
      <trkpt lat="47.28798" lon="-2.36193">
        <ele>40.400001525879</ele>
        <time>2019-06-02T09:49:35.000Z</time>
      </trkpt>
      <trkpt lat="47.28791" lon="-2.36197">
        <ele>40.400001525879</ele>
        <time>2019-06-02T09:49:37.000Z</time>
      </trkpt>
      <trkpt lat="47.28787" lon="-2.36199">
        <ele>40</ele>
        <time>2019-06-02T09:49:38.000Z</time>
      </trkpt>
      <trkpt lat="47.28784" lon="-2.36202">
        <ele>39.200000762939</ele>
        <time>2019-06-02T09:49:39.000Z</time>
      </trkpt>
      <trkpt lat="47.28781" lon="-2.36204">
        <ele>38.799999237061</ele>
        <time>2019-06-02T09:49:40.000Z</time>
      </trkpt>
      <trkpt lat="47.28778" lon="-2.36207">
        <ele>38.400001525879</ele>
        <time>2019-06-02T09:49:41.000Z</time>
      </trkpt>
      <trkpt lat="47.28772" lon="-2.3621">
        <ele>38.400001525879</ele>
        <time>2019-06-02T09:49:43.000Z</time>
      </trkpt>
      <trkpt lat="47.2875" lon="-2.36225">
        <ele>38.400001525879</ele>
        <time>2019-06-02T09:49:50.000Z</time>
      </trkpt>
      <trkpt lat="47.28737" lon="-2.36239">
        <ele>38.400001525879</ele>
        <time>2019-06-02T09:49:55.000Z</time>
      </trkpt>
      <trkpt lat="47.28724" lon="-2.36249">
        <ele>38.400001525879</ele>
        <time>2019-06-02T09:50:00.000Z</time>
      </trkpt>
      <trkpt lat="47.28717" lon="-2.36259">
        <ele>39.200000762939</ele>
        <time>2019-06-02T09:50:04.000Z</time>
      </trkpt>
      <trkpt lat="47.28715" lon="-2.36262">
        <ele>39.599998474121</ele>
        <time>2019-06-02T09:50:05.000Z</time>
      </trkpt>
      <trkpt lat="47.28713" lon="-2.36264">
        <ele>40</ele>
        <time>2019-06-02T09:50:06.000Z</time>
      </trkpt>
      <trkpt lat="47.28711" lon="-2.36267">
        <ele>40.400001525879</ele>
        <time>2019-06-02T09:50:07.000Z</time>
      </trkpt>
      <trkpt lat="47.28705" lon="-2.36271">
        <ele>40.799999237061</ele>
        <time>2019-06-02T09:50:09.000Z</time>
      </trkpt>
      <trkpt lat="47.28703" lon="-2.36272">
        <ele>41.200000762939</ele>
        <time>2019-06-02T09:50:10.000Z</time>
      </trkpt>
      <trkpt lat="47.287" lon="-2.36273">
        <ele>41.599998474121</ele>
        <time>2019-06-02T09:50:11.000Z</time>
      </trkpt>
      <trkpt lat="47.28696" lon="-2.36274">
        <ele>42</ele>
        <time>2019-06-02T09:50:12.000Z</time>
      </trkpt>
      <trkpt lat="47.28694" lon="-2.36275">
        <ele>42.400001525879</ele>
        <time>2019-06-02T09:50:13.000Z</time>
      </trkpt>
      <trkpt lat="47.2868" lon="-2.36274">
        <ele>42.400001525879</ele>
        <time>2019-06-02T09:50:16.000Z</time>
      </trkpt>
      <trkpt lat="47.28673" lon="-2.36266">
        <ele>42.400001525879</ele>
        <time>2019-06-02T09:50:19.000Z</time>
      </trkpt>
      <trkpt lat="47.28672" lon="-2.36263">
        <ele>42.799999237061</ele>
        <time>2019-06-02T09:50:20.000Z</time>
      </trkpt>
      <trkpt lat="47.28672" lon="-2.3626">
        <ele>43.200000762939</ele>
        <time>2019-06-02T09:50:21.000Z</time>
      </trkpt>
      <trkpt lat="47.28671" lon="-2.36256">
        <ele>43.599998474121</ele>
        <time>2019-06-02T09:50:22.000Z</time>
      </trkpt>
      <trkpt lat="47.2867" lon="-2.36251">
        <ele>44</ele>
        <time>2019-06-02T09:50:23.000Z</time>
      </trkpt>
      <trkpt lat="47.28669" lon="-2.36247">
        <ele>44.400001525879</ele>
        <time>2019-06-02T09:50:24.000Z</time>
      </trkpt>
      <trkpt lat="47.28669" lon="-2.36243">
        <ele>44.400001525879</ele>
        <time>2019-06-02T09:50:25.000Z</time>
      </trkpt>
      <trkpt lat="47.28669" lon="-2.36218">
        <ele>44.400001525879</ele>
        <time>2019-06-02T09:50:31.000Z</time>
      </trkpt>
      <trkpt lat="47.28662" lon="-2.36197">
        <ele>44.400001525879</ele>
        <time>2019-06-02T09:50:35.000Z</time>
      </trkpt>
      <trkpt lat="47.28659" lon="-2.36192">
        <ele>44.400001525879</ele>
        <time>2019-06-02T09:50:36.000Z</time>
      </trkpt>
      <trkpt lat="47.28653" lon="-2.36186">
        <ele>44.799999237061</ele>
        <time>2019-06-02T09:50:38.000Z</time>
      </trkpt>
      <trkpt lat="47.2865" lon="-2.36183">
        <ele>45.200000762939</ele>
        <time>2019-06-02T09:50:39.000Z</time>
      </trkpt>
      <trkpt lat="47.28648" lon="-2.36179">
        <ele>45.799999237061</ele>
        <time>2019-06-02T09:50:40.000Z</time>
      </trkpt>
      <trkpt lat="47.28646" lon="-2.36176">
        <ele>46.200000762939</ele>
        <time>2019-06-02T09:50:41.000Z</time>
      </trkpt>
      <trkpt lat="47.28643" lon="-2.36172">
        <ele>46.599998474121</ele>
        <time>2019-06-02T09:50:42.000Z</time>
      </trkpt>
      <trkpt lat="47.28641" lon="-2.36167">
        <ele>46.599998474121</ele>
        <time>2019-06-02T09:50:43.000Z</time>
      </trkpt>
      <trkpt lat="47.28636" lon="-2.36159">
        <ele>46.599998474121</ele>
        <time>2019-06-02T09:50:45.000Z</time>
      </trkpt>
      <trkpt lat="47.28633" lon="-2.36156">
        <ele>47</ele>
        <time>2019-06-02T09:50:46.000Z</time>
      </trkpt>
      <trkpt lat="47.28629" lon="-2.36152">
        <ele>47.400001525879</ele>
        <time>2019-06-02T09:50:47.000Z</time>
      </trkpt>
      <trkpt lat="47.28624" lon="-2.36148">
        <ele>47.799999237061</ele>
        <time>2019-06-02T09:50:48.000Z</time>
      </trkpt>
      <trkpt lat="47.2862" lon="-2.36148">
        <ele>48.200000762939</ele>
        <time>2019-06-02T09:50:49.000Z</time>
      </trkpt>
      <trkpt lat="47.28617" lon="-2.36149">
        <ele>48.599998474121</ele>
        <time>2019-06-02T09:50:50.000Z</time>
      </trkpt>
      <trkpt lat="47.2861" lon="-2.36154">
        <ele>48.599998474121</ele>
        <time>2019-06-02T09:50:52.000Z</time>
      </trkpt>
      <trkpt lat="47.28602" lon="-2.36157">
        <ele>48.599998474121</ele>
        <time>2019-06-02T09:50:54.000Z</time>
      </trkpt>
      <trkpt lat="47.2859" lon="-2.36156">
        <ele>48.599998474121</ele>
        <time>2019-06-02T09:50:57.000Z</time>
      </trkpt>
      <trkpt lat="47.28582" lon="-2.36152">
        <ele>48.599998474121</ele>
        <time>2019-06-02T09:50:59.000Z</time>
      </trkpt>
      <trkpt lat="47.28571" lon="-2.36152">
        <ele>48.599998474121</ele>
        <time>2019-06-02T09:51:01.000Z</time>
      </trkpt>
      <trkpt lat="47.28561" lon="-2.36157">
        <ele>48.599998474121</ele>
        <time>2019-06-02T09:51:03.000Z</time>
      </trkpt>
      <trkpt lat="47.28556" lon="-2.36158">
        <ele>48.599998474121</ele>
        <time>2019-06-02T09:51:04.000Z</time>
      </trkpt>
      <trkpt lat="47.28549" lon="-2.36154">
        <ele>48.200000762939</ele>
        <time>2019-06-02T09:51:06.000Z</time>
      </trkpt>
      <trkpt lat="47.28546" lon="-2.36151">
        <ele>47.599998474121</ele>
        <time>2019-06-02T09:51:07.000Z</time>
      </trkpt>
      <trkpt lat="47.28544" lon="-2.36146">
        <ele>47.200000762939</ele>
        <time>2019-06-02T09:51:08.000Z</time>
      </trkpt>
      <trkpt lat="47.28542" lon="-2.3614">
        <ele>46.799999237061</ele>
        <time>2019-06-02T09:51:09.000Z</time>
      </trkpt>
      <trkpt lat="47.2854" lon="-2.36133">
        <ele>46.200000762939</ele>
        <time>2019-06-02T09:51:10.000Z</time>
      </trkpt>
      <trkpt lat="47.28537" lon="-2.36118">
        <ele>46.200000762939</ele>
        <time>2019-06-02T09:51:12.000Z</time>
      </trkpt>
      <trkpt lat="47.28532" lon="-2.36097">
        <ele>46.200000762939</ele>
        <time>2019-06-02T09:51:15.000Z</time>
      </trkpt>
      <trkpt lat="47.28528" lon="-2.36085">
        <ele>46.200000762939</ele>
        <time>2019-06-02T09:51:17.000Z</time>
      </trkpt>
      <trkpt lat="47.28521" lon="-2.36074">
        <ele>46.200000762939</ele>
        <time>2019-06-02T09:51:19.000Z</time>
      </trkpt>
      <trkpt lat="47.28503" lon="-2.36046">
        <ele>46.200000762939</ele>
        <time>2019-06-02T09:51:24.000Z</time>
      </trkpt>
      <trkpt lat="47.28498" lon="-2.36042">
        <ele>46.200000762939</ele>
        <time>2019-06-02T09:51:25.000Z</time>
      </trkpt>
      <trkpt lat="47.28485" lon="-2.36038">
        <ele>46.200000762939</ele>
        <time>2019-06-02T09:51:28.000Z</time>
      </trkpt>
      <trkpt lat="47.2848" lon="-2.36037">
        <ele>46.200000762939</ele>
        <time>2019-06-02T09:51:29.000Z</time>
      </trkpt>
      <trkpt lat="47.28476" lon="-2.36032">
        <ele>46.200000762939</ele>
        <time>2019-06-02T09:51:30.000Z</time>
      </trkpt>
      <trkpt lat="47.28468" lon="-2.36023">
        <ele>46.200000762939</ele>
        <time>2019-06-02T09:51:32.000Z</time>
      </trkpt>
      <trkpt lat="47.28461" lon="-2.36005">
        <ele>46.200000762939</ele>
        <time>2019-06-02T09:51:35.000Z</time>
      </trkpt>
      <trkpt lat="47.28461" lon="-2.35989">
        <ele>46.200000762939</ele>
        <time>2019-06-02T09:51:37.000Z</time>
      </trkpt>
      <trkpt lat="47.28462" lon="-2.35973">
        <ele>46.200000762939</ele>
        <time>2019-06-02T09:51:39.000Z</time>
      </trkpt>
      <trkpt lat="47.28464" lon="-2.35964">
        <ele>45.799999237061</ele>
        <time>2019-06-02T09:51:40.000Z</time>
      </trkpt>
      <trkpt lat="47.28466" lon="-2.35955">
        <ele>45.200000762939</ele>
        <time>2019-06-02T09:51:41.000Z</time>
      </trkpt>
      <trkpt lat="47.28468" lon="-2.35946">
        <ele>44.799999237061</ele>
        <time>2019-06-02T09:51:42.000Z</time>
      </trkpt>
      <trkpt lat="47.28471" lon="-2.35938">
        <ele>43.599998474121</ele>
        <time>2019-06-02T09:51:43.000Z</time>
      </trkpt>
      <trkpt lat="47.28473" lon="-2.35931">
        <ele>43.200000762939</ele>
        <time>2019-06-02T09:51:44.000Z</time>
      </trkpt>
      <trkpt lat="47.28474" lon="-2.35922">
        <ele>42.599998474121</ele>
        <time>2019-06-02T09:51:45.000Z</time>
      </trkpt>
      <trkpt lat="47.28474" lon="-2.35915">
        <ele>42</ele>
        <time>2019-06-02T09:51:46.000Z</time>
      </trkpt>
      <trkpt lat="47.28473" lon="-2.35908">
        <ele>41.200000762939</ele>
        <time>2019-06-02T09:51:47.000Z</time>
      </trkpt>
      <trkpt lat="47.28472" lon="-2.35903">
        <ele>40.400001525879</ele>
        <time>2019-06-02T09:51:48.000Z</time>
      </trkpt>
      <trkpt lat="47.2847" lon="-2.35898">
        <ele>39.599998474121</ele>
        <time>2019-06-02T09:51:49.000Z</time>
      </trkpt>
      <trkpt lat="47.28467" lon="-2.35895">
        <ele>38.799999237061</ele>
        <time>2019-06-02T09:51:50.000Z</time>
      </trkpt>
      <trkpt lat="47.28463" lon="-2.35893">
        <ele>38.200000762939</ele>
        <time>2019-06-02T09:51:51.000Z</time>
      </trkpt>
      <trkpt lat="47.28455" lon="-2.3589">
        <ele>37.400001525879</ele>
        <time>2019-06-02T09:51:52.000Z</time>
      </trkpt>
      <trkpt lat="47.28449" lon="-2.35884">
        <ele>36.599998474121</ele>
        <time>2019-06-02T09:51:53.000Z</time>
      </trkpt>
      <trkpt lat="47.28425" lon="-2.35851">
        <ele>36.599998474121</ele>
        <time>2019-06-02T09:51:58.000Z</time>
      </trkpt>
      <trkpt lat="47.28408" lon="-2.35825">
        <ele>36.599998474121</ele>
        <time>2019-06-02T09:52:02.000Z</time>
      </trkpt>
      <trkpt lat="47.28404" lon="-2.35819">
        <ele>36.200000762939</ele>
        <time>2019-06-02T09:52:03.000Z</time>
      </trkpt>
      <trkpt lat="47.28399" lon="-2.35814">
        <ele>35.799999237061</ele>
        <time>2019-06-02T09:52:04.000Z</time>
      </trkpt>
      <trkpt lat="47.28395" lon="-2.35809">
        <ele>35.400001525879</ele>
        <time>2019-06-02T09:52:05.000Z</time>
      </trkpt>
      <trkpt lat="47.2839" lon="-2.35806">
        <ele>35</ele>
        <time>2019-06-02T09:52:06.000Z</time>
      </trkpt>
      <trkpt lat="47.28384" lon="-2.35805">
        <ele>34.599998474121</ele>
        <time>2019-06-02T09:52:07.000Z</time>
      </trkpt>
      <trkpt lat="47.28364" lon="-2.3581">
        <ele>34.599998474121</ele>
        <time>2019-06-02T09:52:10.000Z</time>
      </trkpt>
      <trkpt lat="47.28358" lon="-2.35814">
        <ele>34.599998474121</ele>
        <time>2019-06-02T09:52:11.000Z</time>
      </trkpt>
      <trkpt lat="47.28338" lon="-2.3583">
        <ele>34.599998474121</ele>
        <time>2019-06-02T09:52:15.000Z</time>
      </trkpt>
      <trkpt lat="47.28321" lon="-2.35846">
        <ele>34.599998474121</ele>
        <time>2019-06-02T09:52:19.000Z</time>
      </trkpt>
      <trkpt lat="47.28316" lon="-2.3585">
        <ele>34.599998474121</ele>
        <time>2019-06-02T09:52:20.000Z</time>
      </trkpt>
      <trkpt lat="47.28311" lon="-2.35853">
        <ele>34.200000762939</ele>
        <time>2019-06-02T09:52:21.000Z</time>
      </trkpt>
      <trkpt lat="47.28305" lon="-2.35858">
        <ele>33.599998474121</ele>
        <time>2019-06-02T09:52:22.000Z</time>
      </trkpt>
      <trkpt lat="47.283" lon="-2.35862">
        <ele>33.200000762939</ele>
        <time>2019-06-02T09:52:23.000Z</time>
      </trkpt>
      <trkpt lat="47.28295" lon="-2.35865">
        <ele>32.799999237061</ele>
        <time>2019-06-02T09:52:24.000Z</time>
      </trkpt>
      <trkpt lat="47.28292" lon="-2.35869">
        <ele>32.400001525879</ele>
        <time>2019-06-02T09:52:25.000Z</time>
      </trkpt>
      <trkpt lat="47.28288" lon="-2.35871">
        <ele>32</ele>
        <time>2019-06-02T09:52:27.000Z</time>
      </trkpt>
      <trkpt lat="47.28287" lon="-2.35871">
        <ele>31.60000038147</ele>
        <time>2019-06-02T09:52:28.000Z</time>
      </trkpt>
      <trkpt lat="47.28285" lon="-2.35872">
        <ele>31.200000762939</ele>
        <time>2019-06-02T09:52:29.000Z</time>
      </trkpt>
      <trkpt lat="47.28283" lon="-2.35872">
        <ele>30.799999237061</ele>
        <time>2019-06-02T09:52:30.000Z</time>
      </trkpt>
      <trkpt lat="47.28281" lon="-2.35873">
        <ele>30.39999961853</ele>
        <time>2019-06-02T09:52:31.000Z</time>
      </trkpt>
      <trkpt lat="47.28278" lon="-2.35874">
        <ele>30.39999961853</ele>
        <time>2019-06-02T09:52:32.000Z</time>
      </trkpt>
      <trkpt lat="47.28269" lon="-2.35883">
        <ele>30.39999961853</ele>
        <time>2019-06-02T09:52:35.000Z</time>
      </trkpt>
      <trkpt lat="47.28264" lon="-2.35887">
        <ele>30.39999961853</ele>
        <time>2019-06-02T09:52:36.000Z</time>
      </trkpt>
      <trkpt lat="47.28254" lon="-2.35894">
        <ele>30.39999961853</ele>
        <time>2019-06-02T09:52:38.000Z</time>
      </trkpt>
      <trkpt lat="47.28242" lon="-2.359">
        <ele>30.39999961853</ele>
        <time>2019-06-02T09:52:40.000Z</time>
      </trkpt>
      <trkpt lat="47.28236" lon="-2.35901">
        <ele>30.39999961853</ele>
        <time>2019-06-02T09:52:41.000Z</time>
      </trkpt>
      <trkpt lat="47.28224" lon="-2.35901">
        <ele>30.39999961853</ele>
        <time>2019-06-02T09:52:43.000Z</time>
      </trkpt>
      <trkpt lat="47.28212" lon="-2.35898">
        <ele>30.39999961853</ele>
        <time>2019-06-02T09:52:45.000Z</time>
      </trkpt>
      <trkpt lat="47.28201" lon="-2.35897">
        <ele>30.39999961853</ele>
        <time>2019-06-02T09:52:47.000Z</time>
      </trkpt>
      <trkpt lat="47.28185" lon="-2.35893">
        <ele>30</ele>
        <time>2019-06-02T09:52:50.000Z</time>
      </trkpt>
      <trkpt lat="47.28181" lon="-2.35891">
        <ele>29.39999961853</ele>
        <time>2019-06-02T09:52:51.000Z</time>
      </trkpt>
      <trkpt lat="47.28176" lon="-2.3589">
        <ele>29</ele>
        <time>2019-06-02T09:52:52.000Z</time>
      </trkpt>
      <trkpt lat="47.28172" lon="-2.35889">
        <ele>28.60000038147</ele>
        <time>2019-06-02T09:52:53.000Z</time>
      </trkpt>
      <trkpt lat="47.28166" lon="-2.35888">
        <ele>28</ele>
        <time>2019-06-02T09:52:54.000Z</time>
      </trkpt>
      <trkpt lat="47.28147" lon="-2.3588">
        <ele>28</ele>
        <time>2019-06-02T09:52:58.000Z</time>
      </trkpt>
      <trkpt lat="47.28138" lon="-2.35875">
        <ele>28</ele>
        <time>2019-06-02T09:53:00.000Z</time>
      </trkpt>
      <trkpt lat="47.28134" lon="-2.35868">
        <ele>28</ele>
        <time>2019-06-02T09:53:02.000Z</time>
      </trkpt>
      <trkpt lat="47.2813" lon="-2.35855">
        <ele>28</ele>
        <time>2019-06-02T09:53:06.000Z</time>
      </trkpt>
      <trkpt lat="47.28125" lon="-2.3585">
        <ele>28</ele>
        <time>2019-06-02T09:53:08.000Z</time>
      </trkpt>
      <trkpt lat="47.28122" lon="-2.3585">
        <ele>28</ele>
        <time>2019-06-02T09:53:10.000Z</time>
      </trkpt>
      <trkpt lat="47.28116" lon="-2.35849">
        <ele>28</ele>
        <time>2019-06-02T09:53:13.000Z</time>
      </trkpt>
      <trkpt lat="47.28103" lon="-2.35839">
        <ele>28</ele>
        <time>2019-06-02T09:53:16.000Z</time>
      </trkpt>
      <trkpt lat="47.28099" lon="-2.35833">
        <ele>28</ele>
        <time>2019-06-02T09:53:17.000Z</time>
      </trkpt>
      <trkpt lat="47.28091" lon="-2.35822">
        <ele>28</ele>
        <time>2019-06-02T09:53:19.000Z</time>
      </trkpt>
      <trkpt lat="47.28086" lon="-2.3581">
        <ele>28</ele>
        <time>2019-06-02T09:53:21.000Z</time>
      </trkpt>
      <trkpt lat="47.28085" lon="-2.35804">
        <ele>28</ele>
        <time>2019-06-02T09:53:22.000Z</time>
      </trkpt>
      <trkpt lat="47.28085" lon="-2.35784">
        <ele>28</ele>
        <time>2019-06-02T09:53:25.000Z</time>
      </trkpt>
      <trkpt lat="47.28089" lon="-2.35758">
        <ele>28</ele>
        <time>2019-06-02T09:53:29.000Z</time>
      </trkpt>
      <trkpt lat="47.28091" lon="-2.35745">
        <ele>28.39999961853</ele>
        <time>2019-06-02T09:53:31.000Z</time>
      </trkpt>
      <trkpt lat="47.28092" lon="-2.35739">
        <ele>28.799999237061</ele>
        <time>2019-06-02T09:53:32.000Z</time>
      </trkpt>
      <trkpt lat="47.28093" lon="-2.35734">
        <ele>29.200000762939</ele>
        <time>2019-06-02T09:53:33.000Z</time>
      </trkpt>
      <trkpt lat="47.28093" lon="-2.35729">
        <ele>29.60000038147</ele>
        <time>2019-06-02T09:53:34.000Z</time>
      </trkpt>
      <trkpt lat="47.28092" lon="-2.35721">
        <ele>30.200000762939</ele>
        <time>2019-06-02T09:53:35.000Z</time>
      </trkpt>
      <trkpt lat="47.28091" lon="-2.35712">
        <ele>30.200000762939</ele>
        <time>2019-06-02T09:53:36.000Z</time>
      </trkpt>
      <trkpt lat="47.28083" lon="-2.35675">
        <ele>30.200000762939</ele>
        <time>2019-06-02T09:53:40.000Z</time>
      </trkpt>
      <trkpt lat="47.2808" lon="-2.35667">
        <ele>30.200000762939</ele>
        <time>2019-06-02T09:53:41.000Z</time>
      </trkpt>
      <trkpt lat="47.28077" lon="-2.35649">
        <ele>29.60000038147</ele>
        <time>2019-06-02T09:53:43.000Z</time>
      </trkpt>
      <trkpt lat="47.28076" lon="-2.35641">
        <ele>29.200000762939</ele>
        <time>2019-06-02T09:53:44.000Z</time>
      </trkpt>
      <trkpt lat="47.28075" lon="-2.35634">
        <ele>28.60000038147</ele>
        <time>2019-06-02T09:53:45.000Z</time>
      </trkpt>
      <trkpt lat="47.28073" lon="-2.3563">
        <ele>28</ele>
        <time>2019-06-02T09:53:46.000Z</time>
      </trkpt>
      <trkpt lat="47.2807" lon="-2.35627">
        <ele>27.39999961853</ele>
        <time>2019-06-02T09:53:47.000Z</time>
      </trkpt>
      <trkpt lat="47.28068" lon="-2.35623">
        <ele>26.200000762939</ele>
        <time>2019-06-02T09:53:48.000Z</time>
      </trkpt>
      <trkpt lat="47.28065" lon="-2.35624">
        <ele>25.39999961853</ele>
        <time>2019-06-02T09:53:49.000Z</time>
      </trkpt>
      <trkpt lat="47.28054" lon="-2.35618">
        <ele>25.39999961853</ele>
        <time>2019-06-02T09:53:52.000Z</time>
      </trkpt>
      <trkpt lat="47.28044" lon="-2.35615">
        <ele>25.39999961853</ele>
        <time>2019-06-02T09:53:54.000Z</time>
      </trkpt>
      <trkpt lat="47.28041" lon="-2.35611">
        <ele>25.39999961853</ele>
        <time>2019-06-02T09:53:55.000Z</time>
      </trkpt>
      <trkpt lat="47.28039" lon="-2.35605">
        <ele>25.39999961853</ele>
        <time>2019-06-02T09:53:56.000Z</time>
      </trkpt>
      <trkpt lat="47.28031" lon="-2.35575">
        <ele>25.39999961853</ele>
        <time>2019-06-02T09:54:00.000Z</time>
      </trkpt>
      <trkpt lat="47.28028" lon="-2.3557">
        <ele>25</ele>
        <time>2019-06-02T09:54:01.000Z</time>
      </trkpt>
      <trkpt lat="47.28024" lon="-2.35566">
        <ele>24.60000038147</ele>
        <time>2019-06-02T09:54:02.000Z</time>
      </trkpt>
      <trkpt lat="47.2802" lon="-2.35564">
        <ele>24.200000762939</ele>
        <time>2019-06-02T09:54:03.000Z</time>
      </trkpt>
      <trkpt lat="47.28015" lon="-2.35564">
        <ele>23.799999237061</ele>
        <time>2019-06-02T09:54:04.000Z</time>
      </trkpt>
      <trkpt lat="47.2801" lon="-2.35564">
        <ele>23.200000762939</ele>
        <time>2019-06-02T09:54:05.000Z</time>
      </trkpt>
      <trkpt lat="47.28" lon="-2.35567">
        <ele>23.200000762939</ele>
        <time>2019-06-02T09:54:07.000Z</time>
      </trkpt>
      <trkpt lat="47.27989" lon="-2.3557">
        <ele>23.200000762939</ele>
        <time>2019-06-02T09:54:09.000Z</time>
      </trkpt>
      <trkpt lat="47.27967" lon="-2.35578">
        <ele>22.799999237061</ele>
        <time>2019-06-02T09:54:13.000Z</time>
      </trkpt>
      <trkpt lat="47.27961" lon="-2.3558">
        <ele>22.39999961853</ele>
        <time>2019-06-02T09:54:14.000Z</time>
      </trkpt>
      <trkpt lat="47.27955" lon="-2.35582">
        <ele>22</ele>
        <time>2019-06-02T09:54:15.000Z</time>
      </trkpt>
      <trkpt lat="47.27949" lon="-2.35582">
        <ele>21.60000038147</ele>
        <time>2019-06-02T09:54:16.000Z</time>
      </trkpt>
      <trkpt lat="47.27943" lon="-2.35584">
        <ele>21.200000762939</ele>
        <time>2019-06-02T09:54:17.000Z</time>
      </trkpt>
      <trkpt lat="47.27915" lon="-2.35592">
        <ele>21.200000762939</ele>
        <time>2019-06-02T09:54:22.000Z</time>
      </trkpt>
      <trkpt lat="47.27876" lon="-2.35604">
        <ele>21.200000762939</ele>
        <time>2019-06-02T09:54:29.000Z</time>
      </trkpt>
      <trkpt lat="47.27843" lon="-2.35611">
        <ele>20.799999237061</ele>
        <time>2019-06-02T09:54:34.000Z</time>
      </trkpt>
      <trkpt lat="47.27835" lon="-2.35613">
        <ele>20.200000762939</ele>
        <time>2019-06-02T09:54:35.000Z</time>
      </trkpt>
      <trkpt lat="47.27828" lon="-2.35615">
        <ele>19.60000038147</ele>
        <time>2019-06-02T09:54:36.000Z</time>
      </trkpt>
      <trkpt lat="47.27821" lon="-2.35617">
        <ele>19.200000762939</ele>
        <time>2019-06-02T09:54:37.000Z</time>
      </trkpt>
      <trkpt lat="47.27814" lon="-2.35619">
        <ele>18.60000038147</ele>
        <time>2019-06-02T09:54:38.000Z</time>
      </trkpt>
      <trkpt lat="47.27784" lon="-2.35632">
        <ele>18.60000038147</ele>
        <time>2019-06-02T09:54:42.000Z</time>
      </trkpt>
      <trkpt lat="47.27778" lon="-2.35637">
        <ele>18.60000038147</ele>
        <time>2019-06-02T09:54:43.000Z</time>
      </trkpt>
      <trkpt lat="47.2776" lon="-2.35655">
        <ele>18.60000038147</ele>
        <time>2019-06-02T09:54:46.000Z</time>
      </trkpt>
      <trkpt lat="47.27755" lon="-2.35663">
        <ele>18.200000762939</ele>
        <time>2019-06-02T09:54:47.000Z</time>
      </trkpt>
      <trkpt lat="47.27749" lon="-2.3567">
        <ele>17.799999237061</ele>
        <time>2019-06-02T09:54:48.000Z</time>
      </trkpt>
      <trkpt lat="47.27744" lon="-2.35678">
        <ele>17.200000762939</ele>
        <time>2019-06-02T09:54:49.000Z</time>
      </trkpt>
      <trkpt lat="47.2774" lon="-2.35685">
        <ele>16.799999237061</ele>
        <time>2019-06-02T09:54:50.000Z</time>
      </trkpt>
      <trkpt lat="47.27735" lon="-2.35693">
        <ele>16.39999961853</ele>
        <time>2019-06-02T09:54:51.000Z</time>
      </trkpt>
      <trkpt lat="47.2773" lon="-2.357">
        <ele>16.39999961853</ele>
        <time>2019-06-02T09:54:52.000Z</time>
      </trkpt>
      <trkpt lat="47.27706" lon="-2.35726">
        <ele>16.39999961853</ele>
        <time>2019-06-02T09:54:56.000Z</time>
      </trkpt>
      <trkpt lat="47.277" lon="-2.3573">
        <ele>16.39999961853</ele>
        <time>2019-06-02T09:54:57.000Z</time>
      </trkpt>
      <trkpt lat="47.27688" lon="-2.35741">
        <ele>15.800000190735</ele>
        <time>2019-06-02T09:54:59.000Z</time>
      </trkpt>
      <trkpt lat="47.27682" lon="-2.35747">
        <ele>15.39999961853</ele>
        <time>2019-06-02T09:55:00.000Z</time>
      </trkpt>
      <trkpt lat="47.27677" lon="-2.35749">
        <ele>14.800000190735</ele>
        <time>2019-06-02T09:55:01.000Z</time>
      </trkpt>
      <trkpt lat="47.27671" lon="-2.35747">
        <ele>13.800000190735</ele>
        <time>2019-06-02T09:55:02.000Z</time>
      </trkpt>
      <trkpt lat="47.27666" lon="-2.35741">
        <ele>13.800000190735</ele>
        <time>2019-06-02T09:55:03.000Z</time>
      </trkpt>
      <trkpt lat="47.27642" lon="-2.35721">
        <ele>13.800000190735</ele>
        <time>2019-06-02T09:55:07.000Z</time>
      </trkpt>
      <trkpt lat="47.27635" lon="-2.35718">
        <ele>13.800000190735</ele>
        <time>2019-06-02T09:55:08.000Z</time>
      </trkpt>
      <trkpt lat="47.27629" lon="-2.35715">
        <ele>13.39999961853</ele>
        <time>2019-06-02T09:55:09.000Z</time>
      </trkpt>
      <trkpt lat="47.27621" lon="-2.35713">
        <ele>12.800000190735</ele>
        <time>2019-06-02T09:55:10.000Z</time>
      </trkpt>
      <trkpt lat="47.27613" lon="-2.35711">
        <ele>12.39999961853</ele>
        <time>2019-06-02T09:55:11.000Z</time>
      </trkpt>
      <trkpt lat="47.27605" lon="-2.35709">
        <ele>12</ele>
        <time>2019-06-02T09:55:12.000Z</time>
      </trkpt>
      <trkpt lat="47.27597" lon="-2.35708">
        <ele>11.60000038147</ele>
        <time>2019-06-02T09:55:13.000Z</time>
      </trkpt>
      <trkpt lat="47.27558" lon="-2.35699">
        <ele>11.60000038147</ele>
        <time>2019-06-02T09:55:18.000Z</time>
      </trkpt>
      <trkpt lat="47.27515" lon="-2.35687">
        <ele>11.60000038147</ele>
        <time>2019-06-02T09:55:24.000Z</time>
      </trkpt>
      <trkpt lat="47.27492" lon="-2.35682">
        <ele>11.199999809265</ele>
        <time>2019-06-02T09:55:27.000Z</time>
      </trkpt>
      <trkpt lat="47.27484" lon="-2.35681">
        <ele>10.60000038147</ele>
        <time>2019-06-02T09:55:28.000Z</time>
      </trkpt>
      <trkpt lat="47.27477" lon="-2.35679">
        <ele>10.199999809265</ele>
        <time>2019-06-02T09:55:29.000Z</time>
      </trkpt>
      <trkpt lat="47.2747" lon="-2.35678">
        <ele>9.8000001907349</ele>
        <time>2019-06-02T09:55:30.000Z</time>
      </trkpt>
      <trkpt lat="47.27462" lon="-2.35677">
        <ele>9.1999998092651</ele>
        <time>2019-06-02T09:55:31.000Z</time>
      </trkpt>
      <trkpt lat="47.2742" lon="-2.35668">
        <ele>9.1999998092651</ele>
        <time>2019-06-02T09:55:37.000Z</time>
      </trkpt>
      <trkpt lat="47.27413" lon="-2.35668">
        <ele>9.1999998092651</ele>
        <time>2019-06-02T09:55:38.000Z</time>
      </trkpt>
      <trkpt lat="47.27394" lon="-2.35674">
        <ele>8.8000001907349</ele>
        <time>2019-06-02T09:55:41.000Z</time>
      </trkpt>
      <trkpt lat="47.27387" lon="-2.35678">
        <ele>8.3999996185303</ele>
        <time>2019-06-02T09:55:42.000Z</time>
      </trkpt>
      <trkpt lat="47.27381" lon="-2.35682">
        <ele>7.8000001907349</ele>
        <time>2019-06-02T09:55:43.000Z</time>
      </trkpt>
      <trkpt lat="47.27375" lon="-2.35686">
        <ele>7.4000000953674</ele>
        <time>2019-06-02T09:55:44.000Z</time>
      </trkpt>
      <trkpt lat="47.27369" lon="-2.3569">
        <ele>7</ele>
        <time>2019-06-02T09:55:45.000Z</time>
      </trkpt>
      <trkpt lat="47.27357" lon="-2.35699">
        <ele>7</ele>
        <time>2019-06-02T09:55:47.000Z</time>
      </trkpt>
      <trkpt lat="47.27341" lon="-2.35711">
        <ele>7</ele>
        <time>2019-06-02T09:55:50.000Z</time>
      </trkpt>
      <trkpt lat="47.27332" lon="-2.35718">
        <ele>7</ele>
        <time>2019-06-02T09:55:52.000Z</time>
      </trkpt>
      <trkpt lat="47.27326" lon="-2.35723">
        <ele>7</ele>
        <time>2019-06-02T09:55:54.000Z</time>
      </trkpt>
      <trkpt lat="47.27321" lon="-2.35728">
        <ele>7</ele>
        <time>2019-06-02T09:55:56.000Z</time>
      </trkpt>
      <trkpt lat="47.27315" lon="-2.35741">
        <ele>7</ele>
        <time>2019-06-02T09:55:59.000Z</time>
      </trkpt>
      <trkpt lat="47.27311" lon="-2.35741">
        <ele>7</ele>
        <time>2019-06-02T09:56:00.000Z</time>
      </trkpt>
      <trkpt lat="47.27302" lon="-2.35725">
        <ele>7</ele>
        <time>2019-06-02T09:56:03.000Z</time>
      </trkpt>
      <trkpt lat="47.273" lon="-2.35717">
        <ele>7</ele>
        <time>2019-06-02T09:56:04.000Z</time>
      </trkpt>
      <trkpt lat="47.27286" lon="-2.35688">
        <ele>7</ele>
        <time>2019-06-02T09:56:08.000Z</time>
      </trkpt>
      <trkpt lat="47.27264" lon="-2.35639">
        <ele>7</ele>
        <time>2019-06-02T09:56:14.000Z</time>
      </trkpt>
      <trkpt lat="47.27236" lon="-2.35573">
        <ele>7</ele>
        <time>2019-06-02T09:56:22.000Z</time>
      </trkpt>
      <trkpt lat="47.27229" lon="-2.35557">
        <ele>7</ele>
        <time>2019-06-02T09:56:24.000Z</time>
      </trkpt>
      <trkpt lat="47.27213" lon="-2.35525">
        <ele>7</ele>
        <time>2019-06-02T09:56:28.000Z</time>
      </trkpt>
      <trkpt lat="47.27185" lon="-2.35468">
        <ele>7</ele>
        <time>2019-06-02T09:56:35.000Z</time>
      </trkpt>
      <trkpt lat="47.27156" lon="-2.35409">
        <ele>7</ele>
        <time>2019-06-02T09:56:42.000Z</time>
      </trkpt>
      <trkpt lat="47.27119" lon="-2.35343">
        <ele>7</ele>
        <time>2019-06-02T09:56:50.000Z</time>
      </trkpt>
      <trkpt lat="47.27114" lon="-2.35335">
        <ele>7.4000000953674</ele>
        <time>2019-06-02T09:56:51.000Z</time>
      </trkpt>
      <trkpt lat="47.27108" lon="-2.35326">
        <ele>7.8000001907349</ele>
        <time>2019-06-02T09:56:52.000Z</time>
      </trkpt>
      <trkpt lat="47.27103" lon="-2.35318">
        <ele>8.1999998092651</ele>
        <time>2019-06-02T09:56:53.000Z</time>
      </trkpt>
      <trkpt lat="47.27099" lon="-2.3531">
        <ele>8.6000003814697</ele>
        <time>2019-06-02T09:56:54.000Z</time>
      </trkpt>
      <trkpt lat="47.27094" lon="-2.35302">
        <ele>9</ele>
        <time>2019-06-02T09:56:55.000Z</time>
      </trkpt>
      <trkpt lat="47.27068" lon="-2.35262">
        <ele>9</ele>
        <time>2019-06-02T09:57:00.000Z</time>
      </trkpt>
      <trkpt lat="47.27027" lon="-2.35199">
        <ele>9</ele>
        <time>2019-06-02T09:57:08.000Z</time>
      </trkpt>
      <trkpt lat="47.26989" lon="-2.35141">
        <ele>9</ele>
        <time>2019-06-02T09:57:15.000Z</time>
      </trkpt>
      <trkpt lat="47.26979" lon="-2.35124">
        <ele>9</ele>
        <time>2019-06-02T09:57:17.000Z</time>
      </trkpt>
      <trkpt lat="47.2694" lon="-2.35064">
        <ele>9</ele>
        <time>2019-06-02T09:57:24.000Z</time>
      </trkpt>
      <trkpt lat="47.26929" lon="-2.35048">
        <ele>9</ele>
        <time>2019-06-02T09:57:26.000Z</time>
      </trkpt>
      <trkpt lat="47.26886" lon="-2.34984">
        <ele>9</ele>
        <time>2019-06-02T09:57:34.000Z</time>
      </trkpt>
      <trkpt lat="47.26844" lon="-2.3492">
        <ele>9</ele>
        <time>2019-06-02T09:57:42.000Z</time>
      </trkpt>
      <trkpt lat="47.26807" lon="-2.34865">
        <ele>9</ele>
        <time>2019-06-02T09:57:49.000Z</time>
      </trkpt>
      <trkpt lat="47.26779" lon="-2.34824">
        <ele>9</ele>
        <time>2019-06-02T09:57:55.000Z</time>
      </trkpt>
      <trkpt lat="47.26777" lon="-2.34822">
        <ele>8.1999998092651</ele>
        <time>2019-06-02T09:57:56.000Z</time>
      </trkpt>
      <trkpt lat="47.26777" lon="-2.34821">
        <ele>7.8000001907349</ele>
        <time>2019-06-02T09:57:57.000Z</time>
      </trkpt>
      <trkpt lat="47.26776" lon="-2.34821">
        <ele>7.1999998092651</ele>
        <time>2019-06-02T09:57:58.000Z</time>
      </trkpt>
      <trkpt lat="47.26776" lon="-2.34821">
        <ele>6.8000001907349</ele>
        <time>2019-06-02T09:57:59.000Z</time>
      </trkpt>
      <trkpt lat="47.26771" lon="-2.34816">
        <ele>6.8000001907349</ele>
        <time>2019-06-02T09:58:03.000Z</time>
      </trkpt>
      <trkpt lat="47.26764" lon="-2.34812">
        <ele>6.8000001907349</ele>
        <time>2019-06-02T09:58:05.000Z</time>
      </trkpt>
      <trkpt lat="47.26759" lon="-2.34803">
        <ele>6.8000001907349</ele>
        <time>2019-06-02T09:58:07.000Z</time>
      </trkpt>
      <trkpt lat="47.26744" lon="-2.34779">
        <ele>6.8000001907349</ele>
        <time>2019-06-02T09:58:11.000Z</time>
      </trkpt>
      <trkpt lat="47.26739" lon="-2.34773">
        <ele>6.8000001907349</ele>
        <time>2019-06-02T09:58:12.000Z</time>
      </trkpt>
      <trkpt lat="47.26719" lon="-2.34748">
        <ele>6.8000001907349</ele>
        <time>2019-06-02T09:58:16.000Z</time>
      </trkpt>
      <trkpt lat="47.26691" lon="-2.34715">
        <ele>6.8000001907349</ele>
        <time>2019-06-02T09:58:21.000Z</time>
      </trkpt>
      <trkpt lat="47.26648" lon="-2.3466">
        <ele>6.8000001907349</ele>
        <time>2019-06-02T09:58:29.000Z</time>
      </trkpt>
      <trkpt lat="47.26613" lon="-2.34617">
        <ele>6.8000001907349</ele>
        <time>2019-06-02T09:58:35.000Z</time>
      </trkpt>
      <trkpt lat="47.2657" lon="-2.34569">
        <ele>6.8000001907349</ele>
        <time>2019-06-02T09:58:42.000Z</time>
      </trkpt>
      <trkpt lat="47.2655" lon="-2.34547">
        <ele>6.8000001907349</ele>
        <time>2019-06-02T09:58:46.000Z</time>
      </trkpt>
      <trkpt lat="47.26523" lon="-2.3452">
        <ele>6.8000001907349</ele>
        <time>2019-06-02T09:58:52.000Z</time>
      </trkpt>
      <trkpt lat="47.26492" lon="-2.34498">
        <ele>6.8000001907349</ele>
        <time>2019-06-02T09:58:57.000Z</time>
      </trkpt>
      <trkpt lat="47.26473" lon="-2.34486">
        <ele>6.8000001907349</ele>
        <time>2019-06-02T09:59:00.000Z</time>
      </trkpt>
      <trkpt lat="47.26454" lon="-2.34473">
        <ele>6.8000001907349</ele>
        <time>2019-06-02T09:59:03.000Z</time>
      </trkpt>
      <trkpt lat="47.26416" lon="-2.34447">
        <ele>6.8000001907349</ele>
        <time>2019-06-02T09:59:09.000Z</time>
      </trkpt>
      <trkpt lat="47.26379" lon="-2.34416">
        <ele>6.8000001907349</ele>
        <time>2019-06-02T09:59:15.000Z</time>
      </trkpt>
      <trkpt lat="47.26336" lon="-2.34381">
        <ele>6.8000001907349</ele>
        <time>2019-06-02T09:59:22.000Z</time>
      </trkpt>
      <trkpt lat="47.26319" lon="-2.34374">
        <ele>6.8000001907349</ele>
        <time>2019-06-02T09:59:25.000Z</time>
      </trkpt>
      <trkpt lat="47.26307" lon="-2.34351">
        <ele>6.8000001907349</ele>
        <time>2019-06-02T09:59:28.000Z</time>
      </trkpt>
      <trkpt lat="47.26289" lon="-2.34333">
        <ele>6.8000001907349</ele>
        <time>2019-06-02T09:59:31.000Z</time>
      </trkpt>
      <trkpt lat="47.26278" lon="-2.34322">
        <ele>6.8000001907349</ele>
        <time>2019-06-02T09:59:33.000Z</time>
      </trkpt>
      <trkpt lat="47.26243" lon="-2.34285">
        <ele>6.8000001907349</ele>
        <time>2019-06-02T09:59:39.000Z</time>
      </trkpt>
      <trkpt lat="47.26237" lon="-2.34279">
        <ele>6.8000001907349</ele>
        <time>2019-06-02T09:59:40.000Z</time>
      </trkpt>
      <trkpt lat="47.26196" lon="-2.34235">
        <ele>6.8000001907349</ele>
        <time>2019-06-02T09:59:47.000Z</time>
      </trkpt>
      <trkpt lat="47.26155" lon="-2.34194">
        <ele>6.8000001907349</ele>
        <time>2019-06-02T09:59:54.000Z</time>
      </trkpt>
      <trkpt lat="47.26145" lon="-2.34186">
        <ele>6.8000001907349</ele>
        <time>2019-06-02T09:59:56.000Z</time>
      </trkpt>
      <trkpt lat="47.26133" lon="-2.34183">
        <ele>6.8000001907349</ele>
        <time>2019-06-02T09:59:58.000Z</time>
      </trkpt>
      <trkpt lat="47.26123" lon="-2.34171">
        <ele>6.8000001907349</ele>
        <time>2019-06-02T10:00:01.000Z</time>
      </trkpt>
      <trkpt lat="47.26114" lon="-2.34163">
        <ele>6.8000001907349</ele>
        <time>2019-06-02T10:00:05.000Z</time>
      </trkpt>
      <trkpt lat="47.26112" lon="-2.34162">
        <ele>6.8000001907349</ele>
        <time>2019-06-02T10:00:06.000Z</time>
      </trkpt>
      <trkpt lat="47.26107" lon="-2.34159">
        <ele>6.8000001907349</ele>
        <time>2019-06-02T10:00:07.000Z</time>
      </trkpt>
      <trkpt lat="47.26099" lon="-2.34154">
        <ele>6.8000001907349</ele>
        <time>2019-06-02T10:00:09.000Z</time>
      </trkpt>
      <trkpt lat="47.26072" lon="-2.34139">
        <ele>6.8000001907349</ele>
        <time>2019-06-02T10:00:14.000Z</time>
      </trkpt>
      <trkpt lat="47.26041" lon="-2.34124">
        <ele>6.8000001907349</ele>
        <time>2019-06-02T10:00:19.000Z</time>
      </trkpt>
      <trkpt lat="47.26002" lon="-2.34105">
        <ele>6.8000001907349</ele>
        <time>2019-06-02T10:00:25.000Z</time>
      </trkpt>
      <trkpt lat="47.25958" lon="-2.34085">
        <ele>6.8000001907349</ele>
        <time>2019-06-02T10:00:32.000Z</time>
      </trkpt>
      <trkpt lat="47.25925" lon="-2.34073">
        <ele>6.8000001907349</ele>
        <time>2019-06-02T10:00:37.000Z</time>
      </trkpt>
      <trkpt lat="47.25918" lon="-2.34074">
        <ele>6.8000001907349</ele>
        <time>2019-06-02T10:00:38.000Z</time>
      </trkpt>
      <trkpt lat="47.25901" lon="-2.3409">
        <ele>6.8000001907349</ele>
        <time>2019-06-02T10:00:41.000Z</time>
      </trkpt>
      <trkpt lat="47.2589" lon="-2.34114">
        <ele>6.8000001907349</ele>
        <time>2019-06-02T10:00:44.000Z</time>
      </trkpt>
      <trkpt lat="47.25887" lon="-2.34122">
        <ele>6.8000001907349</ele>
        <time>2019-06-02T10:00:45.000Z</time>
      </trkpt>
      <trkpt lat="47.25872" lon="-2.34165">
        <ele>6.8000001907349</ele>
        <time>2019-06-02T10:00:51.000Z</time>
      </trkpt>
      <trkpt lat="47.25871" lon="-2.34165">
        <ele>6.8000001907349</ele>
        <time>2019-06-02T10:00:52.000Z</time>
      </trkpt>
      <trkpt lat="47.25867" lon="-2.34162">
        <ele>6.8000001907349</ele>
        <time>2019-06-02T10:00:54.000Z</time>
      </trkpt>
      <trkpt lat="47.25858" lon="-2.34159">
        <ele>6.8000001907349</ele>
        <time>2019-06-02T10:00:59.000Z</time>
      </trkpt>
      <trkpt lat="47.25849" lon="-2.34159">
        <ele>6.8000001907349</ele>
        <time>2019-06-02T10:01:05.000Z</time>
      </trkpt>
      <trkpt lat="47.25839" lon="-2.34157">
        <ele>6.8000001907349</ele>
        <time>2019-06-02T10:01:09.000Z</time>
      </trkpt>
      <trkpt lat="47.25837" lon="-2.34159">
        <ele>6.8000001907349</ele>
        <time>2019-06-02T10:01:10.000Z</time>
      </trkpt>
      <trkpt lat="47.25835" lon="-2.34168">
        <ele>6.8000001907349</ele>
        <time>2019-06-02T10:01:12.000Z</time>
      </trkpt>
      <trkpt lat="47.25824" lon="-2.34179">
        <ele>6.8000001907349</ele>
        <time>2019-06-02T10:01:16.000Z</time>
      </trkpt>
      <trkpt lat="47.2582" lon="-2.3418">
        <ele>6.8000001907349</ele>
        <time>2019-06-02T10:01:17.000Z</time>
      </trkpt>
      <trkpt lat="47.25815" lon="-2.34179">
        <ele>6.8000001907349</ele>
        <time>2019-06-02T10:01:18.000Z</time>
      </trkpt>
      <trkpt lat="47.25806" lon="-2.34177">
        <ele>6.8000001907349</ele>
        <time>2019-06-02T10:01:20.000Z</time>
      </trkpt>
      <trkpt lat="47.25791" lon="-2.34175">
        <ele>6.8000001907349</ele>
        <time>2019-06-02T10:01:23.000Z</time>
      </trkpt>
      <trkpt lat="47.25774" lon="-2.34179">
        <ele>6.8000001907349</ele>
        <time>2019-06-02T10:01:26.000Z</time>
      </trkpt>
      <trkpt lat="47.25736" lon="-2.34188">
        <ele>6.8000001907349</ele>
        <time>2019-06-02T10:01:32.000Z</time>
      </trkpt>
      <trkpt lat="47.25724" lon="-2.34189">
        <ele>6.8000001907349</ele>
        <time>2019-06-02T10:01:34.000Z</time>
      </trkpt>
      <trkpt lat="47.25701" lon="-2.34193">
        <ele>7.1999998092651</ele>
        <time>2019-06-02T10:01:38.000Z</time>
      </trkpt>
      <trkpt lat="47.25696" lon="-2.34194">
        <ele>7.8000001907349</ele>
        <time>2019-06-02T10:01:39.000Z</time>
      </trkpt>
      <trkpt lat="47.25691" lon="-2.34194">
        <ele>8.1999998092651</ele>
        <time>2019-06-02T10:01:40.000Z</time>
      </trkpt>
      <trkpt lat="47.25686" lon="-2.34194">
        <ele>8.6000003814697</ele>
        <time>2019-06-02T10:01:41.000Z</time>
      </trkpt>
      <trkpt lat="47.25681" lon="-2.34195">
        <ele>9</ele>
        <time>2019-06-02T10:01:42.000Z</time>
      </trkpt>
      <trkpt lat="47.25677" lon="-2.34192">
        <ele>9</ele>
        <time>2019-06-02T10:01:43.000Z</time>
      </trkpt>
      <trkpt lat="47.25663" lon="-2.34177">
        <ele>9</ele>
        <time>2019-06-02T10:01:46.000Z</time>
      </trkpt>
      <trkpt lat="47.25656" lon="-2.34163">
        <ele>9</ele>
        <time>2019-06-02T10:01:48.000Z</time>
      </trkpt>
      <trkpt lat="47.25653" lon="-2.34155">
        <ele>9</ele>
        <time>2019-06-02T10:01:49.000Z</time>
      </trkpt>
      <trkpt lat="47.25647" lon="-2.34138">
        <ele>9</ele>
        <time>2019-06-02T10:01:51.000Z</time>
      </trkpt>
      <trkpt lat="47.25641" lon="-2.34102">
        <ele>9</ele>
        <time>2019-06-02T10:01:55.000Z</time>
      </trkpt>
      <trkpt lat="47.2564" lon="-2.34093">
        <ele>9</ele>
        <time>2019-06-02T10:01:56.000Z</time>
      </trkpt>
      <trkpt lat="47.2564" lon="-2.34084">
        <ele>9</ele>
        <time>2019-06-02T10:01:57.000Z</time>
      </trkpt>
      <trkpt lat="47.25644" lon="-2.34056">
        <ele>9</ele>
        <time>2019-06-02T10:02:00.000Z</time>
      </trkpt>
      <trkpt lat="47.25649" lon="-2.3402">
        <ele>9</ele>
        <time>2019-06-02T10:02:04.000Z</time>
      </trkpt>
      <trkpt lat="47.25652" lon="-2.34002">
        <ele>9</ele>
        <time>2019-06-02T10:02:06.000Z</time>
      </trkpt>
      <trkpt lat="47.25659" lon="-2.33966">
        <ele>9</ele>
        <time>2019-06-02T10:02:10.000Z</time>
      </trkpt>
      <trkpt lat="47.2566" lon="-2.33957">
        <ele>9</ele>
        <time>2019-06-02T10:02:11.000Z</time>
      </trkpt>
      <trkpt lat="47.25661" lon="-2.33947">
        <ele>9</ele>
        <time>2019-06-02T10:02:12.000Z</time>
      </trkpt>
      <trkpt lat="47.25657" lon="-2.33929">
        <ele>9</ele>
        <time>2019-06-02T10:02:14.000Z</time>
      </trkpt>
      <trkpt lat="47.25649" lon="-2.33882">
        <ele>9</ele>
        <time>2019-06-02T10:02:19.000Z</time>
      </trkpt>
      <trkpt lat="47.2564" lon="-2.33838">
        <ele>9</ele>
        <time>2019-06-02T10:02:24.000Z</time>
      </trkpt>
      <trkpt lat="47.25638" lon="-2.33829">
        <ele>9</ele>
        <time>2019-06-02T10:02:25.000Z</time>
      </trkpt>
      <trkpt lat="47.25632" lon="-2.33786">
        <ele>9</ele>
        <time>2019-06-02T10:02:30.000Z</time>
      </trkpt>
      <trkpt lat="47.2563" lon="-2.33778">
        <ele>9</ele>
        <time>2019-06-02T10:02:31.000Z</time>
      </trkpt>
      <trkpt lat="47.25627" lon="-2.33772">
        <ele>9</ele>
        <time>2019-06-02T10:02:32.000Z</time>
      </trkpt>
      <trkpt lat="47.2562" lon="-2.33765">
        <ele>9</ele>
        <time>2019-06-02T10:02:34.000Z</time>
      </trkpt>
      <trkpt lat="47.256" lon="-2.3376">
        <ele>9</ele>
        <time>2019-06-02T10:02:37.000Z</time>
      </trkpt>
      <trkpt lat="47.25567" lon="-2.33761">
        <ele>9</ele>
        <time>2019-06-02T10:02:42.000Z</time>
      </trkpt>
      <trkpt lat="47.25518" lon="-2.33761">
        <ele>9</ele>
        <time>2019-06-02T10:02:49.000Z</time>
      </trkpt>
      <trkpt lat="47.25475" lon="-2.33755">
        <ele>9</ele>
        <time>2019-06-02T10:02:55.000Z</time>
      </trkpt>
      <trkpt lat="47.25468" lon="-2.33752">
        <ele>9</ele>
        <time>2019-06-02T10:02:56.000Z</time>
      </trkpt>
      <trkpt lat="47.25457" lon="-2.33743">
        <ele>9</ele>
        <time>2019-06-02T10:02:58.000Z</time>
      </trkpt>
      <trkpt lat="47.25453" lon="-2.33736">
        <ele>9</ele>
        <time>2019-06-02T10:02:59.000Z</time>
      </trkpt>
      <trkpt lat="47.25453" lon="-2.3372">
        <ele>9</ele>
        <time>2019-06-02T10:03:01.000Z</time>
      </trkpt>
      <trkpt lat="47.25448" lon="-2.33688">
        <ele>9</ele>
        <time>2019-06-02T10:03:05.000Z</time>
      </trkpt>
      <trkpt lat="47.25447" lon="-2.33679">
        <ele>9</ele>
        <time>2019-06-02T10:03:06.000Z</time>
      </trkpt>
      <trkpt lat="47.25444" lon="-2.33653">
        <ele>9</ele>
        <time>2019-06-02T10:03:09.000Z</time>
      </trkpt>
      <trkpt lat="47.25441" lon="-2.33638">
        <ele>9</ele>
        <time>2019-06-02T10:03:11.000Z</time>
      </trkpt>
      <trkpt lat="47.25439" lon="-2.33625">
        <ele>9</ele>
        <time>2019-06-02T10:03:14.000Z</time>
      </trkpt>
      <trkpt lat="47.25439" lon="-2.33603">
        <ele>9</ele>
        <time>2019-06-02T10:03:18.000Z</time>
      </trkpt>
      <trkpt lat="47.25442" lon="-2.33584">
        <ele>9</ele>
        <time>2019-06-02T10:03:22.000Z</time>
      </trkpt>
      <trkpt lat="47.25453" lon="-2.33581">
        <ele>9</ele>
        <time>2019-06-02T10:03:25.000Z</time>
      </trkpt>
      <trkpt lat="47.25457" lon="-2.33569">
        <ele>9</ele>
        <time>2019-06-02T10:03:28.000Z</time>
      </trkpt>
      <trkpt lat="47.25453" lon="-2.33546">
        <ele>9</ele>
        <time>2019-06-02T10:03:32.000Z</time>
      </trkpt>
      <trkpt lat="47.25452" lon="-2.33539">
        <ele>9</ele>
        <time>2019-06-02T10:03:33.000Z</time>
      </trkpt>
      <trkpt lat="47.25444" lon="-2.33499">
        <ele>9</ele>
        <time>2019-06-02T10:03:39.000Z</time>
      </trkpt>
      <trkpt lat="47.25437" lon="-2.33478">
        <ele>9</ele>
        <time>2019-06-02T10:03:42.000Z</time>
      </trkpt>
      <trkpt lat="47.25433" lon="-2.3347">
        <ele>9</ele>
        <time>2019-06-02T10:03:44.000Z</time>
      </trkpt>
      <trkpt lat="47.25431" lon="-2.33445">
        <ele>9</ele>
        <time>2019-06-02T10:03:48.000Z</time>
      </trkpt>
      <trkpt lat="47.2543" lon="-2.33413">
        <ele>9</ele>
        <time>2019-06-02T10:03:52.000Z</time>
      </trkpt>
      <trkpt lat="47.2543" lon="-2.33397">
        <ele>9</ele>
        <time>2019-06-02T10:03:54.000Z</time>
      </trkpt>
      <trkpt lat="47.25431" lon="-2.33337">
        <ele>9</ele>
        <time>2019-06-02T10:04:01.000Z</time>
      </trkpt>
      <trkpt lat="47.2544" lon="-2.33317">
        <ele>9</ele>
        <time>2019-06-02T10:04:04.000Z</time>
      </trkpt>
      <trkpt lat="47.25449" lon="-2.33288">
        <ele>9</ele>
        <time>2019-06-02T10:04:08.000Z</time>
      </trkpt>
      <trkpt lat="47.25448" lon="-2.3328">
        <ele>9</ele>
        <time>2019-06-02T10:04:09.000Z</time>
      </trkpt>
      <trkpt lat="47.25436" lon="-2.33252">
        <ele>9</ele>
        <time>2019-06-02T10:04:13.000Z</time>
      </trkpt>
      <trkpt lat="47.25417" lon="-2.3321">
        <ele>9</ele>
        <time>2019-06-02T10:04:19.000Z</time>
      </trkpt>
      <trkpt lat="47.25412" lon="-2.33195">
        <ele>9</ele>
        <time>2019-06-02T10:04:21.000Z</time>
      </trkpt>
      <trkpt lat="47.25404" lon="-2.33176">
        <ele>9</ele>
        <time>2019-06-02T10:04:24.000Z</time>
      </trkpt>
      <trkpt lat="47.25398" lon="-2.33163">
        <ele>9</ele>
        <time>2019-06-02T10:04:26.000Z</time>
      </trkpt>
      <trkpt lat="47.25389" lon="-2.33148">
        <ele>9</ele>
        <time>2019-06-02T10:04:29.000Z</time>
      </trkpt>
      <trkpt lat="47.25379" lon="-2.33131">
        <ele>9</ele>
        <time>2019-06-02T10:04:34.000Z</time>
      </trkpt>
      <trkpt lat="47.25376" lon="-2.33121">
        <ele>9</ele>
        <time>2019-06-02T10:04:37.000Z</time>
      </trkpt>
      <trkpt lat="47.25371" lon="-2.33111">
        <ele>9</ele>
        <time>2019-06-02T10:04:41.000Z</time>
      </trkpt>
      <trkpt lat="47.2537" lon="-2.33111">
        <ele>9</ele>
        <time>2019-06-02T10:04:44.000Z</time>
      </trkpt>
      <trkpt lat="47.25369" lon="-2.33098">
        <ele>9</ele>
        <time>2019-06-02T10:15:34.000Z</time>
      </trkpt>
      <trkpt lat="47.25364" lon="-2.33083">
        <ele>9</ele>
        <time>2019-06-02T10:15:38.000Z</time>
      </trkpt>
      <trkpt lat="47.25348" lon="-2.33044">
        <ele>9</ele>
        <time>2019-06-02T10:15:45.000Z</time>
      </trkpt>
      <trkpt lat="47.25341" lon="-2.33026">
        <ele>9.3999996185303</ele>
        <time>2019-06-02T10:15:48.000Z</time>
      </trkpt>
      <trkpt lat="47.25339" lon="-2.33021">
        <ele>9.8000001907349</ele>
        <time>2019-06-02T10:15:49.000Z</time>
      </trkpt>
      <trkpt lat="47.25337" lon="-2.33015">
        <ele>10.199999809265</ele>
        <time>2019-06-02T10:15:50.000Z</time>
      </trkpt>
      <trkpt lat="47.25335" lon="-2.33009">
        <ele>10.800000190735</ele>
        <time>2019-06-02T10:15:51.000Z</time>
      </trkpt>
      <trkpt lat="47.25332" lon="-2.33004">
        <ele>11.199999809265</ele>
        <time>2019-06-02T10:15:52.000Z</time>
      </trkpt>
      <trkpt lat="47.2533" lon="-2.32997">
        <ele>11.199999809265</ele>
        <time>2019-06-02T10:15:53.000Z</time>
      </trkpt>
      <trkpt lat="47.25321" lon="-2.32973">
        <ele>11.199999809265</ele>
        <time>2019-06-02T10:15:57.000Z</time>
      </trkpt>
      <trkpt lat="47.25307" lon="-2.32936">
        <ele>11.199999809265</ele>
        <time>2019-06-02T10:16:03.000Z</time>
      </trkpt>
      <trkpt lat="47.2531" lon="-2.32917">
        <ele>11.199999809265</ele>
        <time>2019-06-02T10:16:06.000Z</time>
      </trkpt>
      <trkpt lat="47.25313" lon="-2.32912">
        <ele>11.199999809265</ele>
        <time>2019-06-02T10:16:07.000Z</time>
      </trkpt>
      <trkpt lat="47.25317" lon="-2.32907">
        <ele>11.199999809265</ele>
        <time>2019-06-02T10:16:08.000Z</time>
      </trkpt>
      <trkpt lat="47.2533" lon="-2.32896">
        <ele>11.199999809265</ele>
        <time>2019-06-02T10:16:11.000Z</time>
      </trkpt>
      <trkpt lat="47.25371" lon="-2.3286">
        <ele>11.199999809265</ele>
        <time>2019-06-02T10:16:20.000Z</time>
      </trkpt>
      <trkpt lat="47.25406" lon="-2.32819">
        <ele>11.199999809265</ele>
        <time>2019-06-02T10:16:28.000Z</time>
      </trkpt>
      <trkpt lat="47.25423" lon="-2.32791">
        <ele>11.199999809265</ele>
        <time>2019-06-02T10:16:33.000Z</time>
      </trkpt>
      <trkpt lat="47.25428" lon="-2.32773">
        <ele>11.60000038147</ele>
        <time>2019-06-02T10:16:36.000Z</time>
      </trkpt>
      <trkpt lat="47.25432" lon="-2.32768">
        <ele>12</ele>
        <time>2019-06-02T10:16:37.000Z</time>
      </trkpt>
      <trkpt lat="47.25435" lon="-2.32764">
        <ele>12.39999961853</ele>
        <time>2019-06-02T10:16:38.000Z</time>
      </trkpt>
      <trkpt lat="47.25439" lon="-2.3276">
        <ele>13</ele>
        <time>2019-06-02T10:16:39.000Z</time>
      </trkpt>
      <trkpt lat="47.25442" lon="-2.32756">
        <ele>13.39999961853</ele>
        <time>2019-06-02T10:16:40.000Z</time>
      </trkpt>
      <trkpt lat="47.25446" lon="-2.32751">
        <ele>13.39999961853</ele>
        <time>2019-06-02T10:16:41.000Z</time>
      </trkpt>
      <trkpt lat="47.25452" lon="-2.3274">
        <ele>13.39999961853</ele>
        <time>2019-06-02T10:16:43.000Z</time>
      </trkpt>
      <trkpt lat="47.2546" lon="-2.3273">
        <ele>13.39999961853</ele>
        <time>2019-06-02T10:16:45.000Z</time>
      </trkpt>
      <trkpt lat="47.25476" lon="-2.32709">
        <ele>13.39999961853</ele>
        <time>2019-06-02T10:16:49.000Z</time>
      </trkpt>
      <trkpt lat="47.25483" lon="-2.32698">
        <ele>13.39999961853</ele>
        <time>2019-06-02T10:16:51.000Z</time>
      </trkpt>
      <trkpt lat="47.25487" lon="-2.32684">
        <ele>13.39999961853</ele>
        <time>2019-06-02T10:16:53.000Z</time>
      </trkpt>
      <trkpt lat="47.25487" lon="-2.32652">
        <ele>13.39999961853</ele>
        <time>2019-06-02T10:16:57.000Z</time>
      </trkpt>
      <trkpt lat="47.25486" lon="-2.32644">
        <ele>13.39999961853</ele>
        <time>2019-06-02T10:16:58.000Z</time>
      </trkpt>
      <trkpt lat="47.25476" lon="-2.3259">
        <ele>13.39999961853</ele>
        <time>2019-06-02T10:17:05.000Z</time>
      </trkpt>
      <trkpt lat="47.25476" lon="-2.32582">
        <ele>13.39999961853</ele>
        <time>2019-06-02T10:17:06.000Z</time>
      </trkpt>
      <trkpt lat="47.25479" lon="-2.32562">
        <ele>13.39999961853</ele>
        <time>2019-06-02T10:17:09.000Z</time>
      </trkpt>
      <trkpt lat="47.25483" lon="-2.32557">
        <ele>13.800000190735</ele>
        <time>2019-06-02T10:17:10.000Z</time>
      </trkpt>
      <trkpt lat="47.25487" lon="-2.32552">
        <ele>14.199999809265</ele>
        <time>2019-06-02T10:17:11.000Z</time>
      </trkpt>
      <trkpt lat="47.25493" lon="-2.32548">
        <ele>14.60000038147</ele>
        <time>2019-06-02T10:17:12.000Z</time>
      </trkpt>
      <trkpt lat="47.25498" lon="-2.32543">
        <ele>15</ele>
        <time>2019-06-02T10:17:13.000Z</time>
      </trkpt>
      <trkpt lat="47.25503" lon="-2.32538">
        <ele>15.39999961853</ele>
        <time>2019-06-02T10:17:14.000Z</time>
      </trkpt>
      <trkpt lat="47.25531" lon="-2.32511">
        <ele>15.39999961853</ele>
        <time>2019-06-02T10:17:19.000Z</time>
      </trkpt>
      <trkpt lat="47.25563" lon="-2.32481">
        <ele>15</ele>
        <time>2019-06-02T10:17:24.000Z</time>
      </trkpt>
      <trkpt lat="47.25569" lon="-2.32475">
        <ele>14.60000038147</ele>
        <time>2019-06-02T10:17:25.000Z</time>
      </trkpt>
      <trkpt lat="47.25576" lon="-2.32468">
        <ele>14.199999809265</ele>
        <time>2019-06-02T10:17:26.000Z</time>
      </trkpt>
      <trkpt lat="47.25583" lon="-2.32461">
        <ele>13.800000190735</ele>
        <time>2019-06-02T10:17:27.000Z</time>
      </trkpt>
      <trkpt lat="47.25589" lon="-2.32454">
        <ele>13.39999961853</ele>
        <time>2019-06-02T10:17:28.000Z</time>
      </trkpt>
      <trkpt lat="47.25603" lon="-2.32441">
        <ele>13</ele>
        <time>2019-06-02T10:17:30.000Z</time>
      </trkpt>
      <trkpt lat="47.2561" lon="-2.32434">
        <ele>12.60000038147</ele>
        <time>2019-06-02T10:17:31.000Z</time>
      </trkpt>
      <trkpt lat="47.25617" lon="-2.32426">
        <ele>12.199999809265</ele>
        <time>2019-06-02T10:17:32.000Z</time>
      </trkpt>
      <trkpt lat="47.25624" lon="-2.32419">
        <ele>11.800000190735</ele>
        <time>2019-06-02T10:17:33.000Z</time>
      </trkpt>
      <trkpt lat="47.25631" lon="-2.32412">
        <ele>11.39999961853</ele>
        <time>2019-06-02T10:17:34.000Z</time>
      </trkpt>
      <trkpt lat="47.25645" lon="-2.32403">
        <ele>11.39999961853</ele>
        <time>2019-06-02T10:17:36.000Z</time>
      </trkpt>
      <trkpt lat="47.25661" lon="-2.32404">
        <ele>11.39999961853</ele>
        <time>2019-06-02T10:17:39.000Z</time>
      </trkpt>
      <trkpt lat="47.25676" lon="-2.32416">
        <ele>10.800000190735</ele>
        <time>2019-06-02T10:17:42.000Z</time>
      </trkpt>
      <trkpt lat="47.25682" lon="-2.32419">
        <ele>10.39999961853</ele>
        <time>2019-06-02T10:17:43.000Z</time>
      </trkpt>
      <trkpt lat="47.25687" lon="-2.3242">
        <ele>10</ele>
        <time>2019-06-02T10:17:44.000Z</time>
      </trkpt>
      <trkpt lat="47.25694" lon="-2.32421">
        <ele>9.3999996185303</ele>
        <time>2019-06-02T10:17:45.000Z</time>
      </trkpt>
      <trkpt lat="47.257" lon="-2.32421">
        <ele>9</ele>
        <time>2019-06-02T10:17:46.000Z</time>
      </trkpt>
      <trkpt lat="47.25739" lon="-2.32423">
        <ele>9</ele>
        <time>2019-06-02T10:17:52.000Z</time>
      </trkpt>
      <trkpt lat="47.25755" lon="-2.32421">
        <ele>9</ele>
        <time>2019-06-02T10:17:55.000Z</time>
      </trkpt>
      <trkpt lat="47.25761" lon="-2.32419">
        <ele>9</ele>
        <time>2019-06-02T10:17:56.000Z</time>
      </trkpt>
      <trkpt lat="47.2577" lon="-2.32414">
        <ele>9</ele>
        <time>2019-06-02T10:17:58.000Z</time>
      </trkpt>
      <trkpt lat="47.2578" lon="-2.32415">
        <ele>9</ele>
        <time>2019-06-02T10:18:00.000Z</time>
      </trkpt>
      <trkpt lat="47.25792" lon="-2.32432">
        <ele>9</ele>
        <time>2019-06-02T10:18:03.000Z</time>
      </trkpt>
      <trkpt lat="47.25796" lon="-2.32439">
        <ele>9</ele>
        <time>2019-06-02T10:18:04.000Z</time>
      </trkpt>
      <trkpt lat="47.25799" lon="-2.32446">
        <ele>9</ele>
        <time>2019-06-02T10:18:05.000Z</time>
      </trkpt>
      <trkpt lat="47.2581" lon="-2.32455">
        <ele>9</ele>
        <time>2019-06-02T10:18:07.000Z</time>
      </trkpt>
      <trkpt lat="47.25822" lon="-2.32462">
        <ele>9</ele>
        <time>2019-06-02T10:18:09.000Z</time>
      </trkpt>
      <trkpt lat="47.25839" lon="-2.3247">
        <ele>9</ele>
        <time>2019-06-02T10:18:12.000Z</time>
      </trkpt>
      <trkpt lat="47.25845" lon="-2.32472">
        <ele>9</ele>
        <time>2019-06-02T10:18:13.000Z</time>
      </trkpt>
      <trkpt lat="47.25863" lon="-2.32472">
        <ele>9</ele>
        <time>2019-06-02T10:18:16.000Z</time>
      </trkpt>
      <trkpt lat="47.25875" lon="-2.32471">
        <ele>9</ele>
        <time>2019-06-02T10:18:18.000Z</time>
      </trkpt>
      <trkpt lat="47.25892" lon="-2.32465">
        <ele>9</ele>
        <time>2019-06-02T10:18:21.000Z</time>
      </trkpt>
      <trkpt lat="47.25901" lon="-2.32454">
        <ele>9</ele>
        <time>2019-06-02T10:18:23.000Z</time>
      </trkpt>
      <trkpt lat="47.25926" lon="-2.32425">
        <ele>9</ele>
        <time>2019-06-02T10:18:28.000Z</time>
      </trkpt>
      <trkpt lat="47.25944" lon="-2.32401">
        <ele>9</ele>
        <time>2019-06-02T10:18:32.000Z</time>
      </trkpt>
      <trkpt lat="47.25953" lon="-2.32389">
        <ele>9</ele>
        <time>2019-06-02T10:18:34.000Z</time>
      </trkpt>
      <trkpt lat="47.25971" lon="-2.32364">
        <ele>8.6000003814697</ele>
        <time>2019-06-02T10:18:38.000Z</time>
      </trkpt>
      <trkpt lat="47.25976" lon="-2.32358">
        <ele>8.1999998092651</ele>
        <time>2019-06-02T10:18:39.000Z</time>
      </trkpt>
      <trkpt lat="47.2598" lon="-2.32353">
        <ele>7.8000001907349</ele>
        <time>2019-06-02T10:18:40.000Z</time>
      </trkpt>
      <trkpt lat="47.25985" lon="-2.32347">
        <ele>7.4000000953674</ele>
        <time>2019-06-02T10:18:41.000Z</time>
      </trkpt>
      <trkpt lat="47.2599" lon="-2.32341">
        <ele>7</ele>
        <time>2019-06-02T10:18:42.000Z</time>
      </trkpt>
      <trkpt lat="47.26009" lon="-2.32318">
        <ele>7</ele>
        <time>2019-06-02T10:18:46.000Z</time>
      </trkpt>
      <trkpt lat="47.26046" lon="-2.32274">
        <ele>7</ele>
        <time>2019-06-02T10:18:54.000Z</time>
      </trkpt>
      <trkpt lat="47.26074" lon="-2.32243">
        <ele>7</ele>
        <time>2019-06-02T10:19:00.000Z</time>
      </trkpt>
      <trkpt lat="47.26096" lon="-2.32213">
        <ele>7</ele>
        <time>2019-06-02T10:19:05.000Z</time>
      </trkpt>
      <trkpt lat="47.261" lon="-2.32206">
        <ele>7</ele>
        <time>2019-06-02T10:19:06.000Z</time>
      </trkpt>
      <trkpt lat="47.26107" lon="-2.32192">
        <ele>7</ele>
        <time>2019-06-02T10:19:08.000Z</time>
      </trkpt>
      <trkpt lat="47.26114" lon="-2.32174">
        <ele>7</ele>
        <time>2019-06-02T10:19:11.000Z</time>
      </trkpt>
      <trkpt lat="47.2612" lon="-2.32155">
        <ele>7</ele>
        <time>2019-06-02T10:19:15.000Z</time>
      </trkpt>
      <trkpt lat="47.26127" lon="-2.32138">
        <ele>7</ele>
        <time>2019-06-02T10:19:19.000Z</time>
      </trkpt>
      <trkpt lat="47.26129" lon="-2.32129">
        <ele>7</ele>
        <time>2019-06-02T10:19:21.000Z</time>
      </trkpt>
      <trkpt lat="47.26131" lon="-2.3212">
        <ele>7</ele>
        <time>2019-06-02T10:19:25.000Z</time>
      </trkpt>
      <trkpt lat="47.26131" lon="-2.32116">
        <ele>7</ele>
        <time>2019-06-02T10:20:03.000Z</time>
      </trkpt>
      <trkpt lat="47.26133" lon="-2.32109">
        <ele>7</ele>
        <time>2019-06-02T10:20:05.000Z</time>
      </trkpt>
      <trkpt lat="47.26135" lon="-2.32097">
        <ele>7</ele>
        <time>2019-06-02T10:20:08.000Z</time>
      </trkpt>
      <trkpt lat="47.26138" lon="-2.3209">
        <ele>7</ele>
        <time>2019-06-02T10:20:10.000Z</time>
      </trkpt>
      <trkpt lat="47.26143" lon="-2.3207">
        <ele>7</ele>
        <time>2019-06-02T10:20:15.000Z</time>
      </trkpt>
      <trkpt lat="47.26152" lon="-2.3204">
        <ele>7</ele>
        <time>2019-06-02T10:20:21.000Z</time>
      </trkpt>
      <trkpt lat="47.26159" lon="-2.32021">
        <ele>7</ele>
        <time>2019-06-02T10:20:26.000Z</time>
      </trkpt>
      <trkpt lat="47.26167" lon="-2.32016">
        <ele>7</ele>
        <time>2019-06-02T10:20:30.000Z</time>
      </trkpt>
      <trkpt lat="47.26169" lon="-2.32017">
        <ele>7</ele>
        <time>2019-06-02T10:20:31.000Z</time>
      </trkpt>
      <trkpt lat="47.26172" lon="-2.3202">
        <ele>7</ele>
        <time>2019-06-02T10:20:34.000Z</time>
      </trkpt>
      <trkpt lat="47.26175" lon="-2.32021">
        <ele>7</ele>
        <time>2019-06-02T10:20:36.000Z</time>
      </trkpt>
      <trkpt lat="47.26177" lon="-2.32021">
        <ele>7</ele>
        <time>2019-06-02T10:20:37.000Z</time>
      </trkpt>
      <trkpt lat="47.26191" lon="-2.3202">
        <ele>7</ele>
        <time>2019-06-02T10:20:43.000Z</time>
      </trkpt>
      <trkpt lat="47.26194" lon="-2.32016">
        <ele>7</ele>
        <time>2019-06-02T10:20:45.000Z</time>
      </trkpt>
      <trkpt lat="47.26195" lon="-2.32009">
        <ele>7</ele>
        <time>2019-06-02T10:20:47.000Z</time>
      </trkpt>
      <trkpt lat="47.26201" lon="-2.31995">
        <ele>7</ele>
        <time>2019-06-02T10:20:51.000Z</time>
      </trkpt>
      <trkpt lat="47.2621" lon="-2.3198">
        <ele>7</ele>
        <time>2019-06-02T10:20:56.000Z</time>
      </trkpt>
      <trkpt lat="47.26218" lon="-2.31973">
        <ele>7</ele>
        <time>2019-06-02T10:20:59.000Z</time>
      </trkpt>
      <trkpt lat="47.26232" lon="-2.31959">
        <ele>7</ele>
        <time>2019-06-02T10:21:03.000Z</time>
      </trkpt>
      <trkpt lat="47.26244" lon="-2.3194">
        <ele>7</ele>
        <time>2019-06-02T10:21:07.000Z</time>
      </trkpt>
      <trkpt lat="47.26251" lon="-2.3193">
        <ele>7</ele>
        <time>2019-06-02T10:21:09.000Z</time>
      </trkpt>
      <trkpt lat="47.26259" lon="-2.31918">
        <ele>7</ele>
        <time>2019-06-02T10:21:12.000Z</time>
      </trkpt>
      <trkpt lat="47.26278" lon="-2.31901">
        <ele>7</ele>
        <time>2019-06-02T10:21:17.000Z</time>
      </trkpt>
      <trkpt lat="47.26287" lon="-2.31894">
        <ele>7</ele>
        <time>2019-06-02T10:21:19.000Z</time>
      </trkpt>
      <trkpt lat="47.26292" lon="-2.31882">
        <ele>7</ele>
        <time>2019-06-02T10:21:21.000Z</time>
      </trkpt>
      <trkpt lat="47.26294" lon="-2.31862">
        <ele>7</ele>
        <time>2019-06-02T10:21:24.000Z</time>
      </trkpt>
      <trkpt lat="47.26294" lon="-2.31856">
        <ele>7</ele>
        <time>2019-06-02T10:21:25.000Z</time>
      </trkpt>
      <trkpt lat="47.26297" lon="-2.31815">
        <ele>7</ele>
        <time>2019-06-02T10:21:31.000Z</time>
      </trkpt>
      <trkpt lat="47.26297" lon="-2.31787">
        <ele>7</ele>
        <time>2019-06-02T10:21:35.000Z</time>
      </trkpt>
      <trkpt lat="47.26296" lon="-2.31765">
        <ele>7</ele>
        <time>2019-06-02T10:21:38.000Z</time>
      </trkpt>
      <trkpt lat="47.26295" lon="-2.31742">
        <ele>7</ele>
        <time>2019-06-02T10:21:41.000Z</time>
      </trkpt>
      <trkpt lat="47.26295" lon="-2.31734">
        <ele>7</ele>
        <time>2019-06-02T10:21:42.000Z</time>
      </trkpt>
      <trkpt lat="47.26301" lon="-2.3172">
        <ele>7</ele>
        <time>2019-06-02T10:21:44.000Z</time>
      </trkpt>
      <trkpt lat="47.26308" lon="-2.31714">
        <ele>7</ele>
        <time>2019-06-02T10:21:46.000Z</time>
      </trkpt>
      <trkpt lat="47.26314" lon="-2.31711">
        <ele>7</ele>
        <time>2019-06-02T10:21:47.000Z</time>
      </trkpt>
      <trkpt lat="47.26328" lon="-2.31703">
        <ele>7</ele>
        <time>2019-06-02T10:21:50.000Z</time>
      </trkpt>
      <trkpt lat="47.26329" lon="-2.31698">
        <ele>7</ele>
        <time>2019-06-02T10:21:51.000Z</time>
      </trkpt>
      <trkpt lat="47.26335" lon="-2.31689">
        <ele>7.4000000953674</ele>
        <time>2019-06-02T10:21:53.000Z</time>
      </trkpt>
      <trkpt lat="47.26338" lon="-2.31687">
        <ele>7.8000001907349</ele>
        <time>2019-06-02T10:21:54.000Z</time>
      </trkpt>
      <trkpt lat="47.26342" lon="-2.31686">
        <ele>8.1999998092651</ele>
        <time>2019-06-02T10:21:55.000Z</time>
      </trkpt>
      <trkpt lat="47.26345" lon="-2.31685">
        <ele>8.6000003814697</ele>
        <time>2019-06-02T10:21:56.000Z</time>
      </trkpt>
      <trkpt lat="47.26348" lon="-2.31683">
        <ele>9</ele>
        <time>2019-06-02T10:21:57.000Z</time>
      </trkpt>
      <trkpt lat="47.26355" lon="-2.3168">
        <ele>9</ele>
        <time>2019-06-02T10:21:59.000Z</time>
      </trkpt>
      <trkpt lat="47.26362" lon="-2.31676">
        <ele>9</ele>
        <time>2019-06-02T10:22:01.000Z</time>
      </trkpt>
      <trkpt lat="47.2637" lon="-2.31673">
        <ele>9.6000003814697</ele>
        <time>2019-06-02T10:22:03.000Z</time>
      </trkpt>
      <trkpt lat="47.26374" lon="-2.31671">
        <ele>10</ele>
        <time>2019-06-02T10:22:04.000Z</time>
      </trkpt>
      <trkpt lat="47.26378" lon="-2.31669">
        <ele>10.39999961853</ele>
        <time>2019-06-02T10:22:05.000Z</time>
      </trkpt>
      <trkpt lat="47.26382" lon="-2.31666">
        <ele>11</ele>
        <time>2019-06-02T10:22:06.000Z</time>
      </trkpt>
      <trkpt lat="47.26386" lon="-2.31664">
        <ele>11.39999961853</ele>
        <time>2019-06-02T10:22:07.000Z</time>
      </trkpt>
      <trkpt lat="47.26408" lon="-2.31652">
        <ele>11.39999961853</ele>
        <time>2019-06-02T10:22:13.000Z</time>
      </trkpt>
      <trkpt lat="47.2641" lon="-2.31647">
        <ele>11.39999961853</ele>
        <time>2019-06-02T10:22:14.000Z</time>
      </trkpt>
      <trkpt lat="47.26411" lon="-2.31636">
        <ele>11.39999961853</ele>
        <time>2019-06-02T10:22:16.000Z</time>
      </trkpt>
      <trkpt lat="47.26412" lon="-2.31599">
        <ele>11.39999961853</ele>
        <time>2019-06-02T10:22:22.000Z</time>
      </trkpt>
      <trkpt lat="47.26412" lon="-2.31571">
        <ele>11.39999961853</ele>
        <time>2019-06-02T10:22:27.000Z</time>
      </trkpt>
      <trkpt lat="47.26413" lon="-2.31558">
        <ele>11.39999961853</ele>
        <time>2019-06-02T10:22:30.000Z</time>
      </trkpt>
      <trkpt lat="47.26415" lon="-2.31557">
        <ele>11.39999961853</ele>
        <time>2019-06-02T10:22:31.000Z</time>
      </trkpt>
      <trkpt lat="47.26419" lon="-2.31556">
        <ele>11.39999961853</ele>
        <time>2019-06-02T10:22:34.000Z</time>
      </trkpt>
    </trkseg>
  </trk>
</gpx>